<?xml version="1.0" encoding="UTF-8" standalone="no" ?>
<gpx xmlns="http://www.topografix.com/GPX/1/1" xmlns:xsi="http://www.w3.org/2001/XMLSchema-instance" xsi:schemaLocation="http://www.topografix.com/GPX/1/1 http://www.topografix.com/GPX/1/1/gpx.xsd" version="1.1" creator="VisuGPX - https://www.visugpx.com">
  <metadata>
    <name>VTT Saint-Martin la Plaine jeudi 17-06-2010</name>
    <desc><![CDATA[VTT Saint-Martin la Plaine jeudi 17-06-2010]]></desc>
  </metadata>
  <trk>
    <name><![CDATA[2010-06-17-01]]></name>
    <trkseg>
      <trkpt lat="45.54941" lon="4.58473">
        <ele>432</ele>
        <time>2010-06-17T07:16:03Z</time>
      </trkpt>
      <trkpt lat="45.54941" lon="4.58473">
        <ele>432</ele>
        <time>2010-06-17T07:16:04Z</time>
      </trkpt>
      <trkpt lat="45.54945" lon="4.58485">
        <ele>432</ele>
        <time>2010-06-17T07:17:52Z</time>
      </trkpt>
      <trkpt lat="45.54942" lon="4.58465">
        <ele>433</ele>
        <time>2010-06-17T07:18:03Z</time>
      </trkpt>
      <trkpt lat="45.54944" lon="4.58453">
        <ele>433</ele>
        <time>2010-06-17T07:18:07Z</time>
      </trkpt>
      <trkpt lat="45.5495" lon="4.58445">
        <ele>433</ele>
        <time>2010-06-17T07:18:11Z</time>
      </trkpt>
      <trkpt lat="45.54949" lon="4.58434">
        <ele>433</ele>
        <time>2010-06-17T07:18:17Z</time>
      </trkpt>
      <trkpt lat="45.54941" lon="4.58427">
        <ele>433</ele>
        <time>2010-06-17T07:18:23Z</time>
      </trkpt>
      <trkpt lat="45.54934" lon="4.58422">
        <ele>432</ele>
        <time>2010-06-17T07:18:29Z</time>
      </trkpt>
      <trkpt lat="45.54926" lon="4.58423">
        <ele>431</ele>
        <time>2010-06-17T07:18:35Z</time>
      </trkpt>
      <trkpt lat="45.54918" lon="4.58425">
        <ele>430</ele>
        <time>2010-06-17T07:18:39Z</time>
      </trkpt>
      <trkpt lat="45.5491" lon="4.58429">
        <ele>428</ele>
        <time>2010-06-17T07:18:44Z</time>
      </trkpt>
      <trkpt lat="45.54902" lon="4.5843">
        <ele>427</ele>
        <time>2010-06-17T07:18:50Z</time>
      </trkpt>
      <trkpt lat="45.54894" lon="4.5843">
        <ele>427</ele>
        <time>2010-06-17T07:18:56Z</time>
      </trkpt>
      <trkpt lat="45.54893" lon="4.58429">
        <ele>427</ele>
        <time>2010-06-17T07:18:57Z</time>
      </trkpt>
      <trkpt lat="45.54878" lon="4.58421">
        <ele>426</ele>
        <time>2010-06-17T07:19:08Z</time>
      </trkpt>
      <trkpt lat="45.54871" lon="4.58414">
        <ele>430</ele>
        <time>2010-06-17T07:19:14Z</time>
      </trkpt>
      <trkpt lat="45.54863" lon="4.58408">
        <ele>429</ele>
        <time>2010-06-17T07:19:20Z</time>
      </trkpt>
      <trkpt lat="45.54857" lon="4.58398">
        <ele>430</ele>
        <time>2010-06-17T07:19:26Z</time>
      </trkpt>
      <trkpt lat="45.54851" lon="4.58391">
        <ele>430</ele>
        <time>2010-06-17T07:19:31Z</time>
      </trkpt>
      <trkpt lat="45.54845" lon="4.58383">
        <ele>431</ele>
        <time>2010-06-17T07:19:36Z</time>
      </trkpt>
      <trkpt lat="45.54839" lon="4.58376">
        <ele>431</ele>
        <time>2010-06-17T07:19:41Z</time>
      </trkpt>
      <trkpt lat="45.54832" lon="4.58368">
        <ele>431</ele>
        <time>2010-06-17T07:19:46Z</time>
      </trkpt>
      <trkpt lat="45.54825" lon="4.58361">
        <ele>432</ele>
        <time>2010-06-17T07:19:51Z</time>
      </trkpt>
      <trkpt lat="45.54817" lon="4.58355">
        <ele>432</ele>
        <time>2010-06-17T07:19:56Z</time>
      </trkpt>
      <trkpt lat="45.5481" lon="4.5835">
        <ele>433</ele>
        <time>2010-06-17T07:20:01Z</time>
      </trkpt>
      <trkpt lat="45.54808" lon="4.58349">
        <ele>433</ele>
        <time>2010-06-17T07:20:02Z</time>
      </trkpt>
      <trkpt lat="45.54793" lon="4.58343">
        <ele>433</ele>
        <time>2010-06-17T07:20:10Z</time>
      </trkpt>
      <trkpt lat="45.54785" lon="4.5834">
        <ele>433</ele>
        <time>2010-06-17T07:20:14Z</time>
      </trkpt>
      <trkpt lat="45.54777" lon="4.58339">
        <ele>433</ele>
        <time>2010-06-17T07:20:18Z</time>
      </trkpt>
      <trkpt lat="45.54769" lon="4.58337">
        <ele>434</ele>
        <time>2010-06-17T07:20:22Z</time>
      </trkpt>
      <trkpt lat="45.5476" lon="4.58335">
        <ele>435</ele>
        <time>2010-06-17T07:20:26Z</time>
      </trkpt>
      <trkpt lat="45.54752" lon="4.58334">
        <ele>437</ele>
        <time>2010-06-17T07:20:30Z</time>
      </trkpt>
      <trkpt lat="45.54743" lon="4.58332">
        <ele>439</ele>
        <time>2010-06-17T07:20:34Z</time>
      </trkpt>
      <trkpt lat="45.54737" lon="4.58332">
        <ele>440</ele>
        <time>2010-06-17T07:20:37Z</time>
      </trkpt>
      <trkpt lat="45.54728" lon="4.5833">
        <ele>441</ele>
        <time>2010-06-17T07:20:41Z</time>
      </trkpt>
      <trkpt lat="45.54721" lon="4.58329">
        <ele>441</ele>
        <time>2010-06-17T07:20:44Z</time>
      </trkpt>
      <trkpt lat="45.54714" lon="4.58327">
        <ele>441</ele>
        <time>2010-06-17T07:20:47Z</time>
      </trkpt>
      <trkpt lat="45.54707" lon="4.58326">
        <ele>441</ele>
        <time>2010-06-17T07:20:50Z</time>
      </trkpt>
      <trkpt lat="45.547" lon="4.58325">
        <ele>441</ele>
        <time>2010-06-17T07:20:53Z</time>
      </trkpt>
      <trkpt lat="45.54693" lon="4.58324">
        <ele>441</ele>
        <time>2010-06-17T07:20:56Z</time>
      </trkpt>
      <trkpt lat="45.54685" lon="4.58323">
        <ele>440</ele>
        <time>2010-06-17T07:21:00Z</time>
      </trkpt>
      <trkpt lat="45.54677" lon="4.58321">
        <ele>439</ele>
        <time>2010-06-17T07:21:04Z</time>
      </trkpt>
      <trkpt lat="45.54675" lon="4.58321">
        <ele>439</ele>
        <time>2010-06-17T07:21:05Z</time>
      </trkpt>
      <trkpt lat="45.54661" lon="4.58319">
        <ele>438</ele>
        <time>2010-06-17T07:21:11Z</time>
      </trkpt>
      <trkpt lat="45.54654" lon="4.58317">
        <ele>439</ele>
        <time>2010-06-17T07:21:14Z</time>
      </trkpt>
      <trkpt lat="45.54647" lon="4.58315">
        <ele>439</ele>
        <time>2010-06-17T07:21:17Z</time>
      </trkpt>
      <trkpt lat="45.5464" lon="4.58313">
        <ele>439</ele>
        <time>2010-06-17T07:21:20Z</time>
      </trkpt>
      <trkpt lat="45.54632" lon="4.58311">
        <ele>439</ele>
        <time>2010-06-17T07:21:23Z</time>
      </trkpt>
      <trkpt lat="45.54625" lon="4.58308">
        <ele>439</ele>
        <time>2010-06-17T07:21:26Z</time>
      </trkpt>
      <trkpt lat="45.54618" lon="4.58305">
        <ele>440</ele>
        <time>2010-06-17T07:21:29Z</time>
      </trkpt>
      <trkpt lat="45.54611" lon="4.58302">
        <ele>440</ele>
        <time>2010-06-17T07:21:32Z</time>
      </trkpt>
      <trkpt lat="45.54605" lon="4.58299">
        <ele>440</ele>
        <time>2010-06-17T07:21:35Z</time>
      </trkpt>
      <trkpt lat="45.54598" lon="4.58295">
        <ele>440</ele>
        <time>2010-06-17T07:21:38Z</time>
      </trkpt>
      <trkpt lat="45.54591" lon="4.58292">
        <ele>440</ele>
        <time>2010-06-17T07:21:41Z</time>
      </trkpt>
      <trkpt lat="45.54584" lon="4.58288">
        <ele>441</ele>
        <time>2010-06-17T07:21:44Z</time>
      </trkpt>
      <trkpt lat="45.54577" lon="4.58284">
        <ele>440</ele>
        <time>2010-06-17T07:21:47Z</time>
      </trkpt>
      <trkpt lat="45.5457" lon="4.58281">
        <ele>441</ele>
        <time>2010-06-17T07:21:50Z</time>
      </trkpt>
      <trkpt lat="45.54564" lon="4.58277">
        <ele>441</ele>
        <time>2010-06-17T07:21:53Z</time>
      </trkpt>
      <trkpt lat="45.54557" lon="4.58274">
        <ele>441</ele>
        <time>2010-06-17T07:21:56Z</time>
      </trkpt>
      <trkpt lat="45.54551" lon="4.5827">
        <ele>441</ele>
        <time>2010-06-17T07:21:59Z</time>
      </trkpt>
      <trkpt lat="45.54545" lon="4.58266">
        <ele>441</ele>
        <time>2010-06-17T07:22:02Z</time>
      </trkpt>
      <trkpt lat="45.54538" lon="4.58263">
        <ele>441</ele>
        <time>2010-06-17T07:22:05Z</time>
      </trkpt>
      <trkpt lat="45.54536" lon="4.58261">
        <ele>441</ele>
        <time>2010-06-17T07:22:06Z</time>
      </trkpt>
      <trkpt lat="45.54525" lon="4.58255">
        <ele>442</ele>
        <time>2010-06-17T07:22:11Z</time>
      </trkpt>
      <trkpt lat="45.54519" lon="4.58252">
        <ele>442</ele>
        <time>2010-06-17T07:22:14Z</time>
      </trkpt>
      <trkpt lat="45.54512" lon="4.58248">
        <ele>447</ele>
        <time>2010-06-17T07:22:17Z</time>
      </trkpt>
      <trkpt lat="45.54505" lon="4.58244">
        <ele>446</ele>
        <time>2010-06-17T07:22:20Z</time>
      </trkpt>
      <trkpt lat="45.54498" lon="4.5824">
        <ele>445</ele>
        <time>2010-06-17T07:22:23Z</time>
      </trkpt>
      <trkpt lat="45.54492" lon="4.58237">
        <ele>446</ele>
        <time>2010-06-17T07:22:26Z</time>
      </trkpt>
      <trkpt lat="45.54484" lon="4.5823">
        <ele>446</ele>
        <time>2010-06-17T07:22:30Z</time>
      </trkpt>
      <trkpt lat="45.54477" lon="4.58222">
        <ele>446</ele>
        <time>2010-06-17T07:22:34Z</time>
      </trkpt>
      <trkpt lat="45.54472" lon="4.58214">
        <ele>446</ele>
        <time>2010-06-17T07:22:38Z</time>
      </trkpt>
      <trkpt lat="45.54468" lon="4.58203">
        <ele>446</ele>
        <time>2010-06-17T07:22:42Z</time>
      </trkpt>
      <trkpt lat="45.54464" lon="4.58193">
        <ele>447</ele>
        <time>2010-06-17T07:22:46Z</time>
      </trkpt>
      <trkpt lat="45.54462" lon="4.58181">
        <ele>447</ele>
        <time>2010-06-17T07:22:50Z</time>
      </trkpt>
      <trkpt lat="45.54461" lon="4.58171">
        <ele>447</ele>
        <time>2010-06-17T07:22:53Z</time>
      </trkpt>
      <trkpt lat="45.54461" lon="4.58158">
        <ele>449</ele>
        <time>2010-06-17T07:22:57Z</time>
      </trkpt>
      <trkpt lat="45.54462" lon="4.58146">
        <ele>449</ele>
        <time>2010-06-17T07:23:01Z</time>
      </trkpt>
      <trkpt lat="45.54465" lon="4.58134">
        <ele>450</ele>
        <time>2010-06-17T07:23:05Z</time>
      </trkpt>
      <trkpt lat="45.54468" lon="4.58125">
        <ele>450</ele>
        <time>2010-06-17T07:23:08Z</time>
      </trkpt>
      <trkpt lat="45.54469" lon="4.58122">
        <ele>450</ele>
        <time>2010-06-17T07:23:09Z</time>
      </trkpt>
      <trkpt lat="45.54476" lon="4.58108">
        <ele>450</ele>
        <time>2010-06-17T07:23:14Z</time>
      </trkpt>
      <trkpt lat="45.5448" lon="4.58101">
        <ele>451</ele>
        <time>2010-06-17T07:23:17Z</time>
      </trkpt>
      <trkpt lat="45.54484" lon="4.58094">
        <ele>451</ele>
        <time>2010-06-17T07:23:20Z</time>
      </trkpt>
      <trkpt lat="45.54489" lon="4.58086">
        <ele>452</ele>
        <time>2010-06-17T07:23:23Z</time>
      </trkpt>
      <trkpt lat="45.54495" lon="4.58077">
        <ele>451</ele>
        <time>2010-06-17T07:23:27Z</time>
      </trkpt>
      <trkpt lat="45.545" lon="4.58068">
        <ele>454</ele>
        <time>2010-06-17T07:23:31Z</time>
      </trkpt>
      <trkpt lat="45.54505" lon="4.58059">
        <ele>454</ele>
        <time>2010-06-17T07:23:35Z</time>
      </trkpt>
      <trkpt lat="45.54511" lon="4.58049">
        <ele>454</ele>
        <time>2010-06-17T07:23:40Z</time>
      </trkpt>
      <trkpt lat="45.54515" lon="4.5804">
        <ele>454</ele>
        <time>2010-06-17T07:23:45Z</time>
      </trkpt>
      <trkpt lat="45.54519" lon="4.5803">
        <ele>454</ele>
        <time>2010-06-17T07:23:52Z</time>
      </trkpt>
      <trkpt lat="45.54522" lon="4.58019">
        <ele>454</ele>
        <time>2010-06-17T07:23:59Z</time>
      </trkpt>
      <trkpt lat="45.54524" lon="4.58008">
        <ele>453</ele>
        <time>2010-06-17T07:24:05Z</time>
      </trkpt>
      <trkpt lat="45.54526" lon="4.57997">
        <ele>453</ele>
        <time>2010-06-17T07:24:11Z</time>
      </trkpt>
      <trkpt lat="45.54526" lon="4.57995">
        <ele>453</ele>
        <time>2010-06-17T07:24:12Z</time>
      </trkpt>
      <trkpt lat="45.54526" lon="4.57974">
        <ele>453</ele>
        <time>2010-06-17T07:24:21Z</time>
      </trkpt>
      <trkpt lat="45.54526" lon="4.57962">
        <ele>453</ele>
        <time>2010-06-17T07:24:26Z</time>
      </trkpt>
      <trkpt lat="45.54525" lon="4.57951">
        <ele>452</ele>
        <time>2010-06-17T07:24:30Z</time>
      </trkpt>
      <trkpt lat="45.54525" lon="4.5794">
        <ele>452</ele>
        <time>2010-06-17T07:24:34Z</time>
      </trkpt>
      <trkpt lat="45.54525" lon="4.57929">
        <ele>451</ele>
        <time>2010-06-17T07:24:38Z</time>
      </trkpt>
      <trkpt lat="45.54525" lon="4.57918">
        <ele>451</ele>
        <time>2010-06-17T07:24:42Z</time>
      </trkpt>
      <trkpt lat="45.54527" lon="4.57907">
        <ele>449</ele>
        <time>2010-06-17T07:24:46Z</time>
      </trkpt>
      <trkpt lat="45.54529" lon="4.57895">
        <ele>449</ele>
        <time>2010-06-17T07:24:51Z</time>
      </trkpt>
      <trkpt lat="45.54532" lon="4.57885">
        <ele>449</ele>
        <time>2010-06-17T07:24:55Z</time>
      </trkpt>
      <trkpt lat="45.54537" lon="4.57877">
        <ele>449</ele>
        <time>2010-06-17T07:24:59Z</time>
      </trkpt>
      <trkpt lat="45.54542" lon="4.57868">
        <ele>449</ele>
        <time>2010-06-17T07:25:03Z</time>
      </trkpt>
      <trkpt lat="45.54548" lon="4.5786">
        <ele>450</ele>
        <time>2010-06-17T07:25:08Z</time>
      </trkpt>
      <trkpt lat="45.54556" lon="4.57853">
        <ele>450</ele>
        <time>2010-06-17T07:25:14Z</time>
      </trkpt>
      <trkpt lat="45.54557" lon="4.57852">
        <ele>450</ele>
        <time>2010-06-17T07:25:15Z</time>
      </trkpt>
      <trkpt lat="45.5457" lon="4.57842">
        <ele>451</ele>
        <time>2010-06-17T07:25:25Z</time>
      </trkpt>
      <trkpt lat="45.54578" lon="4.57835">
        <ele>451</ele>
        <time>2010-06-17T07:25:30Z</time>
      </trkpt>
      <trkpt lat="45.54585" lon="4.57829">
        <ele>452</ele>
        <time>2010-06-17T07:25:34Z</time>
      </trkpt>
      <trkpt lat="45.54592" lon="4.57823">
        <ele>452</ele>
        <time>2010-06-17T07:25:38Z</time>
      </trkpt>
      <trkpt lat="45.546" lon="4.57816">
        <ele>453</ele>
        <time>2010-06-17T07:25:42Z</time>
      </trkpt>
      <trkpt lat="45.54606" lon="4.57811">
        <ele>453</ele>
        <time>2010-06-17T07:25:45Z</time>
      </trkpt>
      <trkpt lat="45.54612" lon="4.57806">
        <ele>453</ele>
        <time>2010-06-17T07:25:48Z</time>
      </trkpt>
      <trkpt lat="45.54618" lon="4.578">
        <ele>453</ele>
        <time>2010-06-17T07:25:51Z</time>
      </trkpt>
      <trkpt lat="45.54625" lon="4.57794">
        <ele>453</ele>
        <time>2010-06-17T07:25:54Z</time>
      </trkpt>
      <trkpt lat="45.54631" lon="4.57788">
        <ele>453</ele>
        <time>2010-06-17T07:25:57Z</time>
      </trkpt>
      <trkpt lat="45.54638" lon="4.57783">
        <ele>453</ele>
        <time>2010-06-17T07:26:00Z</time>
      </trkpt>
      <trkpt lat="45.54645" lon="4.57777">
        <ele>454</ele>
        <time>2010-06-17T07:26:03Z</time>
      </trkpt>
      <trkpt lat="45.54652" lon="4.57772">
        <ele>454</ele>
        <time>2010-06-17T07:26:06Z</time>
      </trkpt>
      <trkpt lat="45.54659" lon="4.57767">
        <ele>454</ele>
        <time>2010-06-17T07:26:09Z</time>
      </trkpt>
      <trkpt lat="45.54666" lon="4.57761">
        <ele>454</ele>
        <time>2010-06-17T07:26:12Z</time>
      </trkpt>
      <trkpt lat="45.54674" lon="4.57755">
        <ele>457</ele>
        <time>2010-06-17T07:26:15Z</time>
      </trkpt>
      <trkpt lat="45.54677" lon="4.57753">
        <ele>457</ele>
        <time>2010-06-17T07:26:16Z</time>
      </trkpt>
      <trkpt lat="45.54686" lon="4.57746">
        <ele>455</ele>
        <time>2010-06-17T07:26:19Z</time>
      </trkpt>
      <trkpt lat="45.54692" lon="4.57741">
        <ele>455</ele>
        <time>2010-06-17T07:26:21Z</time>
      </trkpt>
      <trkpt lat="45.54698" lon="4.57737">
        <ele>455</ele>
        <time>2010-06-17T07:26:23Z</time>
      </trkpt>
      <trkpt lat="45.54705" lon="4.57732">
        <ele>455</ele>
        <time>2010-06-17T07:26:25Z</time>
      </trkpt>
      <trkpt lat="45.54711" lon="4.57727">
        <ele>456</ele>
        <time>2010-06-17T07:26:27Z</time>
      </trkpt>
      <trkpt lat="45.54717" lon="4.57723">
        <ele>456</ele>
        <time>2010-06-17T07:26:29Z</time>
      </trkpt>
      <trkpt lat="45.54723" lon="4.57719">
        <ele>456</ele>
        <time>2010-06-17T07:26:31Z</time>
      </trkpt>
      <trkpt lat="45.54729" lon="4.57715">
        <ele>456</ele>
        <time>2010-06-17T07:26:33Z</time>
      </trkpt>
      <trkpt lat="45.54735" lon="4.57711">
        <ele>457</ele>
        <time>2010-06-17T07:26:35Z</time>
      </trkpt>
      <trkpt lat="45.54741" lon="4.57706">
        <ele>457</ele>
        <time>2010-06-17T07:26:37Z</time>
      </trkpt>
      <trkpt lat="45.54747" lon="4.57701">
        <ele>457</ele>
        <time>2010-06-17T07:26:39Z</time>
      </trkpt>
      <trkpt lat="45.54753" lon="4.57696">
        <ele>464</ele>
        <time>2010-06-17T07:26:41Z</time>
      </trkpt>
      <trkpt lat="45.54758" lon="4.5769">
        <ele>463</ele>
        <time>2010-06-17T07:26:43Z</time>
      </trkpt>
      <trkpt lat="45.54763" lon="4.57683">
        <ele>463</ele>
        <time>2010-06-17T07:26:45Z</time>
      </trkpt>
      <trkpt lat="45.54766" lon="4.57675">
        <ele>463</ele>
        <time>2010-06-17T07:26:47Z</time>
      </trkpt>
      <trkpt lat="45.54769" lon="4.57666">
        <ele>462</ele>
        <time>2010-06-17T07:26:49Z</time>
      </trkpt>
      <trkpt lat="45.54771" lon="4.57656">
        <ele>462</ele>
        <time>2010-06-17T07:26:51Z</time>
      </trkpt>
      <trkpt lat="45.54771" lon="4.57646">
        <ele>463</ele>
        <time>2010-06-17T07:26:53Z</time>
      </trkpt>
      <trkpt lat="45.5477" lon="4.57636">
        <ele>463</ele>
        <time>2010-06-17T07:26:55Z</time>
      </trkpt>
      <trkpt lat="45.54768" lon="4.57626">
        <ele>463</ele>
        <time>2010-06-17T07:26:57Z</time>
      </trkpt>
      <trkpt lat="45.54766" lon="4.57617">
        <ele>463</ele>
        <time>2010-06-17T07:26:59Z</time>
      </trkpt>
      <trkpt lat="45.54763" lon="4.57607">
        <ele>462</ele>
        <time>2010-06-17T07:27:01Z</time>
      </trkpt>
      <trkpt lat="45.54761" lon="4.57597">
        <ele>460</ele>
        <time>2010-06-17T07:27:03Z</time>
      </trkpt>
      <trkpt lat="45.54758" lon="4.57587">
        <ele>459</ele>
        <time>2010-06-17T07:27:05Z</time>
      </trkpt>
      <trkpt lat="45.54756" lon="4.57577">
        <ele>457</ele>
        <time>2010-06-17T07:27:07Z</time>
      </trkpt>
      <trkpt lat="45.54755" lon="4.57567">
        <ele>458</ele>
        <time>2010-06-17T07:27:09Z</time>
      </trkpt>
      <trkpt lat="45.54754" lon="4.57557">
        <ele>458</ele>
        <time>2010-06-17T07:27:11Z</time>
      </trkpt>
      <trkpt lat="45.54755" lon="4.57547">
        <ele>457</ele>
        <time>2010-06-17T07:27:13Z</time>
      </trkpt>
      <trkpt lat="45.54757" lon="4.57537">
        <ele>457</ele>
        <time>2010-06-17T07:27:15Z</time>
      </trkpt>
      <trkpt lat="45.54759" lon="4.57529">
        <ele>456</ele>
        <time>2010-06-17T07:27:17Z</time>
      </trkpt>
      <trkpt lat="45.54761" lon="4.57524">
        <ele>456</ele>
        <time>2010-06-17T07:27:18Z</time>
      </trkpt>
      <trkpt lat="45.54768" lon="4.57513">
        <ele>455</ele>
        <time>2010-06-17T07:27:21Z</time>
      </trkpt>
      <trkpt lat="45.54774" lon="4.57508">
        <ele>456</ele>
        <time>2010-06-17T07:27:23Z</time>
      </trkpt>
      <trkpt lat="45.5478" lon="4.57503">
        <ele>457</ele>
        <time>2010-06-17T07:27:25Z</time>
      </trkpt>
      <trkpt lat="45.54786" lon="4.57501">
        <ele>457</ele>
        <time>2010-06-17T07:27:27Z</time>
      </trkpt>
      <trkpt lat="45.54793" lon="4.57499">
        <ele>450</ele>
        <time>2010-06-17T07:27:29Z</time>
      </trkpt>
      <trkpt lat="45.54799" lon="4.57497">
        <ele>451</ele>
        <time>2010-06-17T07:27:31Z</time>
      </trkpt>
      <trkpt lat="45.54806" lon="4.57495">
        <ele>452</ele>
        <time>2010-06-17T07:27:33Z</time>
      </trkpt>
      <trkpt lat="45.54813" lon="4.57494">
        <ele>453</ele>
        <time>2010-06-17T07:27:35Z</time>
      </trkpt>
      <trkpt lat="45.5482" lon="4.57492">
        <ele>454</ele>
        <time>2010-06-17T07:27:37Z</time>
      </trkpt>
      <trkpt lat="45.54827" lon="4.57491">
        <ele>456</ele>
        <time>2010-06-17T07:27:39Z</time>
      </trkpt>
      <trkpt lat="45.54833" lon="4.5749">
        <ele>460</ele>
        <time>2010-06-17T07:27:41Z</time>
      </trkpt>
      <trkpt lat="45.5484" lon="4.57489">
        <ele>460</ele>
        <time>2010-06-17T07:27:43Z</time>
      </trkpt>
      <trkpt lat="45.54847" lon="4.57487">
        <ele>459</ele>
        <time>2010-06-17T07:27:45Z</time>
      </trkpt>
      <trkpt lat="45.54853" lon="4.57486">
        <ele>459</ele>
        <time>2010-06-17T07:27:47Z</time>
      </trkpt>
      <trkpt lat="45.5486" lon="4.57483">
        <ele>459</ele>
        <time>2010-06-17T07:27:49Z</time>
      </trkpt>
      <trkpt lat="45.54866" lon="4.57481">
        <ele>460</ele>
        <time>2010-06-17T07:27:51Z</time>
      </trkpt>
      <trkpt lat="45.54872" lon="4.57479">
        <ele>460</ele>
        <time>2010-06-17T07:27:53Z</time>
      </trkpt>
      <trkpt lat="45.5488" lon="4.57475">
        <ele>460</ele>
        <time>2010-06-17T07:27:56Z</time>
      </trkpt>
      <trkpt lat="45.54888" lon="4.57471">
        <ele>460</ele>
        <time>2010-06-17T07:28:00Z</time>
      </trkpt>
      <trkpt lat="45.54884" lon="4.57483">
        <ele>461</ele>
        <time>2010-06-17T07:28:07Z</time>
      </trkpt>
      <trkpt lat="45.54876" lon="4.57489">
        <ele>461</ele>
        <time>2010-06-17T07:28:11Z</time>
      </trkpt>
      <trkpt lat="45.54869" lon="4.57494">
        <ele>460</ele>
        <time>2010-06-17T07:28:15Z</time>
      </trkpt>
      <trkpt lat="45.54861" lon="4.57496">
        <ele>460</ele>
        <time>2010-06-17T07:28:19Z</time>
      </trkpt>
      <trkpt lat="45.54859" lon="4.57497">
        <ele>460</ele>
        <time>2010-06-17T07:28:20Z</time>
      </trkpt>
      <trkpt lat="45.54846" lon="4.57501">
        <ele>465</ele>
        <time>2010-06-17T07:28:27Z</time>
      </trkpt>
      <trkpt lat="45.54837" lon="4.57505">
        <ele>463</ele>
        <time>2010-06-17T07:28:31Z</time>
      </trkpt>
      <trkpt lat="45.54829" lon="4.57509">
        <ele>461</ele>
        <time>2010-06-17T07:28:35Z</time>
      </trkpt>
      <trkpt lat="45.54822" lon="4.57514">
        <ele>461</ele>
        <time>2010-06-17T07:28:39Z</time>
      </trkpt>
      <trkpt lat="45.54816" lon="4.57521">
        <ele>460</ele>
        <time>2010-06-17T07:28:43Z</time>
      </trkpt>
      <trkpt lat="45.5481" lon="4.57528">
        <ele>460</ele>
        <time>2010-06-17T07:28:47Z</time>
      </trkpt>
      <trkpt lat="45.54804" lon="4.57537">
        <ele>461</ele>
        <time>2010-06-17T07:28:51Z</time>
      </trkpt>
      <trkpt lat="45.54799" lon="4.57546">
        <ele>461</ele>
        <time>2010-06-17T07:28:55Z</time>
      </trkpt>
      <trkpt lat="45.54795" lon="4.57557">
        <ele>461</ele>
        <time>2010-06-17T07:28:59Z</time>
      </trkpt>
      <trkpt lat="45.54791" lon="4.57568">
        <ele>461</ele>
        <time>2010-06-17T07:29:03Z</time>
      </trkpt>
      <trkpt lat="45.54789" lon="4.57579">
        <ele>461</ele>
        <time>2010-06-17T07:29:07Z</time>
      </trkpt>
      <trkpt lat="45.54786" lon="4.5759">
        <ele>464</ele>
        <time>2010-06-17T07:29:11Z</time>
      </trkpt>
      <trkpt lat="45.54786" lon="4.57602">
        <ele>464</ele>
        <time>2010-06-17T07:29:15Z</time>
      </trkpt>
      <trkpt lat="45.54786" lon="4.57614">
        <ele>464</ele>
        <time>2010-06-17T07:29:19Z</time>
      </trkpt>
      <trkpt lat="45.54786" lon="4.57625">
        <ele>464</ele>
        <time>2010-06-17T07:29:23Z</time>
      </trkpt>
      <trkpt lat="45.54787" lon="4.57628">
        <ele>465</ele>
        <time>2010-06-17T07:29:24Z</time>
      </trkpt>
      <trkpt lat="45.5479" lon="4.57649">
        <ele>465</ele>
        <time>2010-06-17T07:29:31Z</time>
      </trkpt>
      <trkpt lat="45.54791" lon="4.5766">
        <ele>465</ele>
        <time>2010-06-17T07:29:35Z</time>
      </trkpt>
      <trkpt lat="45.54793" lon="4.57671">
        <ele>466</ele>
        <time>2010-06-17T07:29:39Z</time>
      </trkpt>
      <trkpt lat="45.54793" lon="4.57683">
        <ele>467</ele>
        <time>2010-06-17T07:29:44Z</time>
      </trkpt>
      <trkpt lat="45.54794" lon="4.57695">
        <ele>467</ele>
        <time>2010-06-17T07:29:49Z</time>
      </trkpt>
      <trkpt lat="45.54792" lon="4.57706">
        <ele>467</ele>
        <time>2010-06-17T07:29:54Z</time>
      </trkpt>
      <trkpt lat="45.54791" lon="4.57717">
        <ele>467</ele>
        <time>2010-06-17T07:29:59Z</time>
      </trkpt>
      <trkpt lat="45.54789" lon="4.57729">
        <ele>467</ele>
        <time>2010-06-17T07:30:04Z</time>
      </trkpt>
      <trkpt lat="45.54786" lon="4.57741">
        <ele>467</ele>
        <time>2010-06-17T07:30:09Z</time>
      </trkpt>
      <trkpt lat="45.54783" lon="4.5775">
        <ele>469</ele>
        <time>2010-06-17T07:30:13Z</time>
      </trkpt>
      <trkpt lat="45.5478" lon="4.5776">
        <ele>469</ele>
        <time>2010-06-17T07:30:17Z</time>
      </trkpt>
      <trkpt lat="45.54775" lon="4.57769">
        <ele>469</ele>
        <time>2010-06-17T07:30:21Z</time>
      </trkpt>
      <trkpt lat="45.5477" lon="4.57777">
        <ele>470</ele>
        <time>2010-06-17T07:30:25Z</time>
      </trkpt>
      <trkpt lat="45.54769" lon="4.57779">
        <ele>470</ele>
        <time>2010-06-17T07:30:26Z</time>
      </trkpt>
      <trkpt lat="45.54757" lon="4.57792">
        <ele>470</ele>
        <time>2010-06-17T07:30:33Z</time>
      </trkpt>
      <trkpt lat="45.5475" lon="4.57797">
        <ele>465</ele>
        <time>2010-06-17T07:30:37Z</time>
      </trkpt>
      <trkpt lat="45.54743" lon="4.57804">
        <ele>466</ele>
        <time>2010-06-17T07:30:41Z</time>
      </trkpt>
      <trkpt lat="45.54736" lon="4.5781">
        <ele>466</ele>
        <time>2010-06-17T07:30:45Z</time>
      </trkpt>
      <trkpt lat="45.54729" lon="4.57817">
        <ele>466</ele>
        <time>2010-06-17T07:30:49Z</time>
      </trkpt>
      <trkpt lat="45.54723" lon="4.57824">
        <ele>466</ele>
        <time>2010-06-17T07:30:53Z</time>
      </trkpt>
      <trkpt lat="45.54716" lon="4.57831">
        <ele>466</ele>
        <time>2010-06-17T07:30:57Z</time>
      </trkpt>
      <trkpt lat="45.5471" lon="4.57839">
        <ele>470</ele>
        <time>2010-06-17T07:31:01Z</time>
      </trkpt>
      <trkpt lat="45.54703" lon="4.57848">
        <ele>470</ele>
        <time>2010-06-17T07:31:05Z</time>
      </trkpt>
      <trkpt lat="45.54698" lon="4.57856">
        <ele>470</ele>
        <time>2010-06-17T07:31:09Z</time>
      </trkpt>
      <trkpt lat="45.54694" lon="4.57866">
        <ele>470</ele>
        <time>2010-06-17T07:31:13Z</time>
      </trkpt>
      <trkpt lat="45.5469" lon="4.57875">
        <ele>471</ele>
        <time>2010-06-17T07:31:17Z</time>
      </trkpt>
      <trkpt lat="45.54687" lon="4.57885">
        <ele>471</ele>
        <time>2010-06-17T07:31:21Z</time>
      </trkpt>
      <trkpt lat="45.54683" lon="4.57895">
        <ele>471</ele>
        <time>2010-06-17T07:31:25Z</time>
      </trkpt>
      <trkpt lat="45.54681" lon="4.57906">
        <ele>471</ele>
        <time>2010-06-17T07:31:29Z</time>
      </trkpt>
      <trkpt lat="45.5468" lon="4.57909">
        <ele>471</ele>
        <time>2010-06-17T07:31:30Z</time>
      </trkpt>
      <trkpt lat="45.54677" lon="4.57929">
        <ele>473</ele>
        <time>2010-06-17T07:32:09Z</time>
      </trkpt>
      <trkpt lat="45.54676" lon="4.5794">
        <ele>474</ele>
        <time>2010-06-17T07:34:13Z</time>
      </trkpt>
      <trkpt lat="45.54675" lon="4.57942">
        <ele>474</ele>
        <time>2010-06-17T07:34:14Z</time>
      </trkpt>
      <trkpt lat="45.54671" lon="4.57959">
        <ele>474</ele>
        <time>2010-06-17T07:34:20Z</time>
      </trkpt>
      <trkpt lat="45.54669" lon="4.57969">
        <ele>474</ele>
        <time>2010-06-17T07:34:23Z</time>
      </trkpt>
      <trkpt lat="45.5467" lon="4.5798">
        <ele>474</ele>
        <time>2010-06-17T07:34:26Z</time>
      </trkpt>
      <trkpt lat="45.54671" lon="4.57992">
        <ele>473</ele>
        <time>2010-06-17T07:34:29Z</time>
      </trkpt>
      <trkpt lat="45.54673" lon="4.58004">
        <ele>472</ele>
        <time>2010-06-17T07:34:32Z</time>
      </trkpt>
      <trkpt lat="45.54674" lon="4.58014">
        <ele>472</ele>
        <time>2010-06-17T07:34:34Z</time>
      </trkpt>
      <trkpt lat="45.54677" lon="4.58023">
        <ele>472</ele>
        <time>2010-06-17T07:34:36Z</time>
      </trkpt>
      <trkpt lat="45.54679" lon="4.58033">
        <ele>472</ele>
        <time>2010-06-17T07:34:38Z</time>
      </trkpt>
      <trkpt lat="45.54683" lon="4.58042">
        <ele>472</ele>
        <time>2010-06-17T07:34:40Z</time>
      </trkpt>
      <trkpt lat="45.54687" lon="4.5805">
        <ele>471</ele>
        <time>2010-06-17T07:34:42Z</time>
      </trkpt>
      <trkpt lat="45.54691" lon="4.58059">
        <ele>471</ele>
        <time>2010-06-17T07:34:44Z</time>
      </trkpt>
      <trkpt lat="45.54696" lon="4.58066">
        <ele>471</ele>
        <time>2010-06-17T07:34:46Z</time>
      </trkpt>
      <trkpt lat="45.54701" lon="4.58073">
        <ele>471</ele>
        <time>2010-06-17T07:34:48Z</time>
      </trkpt>
      <trkpt lat="45.54707" lon="4.58078">
        <ele>471</ele>
        <time>2010-06-17T07:34:50Z</time>
      </trkpt>
      <trkpt lat="45.54713" lon="4.58084">
        <ele>467</ele>
        <time>2010-06-17T07:34:52Z</time>
      </trkpt>
      <trkpt lat="45.5472" lon="4.58089">
        <ele>467</ele>
        <time>2010-06-17T07:34:54Z</time>
      </trkpt>
      <trkpt lat="45.54726" lon="4.58093">
        <ele>468</ele>
        <time>2010-06-17T07:34:56Z</time>
      </trkpt>
      <trkpt lat="45.54733" lon="4.58096">
        <ele>468</ele>
        <time>2010-06-17T07:34:58Z</time>
      </trkpt>
      <trkpt lat="45.54739" lon="4.58099">
        <ele>468</ele>
        <time>2010-06-17T07:35:00Z</time>
      </trkpt>
      <trkpt lat="45.54746" lon="4.58102">
        <ele>468</ele>
        <time>2010-06-17T07:35:02Z</time>
      </trkpt>
      <trkpt lat="45.54753" lon="4.58104">
        <ele>469</ele>
        <time>2010-06-17T07:35:04Z</time>
      </trkpt>
      <trkpt lat="45.5476" lon="4.58106">
        <ele>469</ele>
        <time>2010-06-17T07:35:06Z</time>
      </trkpt>
      <trkpt lat="45.54768" lon="4.58109">
        <ele>468</ele>
        <time>2010-06-17T07:35:08Z</time>
      </trkpt>
      <trkpt lat="45.54776" lon="4.58111">
        <ele>468</ele>
        <time>2010-06-17T07:35:10Z</time>
      </trkpt>
      <trkpt lat="45.54784" lon="4.58113">
        <ele>468</ele>
        <time>2010-06-17T07:35:12Z</time>
      </trkpt>
      <trkpt lat="45.54792" lon="4.58115">
        <ele>468</ele>
        <time>2010-06-17T07:35:14Z</time>
      </trkpt>
      <trkpt lat="45.54796" lon="4.58116">
        <ele>468</ele>
        <time>2010-06-17T07:35:15Z</time>
      </trkpt>
      <trkpt lat="45.54809" lon="4.58119">
        <ele>468</ele>
        <time>2010-06-17T07:35:18Z</time>
      </trkpt>
      <trkpt lat="45.54817" lon="4.58121">
        <ele>468</ele>
        <time>2010-06-17T07:35:20Z</time>
      </trkpt>
      <trkpt lat="45.54826" lon="4.58123">
        <ele>467</ele>
        <time>2010-06-17T07:35:22Z</time>
      </trkpt>
      <trkpt lat="45.54833" lon="4.58124">
        <ele>467</ele>
        <time>2010-06-17T07:35:24Z</time>
      </trkpt>
      <trkpt lat="45.54842" lon="4.58127">
        <ele>467</ele>
        <time>2010-06-17T07:35:27Z</time>
      </trkpt>
      <trkpt lat="45.54848" lon="4.5813">
        <ele>467</ele>
        <time>2010-06-17T07:35:29Z</time>
      </trkpt>
      <trkpt lat="45.54854" lon="4.58132">
        <ele>467</ele>
        <time>2010-06-17T07:35:31Z</time>
      </trkpt>
      <trkpt lat="45.54861" lon="4.58133">
        <ele>466</ele>
        <time>2010-06-17T07:35:33Z</time>
      </trkpt>
      <trkpt lat="45.54868" lon="4.58135">
        <ele>466</ele>
        <time>2010-06-17T07:35:35Z</time>
      </trkpt>
      <trkpt lat="45.54875" lon="4.58137">
        <ele>466</ele>
        <time>2010-06-17T07:35:37Z</time>
      </trkpt>
      <trkpt lat="45.54881" lon="4.58139">
        <ele>466</ele>
        <time>2010-06-17T07:35:39Z</time>
      </trkpt>
      <trkpt lat="45.54888" lon="4.5814">
        <ele>466</ele>
        <time>2010-06-17T07:35:41Z</time>
      </trkpt>
      <trkpt lat="45.54895" lon="4.58141">
        <ele>466</ele>
        <time>2010-06-17T07:35:43Z</time>
      </trkpt>
      <trkpt lat="45.54901" lon="4.58142">
        <ele>465</ele>
        <time>2010-06-17T07:35:45Z</time>
      </trkpt>
      <trkpt lat="45.54908" lon="4.58141">
        <ele>465</ele>
        <time>2010-06-17T07:35:47Z</time>
      </trkpt>
      <trkpt lat="45.54914" lon="4.58142">
        <ele>465</ele>
        <time>2010-06-17T07:35:49Z</time>
      </trkpt>
      <trkpt lat="45.54921" lon="4.58142">
        <ele>463</ele>
        <time>2010-06-17T07:35:51Z</time>
      </trkpt>
      <trkpt lat="45.54929" lon="4.5814">
        <ele>463</ele>
        <time>2010-06-17T07:35:54Z</time>
      </trkpt>
      <trkpt lat="45.54938" lon="4.58139">
        <ele>463</ele>
        <time>2010-06-17T07:35:57Z</time>
      </trkpt>
      <trkpt lat="45.54944" lon="4.58138">
        <ele>463</ele>
        <time>2010-06-17T07:35:59Z</time>
      </trkpt>
      <trkpt lat="45.5495" lon="4.58137">
        <ele>463</ele>
        <time>2010-06-17T07:36:01Z</time>
      </trkpt>
      <trkpt lat="45.54958" lon="4.58134">
        <ele>463</ele>
        <time>2010-06-17T07:36:04Z</time>
      </trkpt>
      <trkpt lat="45.54967" lon="4.5813">
        <ele>463</ele>
        <time>2010-06-17T07:36:07Z</time>
      </trkpt>
      <trkpt lat="45.54973" lon="4.58127">
        <ele>463</ele>
        <time>2010-06-17T07:36:09Z</time>
      </trkpt>
      <trkpt lat="45.54979" lon="4.58124">
        <ele>463</ele>
        <time>2010-06-17T07:36:11Z</time>
      </trkpt>
      <trkpt lat="45.54986" lon="4.58122">
        <ele>463</ele>
        <time>2010-06-17T07:36:13Z</time>
      </trkpt>
      <trkpt lat="45.54992" lon="4.58119">
        <ele>464</ele>
        <time>2010-06-17T07:36:15Z</time>
      </trkpt>
      <trkpt lat="45.54995" lon="4.58118">
        <ele>464</ele>
        <time>2010-06-17T07:36:16Z</time>
      </trkpt>
      <trkpt lat="45.55006" lon="4.58109">
        <ele>463</ele>
        <time>2010-06-17T07:36:21Z</time>
      </trkpt>
      <trkpt lat="45.55014" lon="4.58105">
        <ele>463</ele>
        <time>2010-06-17T07:36:26Z</time>
      </trkpt>
      <trkpt lat="45.55022" lon="4.58101">
        <ele>463</ele>
        <time>2010-06-17T07:36:30Z</time>
      </trkpt>
      <trkpt lat="45.55031" lon="4.58098">
        <ele>462</ele>
        <time>2010-06-17T07:36:33Z</time>
      </trkpt>
      <trkpt lat="45.55038" lon="4.58093">
        <ele>462</ele>
        <time>2010-06-17T07:36:36Z</time>
      </trkpt>
      <trkpt lat="45.55046" lon="4.58088">
        <ele>462</ele>
        <time>2010-06-17T07:36:39Z</time>
      </trkpt>
      <trkpt lat="45.55054" lon="4.58084">
        <ele>462</ele>
        <time>2010-06-17T07:36:42Z</time>
      </trkpt>
      <trkpt lat="45.55062" lon="4.58079">
        <ele>469</ele>
        <time>2010-06-17T07:36:45Z</time>
      </trkpt>
      <trkpt lat="45.5507" lon="4.58074">
        <ele>468</ele>
        <time>2010-06-17T07:36:48Z</time>
      </trkpt>
      <trkpt lat="45.55078" lon="4.58069">
        <ele>468</ele>
        <time>2010-06-17T07:36:51Z</time>
      </trkpt>
      <trkpt lat="45.55086" lon="4.58065">
        <ele>467</ele>
        <time>2010-06-17T07:36:54Z</time>
      </trkpt>
      <trkpt lat="45.55093" lon="4.5806">
        <ele>468</ele>
        <time>2010-06-17T07:36:57Z</time>
      </trkpt>
      <trkpt lat="45.55101" lon="4.58055">
        <ele>469</ele>
        <time>2010-06-17T07:37:00Z</time>
      </trkpt>
      <trkpt lat="45.55109" lon="4.5805">
        <ele>469</ele>
        <time>2010-06-17T07:37:03Z</time>
      </trkpt>
      <trkpt lat="45.55115" lon="4.58046">
        <ele>469</ele>
        <time>2010-06-17T07:37:05Z</time>
      </trkpt>
      <trkpt lat="45.55124" lon="4.58043">
        <ele>470</ele>
        <time>2010-06-17T07:37:08Z</time>
      </trkpt>
      <trkpt lat="45.55132" lon="4.58039">
        <ele>470</ele>
        <time>2010-06-17T07:37:11Z</time>
      </trkpt>
      <trkpt lat="45.55138" lon="4.58036">
        <ele>470</ele>
        <time>2010-06-17T07:37:13Z</time>
      </trkpt>
      <trkpt lat="45.55147" lon="4.58032">
        <ele>470</ele>
        <time>2010-06-17T07:37:16Z</time>
      </trkpt>
      <trkpt lat="45.5515" lon="4.58031">
        <ele>471</ele>
        <time>2010-06-17T07:37:17Z</time>
      </trkpt>
      <trkpt lat="45.55161" lon="4.58033">
        <ele>470</ele>
        <time>2010-06-17T07:37:21Z</time>
      </trkpt>
      <trkpt lat="45.55169" lon="4.58036">
        <ele>470</ele>
        <time>2010-06-17T07:37:24Z</time>
      </trkpt>
      <trkpt lat="45.55175" lon="4.5804">
        <ele>470</ele>
        <time>2010-06-17T07:37:26Z</time>
      </trkpt>
      <trkpt lat="45.55181" lon="4.58044">
        <ele>470</ele>
        <time>2010-06-17T07:37:28Z</time>
      </trkpt>
      <trkpt lat="45.55186" lon="4.58049">
        <ele>470</ele>
        <time>2010-06-17T07:37:30Z</time>
      </trkpt>
      <trkpt lat="45.55191" lon="4.58054">
        <ele>469</ele>
        <time>2010-06-17T07:37:32Z</time>
      </trkpt>
      <trkpt lat="45.55196" lon="4.58059">
        <ele>469</ele>
        <time>2010-06-17T07:37:34Z</time>
      </trkpt>
      <trkpt lat="45.55201" lon="4.58065">
        <ele>469</ele>
        <time>2010-06-17T07:37:36Z</time>
      </trkpt>
      <trkpt lat="45.55205" lon="4.58071">
        <ele>469</ele>
        <time>2010-06-17T07:37:38Z</time>
      </trkpt>
      <trkpt lat="45.5521" lon="4.58079">
        <ele>469</ele>
        <time>2010-06-17T07:37:40Z</time>
      </trkpt>
      <trkpt lat="45.55213" lon="4.5809">
        <ele>466</ele>
        <time>2010-06-17T07:37:43Z</time>
      </trkpt>
      <trkpt lat="45.55214" lon="4.58102">
        <ele>466</ele>
        <time>2010-06-17T07:37:46Z</time>
      </trkpt>
      <trkpt lat="45.55215" lon="4.58111">
        <ele>466</ele>
        <time>2010-06-17T07:37:48Z</time>
      </trkpt>
      <trkpt lat="45.55216" lon="4.5812">
        <ele>466</ele>
        <time>2010-06-17T07:37:50Z</time>
      </trkpt>
      <trkpt lat="45.55216" lon="4.58129">
        <ele>466</ele>
        <time>2010-06-17T07:37:52Z</time>
      </trkpt>
      <trkpt lat="45.55216" lon="4.58138">
        <ele>467</ele>
        <time>2010-06-17T07:37:54Z</time>
      </trkpt>
      <trkpt lat="45.55215" lon="4.58147">
        <ele>467</ele>
        <time>2010-06-17T07:37:56Z</time>
      </trkpt>
      <trkpt lat="45.55214" lon="4.58155">
        <ele>466</ele>
        <time>2010-06-17T07:37:58Z</time>
      </trkpt>
      <trkpt lat="45.5521" lon="4.58167">
        <ele>469</ele>
        <time>2010-06-17T07:38:01Z</time>
      </trkpt>
      <trkpt lat="45.55205" lon="4.58177">
        <ele>469</ele>
        <time>2010-06-17T07:38:04Z</time>
      </trkpt>
      <trkpt lat="45.55199" lon="4.58186">
        <ele>468</ele>
        <time>2010-06-17T07:38:08Z</time>
      </trkpt>
      <trkpt lat="45.55195" lon="4.58195">
        <ele>469</ele>
        <time>2010-06-17T07:38:13Z</time>
      </trkpt>
      <trkpt lat="45.55188" lon="4.58202">
        <ele>469</ele>
        <time>2010-06-17T07:38:18Z</time>
      </trkpt>
      <trkpt lat="45.55186" lon="4.58203">
        <ele>469</ele>
        <time>2010-06-17T07:38:19Z</time>
      </trkpt>
      <trkpt lat="45.55174" lon="4.58212">
        <ele>468</ele>
        <time>2010-06-17T07:38:25Z</time>
      </trkpt>
      <trkpt lat="45.55167" lon="4.58216">
        <ele>468</ele>
        <time>2010-06-17T07:38:28Z</time>
      </trkpt>
      <trkpt lat="45.55158" lon="4.58219">
        <ele>462</ele>
        <time>2010-06-17T07:38:32Z</time>
      </trkpt>
      <trkpt lat="45.5515" lon="4.5822">
        <ele>462</ele>
        <time>2010-06-17T07:38:36Z</time>
      </trkpt>
      <trkpt lat="45.55143" lon="4.58223">
        <ele>461</ele>
        <time>2010-06-17T07:38:39Z</time>
      </trkpt>
      <trkpt lat="45.55135" lon="4.58224">
        <ele>461</ele>
        <time>2010-06-17T07:38:43Z</time>
      </trkpt>
      <trkpt lat="45.55126" lon="4.58229">
        <ele>461</ele>
        <time>2010-06-17T07:38:47Z</time>
      </trkpt>
      <trkpt lat="45.5512" lon="4.58234">
        <ele>460</ele>
        <time>2010-06-17T07:38:50Z</time>
      </trkpt>
      <trkpt lat="45.55115" lon="4.5824">
        <ele>460</ele>
        <time>2010-06-17T07:38:53Z</time>
      </trkpt>
      <trkpt lat="45.55109" lon="4.58248">
        <ele>460</ele>
        <time>2010-06-17T07:38:56Z</time>
      </trkpt>
      <trkpt lat="45.55103" lon="4.58256">
        <ele>463</ele>
        <time>2010-06-17T07:38:59Z</time>
      </trkpt>
      <trkpt lat="45.55098" lon="4.58262">
        <ele>462</ele>
        <time>2010-06-17T07:39:02Z</time>
      </trkpt>
      <trkpt lat="45.55093" lon="4.5827">
        <ele>463</ele>
        <time>2010-06-17T07:39:05Z</time>
      </trkpt>
      <trkpt lat="45.5509" lon="4.58278">
        <ele>463</ele>
        <time>2010-06-17T07:39:08Z</time>
      </trkpt>
      <trkpt lat="45.55088" lon="4.58288">
        <ele>464</ele>
        <time>2010-06-17T07:39:11Z</time>
      </trkpt>
      <trkpt lat="45.55085" lon="4.58297">
        <ele>464</ele>
        <time>2010-06-17T07:39:14Z</time>
      </trkpt>
      <trkpt lat="45.55082" lon="4.58306">
        <ele>456</ele>
        <time>2010-06-17T07:39:17Z</time>
      </trkpt>
      <trkpt lat="45.55079" lon="4.58317">
        <ele>458</ele>
        <time>2010-06-17T07:39:21Z</time>
      </trkpt>
      <trkpt lat="45.55078" lon="4.5832">
        <ele>458</ele>
        <time>2010-06-17T07:39:22Z</time>
      </trkpt>
      <trkpt lat="45.55076" lon="4.58338">
        <ele>460</ele>
        <time>2010-06-17T07:39:27Z</time>
      </trkpt>
      <trkpt lat="45.55077" lon="4.58349">
        <ele>458</ele>
        <time>2010-06-17T07:39:30Z</time>
      </trkpt>
      <trkpt lat="45.55078" lon="4.5836">
        <ele>457</ele>
        <time>2010-06-17T07:39:33Z</time>
      </trkpt>
      <trkpt lat="45.55078" lon="4.58372">
        <ele>456</ele>
        <time>2010-06-17T07:39:36Z</time>
      </trkpt>
      <trkpt lat="45.5508" lon="4.58385">
        <ele>456</ele>
        <time>2010-06-17T07:39:39Z</time>
      </trkpt>
      <trkpt lat="45.55085" lon="4.58393">
        <ele>466</ele>
        <time>2010-06-17T07:41:34Z</time>
      </trkpt>
      <trkpt lat="45.55086" lon="4.58395">
        <ele>466</ele>
        <time>2010-06-17T07:41:35Z</time>
      </trkpt>
      <trkpt lat="45.55091" lon="4.58414">
        <ele>464</ele>
        <time>2010-06-17T07:41:41Z</time>
      </trkpt>
      <trkpt lat="45.55096" lon="4.58423">
        <ele>463</ele>
        <time>2010-06-17T07:41:44Z</time>
      </trkpt>
      <trkpt lat="45.55101" lon="4.58432">
        <ele>463</ele>
        <time>2010-06-17T07:41:47Z</time>
      </trkpt>
      <trkpt lat="45.55106" lon="4.58442">
        <ele>463</ele>
        <time>2010-06-17T07:41:50Z</time>
      </trkpt>
      <trkpt lat="45.5511" lon="4.58448">
        <ele>463</ele>
        <time>2010-06-17T07:41:52Z</time>
      </trkpt>
      <trkpt lat="45.55118" lon="4.58455">
        <ele>463</ele>
        <time>2010-06-17T07:41:55Z</time>
      </trkpt>
      <trkpt lat="45.55123" lon="4.5846">
        <ele>463</ele>
        <time>2010-06-17T07:41:57Z</time>
      </trkpt>
      <trkpt lat="45.55128" lon="4.58464">
        <ele>463</ele>
        <time>2010-06-17T07:41:59Z</time>
      </trkpt>
      <trkpt lat="45.55134" lon="4.58467">
        <ele>463</ele>
        <time>2010-06-17T07:42:01Z</time>
      </trkpt>
      <trkpt lat="45.5514" lon="4.58471">
        <ele>463</ele>
        <time>2010-06-17T07:42:03Z</time>
      </trkpt>
      <trkpt lat="45.55145" lon="4.58475">
        <ele>463</ele>
        <time>2010-06-17T07:42:05Z</time>
      </trkpt>
      <trkpt lat="45.55151" lon="4.58478">
        <ele>464</ele>
        <time>2010-06-17T07:42:07Z</time>
      </trkpt>
      <trkpt lat="45.55157" lon="4.58481">
        <ele>464</ele>
        <time>2010-06-17T07:42:09Z</time>
      </trkpt>
      <trkpt lat="45.55163" lon="4.58484">
        <ele>464</ele>
        <time>2010-06-17T07:42:11Z</time>
      </trkpt>
      <trkpt lat="45.55169" lon="4.58487">
        <ele>469</ele>
        <time>2010-06-17T07:42:13Z</time>
      </trkpt>
      <trkpt lat="45.55178" lon="4.58492">
        <ele>469</ele>
        <time>2010-06-17T07:42:16Z</time>
      </trkpt>
      <trkpt lat="45.55185" lon="4.58496">
        <ele>470</ele>
        <time>2010-06-17T07:42:19Z</time>
      </trkpt>
      <trkpt lat="45.55193" lon="4.58501">
        <ele>467</ele>
        <time>2010-06-17T07:42:22Z</time>
      </trkpt>
      <trkpt lat="45.55199" lon="4.58505">
        <ele>468</ele>
        <time>2010-06-17T07:42:25Z</time>
      </trkpt>
      <trkpt lat="45.55206" lon="4.58511">
        <ele>468</ele>
        <time>2010-06-17T07:42:28Z</time>
      </trkpt>
      <trkpt lat="45.55213" lon="4.58517">
        <ele>469</ele>
        <time>2010-06-17T07:42:31Z</time>
      </trkpt>
      <trkpt lat="45.55218" lon="4.58525">
        <ele>469</ele>
        <time>2010-06-17T07:42:34Z</time>
      </trkpt>
      <trkpt lat="45.55223" lon="4.58532">
        <ele>469</ele>
        <time>2010-06-17T07:42:37Z</time>
      </trkpt>
      <trkpt lat="45.55224" lon="4.58535">
        <ele>469</ele>
        <time>2010-06-17T07:42:38Z</time>
      </trkpt>
      <trkpt lat="45.55232" lon="4.58548">
        <ele>469</ele>
        <time>2010-06-17T07:42:43Z</time>
      </trkpt>
      <trkpt lat="45.55236" lon="4.58558">
        <ele>469</ele>
        <time>2010-06-17T07:42:46Z</time>
      </trkpt>
      <trkpt lat="45.55239" lon="4.58569">
        <ele>469</ele>
        <time>2010-06-17T07:42:49Z</time>
      </trkpt>
      <trkpt lat="45.55242" lon="4.58581">
        <ele>469</ele>
        <time>2010-06-17T07:42:52Z</time>
      </trkpt>
      <trkpt lat="45.55243" lon="4.58592">
        <ele>468</ele>
        <time>2010-06-17T07:42:55Z</time>
      </trkpt>
      <trkpt lat="45.55245" lon="4.58603">
        <ele>468</ele>
        <time>2010-06-17T07:42:58Z</time>
      </trkpt>
      <trkpt lat="45.55245" lon="4.58615">
        <ele>467</ele>
        <time>2010-06-17T07:43:01Z</time>
      </trkpt>
      <trkpt lat="45.55244" lon="4.58627">
        <ele>467</ele>
        <time>2010-06-17T07:43:04Z</time>
      </trkpt>
      <trkpt lat="45.55244" lon="4.58638">
        <ele>467</ele>
        <time>2010-06-17T07:43:07Z</time>
      </trkpt>
      <trkpt lat="45.55243" lon="4.58648">
        <ele>468</ele>
        <time>2010-06-17T07:43:10Z</time>
      </trkpt>
      <trkpt lat="45.5524" lon="4.58659">
        <ele>469</ele>
        <time>2010-06-17T07:43:13Z</time>
      </trkpt>
      <trkpt lat="45.55237" lon="4.5867">
        <ele>470</ele>
        <time>2010-06-17T07:43:16Z</time>
      </trkpt>
      <trkpt lat="45.55234" lon="4.58681">
        <ele>470</ele>
        <time>2010-06-17T07:43:19Z</time>
      </trkpt>
      <trkpt lat="45.55231" lon="4.58691">
        <ele>470</ele>
        <time>2010-06-17T07:43:22Z</time>
      </trkpt>
      <trkpt lat="45.55228" lon="4.58701">
        <ele>470</ele>
        <time>2010-06-17T07:43:25Z</time>
      </trkpt>
      <trkpt lat="45.55225" lon="4.58712">
        <ele>470</ele>
        <time>2010-06-17T07:43:28Z</time>
      </trkpt>
      <trkpt lat="45.55222" lon="4.58723">
        <ele>470</ele>
        <time>2010-06-17T07:43:31Z</time>
      </trkpt>
      <trkpt lat="45.55219" lon="4.58734">
        <ele>470</ele>
        <time>2010-06-17T07:43:34Z</time>
      </trkpt>
      <trkpt lat="45.55217" lon="4.58745">
        <ele>470</ele>
        <time>2010-06-17T07:43:37Z</time>
      </trkpt>
      <trkpt lat="45.55213" lon="4.58754">
        <ele>474</ele>
        <time>2010-06-17T07:43:40Z</time>
      </trkpt>
      <trkpt lat="45.55211" lon="4.58757">
        <ele>474</ele>
        <time>2010-06-17T07:43:41Z</time>
      </trkpt>
      <trkpt lat="45.55204" lon="4.58772">
        <ele>474</ele>
        <time>2010-06-17T07:43:46Z</time>
      </trkpt>
      <trkpt lat="45.552" lon="4.5878">
        <ele>474</ele>
        <time>2010-06-17T07:43:49Z</time>
      </trkpt>
      <trkpt lat="45.55194" lon="4.58786">
        <ele>474</ele>
        <time>2010-06-17T07:43:52Z</time>
      </trkpt>
      <trkpt lat="45.55189" lon="4.58793">
        <ele>474</ele>
        <time>2010-06-17T07:43:55Z</time>
      </trkpt>
      <trkpt lat="45.55183" lon="4.588">
        <ele>474</ele>
        <time>2010-06-17T07:43:58Z</time>
      </trkpt>
      <trkpt lat="45.55176" lon="4.58805">
        <ele>474</ele>
        <time>2010-06-17T07:44:01Z</time>
      </trkpt>
      <trkpt lat="45.5517" lon="4.5881">
        <ele>474</ele>
        <time>2010-06-17T07:44:04Z</time>
      </trkpt>
      <trkpt lat="45.55163" lon="4.58814">
        <ele>472</ele>
        <time>2010-06-17T07:44:07Z</time>
      </trkpt>
      <trkpt lat="45.55156" lon="4.58817">
        <ele>472</ele>
        <time>2010-06-17T07:44:10Z</time>
      </trkpt>
      <trkpt lat="45.55149" lon="4.58819">
        <ele>472</ele>
        <time>2010-06-17T07:44:13Z</time>
      </trkpt>
      <trkpt lat="45.55142" lon="4.5882">
        <ele>472</ele>
        <time>2010-06-17T07:44:16Z</time>
      </trkpt>
      <trkpt lat="45.55135" lon="4.5882">
        <ele>471</ele>
        <time>2010-06-17T07:44:19Z</time>
      </trkpt>
      <trkpt lat="45.55127" lon="4.5882">
        <ele>471</ele>
        <time>2010-06-17T07:44:22Z</time>
      </trkpt>
      <trkpt lat="45.5512" lon="4.5882">
        <ele>471</ele>
        <time>2010-06-17T07:44:25Z</time>
      </trkpt>
      <trkpt lat="45.55113" lon="4.5882">
        <ele>471</ele>
        <time>2010-06-17T07:44:28Z</time>
      </trkpt>
      <trkpt lat="45.55104" lon="4.58819">
        <ele>472</ele>
        <time>2010-06-17T07:44:32Z</time>
      </trkpt>
      <trkpt lat="45.55097" lon="4.5882">
        <ele>472</ele>
        <time>2010-06-17T07:44:35Z</time>
      </trkpt>
      <trkpt lat="45.55091" lon="4.58819">
        <ele>472</ele>
        <time>2010-06-17T07:44:38Z</time>
      </trkpt>
      <trkpt lat="45.55084" lon="4.58819">
        <ele>473</ele>
        <time>2010-06-17T07:44:41Z</time>
      </trkpt>
      <trkpt lat="45.55081" lon="4.58818">
        <ele>473</ele>
        <time>2010-06-17T07:44:42Z</time>
      </trkpt>
      <trkpt lat="45.55069" lon="4.58817">
        <ele>472</ele>
        <time>2010-06-17T07:44:47Z</time>
      </trkpt>
      <trkpt lat="45.55062" lon="4.58817">
        <ele>472</ele>
        <time>2010-06-17T07:44:50Z</time>
      </trkpt>
      <trkpt lat="45.55054" lon="4.58816">
        <ele>471</ele>
        <time>2010-06-17T07:44:53Z</time>
      </trkpt>
      <trkpt lat="45.55046" lon="4.58816">
        <ele>471</ele>
        <time>2010-06-17T07:44:56Z</time>
      </trkpt>
      <trkpt lat="45.55039" lon="4.58816">
        <ele>471</ele>
        <time>2010-06-17T07:44:59Z</time>
      </trkpt>
      <trkpt lat="45.55032" lon="4.58817">
        <ele>471</ele>
        <time>2010-06-17T07:45:02Z</time>
      </trkpt>
      <trkpt lat="45.55024" lon="4.58816">
        <ele>472</ele>
        <time>2010-06-17T07:45:05Z</time>
      </trkpt>
      <trkpt lat="45.55016" lon="4.58817">
        <ele>472</ele>
        <time>2010-06-17T07:45:08Z</time>
      </trkpt>
      <trkpt lat="45.55009" lon="4.58818">
        <ele>473</ele>
        <time>2010-06-17T07:45:11Z</time>
      </trkpt>
      <trkpt lat="45.55001" lon="4.58819">
        <ele>473</ele>
        <time>2010-06-17T07:45:14Z</time>
      </trkpt>
      <trkpt lat="45.54993" lon="4.58819">
        <ele>473</ele>
        <time>2010-06-17T07:45:17Z</time>
      </trkpt>
      <trkpt lat="45.54985" lon="4.58821">
        <ele>473</ele>
        <time>2010-06-17T07:45:20Z</time>
      </trkpt>
      <trkpt lat="45.54977" lon="4.58823">
        <ele>472</ele>
        <time>2010-06-17T07:45:23Z</time>
      </trkpt>
      <trkpt lat="45.54968" lon="4.58826">
        <ele>472</ele>
        <time>2010-06-17T07:45:26Z</time>
      </trkpt>
      <trkpt lat="45.5496" lon="4.58828">
        <ele>472</ele>
        <time>2010-06-17T07:45:29Z</time>
      </trkpt>
      <trkpt lat="45.54954" lon="4.58832">
        <ele>472</ele>
        <time>2010-06-17T07:45:31Z</time>
      </trkpt>
      <trkpt lat="45.54948" lon="4.58835">
        <ele>476</ele>
        <time>2010-06-17T07:45:33Z</time>
      </trkpt>
      <trkpt lat="45.54942" lon="4.58839">
        <ele>476</ele>
        <time>2010-06-17T07:45:35Z</time>
      </trkpt>
      <trkpt lat="45.54935" lon="4.58843">
        <ele>476</ele>
        <time>2010-06-17T07:45:37Z</time>
      </trkpt>
      <trkpt lat="45.54929" lon="4.58846">
        <ele>476</ele>
        <time>2010-06-17T07:45:39Z</time>
      </trkpt>
      <trkpt lat="45.54923" lon="4.5885">
        <ele>476</ele>
        <time>2010-06-17T07:45:41Z</time>
      </trkpt>
      <trkpt lat="45.54916" lon="4.58853">
        <ele>475</ele>
        <time>2010-06-17T07:45:43Z</time>
      </trkpt>
      <trkpt lat="45.54913" lon="4.58854">
        <ele>475</ele>
        <time>2010-06-17T07:45:44Z</time>
      </trkpt>
      <trkpt lat="45.54903" lon="4.58859">
        <ele>475</ele>
        <time>2010-06-17T07:45:47Z</time>
      </trkpt>
      <trkpt lat="45.54896" lon="4.58862">
        <ele>474</ele>
        <time>2010-06-17T07:45:49Z</time>
      </trkpt>
      <trkpt lat="45.5489" lon="4.58866">
        <ele>474</ele>
        <time>2010-06-17T07:45:51Z</time>
      </trkpt>
      <trkpt lat="45.54883" lon="4.58869">
        <ele>474</ele>
        <time>2010-06-17T07:45:53Z</time>
      </trkpt>
      <trkpt lat="45.54877" lon="4.58872">
        <ele>474</ele>
        <time>2010-06-17T07:45:55Z</time>
      </trkpt>
      <trkpt lat="45.5487" lon="4.58875">
        <ele>474</ele>
        <time>2010-06-17T07:45:57Z</time>
      </trkpt>
      <trkpt lat="45.54863" lon="4.58879">
        <ele>474</ele>
        <time>2010-06-17T07:45:59Z</time>
      </trkpt>
      <trkpt lat="45.54856" lon="4.58882">
        <ele>474</ele>
        <time>2010-06-17T07:46:01Z</time>
      </trkpt>
      <trkpt lat="45.5485" lon="4.58884">
        <ele>473</ele>
        <time>2010-06-17T07:46:03Z</time>
      </trkpt>
      <trkpt lat="45.54843" lon="4.58888">
        <ele>473</ele>
        <time>2010-06-17T07:46:05Z</time>
      </trkpt>
      <trkpt lat="45.54836" lon="4.58891">
        <ele>473</ele>
        <time>2010-06-17T07:46:07Z</time>
      </trkpt>
      <trkpt lat="45.5483" lon="4.58893">
        <ele>471</ele>
        <time>2010-06-17T07:46:09Z</time>
      </trkpt>
      <trkpt lat="45.54823" lon="4.58897">
        <ele>471</ele>
        <time>2010-06-17T07:46:11Z</time>
      </trkpt>
      <trkpt lat="45.54817" lon="4.58901">
        <ele>471</ele>
        <time>2010-06-17T07:46:13Z</time>
      </trkpt>
      <trkpt lat="45.54811" lon="4.58907">
        <ele>471</ele>
        <time>2010-06-17T07:46:15Z</time>
      </trkpt>
      <trkpt lat="45.54805" lon="4.58914">
        <ele>470</ele>
        <time>2010-06-17T07:46:17Z</time>
      </trkpt>
      <trkpt lat="45.548" lon="4.58922">
        <ele>473</ele>
        <time>2010-06-17T07:46:19Z</time>
      </trkpt>
      <trkpt lat="45.54796" lon="4.5893">
        <ele>472</ele>
        <time>2010-06-17T07:46:21Z</time>
      </trkpt>
      <trkpt lat="45.54792" lon="4.5894">
        <ele>472</ele>
        <time>2010-06-17T07:46:23Z</time>
      </trkpt>
      <trkpt lat="45.54789" lon="4.5895">
        <ele>472</ele>
        <time>2010-06-17T07:46:25Z</time>
      </trkpt>
      <trkpt lat="45.54787" lon="4.58961">
        <ele>472</ele>
        <time>2010-06-17T07:46:27Z</time>
      </trkpt>
      <trkpt lat="45.54786" lon="4.58973">
        <ele>472</ele>
        <time>2010-06-17T07:46:29Z</time>
      </trkpt>
      <trkpt lat="45.54786" lon="4.58985">
        <ele>472</ele>
        <time>2010-06-17T07:46:31Z</time>
      </trkpt>
      <trkpt lat="45.54787" lon="4.58997">
        <ele>473</ele>
        <time>2010-06-17T07:46:33Z</time>
      </trkpt>
      <trkpt lat="45.54789" lon="4.59008">
        <ele>472</ele>
        <time>2010-06-17T07:46:35Z</time>
      </trkpt>
      <trkpt lat="45.54792" lon="4.5902">
        <ele>472</ele>
        <time>2010-06-17T07:46:37Z</time>
      </trkpt>
      <trkpt lat="45.54797" lon="4.5903">
        <ele>472</ele>
        <time>2010-06-17T07:46:39Z</time>
      </trkpt>
      <trkpt lat="45.54801" lon="4.59039">
        <ele>472</ele>
        <time>2010-06-17T07:46:41Z</time>
      </trkpt>
      <trkpt lat="45.54805" lon="4.59047">
        <ele>471</ele>
        <time>2010-06-17T07:46:43Z</time>
      </trkpt>
      <trkpt lat="45.5481" lon="4.59057">
        <ele>471</ele>
        <time>2010-06-17T07:46:46Z</time>
      </trkpt>
      <trkpt lat="45.54812" lon="4.59059">
        <ele>471</ele>
        <time>2010-06-17T07:46:47Z</time>
      </trkpt>
      <trkpt lat="45.54824" lon="4.59066">
        <ele>472</ele>
        <time>2010-06-17T07:47:04Z</time>
      </trkpt>
      <trkpt lat="45.54831" lon="4.59068">
        <ele>472</ele>
        <time>2010-06-17T07:47:07Z</time>
      </trkpt>
      <trkpt lat="45.54838" lon="4.59072">
        <ele>473</ele>
        <time>2010-06-17T07:47:10Z</time>
      </trkpt>
      <trkpt lat="45.54847" lon="4.59075">
        <ele>473</ele>
        <time>2010-06-17T07:47:13Z</time>
      </trkpt>
      <trkpt lat="45.54852" lon="4.59078">
        <ele>473</ele>
        <time>2010-06-17T07:47:15Z</time>
      </trkpt>
      <trkpt lat="45.54859" lon="4.5908">
        <ele>473</ele>
        <time>2010-06-17T07:47:17Z</time>
      </trkpt>
      <trkpt lat="45.54865" lon="4.59081">
        <ele>474</ele>
        <time>2010-06-17T07:47:19Z</time>
      </trkpt>
      <trkpt lat="45.54872" lon="4.59082">
        <ele>474</ele>
        <time>2010-06-17T07:47:21Z</time>
      </trkpt>
      <trkpt lat="45.54879" lon="4.59084">
        <ele>471</ele>
        <time>2010-06-17T07:47:23Z</time>
      </trkpt>
      <trkpt lat="45.54887" lon="4.59088">
        <ele>471</ele>
        <time>2010-06-17T07:47:25Z</time>
      </trkpt>
      <trkpt lat="45.54894" lon="4.59091">
        <ele>471</ele>
        <time>2010-06-17T07:47:27Z</time>
      </trkpt>
      <trkpt lat="45.54901" lon="4.59094">
        <ele>471</ele>
        <time>2010-06-17T07:47:29Z</time>
      </trkpt>
      <trkpt lat="45.54909" lon="4.59097">
        <ele>471</ele>
        <time>2010-06-17T07:47:31Z</time>
      </trkpt>
      <trkpt lat="45.54916" lon="4.59099">
        <ele>472</ele>
        <time>2010-06-17T07:47:33Z</time>
      </trkpt>
      <trkpt lat="45.54924" lon="4.591">
        <ele>473</ele>
        <time>2010-06-17T07:47:35Z</time>
      </trkpt>
      <trkpt lat="45.54932" lon="4.59103">
        <ele>472</ele>
        <time>2010-06-17T07:47:37Z</time>
      </trkpt>
      <trkpt lat="45.54939" lon="4.59105">
        <ele>472</ele>
        <time>2010-06-17T07:47:39Z</time>
      </trkpt>
      <trkpt lat="45.54947" lon="4.59108">
        <ele>473</ele>
        <time>2010-06-17T07:47:41Z</time>
      </trkpt>
      <trkpt lat="45.54954" lon="4.5911">
        <ele>473</ele>
        <time>2010-06-17T07:47:43Z</time>
      </trkpt>
      <trkpt lat="45.54962" lon="4.59112">
        <ele>473</ele>
        <time>2010-06-17T07:47:45Z</time>
      </trkpt>
      <trkpt lat="45.54969" lon="4.59114">
        <ele>473</ele>
        <time>2010-06-17T07:47:47Z</time>
      </trkpt>
      <trkpt lat="45.54972" lon="4.59115">
        <ele>473</ele>
        <time>2010-06-17T07:47:48Z</time>
      </trkpt>
      <trkpt lat="45.54982" lon="4.59117">
        <ele>473</ele>
        <time>2010-06-17T07:47:51Z</time>
      </trkpt>
      <trkpt lat="45.54989" lon="4.59119">
        <ele>473</ele>
        <time>2010-06-17T07:47:53Z</time>
      </trkpt>
      <trkpt lat="45.54995" lon="4.59122">
        <ele>473</ele>
        <time>2010-06-17T07:47:55Z</time>
      </trkpt>
      <trkpt lat="45.55002" lon="4.59125">
        <ele>476</ele>
        <time>2010-06-17T07:47:57Z</time>
      </trkpt>
      <trkpt lat="45.55008" lon="4.59129">
        <ele>475</ele>
        <time>2010-06-17T07:47:59Z</time>
      </trkpt>
      <trkpt lat="45.55015" lon="4.59132">
        <ele>475</ele>
        <time>2010-06-17T07:48:01Z</time>
      </trkpt>
      <trkpt lat="45.55021" lon="4.59136">
        <ele>475</ele>
        <time>2010-06-17T07:48:03Z</time>
      </trkpt>
      <trkpt lat="45.55027" lon="4.5914">
        <ele>475</ele>
        <time>2010-06-17T07:48:05Z</time>
      </trkpt>
      <trkpt lat="45.55033" lon="4.59143">
        <ele>476</ele>
        <time>2010-06-17T07:48:07Z</time>
      </trkpt>
      <trkpt lat="45.5504" lon="4.59147">
        <ele>476</ele>
        <time>2010-06-17T07:48:09Z</time>
      </trkpt>
      <trkpt lat="45.55046" lon="4.59151">
        <ele>476</ele>
        <time>2010-06-17T07:48:11Z</time>
      </trkpt>
      <trkpt lat="45.55052" lon="4.59154">
        <ele>476</ele>
        <time>2010-06-17T07:48:13Z</time>
      </trkpt>
      <trkpt lat="45.55058" lon="4.59157">
        <ele>476</ele>
        <time>2010-06-17T07:48:15Z</time>
      </trkpt>
      <trkpt lat="45.55065" lon="4.5916">
        <ele>477</ele>
        <time>2010-06-17T07:48:17Z</time>
      </trkpt>
      <trkpt lat="45.55071" lon="4.59164">
        <ele>477</ele>
        <time>2010-06-17T07:48:19Z</time>
      </trkpt>
      <trkpt lat="45.55077" lon="4.59168">
        <ele>475</ele>
        <time>2010-06-17T07:48:21Z</time>
      </trkpt>
      <trkpt lat="45.55083" lon="4.59172">
        <ele>476</ele>
        <time>2010-06-17T07:48:23Z</time>
      </trkpt>
      <trkpt lat="45.55089" lon="4.59175">
        <ele>477</ele>
        <time>2010-06-17T07:48:25Z</time>
      </trkpt>
      <trkpt lat="45.55094" lon="4.59179">
        <ele>476</ele>
        <time>2010-06-17T07:48:27Z</time>
      </trkpt>
      <trkpt lat="45.551" lon="4.59183">
        <ele>476</ele>
        <time>2010-06-17T07:48:29Z</time>
      </trkpt>
      <trkpt lat="45.55105" lon="4.59187">
        <ele>476</ele>
        <time>2010-06-17T07:48:31Z</time>
      </trkpt>
      <trkpt lat="45.5511" lon="4.59193">
        <ele>476</ele>
        <time>2010-06-17T07:48:33Z</time>
      </trkpt>
      <trkpt lat="45.55116" lon="4.59198">
        <ele>476</ele>
        <time>2010-06-17T07:48:35Z</time>
      </trkpt>
      <trkpt lat="45.55122" lon="4.59202">
        <ele>476</ele>
        <time>2010-06-17T07:48:37Z</time>
      </trkpt>
      <trkpt lat="45.55128" lon="4.59206">
        <ele>476</ele>
        <time>2010-06-17T07:48:39Z</time>
      </trkpt>
      <trkpt lat="45.55134" lon="4.59211">
        <ele>476</ele>
        <time>2010-06-17T07:48:41Z</time>
      </trkpt>
      <trkpt lat="45.5514" lon="4.59216">
        <ele>476</ele>
        <time>2010-06-17T07:48:43Z</time>
      </trkpt>
      <trkpt lat="45.55146" lon="4.59222">
        <ele>476</ele>
        <time>2010-06-17T07:48:45Z</time>
      </trkpt>
      <trkpt lat="45.55152" lon="4.59226">
        <ele>476</ele>
        <time>2010-06-17T07:48:47Z</time>
      </trkpt>
      <trkpt lat="45.55159" lon="4.5923">
        <ele>476</ele>
        <time>2010-06-17T07:48:49Z</time>
      </trkpt>
      <trkpt lat="45.55163" lon="4.59232">
        <ele>476</ele>
        <time>2010-06-17T07:48:50Z</time>
      </trkpt>
      <trkpt lat="45.55173" lon="4.59238">
        <ele>478</ele>
        <time>2010-06-17T07:48:53Z</time>
      </trkpt>
      <trkpt lat="45.55179" lon="4.59243">
        <ele>478</ele>
        <time>2010-06-17T07:48:55Z</time>
      </trkpt>
      <trkpt lat="45.55185" lon="4.59247">
        <ele>478</ele>
        <time>2010-06-17T07:48:57Z</time>
      </trkpt>
      <trkpt lat="45.55191" lon="4.59252">
        <ele>476</ele>
        <time>2010-06-17T07:48:59Z</time>
      </trkpt>
      <trkpt lat="45.55197" lon="4.59255">
        <ele>476</ele>
        <time>2010-06-17T07:49:01Z</time>
      </trkpt>
      <trkpt lat="45.55204" lon="4.59259">
        <ele>476</ele>
        <time>2010-06-17T07:49:03Z</time>
      </trkpt>
      <trkpt lat="45.55211" lon="4.59262">
        <ele>476</ele>
        <time>2010-06-17T07:49:05Z</time>
      </trkpt>
      <trkpt lat="45.55218" lon="4.59266">
        <ele>476</ele>
        <time>2010-06-17T07:49:07Z</time>
      </trkpt>
      <trkpt lat="45.55225" lon="4.5927">
        <ele>476</ele>
        <time>2010-06-17T07:49:09Z</time>
      </trkpt>
      <trkpt lat="45.55232" lon="4.59274">
        <ele>476</ele>
        <time>2010-06-17T07:49:11Z</time>
      </trkpt>
      <trkpt lat="45.5524" lon="4.59279">
        <ele>476</ele>
        <time>2010-06-17T07:49:13Z</time>
      </trkpt>
      <trkpt lat="45.55247" lon="4.59284">
        <ele>476</ele>
        <time>2010-06-17T07:49:15Z</time>
      </trkpt>
      <trkpt lat="45.55253" lon="4.59288">
        <ele>476</ele>
        <time>2010-06-17T07:49:17Z</time>
      </trkpt>
      <trkpt lat="45.5526" lon="4.59293">
        <ele>476</ele>
        <time>2010-06-17T07:49:21Z</time>
      </trkpt>
      <trkpt lat="45.55267" lon="4.59296">
        <ele>475</ele>
        <time>2010-06-17T07:49:25Z</time>
      </trkpt>
      <trkpt lat="45.55275" lon="4.59298">
        <ele>475</ele>
        <time>2010-06-17T07:49:28Z</time>
      </trkpt>
      <trkpt lat="45.55283" lon="4.59301">
        <ele>475</ele>
        <time>2010-06-17T07:49:31Z</time>
      </trkpt>
      <trkpt lat="45.55289" lon="4.59302">
        <ele>475</ele>
        <time>2010-06-17T07:49:33Z</time>
      </trkpt>
      <trkpt lat="45.55295" lon="4.59304">
        <ele>475</ele>
        <time>2010-06-17T07:49:35Z</time>
      </trkpt>
      <trkpt lat="45.55302" lon="4.59305">
        <ele>475</ele>
        <time>2010-06-17T07:49:37Z</time>
      </trkpt>
      <trkpt lat="45.5531" lon="4.59305">
        <ele>475</ele>
        <time>2010-06-17T07:49:39Z</time>
      </trkpt>
      <trkpt lat="45.55318" lon="4.59306">
        <ele>474</ele>
        <time>2010-06-17T07:49:41Z</time>
      </trkpt>
      <trkpt lat="45.55326" lon="4.59306">
        <ele>474</ele>
        <time>2010-06-17T07:49:43Z</time>
      </trkpt>
      <trkpt lat="45.55334" lon="4.59308">
        <ele>473</ele>
        <time>2010-06-17T07:49:45Z</time>
      </trkpt>
      <trkpt lat="45.55342" lon="4.59309">
        <ele>473</ele>
        <time>2010-06-17T07:49:47Z</time>
      </trkpt>
      <trkpt lat="45.5535" lon="4.5931">
        <ele>473</ele>
        <time>2010-06-17T07:49:49Z</time>
      </trkpt>
      <trkpt lat="45.55358" lon="4.59311">
        <ele>473</ele>
        <time>2010-06-17T07:49:51Z</time>
      </trkpt>
      <trkpt lat="45.55362" lon="4.59311">
        <ele>473</ele>
        <time>2010-06-17T07:49:52Z</time>
      </trkpt>
      <trkpt lat="45.55373" lon="4.5931">
        <ele>472</ele>
        <time>2010-06-17T07:49:55Z</time>
      </trkpt>
      <trkpt lat="45.55379" lon="4.59309">
        <ele>472</ele>
        <time>2010-06-17T07:49:57Z</time>
      </trkpt>
      <trkpt lat="45.55385" lon="4.59308">
        <ele>472</ele>
        <time>2010-06-17T07:49:59Z</time>
      </trkpt>
      <trkpt lat="45.55394" lon="4.59306">
        <ele>472</ele>
        <time>2010-06-17T07:50:02Z</time>
      </trkpt>
      <trkpt lat="45.55403" lon="4.59305">
        <ele>472</ele>
        <time>2010-06-17T07:50:05Z</time>
      </trkpt>
      <trkpt lat="45.5541" lon="4.59302">
        <ele>472</ele>
        <time>2010-06-17T07:50:08Z</time>
      </trkpt>
      <trkpt lat="45.55418" lon="4.593">
        <ele>469</ele>
        <time>2010-06-17T07:50:11Z</time>
      </trkpt>
      <trkpt lat="45.55425" lon="4.593">
        <ele>469</ele>
        <time>2010-06-17T07:50:13Z</time>
      </trkpt>
      <trkpt lat="45.55431" lon="4.59298">
        <ele>469</ele>
        <time>2010-06-17T07:50:15Z</time>
      </trkpt>
      <trkpt lat="45.55437" lon="4.59296">
        <ele>469</ele>
        <time>2010-06-17T07:50:17Z</time>
      </trkpt>
      <trkpt lat="45.55443" lon="4.59295">
        <ele>469</ele>
        <time>2010-06-17T07:50:19Z</time>
      </trkpt>
      <trkpt lat="45.55449" lon="4.59294">
        <ele>469</ele>
        <time>2010-06-17T07:50:21Z</time>
      </trkpt>
      <trkpt lat="45.55455" lon="4.59293">
        <ele>469</ele>
        <time>2010-06-17T07:50:23Z</time>
      </trkpt>
      <trkpt lat="45.55464" lon="4.59291">
        <ele>469</ele>
        <time>2010-06-17T07:50:26Z</time>
      </trkpt>
      <trkpt lat="45.55472" lon="4.5929">
        <ele>469</ele>
        <time>2010-06-17T07:50:29Z</time>
      </trkpt>
      <trkpt lat="45.5548" lon="4.59287">
        <ele>469</ele>
        <time>2010-06-17T07:50:32Z</time>
      </trkpt>
      <trkpt lat="45.55486" lon="4.59286">
        <ele>469</ele>
        <time>2010-06-17T07:50:34Z</time>
      </trkpt>
      <trkpt lat="45.55492" lon="4.59285">
        <ele>469</ele>
        <time>2010-06-17T07:50:36Z</time>
      </trkpt>
      <trkpt lat="45.55499" lon="4.59285">
        <ele>469</ele>
        <time>2010-06-17T07:50:38Z</time>
      </trkpt>
      <trkpt lat="45.55505" lon="4.59283">
        <ele>466</ele>
        <time>2010-06-17T07:50:40Z</time>
      </trkpt>
      <trkpt lat="45.55512" lon="4.59282">
        <ele>466</ele>
        <time>2010-06-17T07:50:42Z</time>
      </trkpt>
      <trkpt lat="45.55519" lon="4.5928">
        <ele>465</ele>
        <time>2010-06-17T07:50:44Z</time>
      </trkpt>
      <trkpt lat="45.55526" lon="4.59278">
        <ele>465</ele>
        <time>2010-06-17T07:50:46Z</time>
      </trkpt>
      <trkpt lat="45.55532" lon="4.59277">
        <ele>465</ele>
        <time>2010-06-17T07:50:48Z</time>
      </trkpt>
      <trkpt lat="45.55538" lon="4.59274">
        <ele>465</ele>
        <time>2010-06-17T07:50:50Z</time>
      </trkpt>
      <trkpt lat="45.55544" lon="4.5927">
        <ele>465</ele>
        <time>2010-06-17T07:50:52Z</time>
      </trkpt>
      <trkpt lat="45.55547" lon="4.59268">
        <ele>465</ele>
        <time>2010-06-17T07:50:53Z</time>
      </trkpt>
      <trkpt lat="45.55556" lon="4.59262">
        <ele>464</ele>
        <time>2010-06-17T07:50:56Z</time>
      </trkpt>
      <trkpt lat="45.55561" lon="4.59256">
        <ele>465</ele>
        <time>2010-06-17T07:50:58Z</time>
      </trkpt>
      <trkpt lat="45.55565" lon="4.59249">
        <ele>468</ele>
        <time>2010-06-17T07:51:00Z</time>
      </trkpt>
      <trkpt lat="45.5557" lon="4.59242">
        <ele>468</ele>
        <time>2010-06-17T07:51:02Z</time>
      </trkpt>
      <trkpt lat="45.55574" lon="4.59234">
        <ele>469</ele>
        <time>2010-06-17T07:51:04Z</time>
      </trkpt>
      <trkpt lat="45.55578" lon="4.59226">
        <ele>469</ele>
        <time>2010-06-17T07:51:06Z</time>
      </trkpt>
      <trkpt lat="45.55583" lon="4.59219">
        <ele>470</ele>
        <time>2010-06-17T07:51:08Z</time>
      </trkpt>
      <trkpt lat="45.55587" lon="4.59211">
        <ele>465</ele>
        <time>2010-06-17T07:51:10Z</time>
      </trkpt>
      <trkpt lat="45.55591" lon="4.59203">
        <ele>466</ele>
        <time>2010-06-17T07:51:12Z</time>
      </trkpt>
      <trkpt lat="45.55596" lon="4.59195">
        <ele>466</ele>
        <time>2010-06-17T07:51:14Z</time>
      </trkpt>
      <trkpt lat="45.556" lon="4.59187">
        <ele>466</ele>
        <time>2010-06-17T07:51:16Z</time>
      </trkpt>
      <trkpt lat="45.55606" lon="4.5918">
        <ele>466</ele>
        <time>2010-06-17T07:51:18Z</time>
      </trkpt>
      <trkpt lat="45.55612" lon="4.59174">
        <ele>466</ele>
        <time>2010-06-17T07:51:20Z</time>
      </trkpt>
      <trkpt lat="45.55619" lon="4.59168">
        <ele>465</ele>
        <time>2010-06-17T07:51:22Z</time>
      </trkpt>
      <trkpt lat="45.55627" lon="4.59164">
        <ele>468</ele>
        <time>2010-06-17T07:51:24Z</time>
      </trkpt>
      <trkpt lat="45.55635" lon="4.59162">
        <ele>468</ele>
        <time>2010-06-17T07:51:26Z</time>
      </trkpt>
      <trkpt lat="45.5564" lon="4.59161">
        <ele>467</ele>
        <time>2010-06-17T07:51:27Z</time>
      </trkpt>
      <trkpt lat="45.55645" lon="4.59161">
        <ele>467</ele>
        <time>2010-06-17T07:51:28Z</time>
      </trkpt>
      <trkpt lat="45.5565" lon="4.59161">
        <ele>466</ele>
        <time>2010-06-17T07:51:29Z</time>
      </trkpt>
      <trkpt lat="45.55655" lon="4.59161">
        <ele>466</ele>
        <time>2010-06-17T07:51:30Z</time>
      </trkpt>
      <trkpt lat="45.5566" lon="4.59162">
        <ele>465</ele>
        <time>2010-06-17T07:51:31Z</time>
      </trkpt>
      <trkpt lat="45.55665" lon="4.59164">
        <ele>464</ele>
        <time>2010-06-17T07:51:32Z</time>
      </trkpt>
      <trkpt lat="45.55671" lon="4.59165">
        <ele>464</ele>
        <time>2010-06-17T07:51:33Z</time>
      </trkpt>
      <trkpt lat="45.55676" lon="4.59168">
        <ele>463</ele>
        <time>2010-06-17T07:51:34Z</time>
      </trkpt>
      <trkpt lat="45.55681" lon="4.59171">
        <ele>463</ele>
        <time>2010-06-17T07:51:35Z</time>
      </trkpt>
      <trkpt lat="45.55686" lon="4.59174">
        <ele>464</ele>
        <time>2010-06-17T07:51:36Z</time>
      </trkpt>
      <trkpt lat="45.55691" lon="4.59178">
        <ele>464</ele>
        <time>2010-06-17T07:51:37Z</time>
      </trkpt>
      <trkpt lat="45.55695" lon="4.59182">
        <ele>464</ele>
        <time>2010-06-17T07:51:38Z</time>
      </trkpt>
      <trkpt lat="45.557" lon="4.59186">
        <ele>464</ele>
        <time>2010-06-17T07:51:39Z</time>
      </trkpt>
      <trkpt lat="45.55704" lon="4.59191">
        <ele>464</ele>
        <time>2010-06-17T07:51:40Z</time>
      </trkpt>
      <trkpt lat="45.55708" lon="4.59197">
        <ele>464</ele>
        <time>2010-06-17T07:51:41Z</time>
      </trkpt>
      <trkpt lat="45.55712" lon="4.59202">
        <ele>464</ele>
        <time>2010-06-17T07:51:42Z</time>
      </trkpt>
      <trkpt lat="45.55716" lon="4.59208">
        <ele>464</ele>
        <time>2010-06-17T07:51:43Z</time>
      </trkpt>
      <trkpt lat="45.55719" lon="4.59214">
        <ele>464</ele>
        <time>2010-06-17T07:51:44Z</time>
      </trkpt>
      <trkpt lat="45.55722" lon="4.5922">
        <ele>464</ele>
        <time>2010-06-17T07:51:45Z</time>
      </trkpt>
      <trkpt lat="45.55725" lon="4.59226">
        <ele>464</ele>
        <time>2010-06-17T07:51:46Z</time>
      </trkpt>
      <trkpt lat="45.55727" lon="4.59232">
        <ele>464</ele>
        <time>2010-06-17T07:51:47Z</time>
      </trkpt>
      <trkpt lat="45.55731" lon="4.59243">
        <ele>464</ele>
        <time>2010-06-17T07:51:49Z</time>
      </trkpt>
      <trkpt lat="45.55732" lon="4.59249">
        <ele>464</ele>
        <time>2010-06-17T07:51:50Z</time>
      </trkpt>
      <trkpt lat="45.55733" lon="4.59255">
        <ele>462</ele>
        <time>2010-06-17T07:51:51Z</time>
      </trkpt>
      <trkpt lat="45.55734" lon="4.59262">
        <ele>462</ele>
        <time>2010-06-17T07:51:52Z</time>
      </trkpt>
      <trkpt lat="45.55735" lon="4.59269">
        <ele>462</ele>
        <time>2010-06-17T07:51:53Z</time>
      </trkpt>
      <trkpt lat="45.55736" lon="4.59276">
        <ele>461</ele>
        <time>2010-06-17T07:51:54Z</time>
      </trkpt>
      <trkpt lat="45.55736" lon="4.59283">
        <ele>461</ele>
        <time>2010-06-17T07:51:55Z</time>
      </trkpt>
      <trkpt lat="45.55736" lon="4.5929">
        <ele>461</ele>
        <time>2010-06-17T07:51:56Z</time>
      </trkpt>
      <trkpt lat="45.55735" lon="4.59297">
        <ele>461</ele>
        <time>2010-06-17T07:51:57Z</time>
      </trkpt>
      <trkpt lat="45.55735" lon="4.59305">
        <ele>461</ele>
        <time>2010-06-17T07:51:58Z</time>
      </trkpt>
      <trkpt lat="45.55734" lon="4.59312">
        <ele>461</ele>
        <time>2010-06-17T07:51:59Z</time>
      </trkpt>
      <trkpt lat="45.55733" lon="4.59319">
        <ele>461</ele>
        <time>2010-06-17T07:52:00Z</time>
      </trkpt>
      <trkpt lat="45.55731" lon="4.59326">
        <ele>461</ele>
        <time>2010-06-17T07:52:01Z</time>
      </trkpt>
      <trkpt lat="45.55729" lon="4.59334">
        <ele>460</ele>
        <time>2010-06-17T07:52:02Z</time>
      </trkpt>
      <trkpt lat="45.55727" lon="4.59341">
        <ele>460</ele>
        <time>2010-06-17T07:52:03Z</time>
      </trkpt>
      <trkpt lat="45.55724" lon="4.59348">
        <ele>460</ele>
        <time>2010-06-17T07:52:04Z</time>
      </trkpt>
      <trkpt lat="45.55722" lon="4.59355">
        <ele>459</ele>
        <time>2010-06-17T07:52:05Z</time>
      </trkpt>
      <trkpt lat="45.55719" lon="4.59361">
        <ele>459</ele>
        <time>2010-06-17T07:52:06Z</time>
      </trkpt>
      <trkpt lat="45.55715" lon="4.59368">
        <ele>458</ele>
        <time>2010-06-17T07:52:07Z</time>
      </trkpt>
      <trkpt lat="45.55711" lon="4.59374">
        <ele>458</ele>
        <time>2010-06-17T07:52:08Z</time>
      </trkpt>
      <trkpt lat="45.55707" lon="4.5938">
        <ele>458</ele>
        <time>2010-06-17T07:52:09Z</time>
      </trkpt>
      <trkpt lat="45.55702" lon="4.59386">
        <ele>458</ele>
        <time>2010-06-17T07:52:10Z</time>
      </trkpt>
      <trkpt lat="45.55698" lon="4.59391">
        <ele>457</ele>
        <time>2010-06-17T07:52:11Z</time>
      </trkpt>
      <trkpt lat="45.55693" lon="4.59397">
        <ele>457</ele>
        <time>2010-06-17T07:52:12Z</time>
      </trkpt>
      <trkpt lat="45.55688" lon="4.59403">
        <ele>456</ele>
        <time>2010-06-17T07:52:13Z</time>
      </trkpt>
      <trkpt lat="45.55684" lon="4.59409">
        <ele>455</ele>
        <time>2010-06-17T07:52:14Z</time>
      </trkpt>
      <trkpt lat="45.55679" lon="4.59415">
        <ele>454</ele>
        <time>2010-06-17T07:52:15Z</time>
      </trkpt>
      <trkpt lat="45.55674" lon="4.59421">
        <ele>455</ele>
        <time>2010-06-17T07:52:16Z</time>
      </trkpt>
      <trkpt lat="45.55669" lon="4.59427">
        <ele>455</ele>
        <time>2010-06-17T07:52:17Z</time>
      </trkpt>
      <trkpt lat="45.55664" lon="4.59433">
        <ele>451</ele>
        <time>2010-06-17T07:52:18Z</time>
      </trkpt>
      <trkpt lat="45.55658" lon="4.59439">
        <ele>451</ele>
        <time>2010-06-17T07:52:19Z</time>
      </trkpt>
      <trkpt lat="45.55653" lon="4.59445">
        <ele>451</ele>
        <time>2010-06-17T07:52:20Z</time>
      </trkpt>
      <trkpt lat="45.55648" lon="4.59451">
        <ele>451</ele>
        <time>2010-06-17T07:52:21Z</time>
      </trkpt>
      <trkpt lat="45.55644" lon="4.59458">
        <ele>451</ele>
        <time>2010-06-17T07:52:22Z</time>
      </trkpt>
      <trkpt lat="45.55639" lon="4.59465">
        <ele>451</ele>
        <time>2010-06-17T07:52:23Z</time>
      </trkpt>
      <trkpt lat="45.55635" lon="4.59472">
        <ele>451</ele>
        <time>2010-06-17T07:52:24Z</time>
      </trkpt>
      <trkpt lat="45.55631" lon="4.5948">
        <ele>451</ele>
        <time>2010-06-17T07:52:25Z</time>
      </trkpt>
      <trkpt lat="45.55627" lon="4.59489">
        <ele>451</ele>
        <time>2010-06-17T07:52:26Z</time>
      </trkpt>
      <trkpt lat="45.55623" lon="4.59497">
        <ele>450</ele>
        <time>2010-06-17T07:52:27Z</time>
      </trkpt>
      <trkpt lat="45.5562" lon="4.59505">
        <ele>452</ele>
        <time>2010-06-17T07:52:28Z</time>
      </trkpt>
      <trkpt lat="45.55617" lon="4.59514">
        <ele>452</ele>
        <time>2010-06-17T07:52:29Z</time>
      </trkpt>
      <trkpt lat="45.55613" lon="4.59522">
        <ele>452</ele>
        <time>2010-06-17T07:52:30Z</time>
      </trkpt>
      <trkpt lat="45.5561" lon="4.59531">
        <ele>452</ele>
        <time>2010-06-17T07:52:31Z</time>
      </trkpt>
      <trkpt lat="45.55607" lon="4.59539">
        <ele>452</ele>
        <time>2010-06-17T07:52:32Z</time>
      </trkpt>
      <trkpt lat="45.55605" lon="4.59547">
        <ele>452</ele>
        <time>2010-06-17T07:52:33Z</time>
      </trkpt>
      <trkpt lat="45.55601" lon="4.59556">
        <ele>452</ele>
        <time>2010-06-17T07:52:34Z</time>
      </trkpt>
      <trkpt lat="45.55598" lon="4.59563">
        <ele>452</ele>
        <time>2010-06-17T07:52:35Z</time>
      </trkpt>
      <trkpt lat="45.55594" lon="4.59571">
        <ele>451</ele>
        <time>2010-06-17T07:52:36Z</time>
      </trkpt>
      <trkpt lat="45.55591" lon="4.59579">
        <ele>450</ele>
        <time>2010-06-17T07:52:37Z</time>
      </trkpt>
      <trkpt lat="45.55586" lon="4.59586">
        <ele>451</ele>
        <time>2010-06-17T07:52:38Z</time>
      </trkpt>
      <trkpt lat="45.55582" lon="4.59593">
        <ele>448</ele>
        <time>2010-06-17T07:52:39Z</time>
      </trkpt>
      <trkpt lat="45.55577" lon="4.596">
        <ele>447</ele>
        <time>2010-06-17T07:52:40Z</time>
      </trkpt>
      <trkpt lat="45.55572" lon="4.59607">
        <ele>447</ele>
        <time>2010-06-17T07:52:41Z</time>
      </trkpt>
      <trkpt lat="45.55568" lon="4.59613">
        <ele>447</ele>
        <time>2010-06-17T07:52:42Z</time>
      </trkpt>
      <trkpt lat="45.55563" lon="4.5962">
        <ele>446</ele>
        <time>2010-06-17T07:52:43Z</time>
      </trkpt>
      <trkpt lat="45.55558" lon="4.59626">
        <ele>446</ele>
        <time>2010-06-17T07:52:44Z</time>
      </trkpt>
      <trkpt lat="45.55554" lon="4.59633">
        <ele>446</ele>
        <time>2010-06-17T07:52:45Z</time>
      </trkpt>
      <trkpt lat="45.55549" lon="4.59639">
        <ele>446</ele>
        <time>2010-06-17T07:52:46Z</time>
      </trkpt>
      <trkpt lat="45.55545" lon="4.59644">
        <ele>446</ele>
        <time>2010-06-17T07:52:47Z</time>
      </trkpt>
      <trkpt lat="45.55541" lon="4.5965">
        <ele>446</ele>
        <time>2010-06-17T07:52:48Z</time>
      </trkpt>
      <trkpt lat="45.55537" lon="4.59656">
        <ele>445</ele>
        <time>2010-06-17T07:52:49Z</time>
      </trkpt>
      <trkpt lat="45.55533" lon="4.59662">
        <ele>445</ele>
        <time>2010-06-17T07:52:50Z</time>
      </trkpt>
      <trkpt lat="45.55529" lon="4.59668">
        <ele>446</ele>
        <time>2010-06-17T07:52:51Z</time>
      </trkpt>
      <trkpt lat="45.55525" lon="4.59674">
        <ele>446</ele>
        <time>2010-06-17T07:52:52Z</time>
      </trkpt>
      <trkpt lat="45.55521" lon="4.5968">
        <ele>446</ele>
        <time>2010-06-17T07:52:53Z</time>
      </trkpt>
      <trkpt lat="45.55517" lon="4.59685">
        <ele>445</ele>
        <time>2010-06-17T07:52:54Z</time>
      </trkpt>
      <trkpt lat="45.55514" lon="4.59691">
        <ele>445</ele>
        <time>2010-06-17T07:52:55Z</time>
      </trkpt>
      <trkpt lat="45.55511" lon="4.59698">
        <ele>446</ele>
        <time>2010-06-17T07:52:56Z</time>
      </trkpt>
      <trkpt lat="45.55508" lon="4.59704">
        <ele>446</ele>
        <time>2010-06-17T07:52:57Z</time>
      </trkpt>
      <trkpt lat="45.55506" lon="4.59712">
        <ele>446</ele>
        <time>2010-06-17T07:52:58Z</time>
      </trkpt>
      <trkpt lat="45.55504" lon="4.59719">
        <ele>445</ele>
        <time>2010-06-17T07:52:59Z</time>
      </trkpt>
      <trkpt lat="45.55502" lon="4.59727">
        <ele>445</ele>
        <time>2010-06-17T07:53:00Z</time>
      </trkpt>
      <trkpt lat="45.555" lon="4.59735">
        <ele>444</ele>
        <time>2010-06-17T07:53:01Z</time>
      </trkpt>
      <trkpt lat="45.55499" lon="4.59743">
        <ele>440</ele>
        <time>2010-06-17T07:53:02Z</time>
      </trkpt>
      <trkpt lat="45.55498" lon="4.59751">
        <ele>441</ele>
        <time>2010-06-17T07:53:03Z</time>
      </trkpt>
      <trkpt lat="45.55497" lon="4.59759">
        <ele>439</ele>
        <time>2010-06-17T07:53:04Z</time>
      </trkpt>
      <trkpt lat="45.55496" lon="4.59768">
        <ele>439</ele>
        <time>2010-06-17T07:53:05Z</time>
      </trkpt>
      <trkpt lat="45.55495" lon="4.59775">
        <ele>438</ele>
        <time>2010-06-17T07:53:06Z</time>
      </trkpt>
      <trkpt lat="45.55493" lon="4.59783">
        <ele>438</ele>
        <time>2010-06-17T07:53:07Z</time>
      </trkpt>
      <trkpt lat="45.55491" lon="4.59791">
        <ele>438</ele>
        <time>2010-06-17T07:53:08Z</time>
      </trkpt>
      <trkpt lat="45.55489" lon="4.59799">
        <ele>438</ele>
        <time>2010-06-17T07:53:09Z</time>
      </trkpt>
      <trkpt lat="45.55486" lon="4.59807">
        <ele>438</ele>
        <time>2010-06-17T07:53:10Z</time>
      </trkpt>
      <trkpt lat="45.55483" lon="4.59814">
        <ele>439</ele>
        <time>2010-06-17T07:53:11Z</time>
      </trkpt>
      <trkpt lat="45.5548" lon="4.59822">
        <ele>439</ele>
        <time>2010-06-17T07:53:12Z</time>
      </trkpt>
      <trkpt lat="45.55476" lon="4.59829">
        <ele>439</ele>
        <time>2010-06-17T07:53:13Z</time>
      </trkpt>
      <trkpt lat="45.55473" lon="4.59836">
        <ele>439</ele>
        <time>2010-06-17T07:53:14Z</time>
      </trkpt>
      <trkpt lat="45.55469" lon="4.59842">
        <ele>439</ele>
        <time>2010-06-17T07:53:15Z</time>
      </trkpt>
      <trkpt lat="45.55465" lon="4.59849">
        <ele>438</ele>
        <time>2010-06-17T07:53:16Z</time>
      </trkpt>
      <trkpt lat="45.55461" lon="4.59856">
        <ele>438</ele>
        <time>2010-06-17T07:53:17Z</time>
      </trkpt>
      <trkpt lat="45.55458" lon="4.59863">
        <ele>438</ele>
        <time>2010-06-17T07:53:18Z</time>
      </trkpt>
      <trkpt lat="45.55455" lon="4.59871">
        <ele>438</ele>
        <time>2010-06-17T07:53:19Z</time>
      </trkpt>
      <trkpt lat="45.55453" lon="4.59879">
        <ele>438</ele>
        <time>2010-06-17T07:53:20Z</time>
      </trkpt>
      <trkpt lat="45.55452" lon="4.59887">
        <ele>438</ele>
        <time>2010-06-17T07:53:21Z</time>
      </trkpt>
      <trkpt lat="45.5545" lon="4.59896">
        <ele>437</ele>
        <time>2010-06-17T07:53:22Z</time>
      </trkpt>
      <trkpt lat="45.55448" lon="4.59905">
        <ele>437</ele>
        <time>2010-06-17T07:53:23Z</time>
      </trkpt>
      <trkpt lat="45.55446" lon="4.59913">
        <ele>437</ele>
        <time>2010-06-17T07:53:24Z</time>
      </trkpt>
      <trkpt lat="45.55445" lon="4.59922">
        <ele>438</ele>
        <time>2010-06-17T07:53:25Z</time>
      </trkpt>
      <trkpt lat="45.55443" lon="4.59931">
        <ele>438</ele>
        <time>2010-06-17T07:53:26Z</time>
      </trkpt>
      <trkpt lat="45.55441" lon="4.5994">
        <ele>438</ele>
        <time>2010-06-17T07:53:27Z</time>
      </trkpt>
      <trkpt lat="45.55439" lon="4.59949">
        <ele>438</ele>
        <time>2010-06-17T07:53:28Z</time>
      </trkpt>
      <trkpt lat="45.55437" lon="4.59958">
        <ele>438</ele>
        <time>2010-06-17T07:53:29Z</time>
      </trkpt>
      <trkpt lat="45.55436" lon="4.59967">
        <ele>438</ele>
        <time>2010-06-17T07:53:30Z</time>
      </trkpt>
      <trkpt lat="45.55434" lon="4.59976">
        <ele>438</ele>
        <time>2010-06-17T07:53:31Z</time>
      </trkpt>
      <trkpt lat="45.55432" lon="4.59986">
        <ele>437</ele>
        <time>2010-06-17T07:53:32Z</time>
      </trkpt>
      <trkpt lat="45.55431" lon="4.59995">
        <ele>436</ele>
        <time>2010-06-17T07:53:33Z</time>
      </trkpt>
      <trkpt lat="45.55429" lon="4.60004">
        <ele>436</ele>
        <time>2010-06-17T07:53:34Z</time>
      </trkpt>
      <trkpt lat="45.55428" lon="4.60013">
        <ele>437</ele>
        <time>2010-06-17T07:53:35Z</time>
      </trkpt>
      <trkpt lat="45.55427" lon="4.60023">
        <ele>438</ele>
        <time>2010-06-17T07:53:36Z</time>
      </trkpt>
      <trkpt lat="45.55426" lon="4.60032">
        <ele>438</ele>
        <time>2010-06-17T07:53:37Z</time>
      </trkpt>
      <trkpt lat="45.55425" lon="4.60041">
        <ele>438</ele>
        <time>2010-06-17T07:53:38Z</time>
      </trkpt>
      <trkpt lat="45.55425" lon="4.60051">
        <ele>438</ele>
        <time>2010-06-17T07:53:39Z</time>
      </trkpt>
      <trkpt lat="45.55424" lon="4.6006">
        <ele>438</ele>
        <time>2010-06-17T07:53:40Z</time>
      </trkpt>
      <trkpt lat="45.55423" lon="4.60068">
        <ele>437</ele>
        <time>2010-06-17T07:53:41Z</time>
      </trkpt>
      <trkpt lat="45.55422" lon="4.60077">
        <ele>435</ele>
        <time>2010-06-17T07:53:42Z</time>
      </trkpt>
      <trkpt lat="45.55421" lon="4.60086">
        <ele>435</ele>
        <time>2010-06-17T07:53:43Z</time>
      </trkpt>
      <trkpt lat="45.55421" lon="4.60094">
        <ele>436</ele>
        <time>2010-06-17T07:53:44Z</time>
      </trkpt>
      <trkpt lat="45.5542" lon="4.60102">
        <ele>437</ele>
        <time>2010-06-17T07:53:45Z</time>
      </trkpt>
      <trkpt lat="45.5542" lon="4.60111">
        <ele>437</ele>
        <time>2010-06-17T07:53:46Z</time>
      </trkpt>
      <trkpt lat="45.55419" lon="4.60118">
        <ele>438</ele>
        <time>2010-06-17T07:53:47Z</time>
      </trkpt>
      <trkpt lat="45.55419" lon="4.60126">
        <ele>438</ele>
        <time>2010-06-17T07:53:48Z</time>
      </trkpt>
      <trkpt lat="45.5542" lon="4.60134">
        <ele>438</ele>
        <time>2010-06-17T07:53:49Z</time>
      </trkpt>
      <trkpt lat="45.5542" lon="4.60142">
        <ele>437</ele>
        <time>2010-06-17T07:53:50Z</time>
      </trkpt>
      <trkpt lat="45.5542" lon="4.60149">
        <ele>437</ele>
        <time>2010-06-17T07:53:51Z</time>
      </trkpt>
      <trkpt lat="45.55419" lon="4.60156">
        <ele>436</ele>
        <time>2010-06-17T07:53:52Z</time>
      </trkpt>
      <trkpt lat="45.55418" lon="4.60163">
        <ele>434</ele>
        <time>2010-06-17T07:53:53Z</time>
      </trkpt>
      <trkpt lat="45.55417" lon="4.6017">
        <ele>434</ele>
        <time>2010-06-17T07:53:54Z</time>
      </trkpt>
      <trkpt lat="45.55417" lon="4.60178">
        <ele>431</ele>
        <time>2010-06-17T07:53:55Z</time>
      </trkpt>
      <trkpt lat="45.55416" lon="4.60185">
        <ele>430</ele>
        <time>2010-06-17T07:53:56Z</time>
      </trkpt>
      <trkpt lat="45.55415" lon="4.60192">
        <ele>429</ele>
        <time>2010-06-17T07:53:57Z</time>
      </trkpt>
      <trkpt lat="45.55416" lon="4.60199">
        <ele>429</ele>
        <time>2010-06-17T07:53:58Z</time>
      </trkpt>
      <trkpt lat="45.55416" lon="4.60212">
        <ele>428</ele>
        <time>2010-06-17T07:54:00Z</time>
      </trkpt>
      <trkpt lat="45.55415" lon="4.60223">
        <ele>429</ele>
        <time>2010-06-17T07:54:02Z</time>
      </trkpt>
      <trkpt lat="45.55415" lon="4.60236">
        <ele>430</ele>
        <time>2010-06-17T07:54:04Z</time>
      </trkpt>
      <trkpt lat="45.55416" lon="4.60242">
        <ele>430</ele>
        <time>2010-06-17T07:54:05Z</time>
      </trkpt>
      <trkpt lat="45.55417" lon="4.60249">
        <ele>432</ele>
        <time>2010-06-17T07:54:06Z</time>
      </trkpt>
      <trkpt lat="45.55418" lon="4.60255">
        <ele>433</ele>
        <time>2010-06-17T07:54:07Z</time>
      </trkpt>
      <trkpt lat="45.5542" lon="4.60267">
        <ele>433</ele>
        <time>2010-06-17T07:54:09Z</time>
      </trkpt>
      <trkpt lat="45.55423" lon="4.60277">
        <ele>433</ele>
        <time>2010-06-17T07:54:11Z</time>
      </trkpt>
      <trkpt lat="45.55426" lon="4.60288">
        <ele>433</ele>
        <time>2010-06-17T07:54:14Z</time>
      </trkpt>
      <trkpt lat="45.5543" lon="4.60298">
        <ele>433</ele>
        <time>2010-06-17T07:54:17Z</time>
      </trkpt>
      <trkpt lat="45.55435" lon="4.60309">
        <ele>433</ele>
        <time>2010-06-17T07:54:20Z</time>
      </trkpt>
      <trkpt lat="45.5544" lon="4.60318">
        <ele>432</ele>
        <time>2010-06-17T07:54:23Z</time>
      </trkpt>
      <trkpt lat="45.55445" lon="4.60328">
        <ele>433</ele>
        <time>2010-06-17T07:54:26Z</time>
      </trkpt>
      <trkpt lat="45.55451" lon="4.60336">
        <ele>429</ele>
        <time>2010-06-17T07:54:29Z</time>
      </trkpt>
      <trkpt lat="45.55457" lon="4.60345">
        <ele>429</ele>
        <time>2010-06-17T07:54:32Z</time>
      </trkpt>
      <trkpt lat="45.55461" lon="4.60351">
        <ele>429</ele>
        <time>2010-06-17T07:54:34Z</time>
      </trkpt>
      <trkpt lat="45.55468" lon="4.60359">
        <ele>430</ele>
        <time>2010-06-17T07:54:37Z</time>
      </trkpt>
      <trkpt lat="45.55474" lon="4.60366">
        <ele>430</ele>
        <time>2010-06-17T07:54:40Z</time>
      </trkpt>
      <trkpt lat="45.55481" lon="4.60371">
        <ele>429</ele>
        <time>2010-06-17T07:54:43Z</time>
      </trkpt>
      <trkpt lat="45.55488" lon="4.60376">
        <ele>429</ele>
        <time>2010-06-17T07:54:46Z</time>
      </trkpt>
      <trkpt lat="45.55494" lon="4.60381">
        <ele>429</ele>
        <time>2010-06-17T07:54:49Z</time>
      </trkpt>
      <trkpt lat="45.55501" lon="4.60384">
        <ele>431</ele>
        <time>2010-06-17T07:54:52Z</time>
      </trkpt>
      <trkpt lat="45.55507" lon="4.60388">
        <ele>431</ele>
        <time>2010-06-17T07:54:55Z</time>
      </trkpt>
      <trkpt lat="45.55515" lon="4.60393">
        <ele>431</ele>
        <time>2010-06-17T07:54:59Z</time>
      </trkpt>
      <trkpt lat="45.55517" lon="4.60394">
        <ele>431</ele>
        <time>2010-06-17T07:55:00Z</time>
      </trkpt>
      <trkpt lat="45.55532" lon="4.60401">
        <ele>431</ele>
        <time>2010-06-17T07:55:07Z</time>
      </trkpt>
      <trkpt lat="45.55539" lon="4.60404">
        <ele>431</ele>
        <time>2010-06-17T07:55:11Z</time>
      </trkpt>
      <trkpt lat="45.55546" lon="4.60409">
        <ele>431</ele>
        <time>2010-06-17T07:55:15Z</time>
      </trkpt>
      <trkpt lat="45.55553" lon="4.60414">
        <ele>431</ele>
        <time>2010-06-17T07:55:19Z</time>
      </trkpt>
      <trkpt lat="45.55561" lon="4.60419">
        <ele>427</ele>
        <time>2010-06-17T07:55:27Z</time>
      </trkpt>
      <trkpt lat="45.55566" lon="4.60427">
        <ele>427</ele>
        <time>2010-06-17T07:55:59Z</time>
      </trkpt>
      <trkpt lat="45.55574" lon="4.60432">
        <ele>427</ele>
        <time>2010-06-17T07:56:02Z</time>
      </trkpt>
      <trkpt lat="45.55576" lon="4.60433">
        <ele>427</ele>
        <time>2010-06-17T07:56:03Z</time>
      </trkpt>
      <trkpt lat="45.55586" lon="4.60439">
        <ele>427</ele>
        <time>2010-06-17T07:56:06Z</time>
      </trkpt>
      <trkpt lat="45.55592" lon="4.60442">
        <ele>426</ele>
        <time>2010-06-17T07:56:08Z</time>
      </trkpt>
      <trkpt lat="45.55599" lon="4.60446">
        <ele>426</ele>
        <time>2010-06-17T07:56:10Z</time>
      </trkpt>
      <trkpt lat="45.55606" lon="4.6045">
        <ele>426</ele>
        <time>2010-06-17T07:56:12Z</time>
      </trkpt>
      <trkpt lat="45.55613" lon="4.60454">
        <ele>426</ele>
        <time>2010-06-17T07:56:14Z</time>
      </trkpt>
      <trkpt lat="45.5562" lon="4.60459">
        <ele>425</ele>
        <time>2010-06-17T07:56:16Z</time>
      </trkpt>
      <trkpt lat="45.55628" lon="4.60464">
        <ele>425</ele>
        <time>2010-06-17T07:56:18Z</time>
      </trkpt>
      <trkpt lat="45.55635" lon="4.60468">
        <ele>425</ele>
        <time>2010-06-17T07:56:20Z</time>
      </trkpt>
      <trkpt lat="45.55642" lon="4.60472">
        <ele>425</ele>
        <time>2010-06-17T07:56:22Z</time>
      </trkpt>
      <trkpt lat="45.55649" lon="4.60475">
        <ele>425</ele>
        <time>2010-06-17T07:56:24Z</time>
      </trkpt>
      <trkpt lat="45.55656" lon="4.60478">
        <ele>425</ele>
        <time>2010-06-17T07:56:27Z</time>
      </trkpt>
      <trkpt lat="45.55664" lon="4.60482">
        <ele>424</ele>
        <time>2010-06-17T07:56:30Z</time>
      </trkpt>
      <trkpt lat="45.5567" lon="4.60485">
        <ele>425</ele>
        <time>2010-06-17T07:56:32Z</time>
      </trkpt>
      <trkpt lat="45.55676" lon="4.60487">
        <ele>425</ele>
        <time>2010-06-17T07:56:34Z</time>
      </trkpt>
      <trkpt lat="45.55683" lon="4.6049">
        <ele>425</ele>
        <time>2010-06-17T07:56:36Z</time>
      </trkpt>
      <trkpt lat="45.5569" lon="4.60492">
        <ele>425</ele>
        <time>2010-06-17T07:56:38Z</time>
      </trkpt>
      <trkpt lat="45.55698" lon="4.60495">
        <ele>426</ele>
        <time>2010-06-17T07:56:40Z</time>
      </trkpt>
      <trkpt lat="45.55705" lon="4.60498">
        <ele>426</ele>
        <time>2010-06-17T07:56:42Z</time>
      </trkpt>
      <trkpt lat="45.55713" lon="4.605">
        <ele>426</ele>
        <time>2010-06-17T07:56:44Z</time>
      </trkpt>
      <trkpt lat="45.55721" lon="4.60502">
        <ele>422</ele>
        <time>2010-06-17T07:56:46Z</time>
      </trkpt>
      <trkpt lat="45.55728" lon="4.60504">
        <ele>423</ele>
        <time>2010-06-17T07:56:48Z</time>
      </trkpt>
      <trkpt lat="45.55735" lon="4.60506">
        <ele>423</ele>
        <time>2010-06-17T07:56:50Z</time>
      </trkpt>
      <trkpt lat="45.55744" lon="4.60507">
        <ele>424</ele>
        <time>2010-06-17T07:56:53Z</time>
      </trkpt>
      <trkpt lat="45.55752" lon="4.60511">
        <ele>424</ele>
        <time>2010-06-17T07:56:56Z</time>
      </trkpt>
      <trkpt lat="45.55758" lon="4.60516">
        <ele>424</ele>
        <time>2010-06-17T07:56:58Z</time>
      </trkpt>
      <trkpt lat="45.55764" lon="4.60522">
        <ele>423</ele>
        <time>2010-06-17T07:57:00Z</time>
      </trkpt>
      <trkpt lat="45.55767" lon="4.60527">
        <ele>423</ele>
        <time>2010-06-17T07:57:01Z</time>
      </trkpt>
      <trkpt lat="45.55771" lon="4.60531">
        <ele>423</ele>
        <time>2010-06-17T07:57:02Z</time>
      </trkpt>
      <trkpt lat="45.55775" lon="4.60536">
        <ele>423</ele>
        <time>2010-06-17T07:57:03Z</time>
      </trkpt>
      <trkpt lat="45.55779" lon="4.60542">
        <ele>423</ele>
        <time>2010-06-17T07:57:04Z</time>
      </trkpt>
      <trkpt lat="45.55783" lon="4.60547">
        <ele>422</ele>
        <time>2010-06-17T07:57:05Z</time>
      </trkpt>
      <trkpt lat="45.55788" lon="4.60552">
        <ele>422</ele>
        <time>2010-06-17T07:57:06Z</time>
      </trkpt>
      <trkpt lat="45.55792" lon="4.60558">
        <ele>422</ele>
        <time>2010-06-17T07:57:07Z</time>
      </trkpt>
      <trkpt lat="45.55797" lon="4.60563">
        <ele>422</ele>
        <time>2010-06-17T07:57:08Z</time>
      </trkpt>
      <trkpt lat="45.55802" lon="4.60569">
        <ele>422</ele>
        <time>2010-06-17T07:57:09Z</time>
      </trkpt>
      <trkpt lat="45.55807" lon="4.60575">
        <ele>422</ele>
        <time>2010-06-17T07:57:10Z</time>
      </trkpt>
      <trkpt lat="45.55812" lon="4.6058">
        <ele>422</ele>
        <time>2010-06-17T07:57:11Z</time>
      </trkpt>
      <trkpt lat="45.55817" lon="4.60586">
        <ele>419</ele>
        <time>2010-06-17T07:57:12Z</time>
      </trkpt>
      <trkpt lat="45.55822" lon="4.60592">
        <ele>419</ele>
        <time>2010-06-17T07:57:13Z</time>
      </trkpt>
      <trkpt lat="45.55828" lon="4.60597">
        <ele>419</ele>
        <time>2010-06-17T07:57:14Z</time>
      </trkpt>
      <trkpt lat="45.55834" lon="4.60602">
        <ele>420</ele>
        <time>2010-06-17T07:57:15Z</time>
      </trkpt>
      <trkpt lat="45.55839" lon="4.60608">
        <ele>420</ele>
        <time>2010-06-17T07:57:16Z</time>
      </trkpt>
      <trkpt lat="45.55845" lon="4.60613">
        <ele>420</ele>
        <time>2010-06-17T07:57:17Z</time>
      </trkpt>
      <trkpt lat="45.55852" lon="4.60619">
        <ele>419</ele>
        <time>2010-06-17T07:57:18Z</time>
      </trkpt>
      <trkpt lat="45.55858" lon="4.60625">
        <ele>419</ele>
        <time>2010-06-17T07:57:19Z</time>
      </trkpt>
      <trkpt lat="45.55864" lon="4.60631">
        <ele>419</ele>
        <time>2010-06-17T07:57:20Z</time>
      </trkpt>
      <trkpt lat="45.5587" lon="4.60638">
        <ele>419</ele>
        <time>2010-06-17T07:57:21Z</time>
      </trkpt>
      <trkpt lat="45.55877" lon="4.60645">
        <ele>419</ele>
        <time>2010-06-17T07:57:22Z</time>
      </trkpt>
      <trkpt lat="45.55883" lon="4.60651">
        <ele>419</ele>
        <time>2010-06-17T07:57:23Z</time>
      </trkpt>
      <trkpt lat="45.5589" lon="4.60658">
        <ele>419</ele>
        <time>2010-06-17T07:57:24Z</time>
      </trkpt>
      <trkpt lat="45.55895" lon="4.60665">
        <ele>419</ele>
        <time>2010-06-17T07:57:25Z</time>
      </trkpt>
      <trkpt lat="45.559" lon="4.60674">
        <ele>416</ele>
        <time>2010-06-17T07:57:26Z</time>
      </trkpt>
      <trkpt lat="45.55903" lon="4.60683">
        <ele>416</ele>
        <time>2010-06-17T07:57:27Z</time>
      </trkpt>
      <trkpt lat="45.55906" lon="4.60693">
        <ele>415</ele>
        <time>2010-06-17T07:57:28Z</time>
      </trkpt>
      <trkpt lat="45.55908" lon="4.60703">
        <ele>414</ele>
        <time>2010-06-17T07:57:29Z</time>
      </trkpt>
      <trkpt lat="45.5591" lon="4.60712">
        <ele>414</ele>
        <time>2010-06-17T07:57:30Z</time>
      </trkpt>
      <trkpt lat="45.55912" lon="4.60721">
        <ele>413</ele>
        <time>2010-06-17T07:57:31Z</time>
      </trkpt>
      <trkpt lat="45.55915" lon="4.60729">
        <ele>413</ele>
        <time>2010-06-17T07:57:32Z</time>
      </trkpt>
      <trkpt lat="45.55918" lon="4.60736">
        <ele>414</ele>
        <time>2010-06-17T07:57:33Z</time>
      </trkpt>
      <trkpt lat="45.55921" lon="4.60743">
        <ele>414</ele>
        <time>2010-06-17T07:57:34Z</time>
      </trkpt>
      <trkpt lat="45.55924" lon="4.6075">
        <ele>413</ele>
        <time>2010-06-17T07:57:35Z</time>
      </trkpt>
      <trkpt lat="45.55928" lon="4.60755">
        <ele>412</ele>
        <time>2010-06-17T07:57:36Z</time>
      </trkpt>
      <trkpt lat="45.55934" lon="4.6076">
        <ele>412</ele>
        <time>2010-06-17T07:57:37Z</time>
      </trkpt>
      <trkpt lat="45.5594" lon="4.60764">
        <ele>412</ele>
        <time>2010-06-17T07:57:38Z</time>
      </trkpt>
      <trkpt lat="45.55946" lon="4.60766">
        <ele>413</ele>
        <time>2010-06-17T07:57:39Z</time>
      </trkpt>
      <trkpt lat="45.55953" lon="4.60769">
        <ele>413</ele>
        <time>2010-06-17T07:57:40Z</time>
      </trkpt>
      <trkpt lat="45.5596" lon="4.60772">
        <ele>413</ele>
        <time>2010-06-17T07:57:41Z</time>
      </trkpt>
      <trkpt lat="45.55965" lon="4.60776">
        <ele>413</ele>
        <time>2010-06-17T07:57:42Z</time>
      </trkpt>
      <trkpt lat="45.55969" lon="4.60783">
        <ele>413</ele>
        <time>2010-06-17T07:57:43Z</time>
      </trkpt>
      <trkpt lat="45.55973" lon="4.60789">
        <ele>413</ele>
        <time>2010-06-17T07:57:44Z</time>
      </trkpt>
      <trkpt lat="45.55978" lon="4.60799">
        <ele>413</ele>
        <time>2010-06-17T07:57:46Z</time>
      </trkpt>
      <trkpt lat="45.55975" lon="4.60809">
        <ele>413</ele>
        <time>2010-06-17T07:57:48Z</time>
      </trkpt>
      <trkpt lat="45.55971" lon="4.60819">
        <ele>413</ele>
        <time>2010-06-17T07:57:50Z</time>
      </trkpt>
      <trkpt lat="45.55969" lon="4.60829">
        <ele>412</ele>
        <time>2010-06-17T07:57:52Z</time>
      </trkpt>
      <trkpt lat="45.55967" lon="4.60838">
        <ele>410</ele>
        <time>2010-06-17T07:57:54Z</time>
      </trkpt>
      <trkpt lat="45.55965" lon="4.60846">
        <ele>410</ele>
        <time>2010-06-17T07:57:56Z</time>
      </trkpt>
      <trkpt lat="45.55963" lon="4.60854">
        <ele>410</ele>
        <time>2010-06-17T07:57:58Z</time>
      </trkpt>
      <trkpt lat="45.55961" lon="4.60863">
        <ele>410</ele>
        <time>2010-06-17T07:58:00Z</time>
      </trkpt>
      <trkpt lat="45.5596" lon="4.60872">
        <ele>410</ele>
        <time>2010-06-17T07:58:02Z</time>
      </trkpt>
      <trkpt lat="45.55959" lon="4.60883">
        <ele>409</ele>
        <time>2010-06-17T07:58:04Z</time>
      </trkpt>
      <trkpt lat="45.55959" lon="4.60888">
        <ele>409</ele>
        <time>2010-06-17T07:58:05Z</time>
      </trkpt>
      <trkpt lat="45.55959" lon="4.60906">
        <ele>409</ele>
        <time>2010-06-17T07:58:08Z</time>
      </trkpt>
      <trkpt lat="45.55959" lon="4.60918">
        <ele>408</ele>
        <time>2010-06-17T07:58:10Z</time>
      </trkpt>
      <trkpt lat="45.55959" lon="4.60931">
        <ele>408</ele>
        <time>2010-06-17T07:58:12Z</time>
      </trkpt>
      <trkpt lat="45.55959" lon="4.60937">
        <ele>408</ele>
        <time>2010-06-17T07:58:13Z</time>
      </trkpt>
      <trkpt lat="45.55958" lon="4.60944">
        <ele>407</ele>
        <time>2010-06-17T07:58:14Z</time>
      </trkpt>
      <trkpt lat="45.55958" lon="4.60951">
        <ele>407</ele>
        <time>2010-06-17T07:58:15Z</time>
      </trkpt>
      <trkpt lat="45.55958" lon="4.60958">
        <ele>407</ele>
        <time>2010-06-17T07:58:16Z</time>
      </trkpt>
      <trkpt lat="45.55958" lon="4.60971">
        <ele>407</ele>
        <time>2010-06-17T07:58:18Z</time>
      </trkpt>
      <trkpt lat="45.55958" lon="4.60982">
        <ele>407</ele>
        <time>2010-06-17T07:58:20Z</time>
      </trkpt>
      <trkpt lat="45.55958" lon="4.60993">
        <ele>407</ele>
        <time>2010-06-17T07:58:22Z</time>
      </trkpt>
      <trkpt lat="45.55961" lon="4.61003">
        <ele>404</ele>
        <time>2010-06-17T07:58:24Z</time>
      </trkpt>
      <trkpt lat="45.55966" lon="4.61012">
        <ele>404</ele>
        <time>2010-06-17T07:58:26Z</time>
      </trkpt>
      <trkpt lat="45.5597" lon="4.61016">
        <ele>404</ele>
        <time>2010-06-17T07:58:27Z</time>
      </trkpt>
      <trkpt lat="45.55976" lon="4.61025">
        <ele>404</ele>
        <time>2010-06-17T07:58:29Z</time>
      </trkpt>
      <trkpt lat="45.55981" lon="4.61034">
        <ele>404</ele>
        <time>2010-06-17T07:58:31Z</time>
      </trkpt>
      <trkpt lat="45.55987" lon="4.61043">
        <ele>404</ele>
        <time>2010-06-17T07:58:33Z</time>
      </trkpt>
      <trkpt lat="45.55993" lon="4.61052">
        <ele>403</ele>
        <time>2010-06-17T07:58:35Z</time>
      </trkpt>
      <trkpt lat="45.55996" lon="4.61057">
        <ele>403</ele>
        <time>2010-06-17T07:58:36Z</time>
      </trkpt>
      <trkpt lat="45.56" lon="4.61062">
        <ele>403</ele>
        <time>2010-06-17T07:58:37Z</time>
      </trkpt>
      <trkpt lat="45.56003" lon="4.61067">
        <ele>403</ele>
        <time>2010-06-17T07:58:38Z</time>
      </trkpt>
      <trkpt lat="45.56007" lon="4.61072">
        <ele>403</ele>
        <time>2010-06-17T07:58:39Z</time>
      </trkpt>
      <trkpt lat="45.5601" lon="4.61077">
        <ele>403</ele>
        <time>2010-06-17T07:58:40Z</time>
      </trkpt>
      <trkpt lat="45.56013" lon="4.61083">
        <ele>403</ele>
        <time>2010-06-17T07:58:41Z</time>
      </trkpt>
      <trkpt lat="45.56016" lon="4.61088">
        <ele>401</ele>
        <time>2010-06-17T07:58:42Z</time>
      </trkpt>
      <trkpt lat="45.56019" lon="4.61094">
        <ele>401</ele>
        <time>2010-06-17T07:58:43Z</time>
      </trkpt>
      <trkpt lat="45.56023" lon="4.61099">
        <ele>401</ele>
        <time>2010-06-17T07:58:44Z</time>
      </trkpt>
      <trkpt lat="45.56026" lon="4.61104">
        <ele>401</ele>
        <time>2010-06-17T07:58:45Z</time>
      </trkpt>
      <trkpt lat="45.5603" lon="4.6111">
        <ele>401</ele>
        <time>2010-06-17T07:58:46Z</time>
      </trkpt>
      <trkpt lat="45.56033" lon="4.61115">
        <ele>401</ele>
        <time>2010-06-17T07:58:47Z</time>
      </trkpt>
      <trkpt lat="45.56037" lon="4.61121">
        <ele>401</ele>
        <time>2010-06-17T07:58:48Z</time>
      </trkpt>
      <trkpt lat="45.5604" lon="4.61127">
        <ele>400</ele>
        <time>2010-06-17T07:58:49Z</time>
      </trkpt>
      <trkpt lat="45.56043" lon="4.61132">
        <ele>400</ele>
        <time>2010-06-17T07:58:50Z</time>
      </trkpt>
      <trkpt lat="45.56046" lon="4.61137">
        <ele>400</ele>
        <time>2010-06-17T07:58:51Z</time>
      </trkpt>
      <trkpt lat="45.56049" lon="4.61142">
        <ele>400</ele>
        <time>2010-06-17T07:58:52Z</time>
      </trkpt>
      <trkpt lat="45.56053" lon="4.61148">
        <ele>400</ele>
        <time>2010-06-17T07:58:53Z</time>
      </trkpt>
      <trkpt lat="45.56056" lon="4.61153">
        <ele>400</ele>
        <time>2010-06-17T07:58:54Z</time>
      </trkpt>
      <trkpt lat="45.56059" lon="4.61158">
        <ele>400</ele>
        <time>2010-06-17T07:58:55Z</time>
      </trkpt>
      <trkpt lat="45.56063" lon="4.61163">
        <ele>400</ele>
        <time>2010-06-17T07:58:56Z</time>
      </trkpt>
      <trkpt lat="45.56066" lon="4.61169">
        <ele>397</ele>
        <time>2010-06-17T07:58:57Z</time>
      </trkpt>
      <trkpt lat="45.56069" lon="4.61174">
        <ele>397</ele>
        <time>2010-06-17T07:58:58Z</time>
      </trkpt>
      <trkpt lat="45.56072" lon="4.6118">
        <ele>397</ele>
        <time>2010-06-17T07:58:59Z</time>
      </trkpt>
      <trkpt lat="45.56076" lon="4.61186">
        <ele>397</ele>
        <time>2010-06-17T07:59:00Z</time>
      </trkpt>
      <trkpt lat="45.56079" lon="4.61192">
        <ele>396</ele>
        <time>2010-06-17T07:59:01Z</time>
      </trkpt>
      <trkpt lat="45.56082" lon="4.61198">
        <ele>396</ele>
        <time>2010-06-17T07:59:02Z</time>
      </trkpt>
      <trkpt lat="45.56085" lon="4.61205">
        <ele>396</ele>
        <time>2010-06-17T07:59:03Z</time>
      </trkpt>
      <trkpt lat="45.56087" lon="4.61212">
        <ele>396</ele>
        <time>2010-06-17T07:59:04Z</time>
      </trkpt>
      <trkpt lat="45.5609" lon="4.61218">
        <ele>395</ele>
        <time>2010-06-17T07:59:05Z</time>
      </trkpt>
      <trkpt lat="45.56092" lon="4.61225">
        <ele>395</ele>
        <time>2010-06-17T07:59:06Z</time>
      </trkpt>
      <trkpt lat="45.56094" lon="4.61232">
        <ele>394</ele>
        <time>2010-06-17T07:59:07Z</time>
      </trkpt>
      <trkpt lat="45.56096" lon="4.61239">
        <ele>394</ele>
        <time>2010-06-17T07:59:08Z</time>
      </trkpt>
      <trkpt lat="45.56097" lon="4.61247">
        <ele>394</ele>
        <time>2010-06-17T07:59:09Z</time>
      </trkpt>
      <trkpt lat="45.56099" lon="4.61254">
        <ele>392</ele>
        <time>2010-06-17T07:59:10Z</time>
      </trkpt>
      <trkpt lat="45.561" lon="4.61262">
        <ele>391</ele>
        <time>2010-06-17T07:59:11Z</time>
      </trkpt>
      <trkpt lat="45.56102" lon="4.61269">
        <ele>391</ele>
        <time>2010-06-17T07:59:12Z</time>
      </trkpt>
      <trkpt lat="45.56103" lon="4.61277">
        <ele>391</ele>
        <time>2010-06-17T07:59:13Z</time>
      </trkpt>
      <trkpt lat="45.56104" lon="4.61285">
        <ele>391</ele>
        <time>2010-06-17T07:59:14Z</time>
      </trkpt>
      <trkpt lat="45.56106" lon="4.61292">
        <ele>391</ele>
        <time>2010-06-17T07:59:15Z</time>
      </trkpt>
      <trkpt lat="45.56108" lon="4.61299">
        <ele>391</ele>
        <time>2010-06-17T07:59:16Z</time>
      </trkpt>
      <trkpt lat="45.5611" lon="4.61306">
        <ele>390</ele>
        <time>2010-06-17T07:59:17Z</time>
      </trkpt>
      <trkpt lat="45.56112" lon="4.61313">
        <ele>390</ele>
        <time>2010-06-17T07:59:18Z</time>
      </trkpt>
      <trkpt lat="45.56115" lon="4.6132">
        <ele>390</ele>
        <time>2010-06-17T07:59:19Z</time>
      </trkpt>
      <trkpt lat="45.56118" lon="4.61327">
        <ele>390</ele>
        <time>2010-06-17T07:59:20Z</time>
      </trkpt>
      <trkpt lat="45.56121" lon="4.61334">
        <ele>387</ele>
        <time>2010-06-17T07:59:21Z</time>
      </trkpt>
      <trkpt lat="45.56124" lon="4.61341">
        <ele>387</ele>
        <time>2010-06-17T07:59:22Z</time>
      </trkpt>
      <trkpt lat="45.56127" lon="4.61348">
        <ele>387</ele>
        <time>2010-06-17T07:59:23Z</time>
      </trkpt>
      <trkpt lat="45.5613" lon="4.61355">
        <ele>387</ele>
        <time>2010-06-17T07:59:24Z</time>
      </trkpt>
      <trkpt lat="45.56134" lon="4.61362">
        <ele>387</ele>
        <time>2010-06-17T07:59:25Z</time>
      </trkpt>
      <trkpt lat="45.56137" lon="4.6137">
        <ele>387</ele>
        <time>2010-06-17T07:59:26Z</time>
      </trkpt>
      <trkpt lat="45.5614" lon="4.61377">
        <ele>387</ele>
        <time>2010-06-17T07:59:27Z</time>
      </trkpt>
      <trkpt lat="45.56142" lon="4.61386">
        <ele>386</ele>
        <time>2010-06-17T07:59:28Z</time>
      </trkpt>
      <trkpt lat="45.56145" lon="4.61394">
        <ele>386</ele>
        <time>2010-06-17T07:59:29Z</time>
      </trkpt>
      <trkpt lat="45.56147" lon="4.61403">
        <ele>386</ele>
        <time>2010-06-17T07:59:30Z</time>
      </trkpt>
      <trkpt lat="45.56149" lon="4.61411">
        <ele>386</ele>
        <time>2010-06-17T07:59:31Z</time>
      </trkpt>
      <trkpt lat="45.56151" lon="4.6142">
        <ele>383</ele>
        <time>2010-06-17T07:59:32Z</time>
      </trkpt>
      <trkpt lat="45.56152" lon="4.61429">
        <ele>383</ele>
        <time>2010-06-17T07:59:33Z</time>
      </trkpt>
      <trkpt lat="45.56154" lon="4.61437">
        <ele>383</ele>
        <time>2010-06-17T07:59:34Z</time>
      </trkpt>
      <trkpt lat="45.56155" lon="4.61445">
        <ele>382</ele>
        <time>2010-06-17T07:59:35Z</time>
      </trkpt>
      <trkpt lat="45.56156" lon="4.61452">
        <ele>382</ele>
        <time>2010-06-17T07:59:36Z</time>
      </trkpt>
      <trkpt lat="45.56157" lon="4.61465">
        <ele>382</ele>
        <time>2010-06-17T07:59:38Z</time>
      </trkpt>
      <trkpt lat="45.56158" lon="4.61476">
        <ele>381</ele>
        <time>2010-06-17T07:59:40Z</time>
      </trkpt>
      <trkpt lat="45.56158" lon="4.61485">
        <ele>381</ele>
        <time>2010-06-17T07:59:42Z</time>
      </trkpt>
      <trkpt lat="45.56158" lon="4.61495">
        <ele>381</ele>
        <time>2010-06-17T07:59:44Z</time>
      </trkpt>
      <trkpt lat="45.56158" lon="4.61507">
        <ele>380</ele>
        <time>2010-06-17T07:59:46Z</time>
      </trkpt>
      <trkpt lat="45.56157" lon="4.61517">
        <ele>380</ele>
        <time>2010-06-17T07:59:48Z</time>
      </trkpt>
      <trkpt lat="45.5616" lon="4.61529">
        <ele>379</ele>
        <time>2010-06-17T07:59:52Z</time>
      </trkpt>
      <trkpt lat="45.56161" lon="4.61541">
        <ele>379</ele>
        <time>2010-06-17T08:00:31Z</time>
      </trkpt>
      <trkpt lat="45.56161" lon="4.61542">
        <ele>379</ele>
        <time>2010-06-17T08:00:32Z</time>
      </trkpt>
      <trkpt lat="45.56161" lon="4.61562">
        <ele>379</ele>
        <time>2010-06-17T08:00:39Z</time>
      </trkpt>
      <trkpt lat="45.5616" lon="4.6157">
        <ele>380</ele>
        <time>2010-06-17T08:00:41Z</time>
      </trkpt>
      <trkpt lat="45.56159" lon="4.6158">
        <ele>380</ele>
        <time>2010-06-17T08:00:43Z</time>
      </trkpt>
      <trkpt lat="45.56159" lon="4.61591">
        <ele>380</ele>
        <time>2010-06-17T08:00:45Z</time>
      </trkpt>
      <trkpt lat="45.56158" lon="4.61603">
        <ele>379</ele>
        <time>2010-06-17T08:00:47Z</time>
      </trkpt>
      <trkpt lat="45.56159" lon="4.61615">
        <ele>378</ele>
        <time>2010-06-17T08:00:49Z</time>
      </trkpt>
      <trkpt lat="45.56159" lon="4.61628">
        <ele>378</ele>
        <time>2010-06-17T08:00:51Z</time>
      </trkpt>
      <trkpt lat="45.5616" lon="4.6164">
        <ele>378</ele>
        <time>2010-06-17T08:00:53Z</time>
      </trkpt>
      <trkpt lat="45.56161" lon="4.61652">
        <ele>379</ele>
        <time>2010-06-17T08:00:55Z</time>
      </trkpt>
      <trkpt lat="45.56163" lon="4.61663">
        <ele>379</ele>
        <time>2010-06-17T08:00:57Z</time>
      </trkpt>
      <trkpt lat="45.56165" lon="4.61675">
        <ele>379</ele>
        <time>2010-06-17T08:00:59Z</time>
      </trkpt>
      <trkpt lat="45.56168" lon="4.61686">
        <ele>382</ele>
        <time>2010-06-17T08:01:01Z</time>
      </trkpt>
      <trkpt lat="45.56171" lon="4.61696">
        <ele>382</ele>
        <time>2010-06-17T08:01:03Z</time>
      </trkpt>
      <trkpt lat="45.56174" lon="4.61705">
        <ele>383</ele>
        <time>2010-06-17T08:01:05Z</time>
      </trkpt>
      <trkpt lat="45.56178" lon="4.61715">
        <ele>383</ele>
        <time>2010-06-17T08:01:07Z</time>
      </trkpt>
      <trkpt lat="45.56181" lon="4.61725">
        <ele>382</ele>
        <time>2010-06-17T08:01:09Z</time>
      </trkpt>
      <trkpt lat="45.56185" lon="4.61735">
        <ele>382</ele>
        <time>2010-06-17T08:01:11Z</time>
      </trkpt>
      <trkpt lat="45.56189" lon="4.61746">
        <ele>382</ele>
        <time>2010-06-17T08:01:13Z</time>
      </trkpt>
      <trkpt lat="45.56193" lon="4.61757">
        <ele>381</ele>
        <time>2010-06-17T08:01:15Z</time>
      </trkpt>
      <trkpt lat="45.56198" lon="4.61767">
        <ele>381</ele>
        <time>2010-06-17T08:01:17Z</time>
      </trkpt>
      <trkpt lat="45.562" lon="4.61773">
        <ele>381</ele>
        <time>2010-06-17T08:01:18Z</time>
      </trkpt>
      <trkpt lat="45.56202" lon="4.61779">
        <ele>381</ele>
        <time>2010-06-17T08:01:19Z</time>
      </trkpt>
      <trkpt lat="45.56204" lon="4.61785">
        <ele>381</ele>
        <time>2010-06-17T08:01:20Z</time>
      </trkpt>
      <trkpt lat="45.56206" lon="4.61791">
        <ele>381</ele>
        <time>2010-06-17T08:01:21Z</time>
      </trkpt>
      <trkpt lat="45.56208" lon="4.61797">
        <ele>381</ele>
        <time>2010-06-17T08:01:22Z</time>
      </trkpt>
      <trkpt lat="45.5621" lon="4.61803">
        <ele>381</ele>
        <time>2010-06-17T08:01:23Z</time>
      </trkpt>
      <trkpt lat="45.56213" lon="4.61809">
        <ele>381</ele>
        <time>2010-06-17T08:01:24Z</time>
      </trkpt>
      <trkpt lat="45.56215" lon="4.61815">
        <ele>381</ele>
        <time>2010-06-17T08:01:25Z</time>
      </trkpt>
      <trkpt lat="45.56217" lon="4.61821">
        <ele>380</ele>
        <time>2010-06-17T08:01:26Z</time>
      </trkpt>
      <trkpt lat="45.56218" lon="4.61828">
        <ele>380</ele>
        <time>2010-06-17T08:01:27Z</time>
      </trkpt>
      <trkpt lat="45.5622" lon="4.61834">
        <ele>379</ele>
        <time>2010-06-17T08:01:28Z</time>
      </trkpt>
      <trkpt lat="45.56222" lon="4.6184">
        <ele>379</ele>
        <time>2010-06-17T08:01:29Z</time>
      </trkpt>
      <trkpt lat="45.56224" lon="4.61846">
        <ele>379</ele>
        <time>2010-06-17T08:01:30Z</time>
      </trkpt>
      <trkpt lat="45.56225" lon="4.61853">
        <ele>379</ele>
        <time>2010-06-17T08:01:31Z</time>
      </trkpt>
      <trkpt lat="45.56227" lon="4.61859">
        <ele>379</ele>
        <time>2010-06-17T08:01:32Z</time>
      </trkpt>
      <trkpt lat="45.56229" lon="4.61866">
        <ele>379</ele>
        <time>2010-06-17T08:01:33Z</time>
      </trkpt>
      <trkpt lat="45.56231" lon="4.61872">
        <ele>378</ele>
        <time>2010-06-17T08:01:34Z</time>
      </trkpt>
      <trkpt lat="45.56233" lon="4.61878">
        <ele>378</ele>
        <time>2010-06-17T08:01:35Z</time>
      </trkpt>
      <trkpt lat="45.56235" lon="4.61885">
        <ele>378</ele>
        <time>2010-06-17T08:01:36Z</time>
      </trkpt>
      <trkpt lat="45.56237" lon="4.61891">
        <ele>378</ele>
        <time>2010-06-17T08:01:37Z</time>
      </trkpt>
      <trkpt lat="45.56239" lon="4.61897">
        <ele>378</ele>
        <time>2010-06-17T08:01:38Z</time>
      </trkpt>
      <trkpt lat="45.56243" lon="4.61909">
        <ele>378</ele>
        <time>2010-06-17T08:01:40Z</time>
      </trkpt>
      <trkpt lat="45.56246" lon="4.61918">
        <ele>378</ele>
        <time>2010-06-17T08:01:42Z</time>
      </trkpt>
      <trkpt lat="45.56253" lon="4.61922">
        <ele>377</ele>
        <time>2010-06-17T08:01:47Z</time>
      </trkpt>
      <trkpt lat="45.56261" lon="4.61917">
        <ele>377</ele>
        <time>2010-06-17T08:01:52Z</time>
      </trkpt>
      <trkpt lat="45.56268" lon="4.61911">
        <ele>378</ele>
        <time>2010-06-17T08:01:57Z</time>
      </trkpt>
      <trkpt lat="45.56275" lon="4.61906">
        <ele>378</ele>
        <time>2010-06-17T08:02:00Z</time>
      </trkpt>
      <trkpt lat="45.56281" lon="4.61901">
        <ele>378</ele>
        <time>2010-06-17T08:02:03Z</time>
      </trkpt>
      <trkpt lat="45.56287" lon="4.61895">
        <ele>378</ele>
        <time>2010-06-17T08:02:06Z</time>
      </trkpt>
      <trkpt lat="45.56293" lon="4.61889">
        <ele>378</ele>
        <time>2010-06-17T08:02:09Z</time>
      </trkpt>
      <trkpt lat="45.563" lon="4.61883">
        <ele>378</ele>
        <time>2010-06-17T08:02:13Z</time>
      </trkpt>
      <trkpt lat="45.56307" lon="4.61876">
        <ele>378</ele>
        <time>2010-06-17T08:02:17Z</time>
      </trkpt>
      <trkpt lat="45.56314" lon="4.61871">
        <ele>378</ele>
        <time>2010-06-17T08:02:20Z</time>
      </trkpt>
      <trkpt lat="45.5632" lon="4.61865">
        <ele>379</ele>
        <time>2010-06-17T08:02:23Z</time>
      </trkpt>
      <trkpt lat="45.56327" lon="4.61859">
        <ele>379</ele>
        <time>2010-06-17T08:02:26Z</time>
      </trkpt>
      <trkpt lat="45.56333" lon="4.61853">
        <ele>379</ele>
        <time>2010-06-17T08:02:29Z</time>
      </trkpt>
      <trkpt lat="45.5634" lon="4.61846">
        <ele>378</ele>
        <time>2010-06-17T08:02:32Z</time>
      </trkpt>
      <trkpt lat="45.56346" lon="4.61839">
        <ele>378</ele>
        <time>2010-06-17T08:02:35Z</time>
      </trkpt>
      <trkpt lat="45.56348" lon="4.61837">
        <ele>378</ele>
        <time>2010-06-17T08:02:36Z</time>
      </trkpt>
      <trkpt lat="45.56359" lon="4.61826">
        <ele>381</ele>
        <time>2010-06-17T08:02:41Z</time>
      </trkpt>
      <trkpt lat="45.56365" lon="4.61819">
        <ele>381</ele>
        <time>2010-06-17T08:02:44Z</time>
      </trkpt>
      <trkpt lat="45.56371" lon="4.61813">
        <ele>381</ele>
        <time>2010-06-17T08:02:47Z</time>
      </trkpt>
      <trkpt lat="45.56376" lon="4.61805">
        <ele>382</ele>
        <time>2010-06-17T08:02:50Z</time>
      </trkpt>
      <trkpt lat="45.56382" lon="4.61797">
        <ele>382</ele>
        <time>2010-06-17T08:02:53Z</time>
      </trkpt>
      <trkpt lat="45.56388" lon="4.6179">
        <ele>382</ele>
        <time>2010-06-17T08:02:56Z</time>
      </trkpt>
      <trkpt lat="45.56396" lon="4.61784">
        <ele>382</ele>
        <time>2010-06-17T08:03:01Z</time>
      </trkpt>
      <trkpt lat="45.56403" lon="4.61781">
        <ele>382</ele>
        <time>2010-06-17T08:03:05Z</time>
      </trkpt>
      <trkpt lat="45.56411" lon="4.61778">
        <ele>382</ele>
        <time>2010-06-17T08:03:09Z</time>
      </trkpt>
      <trkpt lat="45.56418" lon="4.61774">
        <ele>381</ele>
        <time>2010-06-17T08:03:12Z</time>
      </trkpt>
      <trkpt lat="45.56425" lon="4.6177">
        <ele>381</ele>
        <time>2010-06-17T08:03:15Z</time>
      </trkpt>
      <trkpt lat="45.56432" lon="4.61766">
        <ele>381</ele>
        <time>2010-06-17T08:03:18Z</time>
      </trkpt>
      <trkpt lat="45.5644" lon="4.61763">
        <ele>381</ele>
        <time>2010-06-17T08:03:21Z</time>
      </trkpt>
      <trkpt lat="45.56448" lon="4.61759">
        <ele>380</ele>
        <time>2010-06-17T08:03:25Z</time>
      </trkpt>
      <trkpt lat="45.56457" lon="4.61757">
        <ele>380</ele>
        <time>2010-06-17T08:03:29Z</time>
      </trkpt>
      <trkpt lat="45.56466" lon="4.61755">
        <ele>379</ele>
        <time>2010-06-17T08:03:33Z</time>
      </trkpt>
      <trkpt lat="45.56473" lon="4.61754">
        <ele>379</ele>
        <time>2010-06-17T08:03:36Z</time>
      </trkpt>
      <trkpt lat="45.56475" lon="4.61753">
        <ele>379</ele>
        <time>2010-06-17T08:03:37Z</time>
      </trkpt>
      <trkpt lat="45.56487" lon="4.61749">
        <ele>382</ele>
        <time>2010-06-17T08:03:42Z</time>
      </trkpt>
      <trkpt lat="45.56493" lon="4.61746">
        <ele>381</ele>
        <time>2010-06-17T08:03:45Z</time>
      </trkpt>
      <trkpt lat="45.565" lon="4.61744">
        <ele>380</ele>
        <time>2010-06-17T08:03:48Z</time>
      </trkpt>
      <trkpt lat="45.56507" lon="4.6174">
        <ele>379</ele>
        <time>2010-06-17T08:03:51Z</time>
      </trkpt>
      <trkpt lat="45.56514" lon="4.61736">
        <ele>379</ele>
        <time>2010-06-17T08:03:54Z</time>
      </trkpt>
      <trkpt lat="45.56522" lon="4.61733">
        <ele>379</ele>
        <time>2010-06-17T08:03:57Z</time>
      </trkpt>
      <trkpt lat="45.5653" lon="4.6173">
        <ele>379</ele>
        <time>2010-06-17T08:04:00Z</time>
      </trkpt>
      <trkpt lat="45.56538" lon="4.61726">
        <ele>379</ele>
        <time>2010-06-17T08:04:03Z</time>
      </trkpt>
      <trkpt lat="45.56546" lon="4.61721">
        <ele>379</ele>
        <time>2010-06-17T08:04:06Z</time>
      </trkpt>
      <trkpt lat="45.56552" lon="4.61718">
        <ele>379</ele>
        <time>2010-06-17T08:04:08Z</time>
      </trkpt>
      <trkpt lat="45.5656" lon="4.61714">
        <ele>379</ele>
        <time>2010-06-17T08:04:11Z</time>
      </trkpt>
      <trkpt lat="45.56568" lon="4.6171">
        <ele>379</ele>
        <time>2010-06-17T08:04:14Z</time>
      </trkpt>
      <trkpt lat="45.56575" lon="4.61706">
        <ele>379</ele>
        <time>2010-06-17T08:04:17Z</time>
      </trkpt>
      <trkpt lat="45.56584" lon="4.61703">
        <ele>377</ele>
        <time>2010-06-17T08:04:20Z</time>
      </trkpt>
      <trkpt lat="45.5659" lon="4.617">
        <ele>377</ele>
        <time>2010-06-17T08:04:22Z</time>
      </trkpt>
      <trkpt lat="45.56596" lon="4.61696">
        <ele>377</ele>
        <time>2010-06-17T08:04:24Z</time>
      </trkpt>
      <trkpt lat="45.56603" lon="4.61691">
        <ele>377</ele>
        <time>2010-06-17T08:04:27Z</time>
      </trkpt>
      <trkpt lat="45.56611" lon="4.61687">
        <ele>377</ele>
        <time>2010-06-17T08:04:30Z</time>
      </trkpt>
      <trkpt lat="45.56618" lon="4.61682">
        <ele>377</ele>
        <time>2010-06-17T08:04:33Z</time>
      </trkpt>
      <trkpt lat="45.56626" lon="4.61676">
        <ele>377</ele>
        <time>2010-06-17T08:04:36Z</time>
      </trkpt>
      <trkpt lat="45.56633" lon="4.61669">
        <ele>377</ele>
        <time>2010-06-17T08:04:39Z</time>
      </trkpt>
      <trkpt lat="45.56636" lon="4.61666">
        <ele>378</ele>
        <time>2010-06-17T08:04:40Z</time>
      </trkpt>
      <trkpt lat="45.56645" lon="4.61656">
        <ele>378</ele>
        <time>2010-06-17T08:04:44Z</time>
      </trkpt>
      <trkpt lat="45.56652" lon="4.61649">
        <ele>378</ele>
        <time>2010-06-17T08:04:47Z</time>
      </trkpt>
      <trkpt lat="45.56659" lon="4.61641">
        <ele>378</ele>
        <time>2010-06-17T08:04:50Z</time>
      </trkpt>
      <trkpt lat="45.56665" lon="4.61633">
        <ele>378</ele>
        <time>2010-06-17T08:04:53Z</time>
      </trkpt>
      <trkpt lat="45.56671" lon="4.61624">
        <ele>376</ele>
        <time>2010-06-17T08:04:56Z</time>
      </trkpt>
      <trkpt lat="45.56677" lon="4.61616">
        <ele>376</ele>
        <time>2010-06-17T08:04:59Z</time>
      </trkpt>
      <trkpt lat="45.56682" lon="4.61608">
        <ele>376</ele>
        <time>2010-06-17T08:05:03Z</time>
      </trkpt>
      <trkpt lat="45.56687" lon="4.616">
        <ele>376</ele>
        <time>2010-06-17T08:05:07Z</time>
      </trkpt>
      <trkpt lat="45.56692" lon="4.61592">
        <ele>376</ele>
        <time>2010-06-17T08:05:11Z</time>
      </trkpt>
      <trkpt lat="45.56697" lon="4.61586">
        <ele>376</ele>
        <time>2010-06-17T08:05:14Z</time>
      </trkpt>
      <trkpt lat="45.56703" lon="4.61579">
        <ele>377</ele>
        <time>2010-06-17T08:05:17Z</time>
      </trkpt>
      <trkpt lat="45.56709" lon="4.61571">
        <ele>377</ele>
        <time>2010-06-17T08:05:20Z</time>
      </trkpt>
      <trkpt lat="45.56712" lon="4.61563">
        <ele>377</ele>
        <time>2010-06-17T08:05:22Z</time>
      </trkpt>
      <trkpt lat="45.56715" lon="4.61554">
        <ele>377</ele>
        <time>2010-06-17T08:05:24Z</time>
      </trkpt>
      <trkpt lat="45.56718" lon="4.61546">
        <ele>377</ele>
        <time>2010-06-17T08:05:26Z</time>
      </trkpt>
      <trkpt lat="45.56723" lon="4.6154">
        <ele>377</ele>
        <time>2010-06-17T08:05:28Z</time>
      </trkpt>
      <trkpt lat="45.56731" lon="4.61537">
        <ele>377</ele>
        <time>2010-06-17T08:05:31Z</time>
      </trkpt>
      <trkpt lat="45.56739" lon="4.6154">
        <ele>377</ele>
        <time>2010-06-17T08:05:34Z</time>
      </trkpt>
      <trkpt lat="45.56746" lon="4.61541">
        <ele>376</ele>
        <time>2010-06-17T08:05:37Z</time>
      </trkpt>
      <trkpt lat="45.56754" lon="4.61542">
        <ele>376</ele>
        <time>2010-06-17T08:05:40Z</time>
      </trkpt>
      <trkpt lat="45.56757" lon="4.61542">
        <ele>376</ele>
        <time>2010-06-17T08:05:41Z</time>
      </trkpt>
      <trkpt lat="45.56769" lon="4.61542">
        <ele>376</ele>
        <time>2010-06-17T08:05:46Z</time>
      </trkpt>
      <trkpt lat="45.56778" lon="4.61543">
        <ele>376</ele>
        <time>2010-06-17T08:05:50Z</time>
      </trkpt>
      <trkpt lat="45.56785" lon="4.61543">
        <ele>376</ele>
        <time>2010-06-17T08:05:53Z</time>
      </trkpt>
      <trkpt lat="45.56792" lon="4.61542">
        <ele>376</ele>
        <time>2010-06-17T08:05:56Z</time>
      </trkpt>
      <trkpt lat="45.568" lon="4.61542">
        <ele>376</ele>
        <time>2010-06-17T08:05:59Z</time>
      </trkpt>
      <trkpt lat="45.56808" lon="4.61536">
        <ele>376</ele>
        <time>2010-06-17T08:06:03Z</time>
      </trkpt>
      <trkpt lat="45.56815" lon="4.61529">
        <ele>376</ele>
        <time>2010-06-17T08:06:07Z</time>
      </trkpt>
      <trkpt lat="45.56823" lon="4.61527">
        <ele>376</ele>
        <time>2010-06-17T08:06:11Z</time>
      </trkpt>
      <trkpt lat="45.56831" lon="4.61532">
        <ele>376</ele>
        <time>2010-06-17T08:06:15Z</time>
      </trkpt>
      <trkpt lat="45.56839" lon="4.61536">
        <ele>376</ele>
        <time>2010-06-17T08:06:19Z</time>
      </trkpt>
      <trkpt lat="45.56847" lon="4.61539">
        <ele>376</ele>
        <time>2010-06-17T08:06:23Z</time>
      </trkpt>
      <trkpt lat="45.56854" lon="4.61542">
        <ele>376</ele>
        <time>2010-06-17T08:06:26Z</time>
      </trkpt>
      <trkpt lat="45.56861" lon="4.61545">
        <ele>376</ele>
        <time>2010-06-17T08:06:29Z</time>
      </trkpt>
      <trkpt lat="45.56868" lon="4.61547">
        <ele>376</ele>
        <time>2010-06-17T08:06:32Z</time>
      </trkpt>
      <trkpt lat="45.56875" lon="4.6155">
        <ele>376</ele>
        <time>2010-06-17T08:06:35Z</time>
      </trkpt>
      <trkpt lat="45.56883" lon="4.61553">
        <ele>376</ele>
        <time>2010-06-17T08:06:39Z</time>
      </trkpt>
      <trkpt lat="45.5689" lon="4.61556">
        <ele>376</ele>
        <time>2010-06-17T08:06:42Z</time>
      </trkpt>
      <trkpt lat="45.56892" lon="4.61556">
        <ele>376</ele>
        <time>2010-06-17T08:06:43Z</time>
      </trkpt>
      <trkpt lat="45.56904" lon="4.61561">
        <ele>376</ele>
        <time>2010-06-17T08:06:48Z</time>
      </trkpt>
      <trkpt lat="45.56911" lon="4.61563">
        <ele>376</ele>
        <time>2010-06-17T08:06:51Z</time>
      </trkpt>
      <trkpt lat="45.5692" lon="4.61565">
        <ele>377</ele>
        <time>2010-06-17T08:06:55Z</time>
      </trkpt>
      <trkpt lat="45.56928" lon="4.61567">
        <ele>377</ele>
        <time>2010-06-17T08:06:59Z</time>
      </trkpt>
      <trkpt lat="45.56936" lon="4.6157">
        <ele>378</ele>
        <time>2010-06-17T08:07:03Z</time>
      </trkpt>
      <trkpt lat="45.56943" lon="4.61572">
        <ele>378</ele>
        <time>2010-06-17T08:07:07Z</time>
      </trkpt>
      <trkpt lat="45.56951" lon="4.61576">
        <ele>378</ele>
        <time>2010-06-17T08:07:11Z</time>
      </trkpt>
      <trkpt lat="45.5696" lon="4.6158">
        <ele>379</ele>
        <time>2010-06-17T08:07:15Z</time>
      </trkpt>
      <trkpt lat="45.56968" lon="4.61584">
        <ele>377</ele>
        <time>2010-06-17T08:07:19Z</time>
      </trkpt>
      <trkpt lat="45.56975" lon="4.61588">
        <ele>377</ele>
        <time>2010-06-17T08:07:23Z</time>
      </trkpt>
      <trkpt lat="45.56983" lon="4.61592">
        <ele>378</ele>
        <time>2010-06-17T08:07:27Z</time>
      </trkpt>
      <trkpt lat="45.5699" lon="4.61595">
        <ele>378</ele>
        <time>2010-06-17T08:07:31Z</time>
      </trkpt>
      <trkpt lat="45.56998" lon="4.61599">
        <ele>378</ele>
        <time>2010-06-17T08:07:35Z</time>
      </trkpt>
      <trkpt lat="45.57006" lon="4.61602">
        <ele>380</ele>
        <time>2010-06-17T08:07:39Z</time>
      </trkpt>
      <trkpt lat="45.57014" lon="4.61606">
        <ele>380</ele>
        <time>2010-06-17T08:07:43Z</time>
      </trkpt>
      <trkpt lat="45.57016" lon="4.61606">
        <ele>380</ele>
        <time>2010-06-17T08:07:44Z</time>
      </trkpt>
      <trkpt lat="45.5703" lon="4.61613">
        <ele>381</ele>
        <time>2010-06-17T08:07:51Z</time>
      </trkpt>
      <trkpt lat="45.57038" lon="4.61617">
        <ele>381</ele>
        <time>2010-06-17T08:07:55Z</time>
      </trkpt>
      <trkpt lat="45.57045" lon="4.6162">
        <ele>381</ele>
        <time>2010-06-17T08:07:59Z</time>
      </trkpt>
      <trkpt lat="45.57053" lon="4.61624">
        <ele>381</ele>
        <time>2010-06-17T08:08:04Z</time>
      </trkpt>
      <trkpt lat="45.5706" lon="4.61629">
        <ele>381</ele>
        <time>2010-06-17T08:08:12Z</time>
      </trkpt>
      <trkpt lat="45.57067" lon="4.61635">
        <ele>381</ele>
        <time>2010-06-17T08:08:22Z</time>
      </trkpt>
      <trkpt lat="45.57074" lon="4.61642">
        <ele>381</ele>
        <time>2010-06-17T08:08:31Z</time>
      </trkpt>
      <trkpt lat="45.57082" lon="4.61649">
        <ele>381</ele>
        <time>2010-06-17T08:08:39Z</time>
      </trkpt>
      <trkpt lat="45.57089" lon="4.61655">
        <ele>381</ele>
        <time>2010-06-17T08:08:46Z</time>
      </trkpt>
      <trkpt lat="45.5709" lon="4.61656">
        <ele>381</ele>
        <time>2010-06-17T08:08:47Z</time>
      </trkpt>
      <trkpt lat="45.57104" lon="4.61664">
        <ele>382</ele>
        <time>2010-06-17T08:09:00Z</time>
      </trkpt>
      <trkpt lat="45.57112" lon="4.61667">
        <ele>379</ele>
        <time>2010-06-17T08:09:06Z</time>
      </trkpt>
      <trkpt lat="45.57121" lon="4.61668">
        <ele>379</ele>
        <time>2010-06-17T08:09:12Z</time>
      </trkpt>
      <trkpt lat="45.57129" lon="4.61669">
        <ele>379</ele>
        <time>2010-06-17T08:09:17Z</time>
      </trkpt>
      <trkpt lat="45.57137" lon="4.61669">
        <ele>379</ele>
        <time>2010-06-17T08:09:22Z</time>
      </trkpt>
      <trkpt lat="45.57146" lon="4.61669">
        <ele>380</ele>
        <time>2010-06-17T08:09:28Z</time>
      </trkpt>
      <trkpt lat="45.57154" lon="4.61667">
        <ele>380</ele>
        <time>2010-06-17T08:09:34Z</time>
      </trkpt>
      <trkpt lat="45.57163" lon="4.61666">
        <ele>381</ele>
        <time>2010-06-17T08:09:39Z</time>
      </trkpt>
      <trkpt lat="45.57172" lon="4.61666">
        <ele>381</ele>
        <time>2010-06-17T08:09:43Z</time>
      </trkpt>
      <trkpt lat="45.5718" lon="4.61665">
        <ele>381</ele>
        <time>2010-06-17T08:09:47Z</time>
      </trkpt>
      <trkpt lat="45.57182" lon="4.61664">
        <ele>381</ele>
        <time>2010-06-17T08:09:48Z</time>
      </trkpt>
      <trkpt lat="45.57195" lon="4.61662">
        <ele>381</ele>
        <time>2010-06-17T08:09:55Z</time>
      </trkpt>
      <trkpt lat="45.57204" lon="4.61659">
        <ele>381</ele>
        <time>2010-06-17T08:09:59Z</time>
      </trkpt>
      <trkpt lat="45.57211" lon="4.61655">
        <ele>381</ele>
        <time>2010-06-17T08:10:02Z</time>
      </trkpt>
      <trkpt lat="45.57217" lon="4.61651">
        <ele>381</ele>
        <time>2010-06-17T08:10:05Z</time>
      </trkpt>
      <trkpt lat="45.57224" lon="4.61646">
        <ele>381</ele>
        <time>2010-06-17T08:10:08Z</time>
      </trkpt>
      <trkpt lat="45.57231" lon="4.61642">
        <ele>380</ele>
        <time>2010-06-17T08:10:11Z</time>
      </trkpt>
      <trkpt lat="45.57238" lon="4.61637">
        <ele>381</ele>
        <time>2010-06-17T08:10:14Z</time>
      </trkpt>
      <trkpt lat="45.57246" lon="4.61634">
        <ele>381</ele>
        <time>2010-06-17T08:10:18Z</time>
      </trkpt>
      <trkpt lat="45.57253" lon="4.61627">
        <ele>377</ele>
        <time>2010-06-17T08:10:22Z</time>
      </trkpt>
      <trkpt lat="45.57261" lon="4.61622">
        <ele>377</ele>
        <time>2010-06-17T08:10:26Z</time>
      </trkpt>
      <trkpt lat="45.57267" lon="4.61618">
        <ele>377</ele>
        <time>2010-06-17T08:10:29Z</time>
      </trkpt>
      <trkpt lat="45.57275" lon="4.61614">
        <ele>377</ele>
        <time>2010-06-17T08:10:32Z</time>
      </trkpt>
      <trkpt lat="45.57281" lon="4.61612">
        <ele>377</ele>
        <time>2010-06-17T08:10:34Z</time>
      </trkpt>
      <trkpt lat="45.57289" lon="4.61609">
        <ele>376</ele>
        <time>2010-06-17T08:10:37Z</time>
      </trkpt>
      <trkpt lat="45.57297" lon="4.61609">
        <ele>376</ele>
        <time>2010-06-17T08:10:40Z</time>
      </trkpt>
      <trkpt lat="45.57303" lon="4.6161">
        <ele>376</ele>
        <time>2010-06-17T08:10:42Z</time>
      </trkpt>
      <trkpt lat="45.57311" lon="4.61613">
        <ele>375</ele>
        <time>2010-06-17T08:10:45Z</time>
      </trkpt>
      <trkpt lat="45.5732" lon="4.61618">
        <ele>375</ele>
        <time>2010-06-17T08:10:49Z</time>
      </trkpt>
      <trkpt lat="45.57322" lon="4.61619">
        <ele>375</ele>
        <time>2010-06-17T08:10:50Z</time>
      </trkpt>
      <trkpt lat="45.57335" lon="4.61615">
        <ele>365</ele>
        <time>2010-06-17T08:10:56Z</time>
      </trkpt>
      <trkpt lat="45.57339" lon="4.61608">
        <ele>366</ele>
        <time>2010-06-17T08:10:59Z</time>
      </trkpt>
      <trkpt lat="45.57343" lon="4.61597">
        <ele>368</ele>
        <time>2010-06-17T08:11:03Z</time>
      </trkpt>
      <trkpt lat="45.57348" lon="4.61589">
        <ele>368</ele>
        <time>2010-06-17T08:11:07Z</time>
      </trkpt>
      <trkpt lat="45.57351" lon="4.61579">
        <ele>372</ele>
        <time>2010-06-17T08:11:11Z</time>
      </trkpt>
      <trkpt lat="45.57355" lon="4.6157">
        <ele>371</ele>
        <time>2010-06-17T08:11:15Z</time>
      </trkpt>
      <trkpt lat="45.57359" lon="4.61559">
        <ele>371</ele>
        <time>2010-06-17T08:11:20Z</time>
      </trkpt>
      <trkpt lat="45.57364" lon="4.61549">
        <ele>371</ele>
        <time>2010-06-17T08:11:27Z</time>
      </trkpt>
      <trkpt lat="45.57368" lon="4.61539">
        <ele>371</ele>
        <time>2010-06-17T08:11:36Z</time>
      </trkpt>
      <trkpt lat="45.57374" lon="4.6153">
        <ele>371</ele>
        <time>2010-06-17T08:11:43Z</time>
      </trkpt>
      <trkpt lat="45.57381" lon="4.61523">
        <ele>371</ele>
        <time>2010-06-17T08:11:59Z</time>
      </trkpt>
      <trkpt lat="45.57382" lon="4.61521">
        <ele>371</ele>
        <time>2010-06-17T08:12:00Z</time>
      </trkpt>
      <trkpt lat="45.57397" lon="4.61515">
        <ele>370</ele>
        <time>2010-06-17T08:12:08Z</time>
      </trkpt>
      <trkpt lat="45.57406" lon="4.61513">
        <ele>369</ele>
        <time>2010-06-17T08:12:11Z</time>
      </trkpt>
      <trkpt lat="45.57412" lon="4.61513">
        <ele>369</ele>
        <time>2010-06-17T08:12:13Z</time>
      </trkpt>
      <trkpt lat="45.5742" lon="4.61512">
        <ele>364</ele>
        <time>2010-06-17T08:12:16Z</time>
      </trkpt>
      <trkpt lat="45.57428" lon="4.6151">
        <ele>363</ele>
        <time>2010-06-17T08:12:20Z</time>
      </trkpt>
      <trkpt lat="45.57435" lon="4.61509">
        <ele>362</ele>
        <time>2010-06-17T08:12:23Z</time>
      </trkpt>
      <trkpt lat="45.57442" lon="4.61509">
        <ele>360</ele>
        <time>2010-06-17T08:12:26Z</time>
      </trkpt>
      <trkpt lat="45.57451" lon="4.61506">
        <ele>359</ele>
        <time>2010-06-17T08:12:29Z</time>
      </trkpt>
      <trkpt lat="45.57458" lon="4.61499">
        <ele>362</ele>
        <time>2010-06-17T08:12:33Z</time>
      </trkpt>
      <trkpt lat="45.57466" lon="4.61493">
        <ele>361</ele>
        <time>2010-06-17T08:12:44Z</time>
      </trkpt>
      <trkpt lat="45.5747" lon="4.61482">
        <ele>360</ele>
        <time>2010-06-17T08:13:00Z</time>
      </trkpt>
      <trkpt lat="45.5747" lon="4.61481">
        <ele>360</ele>
        <time>2010-06-17T08:13:01Z</time>
      </trkpt>
      <trkpt lat="45.57477" lon="4.61458">
        <ele>360</ele>
        <time>2010-06-17T08:13:35Z</time>
      </trkpt>
      <trkpt lat="45.57482" lon="4.61448">
        <ele>360</ele>
        <time>2010-06-17T08:13:44Z</time>
      </trkpt>
      <trkpt lat="45.57486" lon="4.61437">
        <ele>359</ele>
        <time>2010-06-17T08:13:55Z</time>
      </trkpt>
      <trkpt lat="45.57492" lon="4.61428">
        <ele>357</ele>
        <time>2010-06-17T08:14:05Z</time>
      </trkpt>
      <trkpt lat="45.57492" lon="4.61428">
        <ele>357</ele>
        <time>2010-06-17T08:14:06Z</time>
      </trkpt>
      <trkpt lat="45.57506" lon="4.61417">
        <ele>353</ele>
        <time>2010-06-17T08:14:28Z</time>
      </trkpt>
      <trkpt lat="45.57513" lon="4.61411">
        <ele>355</ele>
        <time>2010-06-17T08:14:39Z</time>
      </trkpt>
      <trkpt lat="45.57522" lon="4.61411">
        <ele>355</ele>
        <time>2010-06-17T08:15:09Z</time>
      </trkpt>
      <trkpt lat="45.57522" lon="4.61411">
        <ele>355</ele>
        <time>2010-06-17T08:15:10Z</time>
      </trkpt>
      <trkpt lat="45.5753" lon="4.61415">
        <ele>356</ele>
        <time>2010-06-17T08:16:57Z</time>
      </trkpt>
      <trkpt lat="45.57531" lon="4.61394">
        <ele>356</ele>
        <time>2010-06-17T08:18:34Z</time>
      </trkpt>
      <trkpt lat="45.57532" lon="4.61394">
        <ele>356</ele>
        <time>2010-06-17T08:18:35Z</time>
      </trkpt>
      <trkpt lat="45.57541" lon="4.61378">
        <ele>357</ele>
        <time>2010-06-17T08:18:57Z</time>
      </trkpt>
      <trkpt lat="45.57539" lon="4.61366">
        <ele>358</ele>
        <time>2010-06-17T08:19:08Z</time>
      </trkpt>
      <trkpt lat="45.57531" lon="4.61359">
        <ele>358</ele>
        <time>2010-06-17T08:19:19Z</time>
      </trkpt>
      <trkpt lat="45.57525" lon="4.61352">
        <ele>358</ele>
        <time>2010-06-17T08:19:27Z</time>
      </trkpt>
      <trkpt lat="45.57517" lon="4.61347">
        <ele>358</ele>
        <time>2010-06-17T08:19:35Z</time>
      </trkpt>
      <trkpt lat="45.57515" lon="4.61346">
        <ele>358</ele>
        <time>2010-06-17T08:19:36Z</time>
      </trkpt>
      <trkpt lat="45.57503" lon="4.61333">
        <ele>359</ele>
        <time>2010-06-17T08:19:54Z</time>
      </trkpt>
      <trkpt lat="45.57496" lon="4.61325">
        <ele>361</ele>
        <time>2010-06-17T08:20:05Z</time>
      </trkpt>
      <trkpt lat="45.57491" lon="4.61315">
        <ele>363</ele>
        <time>2010-06-17T08:20:13Z</time>
      </trkpt>
      <trkpt lat="45.57498" lon="4.61322">
        <ele>361</ele>
        <time>2010-06-17T08:21:40Z</time>
      </trkpt>
      <trkpt lat="45.57499" lon="4.61323">
        <ele>361</ele>
        <time>2010-06-17T08:21:41Z</time>
      </trkpt>
      <trkpt lat="45.57514" lon="4.61323">
        <ele>362</ele>
        <time>2010-06-17T08:21:57Z</time>
      </trkpt>
      <trkpt lat="45.57522" lon="4.61324">
        <ele>362</ele>
        <time>2010-06-17T08:22:08Z</time>
      </trkpt>
      <trkpt lat="45.5753" lon="4.61323">
        <ele>363</ele>
        <time>2010-06-17T08:22:17Z</time>
      </trkpt>
      <trkpt lat="45.57539" lon="4.61323">
        <ele>364</ele>
        <time>2010-06-17T08:22:28Z</time>
      </trkpt>
      <trkpt lat="45.57547" lon="4.61326">
        <ele>364</ele>
        <time>2010-06-17T08:22:38Z</time>
      </trkpt>
      <trkpt lat="45.57556" lon="4.61327">
        <ele>364</ele>
        <time>2010-06-17T08:22:50Z</time>
      </trkpt>
      <trkpt lat="45.57557" lon="4.61327">
        <ele>364</ele>
        <time>2010-06-17T08:22:51Z</time>
      </trkpt>
      <trkpt lat="45.57572" lon="4.61322">
        <ele>365</ele>
        <time>2010-06-17T08:23:05Z</time>
      </trkpt>
      <trkpt lat="45.57581" lon="4.61318">
        <ele>365</ele>
        <time>2010-06-17T08:23:15Z</time>
      </trkpt>
      <trkpt lat="45.57578" lon="4.61306">
        <ele>365</ele>
        <time>2010-06-17T08:23:25Z</time>
      </trkpt>
      <trkpt lat="45.57572" lon="4.61298">
        <ele>366</ele>
        <time>2010-06-17T08:23:34Z</time>
      </trkpt>
      <trkpt lat="45.57568" lon="4.61287">
        <ele>366</ele>
        <time>2010-06-17T08:23:45Z</time>
      </trkpt>
      <trkpt lat="45.57564" lon="4.61277">
        <ele>367</ele>
        <time>2010-06-17T08:23:58Z</time>
      </trkpt>
      <trkpt lat="45.57564" lon="4.61276">
        <ele>367</ele>
        <time>2010-06-17T08:23:59Z</time>
      </trkpt>
      <trkpt lat="45.57566" lon="4.61256">
        <ele>369</ele>
        <time>2010-06-17T08:24:22Z</time>
      </trkpt>
      <trkpt lat="45.57569" lon="4.61244">
        <ele>373</ele>
        <time>2010-06-17T08:24:34Z</time>
      </trkpt>
      <trkpt lat="45.57568" lon="4.61231">
        <ele>373</ele>
        <time>2010-06-17T08:24:44Z</time>
      </trkpt>
      <trkpt lat="45.57568" lon="4.61219">
        <ele>374</ele>
        <time>2010-06-17T08:24:49Z</time>
      </trkpt>
      <trkpt lat="45.57567" lon="4.61207">
        <ele>374</ele>
        <time>2010-06-17T08:24:55Z</time>
      </trkpt>
      <trkpt lat="45.57567" lon="4.61195">
        <ele>375</ele>
        <time>2010-06-17T08:25:01Z</time>
      </trkpt>
      <trkpt lat="45.57567" lon="4.61193">
        <ele>375</ele>
        <time>2010-06-17T08:25:02Z</time>
      </trkpt>
      <trkpt lat="45.57566" lon="4.61172">
        <ele>377</ele>
        <time>2010-06-17T08:25:14Z</time>
      </trkpt>
      <trkpt lat="45.57566" lon="4.61161">
        <ele>380</ele>
        <time>2010-06-17T08:25:21Z</time>
      </trkpt>
      <trkpt lat="45.57565" lon="4.61149">
        <ele>380</ele>
        <time>2010-06-17T08:25:28Z</time>
      </trkpt>
      <trkpt lat="45.57564" lon="4.61138">
        <ele>380</ele>
        <time>2010-06-17T08:25:34Z</time>
      </trkpt>
      <trkpt lat="45.57562" lon="4.61127">
        <ele>381</ele>
        <time>2010-06-17T08:25:40Z</time>
      </trkpt>
      <trkpt lat="45.57561" lon="4.61115">
        <ele>381</ele>
        <time>2010-06-17T08:25:47Z</time>
      </trkpt>
      <trkpt lat="45.57559" lon="4.61104">
        <ele>382</ele>
        <time>2010-06-17T08:25:53Z</time>
      </trkpt>
      <trkpt lat="45.57557" lon="4.61091">
        <ele>382</ele>
        <time>2010-06-17T08:26:00Z</time>
      </trkpt>
      <trkpt lat="45.57562" lon="4.61081">
        <ele>386</ele>
        <time>2010-06-17T08:27:06Z</time>
      </trkpt>
      <trkpt lat="45.57564" lon="4.61081">
        <ele>386</ele>
        <time>2010-06-17T08:27:07Z</time>
      </trkpt>
      <trkpt lat="45.57578" lon="4.61073">
        <ele>386</ele>
        <time>2010-06-17T08:27:17Z</time>
      </trkpt>
      <trkpt lat="45.57586" lon="4.61071">
        <ele>386</ele>
        <time>2010-06-17T08:27:21Z</time>
      </trkpt>
      <trkpt lat="45.57593" lon="4.61067">
        <ele>386</ele>
        <time>2010-06-17T08:27:25Z</time>
      </trkpt>
      <trkpt lat="45.576" lon="4.61065">
        <ele>386</ele>
        <time>2010-06-17T08:27:28Z</time>
      </trkpt>
      <trkpt lat="45.57607" lon="4.61062">
        <ele>386</ele>
        <time>2010-06-17T08:27:31Z</time>
      </trkpt>
      <trkpt lat="45.57614" lon="4.61059">
        <ele>386</ele>
        <time>2010-06-17T08:27:34Z</time>
      </trkpt>
      <trkpt lat="45.57623" lon="4.61056">
        <ele>386</ele>
        <time>2010-06-17T08:27:37Z</time>
      </trkpt>
      <trkpt lat="45.57631" lon="4.61051">
        <ele>386</ele>
        <time>2010-06-17T08:27:40Z</time>
      </trkpt>
      <trkpt lat="45.57639" lon="4.61047">
        <ele>386</ele>
        <time>2010-06-17T08:27:44Z</time>
      </trkpt>
      <trkpt lat="45.57647" lon="4.61043">
        <ele>386</ele>
        <time>2010-06-17T08:27:49Z</time>
      </trkpt>
      <trkpt lat="45.57653" lon="4.61038">
        <ele>386</ele>
        <time>2010-06-17T08:27:53Z</time>
      </trkpt>
      <trkpt lat="45.57658" lon="4.61031">
        <ele>387</ele>
        <time>2010-06-17T08:27:56Z</time>
      </trkpt>
      <trkpt lat="45.57664" lon="4.61023">
        <ele>387</ele>
        <time>2010-06-17T08:28:00Z</time>
      </trkpt>
      <trkpt lat="45.5767" lon="4.61016">
        <ele>384</ele>
        <time>2010-06-17T08:28:03Z</time>
      </trkpt>
      <trkpt lat="45.57675" lon="4.61009">
        <ele>385</ele>
        <time>2010-06-17T08:28:06Z</time>
      </trkpt>
      <trkpt lat="45.5768" lon="4.61003">
        <ele>385</ele>
        <time>2010-06-17T08:28:09Z</time>
      </trkpt>
      <trkpt lat="45.57682" lon="4.61001">
        <ele>385</ele>
        <time>2010-06-17T08:28:10Z</time>
      </trkpt>
      <trkpt lat="45.57694" lon="4.6099">
        <ele>389</ele>
        <time>2010-06-17T08:28:17Z</time>
      </trkpt>
      <trkpt lat="45.57702" lon="4.60984">
        <ele>389</ele>
        <time>2010-06-17T08:28:21Z</time>
      </trkpt>
      <trkpt lat="45.57708" lon="4.60978">
        <ele>389</ele>
        <time>2010-06-17T08:28:25Z</time>
      </trkpt>
      <trkpt lat="45.57715" lon="4.60972">
        <ele>389</ele>
        <time>2010-06-17T08:28:29Z</time>
      </trkpt>
      <trkpt lat="45.57722" lon="4.60965">
        <ele>389</ele>
        <time>2010-06-17T08:28:33Z</time>
      </trkpt>
      <trkpt lat="45.57729" lon="4.60958">
        <ele>389</ele>
        <time>2010-06-17T08:28:37Z</time>
      </trkpt>
      <trkpt lat="45.57735" lon="4.60953">
        <ele>390</ele>
        <time>2010-06-17T08:28:41Z</time>
      </trkpt>
      <trkpt lat="45.57742" lon="4.60947">
        <ele>390</ele>
        <time>2010-06-17T08:28:45Z</time>
      </trkpt>
      <trkpt lat="45.57748" lon="4.60939">
        <ele>391</ele>
        <time>2010-06-17T08:28:49Z</time>
      </trkpt>
      <trkpt lat="45.57754" lon="4.60931">
        <ele>388</ele>
        <time>2010-06-17T08:28:53Z</time>
      </trkpt>
      <trkpt lat="45.57762" lon="4.60924">
        <ele>388</ele>
        <time>2010-06-17T08:28:57Z</time>
      </trkpt>
      <trkpt lat="45.57769" lon="4.60918">
        <ele>387</ele>
        <time>2010-06-17T08:29:01Z</time>
      </trkpt>
      <trkpt lat="45.57775" lon="4.60912">
        <ele>393</ele>
        <time>2010-06-17T08:29:05Z</time>
      </trkpt>
      <trkpt lat="45.5778" lon="4.60905">
        <ele>393</ele>
        <time>2010-06-17T08:29:09Z</time>
      </trkpt>
      <trkpt lat="45.57788" lon="4.60899">
        <ele>393</ele>
        <time>2010-06-17T08:29:13Z</time>
      </trkpt>
      <trkpt lat="45.5779" lon="4.60898">
        <ele>393</ele>
        <time>2010-06-17T08:29:14Z</time>
      </trkpt>
      <trkpt lat="45.57802" lon="4.60892">
        <ele>392</ele>
        <time>2010-06-17T08:29:21Z</time>
      </trkpt>
      <trkpt lat="45.57809" lon="4.60887">
        <ele>392</ele>
        <time>2010-06-17T08:29:25Z</time>
      </trkpt>
      <trkpt lat="45.57816" lon="4.60882">
        <ele>392</ele>
        <time>2010-06-17T08:29:29Z</time>
      </trkpt>
      <trkpt lat="45.57823" lon="4.60877">
        <ele>392</ele>
        <time>2010-06-17T08:29:33Z</time>
      </trkpt>
      <trkpt lat="45.57829" lon="4.60869">
        <ele>393</ele>
        <time>2010-06-17T08:29:38Z</time>
      </trkpt>
      <trkpt lat="45.57835" lon="4.60862">
        <ele>388</ele>
        <time>2010-06-17T08:29:43Z</time>
      </trkpt>
      <trkpt lat="45.5784" lon="4.60852">
        <ele>389</ele>
        <time>2010-06-17T08:29:48Z</time>
      </trkpt>
      <trkpt lat="45.57844" lon="4.60842">
        <ele>391</ele>
        <time>2010-06-17T08:29:53Z</time>
      </trkpt>
      <trkpt lat="45.57848" lon="4.60833">
        <ele>395</ele>
        <time>2010-06-17T08:29:57Z</time>
      </trkpt>
      <trkpt lat="45.57851" lon="4.60822">
        <ele>395</ele>
        <time>2010-06-17T08:30:01Z</time>
      </trkpt>
      <trkpt lat="45.57854" lon="4.6081">
        <ele>395</ele>
        <time>2010-06-17T08:30:05Z</time>
      </trkpt>
      <trkpt lat="45.57857" lon="4.60801">
        <ele>395</ele>
        <time>2010-06-17T08:30:09Z</time>
      </trkpt>
      <trkpt lat="45.57861" lon="4.60791">
        <ele>396</ele>
        <time>2010-06-17T08:30:13Z</time>
      </trkpt>
      <trkpt lat="45.57865" lon="4.60781">
        <ele>396</ele>
        <time>2010-06-17T08:30:16Z</time>
      </trkpt>
      <trkpt lat="45.57867" lon="4.60778">
        <ele>396</ele>
        <time>2010-06-17T08:30:17Z</time>
      </trkpt>
      <trkpt lat="45.57875" lon="4.60761">
        <ele>397</ele>
        <time>2010-06-17T08:30:23Z</time>
      </trkpt>
      <trkpt lat="45.57879" lon="4.60751">
        <ele>397</ele>
        <time>2010-06-17T08:30:27Z</time>
      </trkpt>
      <trkpt lat="45.57884" lon="4.60743">
        <ele>403</ele>
        <time>2010-06-17T08:30:30Z</time>
      </trkpt>
      <trkpt lat="45.5789" lon="4.60736">
        <ele>403</ele>
        <time>2010-06-17T08:30:33Z</time>
      </trkpt>
      <trkpt lat="45.57895" lon="4.60728">
        <ele>403</ele>
        <time>2010-06-17T08:30:36Z</time>
      </trkpt>
      <trkpt lat="45.57901" lon="4.60723">
        <ele>403</ele>
        <time>2010-06-17T08:30:39Z</time>
      </trkpt>
      <trkpt lat="45.57907" lon="4.60719">
        <ele>403</ele>
        <time>2010-06-17T08:30:42Z</time>
      </trkpt>
      <trkpt lat="45.57916" lon="4.60719">
        <ele>403</ele>
        <time>2010-06-17T08:30:46Z</time>
      </trkpt>
      <trkpt lat="45.57922" lon="4.60717">
        <ele>399</ele>
        <time>2010-06-17T08:30:49Z</time>
      </trkpt>
      <trkpt lat="45.57931" lon="4.60715">
        <ele>399</ele>
        <time>2010-06-17T08:30:53Z</time>
      </trkpt>
      <trkpt lat="45.5794" lon="4.60714">
        <ele>399</ele>
        <time>2010-06-17T08:30:57Z</time>
      </trkpt>
      <trkpt lat="45.57946" lon="4.60713">
        <ele>399</ele>
        <time>2010-06-17T08:31:00Z</time>
      </trkpt>
      <trkpt lat="45.57953" lon="4.60714">
        <ele>399</ele>
        <time>2010-06-17T08:31:03Z</time>
      </trkpt>
      <trkpt lat="45.5796" lon="4.60713">
        <ele>399</ele>
        <time>2010-06-17T08:31:06Z</time>
      </trkpt>
      <trkpt lat="45.57968" lon="4.60711">
        <ele>399</ele>
        <time>2010-06-17T08:31:10Z</time>
      </trkpt>
      <trkpt lat="45.57976" lon="4.60709">
        <ele>398</ele>
        <time>2010-06-17T08:31:14Z</time>
      </trkpt>
      <trkpt lat="45.57983" lon="4.60706">
        <ele>399</ele>
        <time>2010-06-17T08:31:18Z</time>
      </trkpt>
      <trkpt lat="45.57985" lon="4.60706">
        <ele>399</ele>
        <time>2010-06-17T08:31:19Z</time>
      </trkpt>
      <trkpt lat="45.57996" lon="4.60698">
        <ele>400</ele>
        <time>2010-06-17T08:31:24Z</time>
      </trkpt>
      <trkpt lat="45.58003" lon="4.60693">
        <ele>399</ele>
        <time>2010-06-17T08:31:28Z</time>
      </trkpt>
      <trkpt lat="45.5801" lon="4.6069">
        <ele>399</ele>
        <time>2010-06-17T08:31:32Z</time>
      </trkpt>
      <trkpt lat="45.58018" lon="4.60686">
        <ele>399</ele>
        <time>2010-06-17T08:31:37Z</time>
      </trkpt>
      <trkpt lat="45.58025" lon="4.60681">
        <ele>399</ele>
        <time>2010-06-17T08:31:41Z</time>
      </trkpt>
      <trkpt lat="45.58033" lon="4.60676">
        <ele>398</ele>
        <time>2010-06-17T08:31:45Z</time>
      </trkpt>
      <trkpt lat="45.5804" lon="4.60671">
        <ele>398</ele>
        <time>2010-06-17T08:31:49Z</time>
      </trkpt>
      <trkpt lat="45.58048" lon="4.60667">
        <ele>398</ele>
        <time>2010-06-17T08:31:53Z</time>
      </trkpt>
      <trkpt lat="45.58054" lon="4.60659">
        <ele>406</ele>
        <time>2010-06-17T08:31:57Z</time>
      </trkpt>
      <trkpt lat="45.5806" lon="4.60652">
        <ele>406</ele>
        <time>2010-06-17T08:32:01Z</time>
      </trkpt>
      <trkpt lat="45.58066" lon="4.60645">
        <ele>406</ele>
        <time>2010-06-17T08:32:05Z</time>
      </trkpt>
      <trkpt lat="45.58071" lon="4.60637">
        <ele>407</ele>
        <time>2010-06-17T08:32:09Z</time>
      </trkpt>
      <trkpt lat="45.58075" lon="4.60627">
        <ele>408</ele>
        <time>2010-06-17T08:32:13Z</time>
      </trkpt>
      <trkpt lat="45.5808" lon="4.60616">
        <ele>409</ele>
        <time>2010-06-17T08:32:17Z</time>
      </trkpt>
      <trkpt lat="45.58085" lon="4.60606">
        <ele>407</ele>
        <time>2010-06-17T08:32:21Z</time>
      </trkpt>
      <trkpt lat="45.58086" lon="4.60604">
        <ele>407</ele>
        <time>2010-06-17T08:32:22Z</time>
      </trkpt>
      <trkpt lat="45.58094" lon="4.60588">
        <ele>409</ele>
        <time>2010-06-17T08:32:29Z</time>
      </trkpt>
      <trkpt lat="45.581" lon="4.60581">
        <ele>413</ele>
        <time>2010-06-17T08:32:33Z</time>
      </trkpt>
      <trkpt lat="45.58107" lon="4.60574">
        <ele>413</ele>
        <time>2010-06-17T08:32:38Z</time>
      </trkpt>
      <trkpt lat="45.58113" lon="4.60568">
        <ele>413</ele>
        <time>2010-06-17T08:32:43Z</time>
      </trkpt>
      <trkpt lat="45.58121" lon="4.60563">
        <ele>413</ele>
        <time>2010-06-17T08:32:48Z</time>
      </trkpt>
      <trkpt lat="45.58128" lon="4.6056">
        <ele>413</ele>
        <time>2010-06-17T08:32:52Z</time>
      </trkpt>
      <trkpt lat="45.58135" lon="4.6056">
        <ele>413</ele>
        <time>2010-06-17T08:32:56Z</time>
      </trkpt>
      <trkpt lat="45.58142" lon="4.60559">
        <ele>413</ele>
        <time>2010-06-17T08:33:00Z</time>
      </trkpt>
      <trkpt lat="45.5815" lon="4.60559">
        <ele>412</ele>
        <time>2010-06-17T08:33:04Z</time>
      </trkpt>
      <trkpt lat="45.58157" lon="4.60558">
        <ele>412</ele>
        <time>2010-06-17T08:33:08Z</time>
      </trkpt>
      <trkpt lat="45.58166" lon="4.60558">
        <ele>412</ele>
        <time>2010-06-17T08:33:13Z</time>
      </trkpt>
      <trkpt lat="45.58173" lon="4.60559">
        <ele>412</ele>
        <time>2010-06-17T08:33:18Z</time>
      </trkpt>
      <trkpt lat="45.58181" lon="4.60563">
        <ele>413</ele>
        <time>2010-06-17T08:33:23Z</time>
      </trkpt>
      <trkpt lat="45.58183" lon="4.60563">
        <ele>413</ele>
        <time>2010-06-17T08:33:24Z</time>
      </trkpt>
      <trkpt lat="45.58196" lon="4.60572">
        <ele>413</ele>
        <time>2010-06-17T08:33:33Z</time>
      </trkpt>
      <trkpt lat="45.58203" lon="4.60578">
        <ele>414</ele>
        <time>2010-06-17T08:33:37Z</time>
      </trkpt>
      <trkpt lat="45.5821" lon="4.60582">
        <ele>414</ele>
        <time>2010-06-17T08:33:41Z</time>
      </trkpt>
      <trkpt lat="45.58216" lon="4.60587">
        <ele>408</ele>
        <time>2010-06-17T08:33:45Z</time>
      </trkpt>
      <trkpt lat="45.58224" lon="4.60592">
        <ele>409</ele>
        <time>2010-06-17T08:33:50Z</time>
      </trkpt>
      <trkpt lat="45.58231" lon="4.60596">
        <ele>410</ele>
        <time>2010-06-17T08:33:54Z</time>
      </trkpt>
      <trkpt lat="45.58239" lon="4.60597">
        <ele>411</ele>
        <time>2010-06-17T08:33:58Z</time>
      </trkpt>
      <trkpt lat="45.58247" lon="4.60597">
        <ele>412</ele>
        <time>2010-06-17T08:34:02Z</time>
      </trkpt>
      <trkpt lat="45.58256" lon="4.60598">
        <ele>413</ele>
        <time>2010-06-17T08:34:06Z</time>
      </trkpt>
      <trkpt lat="45.58264" lon="4.60599">
        <ele>413</ele>
        <time>2010-06-17T08:34:10Z</time>
      </trkpt>
      <trkpt lat="45.58272" lon="4.60598">
        <ele>413</ele>
        <time>2010-06-17T08:34:14Z</time>
      </trkpt>
      <trkpt lat="45.5828" lon="4.60599">
        <ele>412</ele>
        <time>2010-06-17T08:34:18Z</time>
      </trkpt>
      <trkpt lat="45.58288" lon="4.60599">
        <ele>412</ele>
        <time>2010-06-17T08:34:22Z</time>
      </trkpt>
      <trkpt lat="45.58296" lon="4.60599">
        <ele>413</ele>
        <time>2010-06-17T08:34:26Z</time>
      </trkpt>
      <trkpt lat="45.58298" lon="4.60599">
        <ele>413</ele>
        <time>2010-06-17T08:34:27Z</time>
      </trkpt>
      <trkpt lat="45.58312" lon="4.60595">
        <ele>415</ele>
        <time>2010-06-17T08:34:34Z</time>
      </trkpt>
      <trkpt lat="45.58319" lon="4.60595">
        <ele>416</ele>
        <time>2010-06-17T08:34:38Z</time>
      </trkpt>
      <trkpt lat="45.58327" lon="4.60597">
        <ele>417</ele>
        <time>2010-06-17T08:34:42Z</time>
      </trkpt>
      <trkpt lat="45.58334" lon="4.60598">
        <ele>419</ele>
        <time>2010-06-17T08:34:46Z</time>
      </trkpt>
      <trkpt lat="45.58341" lon="4.60598">
        <ele>418</ele>
        <time>2010-06-17T08:34:50Z</time>
      </trkpt>
      <trkpt lat="45.5835" lon="4.60598">
        <ele>417</ele>
        <time>2010-06-17T08:34:55Z</time>
      </trkpt>
      <trkpt lat="45.58358" lon="4.60598">
        <ele>417</ele>
        <time>2010-06-17T08:35:01Z</time>
      </trkpt>
      <trkpt lat="45.58367" lon="4.60594">
        <ele>416</ele>
        <time>2010-06-17T08:35:07Z</time>
      </trkpt>
      <trkpt lat="45.58374" lon="4.60593">
        <ele>416</ele>
        <time>2010-06-17T08:35:12Z</time>
      </trkpt>
      <trkpt lat="45.58383" lon="4.60595">
        <ele>417</ele>
        <time>2010-06-17T08:35:17Z</time>
      </trkpt>
      <trkpt lat="45.58392" lon="4.60595">
        <ele>417</ele>
        <time>2010-06-17T08:35:22Z</time>
      </trkpt>
      <trkpt lat="45.58399" lon="4.60593">
        <ele>418</ele>
        <time>2010-06-17T08:35:27Z</time>
      </trkpt>
      <trkpt lat="45.58401" lon="4.60593">
        <ele>419</ele>
        <time>2010-06-17T08:35:28Z</time>
      </trkpt>
      <trkpt lat="45.58416" lon="4.60593">
        <ele>421</ele>
        <time>2010-06-17T08:35:36Z</time>
      </trkpt>
      <trkpt lat="45.58424" lon="4.60591">
        <ele>421</ele>
        <time>2010-06-17T08:35:40Z</time>
      </trkpt>
      <trkpt lat="45.58433" lon="4.60594">
        <ele>419</ele>
        <time>2010-06-17T08:35:44Z</time>
      </trkpt>
      <trkpt lat="45.58441" lon="4.60593">
        <ele>418</ele>
        <time>2010-06-17T08:35:48Z</time>
      </trkpt>
      <trkpt lat="45.58449" lon="4.6059">
        <ele>418</ele>
        <time>2010-06-17T08:35:52Z</time>
      </trkpt>
      <trkpt lat="45.58457" lon="4.60588">
        <ele>417</ele>
        <time>2010-06-17T08:35:57Z</time>
      </trkpt>
      <trkpt lat="45.58466" lon="4.60585">
        <ele>418</ele>
        <time>2010-06-17T08:36:01Z</time>
      </trkpt>
      <trkpt lat="45.58473" lon="4.60583">
        <ele>429</ele>
        <time>2010-06-17T08:36:05Z</time>
      </trkpt>
      <trkpt lat="45.58481" lon="4.60581">
        <ele>428</ele>
        <time>2010-06-17T08:36:09Z</time>
      </trkpt>
      <trkpt lat="45.58489" lon="4.60579">
        <ele>427</ele>
        <time>2010-06-17T08:36:13Z</time>
      </trkpt>
      <trkpt lat="45.58497" lon="4.60574">
        <ele>427</ele>
        <time>2010-06-17T08:36:18Z</time>
      </trkpt>
      <trkpt lat="45.58504" lon="4.60571">
        <ele>424</ele>
        <time>2010-06-17T08:36:22Z</time>
      </trkpt>
      <trkpt lat="45.58512" lon="4.60565">
        <ele>425</ele>
        <time>2010-06-17T08:36:27Z</time>
      </trkpt>
      <trkpt lat="45.58518" lon="4.60557">
        <ele>425</ele>
        <time>2010-06-17T08:36:31Z</time>
      </trkpt>
      <trkpt lat="45.5852" lon="4.60555">
        <ele>425</ele>
        <time>2010-06-17T08:36:32Z</time>
      </trkpt>
      <trkpt lat="45.58531" lon="4.60544">
        <ele>425</ele>
        <time>2010-06-17T08:36:38Z</time>
      </trkpt>
      <trkpt lat="45.58538" lon="4.60539">
        <ele>425</ele>
        <time>2010-06-17T08:36:42Z</time>
      </trkpt>
      <trkpt lat="45.58545" lon="4.6053">
        <ele>426</ele>
        <time>2010-06-17T08:36:47Z</time>
      </trkpt>
      <trkpt lat="45.5855" lon="4.6052">
        <ele>426</ele>
        <time>2010-06-17T08:36:52Z</time>
      </trkpt>
      <trkpt lat="45.58555" lon="4.6051">
        <ele>426</ele>
        <time>2010-06-17T08:36:56Z</time>
      </trkpt>
      <trkpt lat="45.58559" lon="4.60502">
        <ele>427</ele>
        <time>2010-06-17T08:36:59Z</time>
      </trkpt>
      <trkpt lat="45.58562" lon="4.60492">
        <ele>433</ele>
        <time>2010-06-17T08:37:02Z</time>
      </trkpt>
      <trkpt lat="45.58565" lon="4.60481">
        <ele>433</ele>
        <time>2010-06-17T08:37:06Z</time>
      </trkpt>
      <trkpt lat="45.58569" lon="4.6047">
        <ele>434</ele>
        <time>2010-06-17T08:37:10Z</time>
      </trkpt>
      <trkpt lat="45.58572" lon="4.60459">
        <ele>435</ele>
        <time>2010-06-17T08:37:14Z</time>
      </trkpt>
      <trkpt lat="45.58574" lon="4.6045">
        <ele>435</ele>
        <time>2010-06-17T08:37:18Z</time>
      </trkpt>
      <trkpt lat="45.58577" lon="4.60438">
        <ele>435</ele>
        <time>2010-06-17T08:37:22Z</time>
      </trkpt>
      <trkpt lat="45.58581" lon="4.60427">
        <ele>435</ele>
        <time>2010-06-17T08:37:26Z</time>
      </trkpt>
      <trkpt lat="45.58585" lon="4.60417">
        <ele>434</ele>
        <time>2010-06-17T08:37:31Z</time>
      </trkpt>
      <trkpt lat="45.5859" lon="4.60406">
        <ele>432</ele>
        <time>2010-06-17T08:37:36Z</time>
      </trkpt>
      <trkpt lat="45.5859" lon="4.60405">
        <ele>432</ele>
        <time>2010-06-17T08:37:37Z</time>
      </trkpt>
      <trkpt lat="45.58598" lon="4.60385">
        <ele>430</ele>
        <time>2010-06-17T08:37:46Z</time>
      </trkpt>
      <trkpt lat="45.58601" lon="4.60376">
        <ele>430</ele>
        <time>2010-06-17T08:37:50Z</time>
      </trkpt>
      <trkpt lat="45.58605" lon="4.60365">
        <ele>430</ele>
        <time>2010-06-17T08:37:54Z</time>
      </trkpt>
      <trkpt lat="45.58608" lon="4.60357">
        <ele>431</ele>
        <time>2010-06-17T08:37:56Z</time>
      </trkpt>
      <trkpt lat="45.58614" lon="4.60347">
        <ele>431</ele>
        <time>2010-06-17T08:37:59Z</time>
      </trkpt>
      <trkpt lat="45.58617" lon="4.60335">
        <ele>430</ele>
        <time>2010-06-17T08:38:03Z</time>
      </trkpt>
      <trkpt lat="45.58622" lon="4.60325">
        <ele>436</ele>
        <time>2010-06-17T08:38:08Z</time>
      </trkpt>
      <trkpt lat="45.58626" lon="4.60316">
        <ele>436</ele>
        <time>2010-06-17T08:38:13Z</time>
      </trkpt>
      <trkpt lat="45.5863" lon="4.60306">
        <ele>436</ele>
        <time>2010-06-17T08:38:18Z</time>
      </trkpt>
      <trkpt lat="45.58634" lon="4.60297">
        <ele>437</ele>
        <time>2010-06-17T08:38:21Z</time>
      </trkpt>
      <trkpt lat="45.58639" lon="4.60289">
        <ele>437</ele>
        <time>2010-06-17T08:38:24Z</time>
      </trkpt>
      <trkpt lat="45.58643" lon="4.60279">
        <ele>437</ele>
        <time>2010-06-17T08:38:28Z</time>
      </trkpt>
      <trkpt lat="45.58648" lon="4.60268">
        <ele>438</ele>
        <time>2010-06-17T08:38:32Z</time>
      </trkpt>
      <trkpt lat="45.58652" lon="4.60259">
        <ele>438</ele>
        <time>2010-06-17T08:38:36Z</time>
      </trkpt>
      <trkpt lat="45.58657" lon="4.60249">
        <ele>442</ele>
        <time>2010-06-17T08:38:41Z</time>
      </trkpt>
      <trkpt lat="45.58658" lon="4.60247">
        <ele>442</ele>
        <time>2010-06-17T08:38:42Z</time>
      </trkpt>
      <trkpt lat="45.58659" lon="4.60227">
        <ele>445</ele>
        <time>2010-06-17T08:40:13Z</time>
      </trkpt>
      <trkpt lat="45.58659" lon="4.60227">
        <ele>445</ele>
        <time>2010-06-17T08:40:14Z</time>
      </trkpt>
      <trkpt lat="45.58676" lon="4.6023">
        <ele>435</ele>
        <time>2010-06-17T08:42:37Z</time>
      </trkpt>
      <trkpt lat="45.58677" lon="4.6023">
        <ele>435</ele>
        <time>2010-06-17T08:42:38Z</time>
      </trkpt>
      <trkpt lat="45.58677" lon="4.60209">
        <ele>435</ele>
        <time>2010-06-17T08:43:21Z</time>
      </trkpt>
      <trkpt lat="45.58678" lon="4.60199">
        <ele>436</ele>
        <time>2010-06-17T08:43:26Z</time>
      </trkpt>
      <trkpt lat="45.5868" lon="4.60187">
        <ele>438</ele>
        <time>2010-06-17T08:43:31Z</time>
      </trkpt>
      <trkpt lat="45.58683" lon="4.60176">
        <ele>439</ele>
        <time>2010-06-17T08:43:35Z</time>
      </trkpt>
      <trkpt lat="45.58686" lon="4.60166">
        <ele>441</ele>
        <time>2010-06-17T08:43:40Z</time>
      </trkpt>
      <trkpt lat="45.58686" lon="4.60162">
        <ele>441</ele>
        <time>2010-06-17T08:43:41Z</time>
      </trkpt>
      <trkpt lat="45.58689" lon="4.60144">
        <ele>440</ele>
        <time>2010-06-17T08:43:48Z</time>
      </trkpt>
      <trkpt lat="45.58687" lon="4.60132">
        <ele>440</ele>
        <time>2010-06-17T08:43:53Z</time>
      </trkpt>
      <trkpt lat="45.58684" lon="4.60121">
        <ele>441</ele>
        <time>2010-06-17T08:43:58Z</time>
      </trkpt>
      <trkpt lat="45.58684" lon="4.60109">
        <ele>442</ele>
        <time>2010-06-17T08:44:03Z</time>
      </trkpt>
      <trkpt lat="45.58684" lon="4.60098">
        <ele>443</ele>
        <time>2010-06-17T08:44:08Z</time>
      </trkpt>
      <trkpt lat="45.58681" lon="4.60088">
        <ele>445</ele>
        <time>2010-06-17T08:44:12Z</time>
      </trkpt>
      <trkpt lat="45.58682" lon="4.60077">
        <ele>446</ele>
        <time>2010-06-17T08:44:16Z</time>
      </trkpt>
      <trkpt lat="45.58681" lon="4.60065">
        <ele>445</ele>
        <time>2010-06-17T08:44:21Z</time>
      </trkpt>
      <trkpt lat="45.58682" lon="4.60054">
        <ele>444</ele>
        <time>2010-06-17T08:44:25Z</time>
      </trkpt>
      <trkpt lat="45.58681" lon="4.60043">
        <ele>444</ele>
        <time>2010-06-17T08:44:29Z</time>
      </trkpt>
      <trkpt lat="45.58683" lon="4.60032">
        <ele>444</ele>
        <time>2010-06-17T08:44:33Z</time>
      </trkpt>
      <trkpt lat="45.58683" lon="4.60021">
        <ele>445</ele>
        <time>2010-06-17T08:44:37Z</time>
      </trkpt>
      <trkpt lat="45.5868" lon="4.60012">
        <ele>446</ele>
        <time>2010-06-17T08:44:41Z</time>
      </trkpt>
      <trkpt lat="45.58679" lon="4.60009">
        <ele>447</ele>
        <time>2010-06-17T08:44:42Z</time>
      </trkpt>
      <trkpt lat="45.58681" lon="4.5999">
        <ele>447</ele>
        <time>2010-06-17T08:44:49Z</time>
      </trkpt>
      <trkpt lat="45.58679" lon="4.59979">
        <ele>446</ele>
        <time>2010-06-17T08:44:54Z</time>
      </trkpt>
      <trkpt lat="45.5868" lon="4.59967">
        <ele>446</ele>
        <time>2010-06-17T08:44:58Z</time>
      </trkpt>
      <trkpt lat="45.58677" lon="4.59957">
        <ele>446</ele>
        <time>2010-06-17T08:45:03Z</time>
      </trkpt>
      <trkpt lat="45.58675" lon="4.59947">
        <ele>446</ele>
        <time>2010-06-17T08:45:07Z</time>
      </trkpt>
      <trkpt lat="45.58674" lon="4.59936">
        <ele>447</ele>
        <time>2010-06-17T08:45:11Z</time>
      </trkpt>
      <trkpt lat="45.58672" lon="4.59925">
        <ele>448</ele>
        <time>2010-06-17T08:45:15Z</time>
      </trkpt>
      <trkpt lat="45.58671" lon="4.59913">
        <ele>450</ele>
        <time>2010-06-17T08:45:19Z</time>
      </trkpt>
      <trkpt lat="45.58672" lon="4.59901">
        <ele>449</ele>
        <time>2010-06-17T08:45:23Z</time>
      </trkpt>
      <trkpt lat="45.58669" lon="4.59889">
        <ele>449</ele>
        <time>2010-06-17T08:45:28Z</time>
      </trkpt>
      <trkpt lat="45.58668" lon="4.59878">
        <ele>449</ele>
        <time>2010-06-17T08:45:33Z</time>
      </trkpt>
      <trkpt lat="45.58668" lon="4.59868">
        <ele>449</ele>
        <time>2010-06-17T08:45:38Z</time>
      </trkpt>
      <trkpt lat="45.58668" lon="4.59857">
        <ele>450</ele>
        <time>2010-06-17T08:45:42Z</time>
      </trkpt>
      <trkpt lat="45.58667" lon="4.59853">
        <ele>451</ele>
        <time>2010-06-17T08:45:43Z</time>
      </trkpt>
      <trkpt lat="45.58672" lon="4.59832">
        <ele>454</ele>
        <time>2010-06-17T08:45:51Z</time>
      </trkpt>
      <trkpt lat="45.58676" lon="4.59822">
        <ele>453</ele>
        <time>2010-06-17T08:45:55Z</time>
      </trkpt>
      <trkpt lat="45.58681" lon="4.59813">
        <ele>453</ele>
        <time>2010-06-17T08:45:59Z</time>
      </trkpt>
      <trkpt lat="45.58687" lon="4.59804">
        <ele>452</ele>
        <time>2010-06-17T08:46:03Z</time>
      </trkpt>
      <trkpt lat="45.58694" lon="4.59798">
        <ele>452</ele>
        <time>2010-06-17T08:46:07Z</time>
      </trkpt>
      <trkpt lat="45.587" lon="4.59792">
        <ele>451</ele>
        <time>2010-06-17T08:46:12Z</time>
      </trkpt>
      <trkpt lat="45.58709" lon="4.59788">
        <ele>451</ele>
        <time>2010-06-17T08:46:19Z</time>
      </trkpt>
      <trkpt lat="45.58707" lon="4.598">
        <ele>451</ele>
        <time>2010-06-17T08:51:18Z</time>
      </trkpt>
      <trkpt lat="45.58706" lon="4.598">
        <ele>451</ele>
        <time>2010-06-17T08:51:19Z</time>
      </trkpt>
      <trkpt lat="45.58707" lon="4.59789">
        <ele>451</ele>
        <time>2010-06-17T08:52:08Z</time>
      </trkpt>
      <trkpt lat="45.58715" lon="4.59793">
        <ele>450</ele>
        <time>2010-06-17T08:52:15Z</time>
      </trkpt>
      <trkpt lat="45.58724" lon="4.59794">
        <ele>449</ele>
        <time>2010-06-17T08:52:22Z</time>
      </trkpt>
      <trkpt lat="45.58726" lon="4.59793">
        <ele>449</ele>
        <time>2010-06-17T08:52:23Z</time>
      </trkpt>
      <trkpt lat="45.58708" lon="4.59788">
        <ele>451</ele>
        <time>2010-06-17T08:52:46Z</time>
      </trkpt>
      <trkpt lat="45.58713" lon="4.59778">
        <ele>451</ele>
        <time>2010-06-17T08:57:19Z</time>
      </trkpt>
      <trkpt lat="45.58713" lon="4.59778">
        <ele>451</ele>
        <time>2010-06-17T08:57:20Z</time>
      </trkpt>
      <trkpt lat="45.58728" lon="4.59774">
        <ele>449</ele>
        <time>2010-06-17T08:58:15Z</time>
      </trkpt>
      <trkpt lat="45.58736" lon="4.5977">
        <ele>448</ele>
        <time>2010-06-17T08:58:19Z</time>
      </trkpt>
      <trkpt lat="45.58745" lon="4.59768">
        <ele>448</ele>
        <time>2010-06-17T08:58:23Z</time>
      </trkpt>
      <trkpt lat="45.58747" lon="4.59768">
        <ele>448</ele>
        <time>2010-06-17T08:58:24Z</time>
      </trkpt>
      <trkpt lat="45.58761" lon="4.59768">
        <ele>450</ele>
        <time>2010-06-17T08:58:42Z</time>
      </trkpt>
      <trkpt lat="45.58769" lon="4.59767">
        <ele>451</ele>
        <time>2010-06-17T08:58:49Z</time>
      </trkpt>
      <trkpt lat="45.58777" lon="4.59769">
        <ele>452</ele>
        <time>2010-06-17T08:58:57Z</time>
      </trkpt>
      <trkpt lat="45.58785" lon="4.59773">
        <ele>453</ele>
        <time>2010-06-17T08:59:04Z</time>
      </trkpt>
      <trkpt lat="45.58791" lon="4.59781">
        <ele>454</ele>
        <time>2010-06-17T08:59:10Z</time>
      </trkpt>
      <trkpt lat="45.58796" lon="4.59788">
        <ele>454</ele>
        <time>2010-06-17T08:59:16Z</time>
      </trkpt>
      <trkpt lat="45.58799" lon="4.59797">
        <ele>454</ele>
        <time>2010-06-17T08:59:19Z</time>
      </trkpt>
      <trkpt lat="45.58804" lon="4.59807">
        <ele>455</ele>
        <time>2010-06-17T08:59:24Z</time>
      </trkpt>
      <trkpt lat="45.58804" lon="4.59809">
        <ele>455</ele>
        <time>2010-06-17T08:59:25Z</time>
      </trkpt>
      <trkpt lat="45.58808" lon="4.5983">
        <ele>456</ele>
        <time>2010-06-17T08:59:34Z</time>
      </trkpt>
      <trkpt lat="45.58812" lon="4.5984">
        <ele>455</ele>
        <time>2010-06-17T08:59:38Z</time>
      </trkpt>
      <trkpt lat="45.58814" lon="4.59851">
        <ele>454</ele>
        <time>2010-06-17T08:59:42Z</time>
      </trkpt>
      <trkpt lat="45.58815" lon="4.59864">
        <ele>453</ele>
        <time>2010-06-17T08:59:47Z</time>
      </trkpt>
      <trkpt lat="45.58816" lon="4.59876">
        <ele>452</ele>
        <time>2010-06-17T08:59:52Z</time>
      </trkpt>
      <trkpt lat="45.58817" lon="4.59888">
        <ele>452</ele>
        <time>2010-06-17T08:59:56Z</time>
      </trkpt>
      <trkpt lat="45.58818" lon="4.599">
        <ele>452</ele>
        <time>2010-06-17T09:00:00Z</time>
      </trkpt>
      <trkpt lat="45.58817" lon="4.59911">
        <ele>453</ele>
        <time>2010-06-17T09:00:04Z</time>
      </trkpt>
      <trkpt lat="45.58818" lon="4.59919">
        <ele>450</ele>
        <time>2010-06-17T09:00:07Z</time>
      </trkpt>
      <trkpt lat="45.5882" lon="4.59931">
        <ele>449</ele>
        <time>2010-06-17T09:00:10Z</time>
      </trkpt>
      <trkpt lat="45.5882" lon="4.59942">
        <ele>448</ele>
        <time>2010-06-17T09:00:14Z</time>
      </trkpt>
      <trkpt lat="45.58821" lon="4.59954">
        <ele>447</ele>
        <time>2010-06-17T09:00:19Z</time>
      </trkpt>
      <trkpt lat="45.58822" lon="4.59966">
        <ele>446</ele>
        <time>2010-06-17T09:00:24Z</time>
      </trkpt>
      <trkpt lat="45.58824" lon="4.59978">
        <ele>446</ele>
        <time>2010-06-17T09:00:28Z</time>
      </trkpt>
      <trkpt lat="45.58824" lon="4.59981">
        <ele>447</ele>
        <time>2010-06-17T09:00:29Z</time>
      </trkpt>
      <trkpt lat="45.58826" lon="4.60001">
        <ele>446</ele>
        <time>2010-06-17T09:00:36Z</time>
      </trkpt>
      <trkpt lat="45.58828" lon="4.60013">
        <ele>445</ele>
        <time>2010-06-17T09:00:40Z</time>
      </trkpt>
      <trkpt lat="45.5883" lon="4.60025">
        <ele>443</ele>
        <time>2010-06-17T09:00:44Z</time>
      </trkpt>
      <trkpt lat="45.58833" lon="4.60034">
        <ele>453</ele>
        <time>2010-06-17T09:00:48Z</time>
      </trkpt>
      <trkpt lat="45.58836" lon="4.60045">
        <ele>453</ele>
        <time>2010-06-17T09:00:52Z</time>
      </trkpt>
      <trkpt lat="45.58838" lon="4.60056">
        <ele>452</ele>
        <time>2010-06-17T09:00:56Z</time>
      </trkpt>
      <trkpt lat="45.58843" lon="4.60066">
        <ele>451</ele>
        <time>2010-06-17T09:01:03Z</time>
      </trkpt>
      <trkpt lat="45.58848" lon="4.60076">
        <ele>451</ele>
        <time>2010-06-17T09:01:08Z</time>
      </trkpt>
      <trkpt lat="45.58853" lon="4.60086">
        <ele>449</ele>
        <time>2010-06-17T09:01:12Z</time>
      </trkpt>
      <trkpt lat="45.58858" lon="4.60095">
        <ele>450</ele>
        <time>2010-06-17T09:01:17Z</time>
      </trkpt>
      <trkpt lat="45.58864" lon="4.60105">
        <ele>451</ele>
        <time>2010-06-17T09:01:21Z</time>
      </trkpt>
      <trkpt lat="45.58869" lon="4.60113">
        <ele>451</ele>
        <time>2010-06-17T09:01:25Z</time>
      </trkpt>
      <trkpt lat="45.58874" lon="4.60122">
        <ele>451</ele>
        <time>2010-06-17T09:01:30Z</time>
      </trkpt>
      <trkpt lat="45.58875" lon="4.60123">
        <ele>452</ele>
        <time>2010-06-17T09:01:31Z</time>
      </trkpt>
      <trkpt lat="45.58885" lon="4.60141">
        <ele>452</ele>
        <time>2010-06-17T09:01:40Z</time>
      </trkpt>
      <trkpt lat="45.58892" lon="4.60146">
        <ele>453</ele>
        <time>2010-06-17T09:01:44Z</time>
      </trkpt>
      <trkpt lat="45.58899" lon="4.6015">
        <ele>454</ele>
        <time>2010-06-17T09:01:48Z</time>
      </trkpt>
      <trkpt lat="45.58907" lon="4.60155">
        <ele>456</ele>
        <time>2010-06-17T09:01:53Z</time>
      </trkpt>
      <trkpt lat="45.58915" lon="4.60161">
        <ele>457</ele>
        <time>2010-06-17T09:01:58Z</time>
      </trkpt>
      <trkpt lat="45.58923" lon="4.60167">
        <ele>459</ele>
        <time>2010-06-17T09:02:02Z</time>
      </trkpt>
      <trkpt lat="45.5893" lon="4.60172">
        <ele>460</ele>
        <time>2010-06-17T09:02:06Z</time>
      </trkpt>
      <trkpt lat="45.58937" lon="4.60174">
        <ele>460</ele>
        <time>2010-06-17T09:02:10Z</time>
      </trkpt>
      <trkpt lat="45.58945" lon="4.6018">
        <ele>461</ele>
        <time>2010-06-17T09:02:14Z</time>
      </trkpt>
      <trkpt lat="45.58952" lon="4.60183">
        <ele>461</ele>
        <time>2010-06-17T09:02:18Z</time>
      </trkpt>
      <trkpt lat="45.58958" lon="4.60187">
        <ele>461</ele>
        <time>2010-06-17T09:02:22Z</time>
      </trkpt>
      <trkpt lat="45.58966" lon="4.60192">
        <ele>462</ele>
        <time>2010-06-17T09:02:27Z</time>
      </trkpt>
      <trkpt lat="45.58972" lon="4.60201">
        <ele>462</ele>
        <time>2010-06-17T09:02:31Z</time>
      </trkpt>
      <trkpt lat="45.58973" lon="4.60203">
        <ele>462</ele>
        <time>2010-06-17T09:02:32Z</time>
      </trkpt>
      <trkpt lat="45.58983" lon="4.60215">
        <ele>462</ele>
        <time>2010-06-17T09:02:38Z</time>
      </trkpt>
      <trkpt lat="45.58987" lon="4.60223">
        <ele>461</ele>
        <time>2010-06-17T09:02:41Z</time>
      </trkpt>
      <trkpt lat="45.58991" lon="4.60233">
        <ele>461</ele>
        <time>2010-06-17T09:02:44Z</time>
      </trkpt>
      <trkpt lat="45.58994" lon="4.6024">
        <ele>462</ele>
        <time>2010-06-17T09:02:46Z</time>
      </trkpt>
      <trkpt lat="45.58998" lon="4.60249">
        <ele>462</ele>
        <time>2010-06-17T09:02:49Z</time>
      </trkpt>
      <trkpt lat="45.59001" lon="4.60261">
        <ele>463</ele>
        <time>2010-06-17T09:02:52Z</time>
      </trkpt>
      <trkpt lat="45.59003" lon="4.60271">
        <ele>463</ele>
        <time>2010-06-17T09:02:55Z</time>
      </trkpt>
      <trkpt lat="45.59007" lon="4.60282">
        <ele>463</ele>
        <time>2010-06-17T09:02:59Z</time>
      </trkpt>
      <trkpt lat="45.59009" lon="4.60292">
        <ele>463</ele>
        <time>2010-06-17T09:03:02Z</time>
      </trkpt>
      <trkpt lat="45.59012" lon="4.60302">
        <ele>463</ele>
        <time>2010-06-17T09:03:05Z</time>
      </trkpt>
      <trkpt lat="45.59015" lon="4.60311">
        <ele>462</ele>
        <time>2010-06-17T09:03:08Z</time>
      </trkpt>
      <trkpt lat="45.59019" lon="4.6032">
        <ele>462</ele>
        <time>2010-06-17T09:03:11Z</time>
      </trkpt>
      <trkpt lat="45.59022" lon="4.60329">
        <ele>462</ele>
        <time>2010-06-17T09:03:14Z</time>
      </trkpt>
      <trkpt lat="45.59027" lon="4.60339">
        <ele>460</ele>
        <time>2010-06-17T09:03:18Z</time>
      </trkpt>
      <trkpt lat="45.59033" lon="4.60347">
        <ele>461</ele>
        <time>2010-06-17T09:03:23Z</time>
      </trkpt>
      <trkpt lat="45.5904" lon="4.60356">
        <ele>461</ele>
        <time>2010-06-17T09:03:31Z</time>
      </trkpt>
      <trkpt lat="45.59047" lon="4.60362">
        <ele>461</ele>
        <time>2010-06-17T09:03:38Z</time>
      </trkpt>
      <trkpt lat="45.59048" lon="4.60363">
        <ele>461</ele>
        <time>2010-06-17T09:03:39Z</time>
      </trkpt>
      <trkpt lat="45.59062" lon="4.60372">
        <ele>462</ele>
        <time>2010-06-17T09:03:52Z</time>
      </trkpt>
      <trkpt lat="45.5907" lon="4.60377">
        <ele>462</ele>
        <time>2010-06-17T09:03:59Z</time>
      </trkpt>
      <trkpt lat="45.59077" lon="4.60383">
        <ele>462</ele>
        <time>2010-06-17T09:04:04Z</time>
      </trkpt>
      <trkpt lat="45.59084" lon="4.60388">
        <ele>468</ele>
        <time>2010-06-17T09:04:09Z</time>
      </trkpt>
      <trkpt lat="45.59091" lon="4.60394">
        <ele>468</ele>
        <time>2010-06-17T09:04:14Z</time>
      </trkpt>
      <trkpt lat="45.59097" lon="4.60401">
        <ele>468</ele>
        <time>2010-06-17T09:04:19Z</time>
      </trkpt>
      <trkpt lat="45.59103" lon="4.6041">
        <ele>468</ele>
        <time>2010-06-17T09:04:23Z</time>
      </trkpt>
      <trkpt lat="45.59109" lon="4.60416">
        <ele>469</ele>
        <time>2010-06-17T09:04:27Z</time>
      </trkpt>
      <trkpt lat="45.59115" lon="4.60423">
        <ele>467</ele>
        <time>2010-06-17T09:04:31Z</time>
      </trkpt>
      <trkpt lat="45.59119" lon="4.60432">
        <ele>468</ele>
        <time>2010-06-17T09:04:35Z</time>
      </trkpt>
      <trkpt lat="45.59125" lon="4.60439">
        <ele>468</ele>
        <time>2010-06-17T09:04:39Z</time>
      </trkpt>
      <trkpt lat="45.59126" lon="4.60442">
        <ele>468</ele>
        <time>2010-06-17T09:04:40Z</time>
      </trkpt>
      <trkpt lat="45.59133" lon="4.60457">
        <ele>469</ele>
        <time>2010-06-17T09:04:47Z</time>
      </trkpt>
      <trkpt lat="45.59138" lon="4.60467">
        <ele>469</ele>
        <time>2010-06-17T09:04:51Z</time>
      </trkpt>
      <trkpt lat="45.59143" lon="4.60476">
        <ele>469</ele>
        <time>2010-06-17T09:04:55Z</time>
      </trkpt>
      <trkpt lat="45.59147" lon="4.60485">
        <ele>470</ele>
        <time>2010-06-17T09:04:59Z</time>
      </trkpt>
      <trkpt lat="45.59152" lon="4.60494">
        <ele>471</ele>
        <time>2010-06-17T09:05:03Z</time>
      </trkpt>
      <trkpt lat="45.59156" lon="4.60504">
        <ele>470</ele>
        <time>2010-06-17T09:05:07Z</time>
      </trkpt>
      <trkpt lat="45.5916" lon="4.60514">
        <ele>469</ele>
        <time>2010-06-17T09:05:11Z</time>
      </trkpt>
      <trkpt lat="45.59163" lon="4.60523">
        <ele>468</ele>
        <time>2010-06-17T09:05:15Z</time>
      </trkpt>
      <trkpt lat="45.59166" lon="4.60533">
        <ele>467</ele>
        <time>2010-06-17T09:05:19Z</time>
      </trkpt>
      <trkpt lat="45.59169" lon="4.60543">
        <ele>475</ele>
        <time>2010-06-17T09:05:23Z</time>
      </trkpt>
      <trkpt lat="45.59171" lon="4.60554">
        <ele>474</ele>
        <time>2010-06-17T09:05:27Z</time>
      </trkpt>
      <trkpt lat="45.59173" lon="4.60566">
        <ele>473</ele>
        <time>2010-06-17T09:05:31Z</time>
      </trkpt>
      <trkpt lat="45.59175" lon="4.60576">
        <ele>471</ele>
        <time>2010-06-17T09:05:34Z</time>
      </trkpt>
      <trkpt lat="45.59177" lon="4.60588">
        <ele>470</ele>
        <time>2010-06-17T09:05:38Z</time>
      </trkpt>
      <trkpt lat="45.5918" lon="4.60599">
        <ele>471</ele>
        <time>2010-06-17T09:05:42Z</time>
      </trkpt>
      <trkpt lat="45.59181" lon="4.60602">
        <ele>471</ele>
        <time>2010-06-17T09:05:43Z</time>
      </trkpt>
      <trkpt lat="45.59188" lon="4.60618">
        <ele>472</ele>
        <time>2010-06-17T09:05:51Z</time>
      </trkpt>
      <trkpt lat="45.59191" lon="4.6063">
        <ele>472</ele>
        <time>2010-06-17T09:05:56Z</time>
      </trkpt>
      <trkpt lat="45.59196" lon="4.60638">
        <ele>472</ele>
        <time>2010-06-17T09:06:00Z</time>
      </trkpt>
      <trkpt lat="45.59201" lon="4.60647">
        <ele>472</ele>
        <time>2010-06-17T09:06:04Z</time>
      </trkpt>
      <trkpt lat="45.59207" lon="4.60654">
        <ele>472</ele>
        <time>2010-06-17T09:06:08Z</time>
      </trkpt>
      <trkpt lat="45.59213" lon="4.60661">
        <ele>473</ele>
        <time>2010-06-17T09:06:12Z</time>
      </trkpt>
      <trkpt lat="45.5922" lon="4.60666">
        <ele>473</ele>
        <time>2010-06-17T09:06:16Z</time>
      </trkpt>
      <trkpt lat="45.59227" lon="4.6067">
        <ele>468</ele>
        <time>2010-06-17T09:06:20Z</time>
      </trkpt>
      <trkpt lat="45.59235" lon="4.60674">
        <ele>470</ele>
        <time>2010-06-17T09:06:24Z</time>
      </trkpt>
      <trkpt lat="45.59243" lon="4.60676">
        <ele>471</ele>
        <time>2010-06-17T09:06:29Z</time>
      </trkpt>
      <trkpt lat="45.59251" lon="4.60676">
        <ele>475</ele>
        <time>2010-06-17T09:06:34Z</time>
      </trkpt>
      <trkpt lat="45.59259" lon="4.60678">
        <ele>475</ele>
        <time>2010-06-17T09:06:38Z</time>
      </trkpt>
      <trkpt lat="45.59266" lon="4.60679">
        <ele>475</ele>
        <time>2010-06-17T09:06:42Z</time>
      </trkpt>
      <trkpt lat="45.59274" lon="4.60681">
        <ele>475</ele>
        <time>2010-06-17T09:06:46Z</time>
      </trkpt>
      <trkpt lat="45.59275" lon="4.60682">
        <ele>475</ele>
        <time>2010-06-17T09:06:47Z</time>
      </trkpt>
      <trkpt lat="45.59289" lon="4.60684">
        <ele>476</ele>
        <time>2010-06-17T09:06:55Z</time>
      </trkpt>
      <trkpt lat="45.59298" lon="4.60684">
        <ele>476</ele>
        <time>2010-06-17T09:07:00Z</time>
      </trkpt>
      <trkpt lat="45.59305" lon="4.60687">
        <ele>477</ele>
        <time>2010-06-17T09:07:04Z</time>
      </trkpt>
      <trkpt lat="45.59313" lon="4.60688">
        <ele>478</ele>
        <time>2010-06-17T09:07:08Z</time>
      </trkpt>
      <trkpt lat="45.59321" lon="4.60688">
        <ele>479</ele>
        <time>2010-06-17T09:07:12Z</time>
      </trkpt>
      <trkpt lat="45.59328" lon="4.6069">
        <ele>479</ele>
        <time>2010-06-17T09:07:15Z</time>
      </trkpt>
      <trkpt lat="45.59335" lon="4.6069">
        <ele>483</ele>
        <time>2010-06-17T09:07:18Z</time>
      </trkpt>
      <trkpt lat="45.59344" lon="4.60691">
        <ele>483</ele>
        <time>2010-06-17T09:07:22Z</time>
      </trkpt>
      <trkpt lat="45.59352" lon="4.60692">
        <ele>483</ele>
        <time>2010-06-17T09:07:25Z</time>
      </trkpt>
      <trkpt lat="45.5936" lon="4.60693">
        <ele>483</ele>
        <time>2010-06-17T09:07:28Z</time>
      </trkpt>
      <trkpt lat="45.59367" lon="4.60695">
        <ele>483</ele>
        <time>2010-06-17T09:07:31Z</time>
      </trkpt>
      <trkpt lat="45.59375" lon="4.607">
        <ele>482</ele>
        <time>2010-06-17T09:07:34Z</time>
      </trkpt>
      <trkpt lat="45.59382" lon="4.60704">
        <ele>482</ele>
        <time>2010-06-17T09:07:36Z</time>
      </trkpt>
      <trkpt lat="45.59388" lon="4.60708">
        <ele>482</ele>
        <time>2010-06-17T09:07:38Z</time>
      </trkpt>
      <trkpt lat="45.59394" lon="4.60712">
        <ele>482</ele>
        <time>2010-06-17T09:07:40Z</time>
      </trkpt>
      <trkpt lat="45.59399" lon="4.60718">
        <ele>481</ele>
        <time>2010-06-17T09:07:42Z</time>
      </trkpt>
      <trkpt lat="45.59404" lon="4.60725">
        <ele>481</ele>
        <time>2010-06-17T09:07:44Z</time>
      </trkpt>
      <trkpt lat="45.59407" lon="4.60732">
        <ele>481</ele>
        <time>2010-06-17T09:07:46Z</time>
      </trkpt>
      <trkpt lat="45.59412" lon="4.60742">
        <ele>480</ele>
        <time>2010-06-17T09:07:49Z</time>
      </trkpt>
      <trkpt lat="45.59414" lon="4.60745">
        <ele>480</ele>
        <time>2010-06-17T09:07:50Z</time>
      </trkpt>
      <trkpt lat="45.59419" lon="4.60758">
        <ele>482</ele>
        <time>2010-06-17T09:07:53Z</time>
      </trkpt>
      <trkpt lat="45.59421" lon="4.60768">
        <ele>485</ele>
        <time>2010-06-17T09:07:56Z</time>
      </trkpt>
      <trkpt lat="45.59423" lon="4.60777">
        <ele>486</ele>
        <time>2010-06-17T09:07:59Z</time>
      </trkpt>
      <trkpt lat="45.59424" lon="4.60787">
        <ele>487</ele>
        <time>2010-06-17T09:08:02Z</time>
      </trkpt>
      <trkpt lat="45.59425" lon="4.60799">
        <ele>488</ele>
        <time>2010-06-17T09:08:06Z</time>
      </trkpt>
      <trkpt lat="45.59424" lon="4.60812">
        <ele>487</ele>
        <time>2010-06-17T09:08:10Z</time>
      </trkpt>
      <trkpt lat="45.59423" lon="4.60824">
        <ele>486</ele>
        <time>2010-06-17T09:08:14Z</time>
      </trkpt>
      <trkpt lat="45.5942" lon="4.60836">
        <ele>486</ele>
        <time>2010-06-17T09:08:18Z</time>
      </trkpt>
      <trkpt lat="45.59417" lon="4.60847">
        <ele>489</ele>
        <time>2010-06-17T09:08:22Z</time>
      </trkpt>
      <trkpt lat="45.59412" lon="4.60858">
        <ele>483</ele>
        <time>2010-06-17T09:08:26Z</time>
      </trkpt>
      <trkpt lat="45.59405" lon="4.60865">
        <ele>483</ele>
        <time>2010-06-17T09:08:30Z</time>
      </trkpt>
      <trkpt lat="45.59398" lon="4.60871">
        <ele>484</ele>
        <time>2010-06-17T09:08:34Z</time>
      </trkpt>
      <trkpt lat="45.59392" lon="4.60874">
        <ele>483</ele>
        <time>2010-06-17T09:08:37Z</time>
      </trkpt>
      <trkpt lat="45.59385" lon="4.60877">
        <ele>483</ele>
        <time>2010-06-17T09:08:40Z</time>
      </trkpt>
      <trkpt lat="45.59377" lon="4.60879">
        <ele>483</ele>
        <time>2010-06-17T09:08:43Z</time>
      </trkpt>
      <trkpt lat="45.59369" lon="4.60881">
        <ele>483</ele>
        <time>2010-06-17T09:08:46Z</time>
      </trkpt>
      <trkpt lat="45.59362" lon="4.60886">
        <ele>482</ele>
        <time>2010-06-17T09:08:49Z</time>
      </trkpt>
      <trkpt lat="45.59354" lon="4.60891">
        <ele>482</ele>
        <time>2010-06-17T09:08:52Z</time>
      </trkpt>
      <trkpt lat="45.59352" lon="4.60893">
        <ele>482</ele>
        <time>2010-06-17T09:08:53Z</time>
      </trkpt>
      <trkpt lat="45.5934" lon="4.60901">
        <ele>483</ele>
        <time>2010-06-17T09:08:58Z</time>
      </trkpt>
      <trkpt lat="45.59333" lon="4.60905">
        <ele>483</ele>
        <time>2010-06-17T09:09:01Z</time>
      </trkpt>
      <trkpt lat="45.59326" lon="4.60911">
        <ele>480</ele>
        <time>2010-06-17T09:09:05Z</time>
      </trkpt>
      <trkpt lat="45.59319" lon="4.60915">
        <ele>479</ele>
        <time>2010-06-17T09:09:08Z</time>
      </trkpt>
      <trkpt lat="45.59312" lon="4.60918">
        <ele>483</ele>
        <time>2010-06-17T09:09:11Z</time>
      </trkpt>
      <trkpt lat="45.59304" lon="4.60923">
        <ele>482</ele>
        <time>2010-06-17T09:09:14Z</time>
      </trkpt>
      <trkpt lat="45.59296" lon="4.60928">
        <ele>482</ele>
        <time>2010-06-17T09:09:17Z</time>
      </trkpt>
      <trkpt lat="45.59288" lon="4.60931">
        <ele>482</ele>
        <time>2010-06-17T09:09:20Z</time>
      </trkpt>
      <trkpt lat="45.59281" lon="4.60934">
        <ele>481</ele>
        <time>2010-06-17T09:09:23Z</time>
      </trkpt>
      <trkpt lat="45.59273" lon="4.60937">
        <ele>481</ele>
        <time>2010-06-17T09:09:28Z</time>
      </trkpt>
      <trkpt lat="45.59265" lon="4.60943">
        <ele>481</ele>
        <time>2010-06-17T09:09:35Z</time>
      </trkpt>
      <trkpt lat="45.59257" lon="4.60947">
        <ele>481</ele>
        <time>2010-06-17T09:09:44Z</time>
      </trkpt>
      <trkpt lat="45.5925" lon="4.60955">
        <ele>481</ele>
        <time>2010-06-17T09:09:51Z</time>
      </trkpt>
      <trkpt lat="45.59243" lon="4.60963">
        <ele>477</ele>
        <time>2010-06-17T09:10:04Z</time>
      </trkpt>
      <trkpt lat="45.59243" lon="4.60963">
        <ele>477</ele>
        <time>2010-06-17T09:10:05Z</time>
      </trkpt>
      <trkpt lat="45.59232" lon="4.60975">
        <ele>478</ele>
        <time>2010-06-17T09:11:01Z</time>
      </trkpt>
      <trkpt lat="45.59225" lon="4.6098">
        <ele>478</ele>
        <time>2010-06-17T09:11:04Z</time>
      </trkpt>
      <trkpt lat="45.59219" lon="4.60985">
        <ele>478</ele>
        <time>2010-06-17T09:11:07Z</time>
      </trkpt>
      <trkpt lat="45.59216" lon="4.60987">
        <ele>478</ele>
        <time>2010-06-17T09:11:08Z</time>
      </trkpt>
      <trkpt lat="45.59202" lon="4.60991">
        <ele>478</ele>
        <time>2010-06-17T09:11:13Z</time>
      </trkpt>
      <trkpt lat="45.59193" lon="4.60992">
        <ele>478</ele>
        <time>2010-06-17T09:11:16Z</time>
      </trkpt>
      <trkpt lat="45.59185" lon="4.60993">
        <ele>478</ele>
        <time>2010-06-17T09:11:19Z</time>
      </trkpt>
      <trkpt lat="45.59178" lon="4.60994">
        <ele>478</ele>
        <time>2010-06-17T09:11:21Z</time>
      </trkpt>
      <trkpt lat="45.59172" lon="4.60993">
        <ele>479</ele>
        <time>2010-06-17T09:11:23Z</time>
      </trkpt>
      <trkpt lat="45.59165" lon="4.60993">
        <ele>477</ele>
        <time>2010-06-17T09:11:25Z</time>
      </trkpt>
      <trkpt lat="45.59158" lon="4.60993">
        <ele>476</ele>
        <time>2010-06-17T09:11:27Z</time>
      </trkpt>
      <trkpt lat="45.59151" lon="4.60993">
        <ele>475</ele>
        <time>2010-06-17T09:11:29Z</time>
      </trkpt>
      <trkpt lat="45.59145" lon="4.60994">
        <ele>474</ele>
        <time>2010-06-17T09:11:31Z</time>
      </trkpt>
      <trkpt lat="45.59138" lon="4.60996">
        <ele>473</ele>
        <time>2010-06-17T09:11:33Z</time>
      </trkpt>
      <trkpt lat="45.59131" lon="4.60998">
        <ele>472</ele>
        <time>2010-06-17T09:11:35Z</time>
      </trkpt>
      <trkpt lat="45.59124" lon="4.61001">
        <ele>478</ele>
        <time>2010-06-17T09:11:37Z</time>
      </trkpt>
      <trkpt lat="45.59117" lon="4.61005">
        <ele>478</ele>
        <time>2010-06-17T09:11:39Z</time>
      </trkpt>
      <trkpt lat="45.59111" lon="4.6101">
        <ele>477</ele>
        <time>2010-06-17T09:11:41Z</time>
      </trkpt>
      <trkpt lat="45.59105" lon="4.61017">
        <ele>477</ele>
        <time>2010-06-17T09:11:43Z</time>
      </trkpt>
      <trkpt lat="45.59099" lon="4.61023">
        <ele>477</ele>
        <time>2010-06-17T09:11:45Z</time>
      </trkpt>
      <trkpt lat="45.59094" lon="4.61028">
        <ele>477</ele>
        <time>2010-06-17T09:11:47Z</time>
      </trkpt>
      <trkpt lat="45.59088" lon="4.61034">
        <ele>478</ele>
        <time>2010-06-17T09:11:49Z</time>
      </trkpt>
      <trkpt lat="45.59082" lon="4.61039">
        <ele>473</ele>
        <time>2010-06-17T09:11:51Z</time>
      </trkpt>
      <trkpt lat="45.59076" lon="4.61046">
        <ele>474</ele>
        <time>2010-06-17T09:11:53Z</time>
      </trkpt>
      <trkpt lat="45.59071" lon="4.61052">
        <ele>474</ele>
        <time>2010-06-17T09:11:55Z</time>
      </trkpt>
      <trkpt lat="45.59065" lon="4.61057">
        <ele>474</ele>
        <time>2010-06-17T09:11:57Z</time>
      </trkpt>
      <trkpt lat="45.5906" lon="4.61063">
        <ele>474</ele>
        <time>2010-06-17T09:11:59Z</time>
      </trkpt>
      <trkpt lat="45.59054" lon="4.61071">
        <ele>474</ele>
        <time>2010-06-17T09:12:02Z</time>
      </trkpt>
      <trkpt lat="45.59047" lon="4.61079">
        <ele>474</ele>
        <time>2010-06-17T09:12:05Z</time>
      </trkpt>
      <trkpt lat="45.59042" lon="4.61084">
        <ele>479</ele>
        <time>2010-06-17T09:12:07Z</time>
      </trkpt>
      <trkpt lat="45.59037" lon="4.61089">
        <ele>479</ele>
        <time>2010-06-17T09:12:09Z</time>
      </trkpt>
      <trkpt lat="45.59035" lon="4.61091">
        <ele>479</ele>
        <time>2010-06-17T09:12:10Z</time>
      </trkpt>
      <trkpt lat="45.59027" lon="4.611">
        <ele>479</ele>
        <time>2010-06-17T09:12:13Z</time>
      </trkpt>
      <trkpt lat="45.5902" lon="4.61107">
        <ele>479</ele>
        <time>2010-06-17T09:12:16Z</time>
      </trkpt>
      <trkpt lat="45.59014" lon="4.61113">
        <ele>479</ele>
        <time>2010-06-17T09:12:19Z</time>
      </trkpt>
      <trkpt lat="45.59008" lon="4.6112">
        <ele>479</ele>
        <time>2010-06-17T09:12:22Z</time>
      </trkpt>
      <trkpt lat="45.59002" lon="4.61127">
        <ele>480</ele>
        <time>2010-06-17T09:12:25Z</time>
      </trkpt>
      <trkpt lat="45.58996" lon="4.61133">
        <ele>477</ele>
        <time>2010-06-17T09:12:28Z</time>
      </trkpt>
      <trkpt lat="45.5899" lon="4.61139">
        <ele>477</ele>
        <time>2010-06-17T09:12:31Z</time>
      </trkpt>
      <trkpt lat="45.58983" lon="4.61147">
        <ele>478</ele>
        <time>2010-06-17T09:12:34Z</time>
      </trkpt>
      <trkpt lat="45.58977" lon="4.61154">
        <ele>478</ele>
        <time>2010-06-17T09:12:37Z</time>
      </trkpt>
      <trkpt lat="45.58969" lon="4.6116">
        <ele>477</ele>
        <time>2010-06-17T09:12:40Z</time>
      </trkpt>
      <trkpt lat="45.58963" lon="4.61166">
        <ele>477</ele>
        <time>2010-06-17T09:12:43Z</time>
      </trkpt>
      <trkpt lat="45.58956" lon="4.61172">
        <ele>482</ele>
        <time>2010-06-17T09:12:46Z</time>
      </trkpt>
      <trkpt lat="45.58948" lon="4.61177">
        <ele>481</ele>
        <time>2010-06-17T09:12:49Z</time>
      </trkpt>
      <trkpt lat="45.5894" lon="4.6118">
        <ele>481</ele>
        <time>2010-06-17T09:12:52Z</time>
      </trkpt>
      <trkpt lat="45.58932" lon="4.61182">
        <ele>481</ele>
        <time>2010-06-17T09:12:55Z</time>
      </trkpt>
      <trkpt lat="45.58924" lon="4.61183">
        <ele>480</ele>
        <time>2010-06-17T09:12:58Z</time>
      </trkpt>
      <trkpt lat="45.58917" lon="4.61184">
        <ele>480</ele>
        <time>2010-06-17T09:13:00Z</time>
      </trkpt>
      <trkpt lat="45.58911" lon="4.61184">
        <ele>481</ele>
        <time>2010-06-17T09:13:02Z</time>
      </trkpt>
      <trkpt lat="45.58905" lon="4.61184">
        <ele>482</ele>
        <time>2010-06-17T09:13:04Z</time>
      </trkpt>
      <trkpt lat="45.58896" lon="4.61183">
        <ele>483</ele>
        <time>2010-06-17T09:13:07Z</time>
      </trkpt>
      <trkpt lat="45.58888" lon="4.6118">
        <ele>483</ele>
        <time>2010-06-17T09:13:11Z</time>
      </trkpt>
      <trkpt lat="45.58886" lon="4.61179">
        <ele>483</ele>
        <time>2010-06-17T09:13:12Z</time>
      </trkpt>
      <trkpt lat="45.58876" lon="4.61171">
        <ele>484</ele>
        <time>2010-06-17T09:13:17Z</time>
      </trkpt>
      <trkpt lat="45.58869" lon="4.61166">
        <ele>481</ele>
        <time>2010-06-17T09:13:20Z</time>
      </trkpt>
      <trkpt lat="45.58863" lon="4.61157">
        <ele>481</ele>
        <time>2010-06-17T09:13:23Z</time>
      </trkpt>
      <trkpt lat="45.58857" lon="4.61148">
        <ele>481</ele>
        <time>2010-06-17T09:13:26Z</time>
      </trkpt>
      <trkpt lat="45.58853" lon="4.61139">
        <ele>481</ele>
        <time>2010-06-17T09:13:29Z</time>
      </trkpt>
      <trkpt lat="45.5885" lon="4.61127">
        <ele>480</ele>
        <time>2010-06-17T09:13:33Z</time>
      </trkpt>
      <trkpt lat="45.58847" lon="4.61118">
        <ele>480</ele>
        <time>2010-06-17T09:13:36Z</time>
      </trkpt>
      <trkpt lat="45.58843" lon="4.61109">
        <ele>480</ele>
        <time>2010-06-17T09:13:39Z</time>
      </trkpt>
      <trkpt lat="45.58838" lon="4.61099">
        <ele>480</ele>
        <time>2010-06-17T09:13:42Z</time>
      </trkpt>
      <trkpt lat="45.58833" lon="4.61089">
        <ele>481</ele>
        <time>2010-06-17T09:13:45Z</time>
      </trkpt>
      <trkpt lat="45.58828" lon="4.6108">
        <ele>480</ele>
        <time>2010-06-17T09:13:48Z</time>
      </trkpt>
      <trkpt lat="45.58823" lon="4.61073">
        <ele>480</ele>
        <time>2010-06-17T09:13:51Z</time>
      </trkpt>
      <trkpt lat="45.58817" lon="4.61068">
        <ele>479</ele>
        <time>2010-06-17T09:13:54Z</time>
      </trkpt>
      <trkpt lat="45.58811" lon="4.61063">
        <ele>479</ele>
        <time>2010-06-17T09:13:57Z</time>
      </trkpt>
      <trkpt lat="45.58804" lon="4.6106">
        <ele>479</ele>
        <time>2010-06-17T09:14:00Z</time>
      </trkpt>
      <trkpt lat="45.58796" lon="4.61055">
        <ele>478</ele>
        <time>2010-06-17T09:14:04Z</time>
      </trkpt>
      <trkpt lat="45.58788" lon="4.61053">
        <ele>478</ele>
        <time>2010-06-17T09:14:08Z</time>
      </trkpt>
      <trkpt lat="45.58781" lon="4.61052">
        <ele>478</ele>
        <time>2010-06-17T09:14:11Z</time>
      </trkpt>
      <trkpt lat="45.58774" lon="4.61051">
        <ele>478</ele>
        <time>2010-06-17T09:14:14Z</time>
      </trkpt>
      <trkpt lat="45.58772" lon="4.61051">
        <ele>478</ele>
        <time>2010-06-17T09:14:15Z</time>
      </trkpt>
      <trkpt lat="45.5876" lon="4.61054">
        <ele>478</ele>
        <time>2010-06-17T09:14:20Z</time>
      </trkpt>
      <trkpt lat="45.58752" lon="4.61055">
        <ele>479</ele>
        <time>2010-06-17T09:14:23Z</time>
      </trkpt>
      <trkpt lat="45.58745" lon="4.61058">
        <ele>477</ele>
        <time>2010-06-17T09:14:26Z</time>
      </trkpt>
      <trkpt lat="45.58738" lon="4.61061">
        <ele>477</ele>
        <time>2010-06-17T09:14:29Z</time>
      </trkpt>
      <trkpt lat="45.58731" lon="4.61065">
        <ele>477</ele>
        <time>2010-06-17T09:14:32Z</time>
      </trkpt>
      <trkpt lat="45.58725" lon="4.61067">
        <ele>477</ele>
        <time>2010-06-17T09:14:35Z</time>
      </trkpt>
      <trkpt lat="45.58718" lon="4.6107">
        <ele>476</ele>
        <time>2010-06-17T09:14:38Z</time>
      </trkpt>
      <trkpt lat="45.5871" lon="4.61071">
        <ele>476</ele>
        <time>2010-06-17T09:14:41Z</time>
      </trkpt>
      <trkpt lat="45.58704" lon="4.61073">
        <ele>476</ele>
        <time>2010-06-17T09:14:44Z</time>
      </trkpt>
      <trkpt lat="45.58695" lon="4.61076">
        <ele>476</ele>
        <time>2010-06-17T09:14:48Z</time>
      </trkpt>
      <trkpt lat="45.58689" lon="4.61078">
        <ele>476</ele>
        <time>2010-06-17T09:14:51Z</time>
      </trkpt>
      <trkpt lat="45.58682" lon="4.61082">
        <ele>476</ele>
        <time>2010-06-17T09:14:54Z</time>
      </trkpt>
      <trkpt lat="45.58674" lon="4.61085">
        <ele>480</ele>
        <time>2010-06-17T09:14:57Z</time>
      </trkpt>
      <trkpt lat="45.58666" lon="4.61087">
        <ele>479</ele>
        <time>2010-06-17T09:15:00Z</time>
      </trkpt>
      <trkpt lat="45.58658" lon="4.6109">
        <ele>480</ele>
        <time>2010-06-17T09:15:03Z</time>
      </trkpt>
      <trkpt lat="45.5865" lon="4.61093">
        <ele>481</ele>
        <time>2010-06-17T09:15:06Z</time>
      </trkpt>
      <trkpt lat="45.58642" lon="4.61095">
        <ele>482</ele>
        <time>2010-06-17T09:15:09Z</time>
      </trkpt>
      <trkpt lat="45.58633" lon="4.61097">
        <ele>482</ele>
        <time>2010-06-17T09:15:12Z</time>
      </trkpt>
      <trkpt lat="45.58625" lon="4.61099">
        <ele>482</ele>
        <time>2010-06-17T09:15:15Z</time>
      </trkpt>
      <trkpt lat="45.58623" lon="4.611">
        <ele>483</ele>
        <time>2010-06-17T09:15:16Z</time>
      </trkpt>
      <trkpt lat="45.5861" lon="4.61105">
        <ele>483</ele>
        <time>2010-06-17T09:15:21Z</time>
      </trkpt>
      <trkpt lat="45.58602" lon="4.61106">
        <ele>483</ele>
        <time>2010-06-17T09:15:24Z</time>
      </trkpt>
      <trkpt lat="45.58595" lon="4.61109">
        <ele>483</ele>
        <time>2010-06-17T09:15:27Z</time>
      </trkpt>
      <trkpt lat="45.58587" lon="4.61112">
        <ele>483</ele>
        <time>2010-06-17T09:15:30Z</time>
      </trkpt>
      <trkpt lat="45.5858" lon="4.61116">
        <ele>481</ele>
        <time>2010-06-17T09:15:33Z</time>
      </trkpt>
      <trkpt lat="45.58572" lon="4.6112">
        <ele>481</ele>
        <time>2010-06-17T09:15:37Z</time>
      </trkpt>
      <trkpt lat="45.58564" lon="4.61125">
        <ele>481</ele>
        <time>2010-06-17T09:15:41Z</time>
      </trkpt>
      <trkpt lat="45.58556" lon="4.61131">
        <ele>481</ele>
        <time>2010-06-17T09:15:50Z</time>
      </trkpt>
      <trkpt lat="45.58553" lon="4.6114">
        <ele>482</ele>
        <time>2010-06-17T09:16:41Z</time>
      </trkpt>
      <trkpt lat="45.58552" lon="4.61143">
        <ele>482</ele>
        <time>2010-06-17T09:16:42Z</time>
      </trkpt>
      <trkpt lat="45.58541" lon="4.61154">
        <ele>482</ele>
        <time>2010-06-17T09:16:47Z</time>
      </trkpt>
      <trkpt lat="45.58536" lon="4.61162">
        <ele>482</ele>
        <time>2010-06-17T09:16:50Z</time>
      </trkpt>
      <trkpt lat="45.58532" lon="4.61171">
        <ele>486</ele>
        <time>2010-06-17T09:16:53Z</time>
      </trkpt>
      <trkpt lat="45.58528" lon="4.61179">
        <ele>486</ele>
        <time>2010-06-17T09:16:56Z</time>
      </trkpt>
      <trkpt lat="45.58523" lon="4.61187">
        <ele>486</ele>
        <time>2010-06-17T09:16:59Z</time>
      </trkpt>
      <trkpt lat="45.5852" lon="4.61196">
        <ele>486</ele>
        <time>2010-06-17T09:17:02Z</time>
      </trkpt>
      <trkpt lat="45.58516" lon="4.61205">
        <ele>486</ele>
        <time>2010-06-17T09:17:05Z</time>
      </trkpt>
      <trkpt lat="45.58514" lon="4.61215">
        <ele>487</ele>
        <time>2010-06-17T09:17:08Z</time>
      </trkpt>
      <trkpt lat="45.58511" lon="4.61225">
        <ele>487</ele>
        <time>2010-06-17T09:17:11Z</time>
      </trkpt>
      <trkpt lat="45.5851" lon="4.61238">
        <ele>486</ele>
        <time>2010-06-17T09:17:15Z</time>
      </trkpt>
      <trkpt lat="45.5851" lon="4.61249">
        <ele>486</ele>
        <time>2010-06-17T09:17:18Z</time>
      </trkpt>
      <trkpt lat="45.5851" lon="4.61259">
        <ele>487</ele>
        <time>2010-06-17T09:17:21Z</time>
      </trkpt>
      <trkpt lat="45.58511" lon="4.61269">
        <ele>488</ele>
        <time>2010-06-17T09:17:24Z</time>
      </trkpt>
      <trkpt lat="45.58512" lon="4.61279">
        <ele>488</ele>
        <time>2010-06-17T09:17:27Z</time>
      </trkpt>
      <trkpt lat="45.58514" lon="4.61289">
        <ele>488</ele>
        <time>2010-06-17T09:17:30Z</time>
      </trkpt>
      <trkpt lat="45.58516" lon="4.61298">
        <ele>488</ele>
        <time>2010-06-17T09:17:33Z</time>
      </trkpt>
      <trkpt lat="45.58519" lon="4.61307">
        <ele>488</ele>
        <time>2010-06-17T09:17:36Z</time>
      </trkpt>
      <trkpt lat="45.58521" lon="4.61317">
        <ele>488</ele>
        <time>2010-06-17T09:17:39Z</time>
      </trkpt>
      <trkpt lat="45.58524" lon="4.61326">
        <ele>488</ele>
        <time>2010-06-17T09:17:42Z</time>
      </trkpt>
      <trkpt lat="45.58524" lon="4.6133">
        <ele>488</ele>
        <time>2010-06-17T09:17:43Z</time>
      </trkpt>
      <trkpt lat="45.58529" lon="4.61348">
        <ele>487</ele>
        <time>2010-06-17T09:17:48Z</time>
      </trkpt>
      <trkpt lat="45.58531" lon="4.61359">
        <ele>488</ele>
        <time>2010-06-17T09:17:51Z</time>
      </trkpt>
      <trkpt lat="45.58534" lon="4.61369">
        <ele>488</ele>
        <time>2010-06-17T09:17:54Z</time>
      </trkpt>
      <trkpt lat="45.58536" lon="4.61379">
        <ele>488</ele>
        <time>2010-06-17T09:17:57Z</time>
      </trkpt>
      <trkpt lat="45.58539" lon="4.61389">
        <ele>488</ele>
        <time>2010-06-17T09:18:00Z</time>
      </trkpt>
      <trkpt lat="45.58541" lon="4.614">
        <ele>488</ele>
        <time>2010-06-17T09:18:03Z</time>
      </trkpt>
      <trkpt lat="45.58543" lon="4.6141">
        <ele>488</ele>
        <time>2010-06-17T09:18:06Z</time>
      </trkpt>
      <trkpt lat="45.58545" lon="4.61421">
        <ele>487</ele>
        <time>2010-06-17T09:18:09Z</time>
      </trkpt>
      <trkpt lat="45.58548" lon="4.61433">
        <ele>487</ele>
        <time>2010-06-17T09:18:12Z</time>
      </trkpt>
      <trkpt lat="45.5855" lon="4.61445">
        <ele>488</ele>
        <time>2010-06-17T09:18:15Z</time>
      </trkpt>
      <trkpt lat="45.58551" lon="4.61456">
        <ele>488</ele>
        <time>2010-06-17T09:18:18Z</time>
      </trkpt>
      <trkpt lat="45.58551" lon="4.61468">
        <ele>488</ele>
        <time>2010-06-17T09:18:21Z</time>
      </trkpt>
      <trkpt lat="45.5855" lon="4.6148">
        <ele>488</ele>
        <time>2010-06-17T09:18:24Z</time>
      </trkpt>
      <trkpt lat="45.58549" lon="4.61492">
        <ele>488</ele>
        <time>2010-06-17T09:18:27Z</time>
      </trkpt>
      <trkpt lat="45.58548" lon="4.61504">
        <ele>489</ele>
        <time>2010-06-17T09:18:30Z</time>
      </trkpt>
      <trkpt lat="45.58547" lon="4.61517">
        <ele>489</ele>
        <time>2010-06-17T09:18:33Z</time>
      </trkpt>
      <trkpt lat="45.58546" lon="4.61528">
        <ele>489</ele>
        <time>2010-06-17T09:18:36Z</time>
      </trkpt>
      <trkpt lat="45.58544" lon="4.6154">
        <ele>488</ele>
        <time>2010-06-17T09:18:39Z</time>
      </trkpt>
      <trkpt lat="45.58543" lon="4.6155">
        <ele>489</ele>
        <time>2010-06-17T09:18:42Z</time>
      </trkpt>
      <trkpt lat="45.58542" lon="4.61561">
        <ele>489</ele>
        <time>2010-06-17T09:18:45Z</time>
      </trkpt>
      <trkpt lat="45.58542" lon="4.61565">
        <ele>489</ele>
        <time>2010-06-17T09:18:46Z</time>
      </trkpt>
      <trkpt lat="45.58539" lon="4.61581">
        <ele>488</ele>
        <time>2010-06-17T09:18:51Z</time>
      </trkpt>
      <trkpt lat="45.58538" lon="4.61591">
        <ele>490</ele>
        <time>2010-06-17T09:18:54Z</time>
      </trkpt>
      <trkpt lat="45.58538" lon="4.61601">
        <ele>490</ele>
        <time>2010-06-17T09:18:57Z</time>
      </trkpt>
      <trkpt lat="45.58536" lon="4.61612">
        <ele>490</ele>
        <time>2010-06-17T09:19:00Z</time>
      </trkpt>
      <trkpt lat="45.58535" lon="4.61625">
        <ele>490</ele>
        <time>2010-06-17T09:19:03Z</time>
      </trkpt>
      <trkpt lat="45.58533" lon="4.61637">
        <ele>490</ele>
        <time>2010-06-17T09:19:06Z</time>
      </trkpt>
      <trkpt lat="45.5853" lon="4.61648">
        <ele>489</ele>
        <time>2010-06-17T09:19:09Z</time>
      </trkpt>
      <trkpt lat="45.58526" lon="4.61659">
        <ele>488</ele>
        <time>2010-06-17T09:19:12Z</time>
      </trkpt>
      <trkpt lat="45.58522" lon="4.61669">
        <ele>490</ele>
        <time>2010-06-17T09:19:15Z</time>
      </trkpt>
      <trkpt lat="45.58517" lon="4.61679">
        <ele>490</ele>
        <time>2010-06-17T09:19:18Z</time>
      </trkpt>
      <trkpt lat="45.5851" lon="4.61686">
        <ele>490</ele>
        <time>2010-06-17T09:19:21Z</time>
      </trkpt>
      <trkpt lat="45.58503" lon="4.61693">
        <ele>490</ele>
        <time>2010-06-17T09:19:24Z</time>
      </trkpt>
      <trkpt lat="45.58498" lon="4.61698">
        <ele>483</ele>
        <time>2010-06-17T09:19:26Z</time>
      </trkpt>
      <trkpt lat="45.58492" lon="4.61703">
        <ele>483</ele>
        <time>2010-06-17T09:19:28Z</time>
      </trkpt>
      <trkpt lat="45.58486" lon="4.61708">
        <ele>484</ele>
        <time>2010-06-17T09:19:30Z</time>
      </trkpt>
      <trkpt lat="45.5848" lon="4.61713">
        <ele>484</ele>
        <time>2010-06-17T09:19:32Z</time>
      </trkpt>
      <trkpt lat="45.58473" lon="4.61719">
        <ele>484</ele>
        <time>2010-06-17T09:19:34Z</time>
      </trkpt>
      <trkpt lat="45.58466" lon="4.61725">
        <ele>484</ele>
        <time>2010-06-17T09:19:36Z</time>
      </trkpt>
      <trkpt lat="45.58459" lon="4.61731">
        <ele>483</ele>
        <time>2010-06-17T09:19:38Z</time>
      </trkpt>
      <trkpt lat="45.58452" lon="4.61736">
        <ele>483</ele>
        <time>2010-06-17T09:19:40Z</time>
      </trkpt>
      <trkpt lat="45.58445" lon="4.61742">
        <ele>483</ele>
        <time>2010-06-17T09:19:42Z</time>
      </trkpt>
      <trkpt lat="45.58438" lon="4.61749">
        <ele>482</ele>
        <time>2010-06-17T09:19:44Z</time>
      </trkpt>
      <trkpt lat="45.58432" lon="4.61756">
        <ele>486</ele>
        <time>2010-06-17T09:19:46Z</time>
      </trkpt>
      <trkpt lat="45.58428" lon="4.6176">
        <ele>486</ele>
        <time>2010-06-17T09:19:47Z</time>
      </trkpt>
      <trkpt lat="45.58419" lon="4.61771">
        <ele>487</ele>
        <time>2010-06-17T09:19:50Z</time>
      </trkpt>
      <trkpt lat="45.58415" lon="4.61779">
        <ele>481</ele>
        <time>2010-06-17T09:19:52Z</time>
      </trkpt>
      <trkpt lat="45.5841" lon="4.61786">
        <ele>482</ele>
        <time>2010-06-17T09:19:54Z</time>
      </trkpt>
      <trkpt lat="45.58404" lon="4.61793">
        <ele>482</ele>
        <time>2010-06-17T09:19:56Z</time>
      </trkpt>
      <trkpt lat="45.58399" lon="4.618">
        <ele>482</ele>
        <time>2010-06-17T09:19:58Z</time>
      </trkpt>
      <trkpt lat="45.58394" lon="4.61807">
        <ele>482</ele>
        <time>2010-06-17T09:20:00Z</time>
      </trkpt>
      <trkpt lat="45.58388" lon="4.61815">
        <ele>482</ele>
        <time>2010-06-17T09:20:02Z</time>
      </trkpt>
      <trkpt lat="45.58384" lon="4.61824">
        <ele>482</ele>
        <time>2010-06-17T09:20:04Z</time>
      </trkpt>
      <trkpt lat="45.58379" lon="4.61833">
        <ele>482</ele>
        <time>2010-06-17T09:20:06Z</time>
      </trkpt>
      <trkpt lat="45.58374" lon="4.61842">
        <ele>485</ele>
        <time>2010-06-17T09:20:08Z</time>
      </trkpt>
      <trkpt lat="45.5837" lon="4.61852">
        <ele>484</ele>
        <time>2010-06-17T09:20:10Z</time>
      </trkpt>
      <trkpt lat="45.58366" lon="4.61862">
        <ele>484</ele>
        <time>2010-06-17T09:20:12Z</time>
      </trkpt>
      <trkpt lat="45.58363" lon="4.61871">
        <ele>484</ele>
        <time>2010-06-17T09:20:14Z</time>
      </trkpt>
      <trkpt lat="45.5836" lon="4.6188">
        <ele>484</ele>
        <time>2010-06-17T09:20:16Z</time>
      </trkpt>
      <trkpt lat="45.58358" lon="4.61888">
        <ele>484</ele>
        <time>2010-06-17T09:20:18Z</time>
      </trkpt>
      <trkpt lat="45.58356" lon="4.61898">
        <ele>484</ele>
        <time>2010-06-17T09:20:20Z</time>
      </trkpt>
      <trkpt lat="45.58354" lon="4.61908">
        <ele>484</ele>
        <time>2010-06-17T09:20:22Z</time>
      </trkpt>
      <trkpt lat="45.58352" lon="4.61918">
        <ele>485</ele>
        <time>2010-06-17T09:20:24Z</time>
      </trkpt>
      <trkpt lat="45.58351" lon="4.61928">
        <ele>485</ele>
        <time>2010-06-17T09:20:26Z</time>
      </trkpt>
      <trkpt lat="45.58349" lon="4.61939">
        <ele>485</ele>
        <time>2010-06-17T09:20:28Z</time>
      </trkpt>
      <trkpt lat="45.58347" lon="4.6195">
        <ele>485</ele>
        <time>2010-06-17T09:20:30Z</time>
      </trkpt>
      <trkpt lat="45.58345" lon="4.61961">
        <ele>485</ele>
        <time>2010-06-17T09:20:32Z</time>
      </trkpt>
      <trkpt lat="45.58343" lon="4.6197">
        <ele>485</ele>
        <time>2010-06-17T09:20:34Z</time>
      </trkpt>
      <trkpt lat="45.58341" lon="4.6198">
        <ele>484</ele>
        <time>2010-06-17T09:20:36Z</time>
      </trkpt>
      <trkpt lat="45.5834" lon="4.61989">
        <ele>482</ele>
        <time>2010-06-17T09:20:38Z</time>
      </trkpt>
      <trkpt lat="45.58338" lon="4.61999">
        <ele>481</ele>
        <time>2010-06-17T09:20:40Z</time>
      </trkpt>
      <trkpt lat="45.58337" lon="4.62009">
        <ele>482</ele>
        <time>2010-06-17T09:20:42Z</time>
      </trkpt>
      <trkpt lat="45.58336" lon="4.62019">
        <ele>483</ele>
        <time>2010-06-17T09:20:44Z</time>
      </trkpt>
      <trkpt lat="45.58334" lon="4.62029">
        <ele>484</ele>
        <time>2010-06-17T09:20:46Z</time>
      </trkpt>
      <trkpt lat="45.58332" lon="4.62039">
        <ele>474</ele>
        <time>2010-06-17T09:20:48Z</time>
      </trkpt>
      <trkpt lat="45.58331" lon="4.62044">
        <ele>474</ele>
        <time>2010-06-17T09:20:49Z</time>
      </trkpt>
      <trkpt lat="45.58328" lon="4.6206">
        <ele>474</ele>
        <time>2010-06-17T09:20:52Z</time>
      </trkpt>
      <trkpt lat="45.58326" lon="4.6207">
        <ele>475</ele>
        <time>2010-06-17T09:20:54Z</time>
      </trkpt>
      <trkpt lat="45.58326" lon="4.6208">
        <ele>476</ele>
        <time>2010-06-17T09:20:56Z</time>
      </trkpt>
      <trkpt lat="45.58326" lon="4.62091">
        <ele>475</ele>
        <time>2010-06-17T09:20:58Z</time>
      </trkpt>
      <trkpt lat="45.58327" lon="4.62101">
        <ele>474</ele>
        <time>2010-06-17T09:21:00Z</time>
      </trkpt>
      <trkpt lat="45.58328" lon="4.62111">
        <ele>473</ele>
        <time>2010-06-17T09:21:02Z</time>
      </trkpt>
      <trkpt lat="45.5833" lon="4.62121">
        <ele>473</ele>
        <time>2010-06-17T09:21:04Z</time>
      </trkpt>
      <trkpt lat="45.58332" lon="4.62133">
        <ele>473</ele>
        <time>2010-06-17T09:21:07Z</time>
      </trkpt>
      <trkpt lat="45.58336" lon="4.62144">
        <ele>483</ele>
        <time>2010-06-17T09:21:10Z</time>
      </trkpt>
      <trkpt lat="45.58339" lon="4.62156">
        <ele>482</ele>
        <time>2010-06-17T09:21:13Z</time>
      </trkpt>
      <trkpt lat="45.5834" lon="4.62164">
        <ele>481</ele>
        <time>2010-06-17T09:21:15Z</time>
      </trkpt>
      <trkpt lat="45.58342" lon="4.62173">
        <ele>482</ele>
        <time>2010-06-17T09:21:17Z</time>
      </trkpt>
      <trkpt lat="45.58343" lon="4.62182">
        <ele>483</ele>
        <time>2010-06-17T09:21:19Z</time>
      </trkpt>
      <trkpt lat="45.58345" lon="4.62193">
        <ele>484</ele>
        <time>2010-06-17T09:21:21Z</time>
      </trkpt>
      <trkpt lat="45.58346" lon="4.62203">
        <ele>485</ele>
        <time>2010-06-17T09:21:23Z</time>
      </trkpt>
      <trkpt lat="45.58347" lon="4.62214">
        <ele>485</ele>
        <time>2010-06-17T09:21:25Z</time>
      </trkpt>
      <trkpt lat="45.58348" lon="4.62225">
        <ele>484</ele>
        <time>2010-06-17T09:21:27Z</time>
      </trkpt>
      <trkpt lat="45.58348" lon="4.62235">
        <ele>483</ele>
        <time>2010-06-17T09:21:29Z</time>
      </trkpt>
      <trkpt lat="45.58347" lon="4.62245">
        <ele>482</ele>
        <time>2010-06-17T09:21:31Z</time>
      </trkpt>
      <trkpt lat="45.58346" lon="4.62256">
        <ele>482</ele>
        <time>2010-06-17T09:21:33Z</time>
      </trkpt>
      <trkpt lat="45.58344" lon="4.62267">
        <ele>484</ele>
        <time>2010-06-17T09:21:35Z</time>
      </trkpt>
      <trkpt lat="45.58341" lon="4.62278">
        <ele>485</ele>
        <time>2010-06-17T09:21:37Z</time>
      </trkpt>
      <trkpt lat="45.58338" lon="4.62289">
        <ele>485</ele>
        <time>2010-06-17T09:21:39Z</time>
      </trkpt>
      <trkpt lat="45.58335" lon="4.62299">
        <ele>485</ele>
        <time>2010-06-17T09:21:41Z</time>
      </trkpt>
      <trkpt lat="45.58331" lon="4.62308">
        <ele>476</ele>
        <time>2010-06-17T09:21:43Z</time>
      </trkpt>
      <trkpt lat="45.58325" lon="4.62317">
        <ele>476</ele>
        <time>2010-06-17T09:21:46Z</time>
      </trkpt>
      <trkpt lat="45.58319" lon="4.62324">
        <ele>477</ele>
        <time>2010-06-17T09:21:49Z</time>
      </trkpt>
      <trkpt lat="45.58317" lon="4.62327">
        <ele>476</ele>
        <time>2010-06-17T09:21:50Z</time>
      </trkpt>
      <trkpt lat="45.58307" lon="4.62334">
        <ele>479</ele>
        <time>2010-06-17T09:21:53Z</time>
      </trkpt>
      <trkpt lat="45.583" lon="4.62338">
        <ele>478</ele>
        <time>2010-06-17T09:21:55Z</time>
      </trkpt>
      <trkpt lat="45.58292" lon="4.62342">
        <ele>478</ele>
        <time>2010-06-17T09:21:57Z</time>
      </trkpt>
      <trkpt lat="45.58283" lon="4.62343">
        <ele>477</ele>
        <time>2010-06-17T09:21:59Z</time>
      </trkpt>
      <trkpt lat="45.58274" lon="4.62344">
        <ele>476</ele>
        <time>2010-06-17T09:22:01Z</time>
      </trkpt>
      <trkpt lat="45.58265" lon="4.62345">
        <ele>475</ele>
        <time>2010-06-17T09:22:03Z</time>
      </trkpt>
      <trkpt lat="45.58257" lon="4.62343">
        <ele>474</ele>
        <time>2010-06-17T09:22:05Z</time>
      </trkpt>
      <trkpt lat="45.58253" lon="4.62341">
        <ele>473</ele>
        <time>2010-06-17T09:22:06Z</time>
      </trkpt>
      <trkpt lat="45.58248" lon="4.6234">
        <ele>472</ele>
        <time>2010-06-17T09:22:07Z</time>
      </trkpt>
      <trkpt lat="45.58244" lon="4.62338">
        <ele>472</ele>
        <time>2010-06-17T09:22:08Z</time>
      </trkpt>
      <trkpt lat="45.58239" lon="4.62336">
        <ele>473</ele>
        <time>2010-06-17T09:22:09Z</time>
      </trkpt>
      <trkpt lat="45.58235" lon="4.62333">
        <ele>473</ele>
        <time>2010-06-17T09:22:10Z</time>
      </trkpt>
      <trkpt lat="45.58231" lon="4.62331">
        <ele>469</ele>
        <time>2010-06-17T09:22:11Z</time>
      </trkpt>
      <trkpt lat="45.58226" lon="4.62328">
        <ele>469</ele>
        <time>2010-06-17T09:22:12Z</time>
      </trkpt>
      <trkpt lat="45.58222" lon="4.62325">
        <ele>469</ele>
        <time>2010-06-17T09:22:13Z</time>
      </trkpt>
      <trkpt lat="45.58218" lon="4.62322">
        <ele>469</ele>
        <time>2010-06-17T09:22:14Z</time>
      </trkpt>
      <trkpt lat="45.58214" lon="4.6232">
        <ele>469</ele>
        <time>2010-06-17T09:22:15Z</time>
      </trkpt>
      <trkpt lat="45.58209" lon="4.62317">
        <ele>468</ele>
        <time>2010-06-17T09:22:16Z</time>
      </trkpt>
      <trkpt lat="45.58205" lon="4.62315">
        <ele>468</ele>
        <time>2010-06-17T09:22:17Z</time>
      </trkpt>
      <trkpt lat="45.582" lon="4.62313">
        <ele>468</ele>
        <time>2010-06-17T09:22:18Z</time>
      </trkpt>
      <trkpt lat="45.58196" lon="4.62311">
        <ele>468</ele>
        <time>2010-06-17T09:22:19Z</time>
      </trkpt>
      <trkpt lat="45.58192" lon="4.62308">
        <ele>468</ele>
        <time>2010-06-17T09:22:20Z</time>
      </trkpt>
      <trkpt lat="45.58183" lon="4.62304">
        <ele>468</ele>
        <time>2010-06-17T09:22:22Z</time>
      </trkpt>
      <trkpt lat="45.58175" lon="4.62299">
        <ele>468</ele>
        <time>2010-06-17T09:22:24Z</time>
      </trkpt>
      <trkpt lat="45.58167" lon="4.62296">
        <ele>468</ele>
        <time>2010-06-17T09:22:26Z</time>
      </trkpt>
      <trkpt lat="45.58159" lon="4.62292">
        <ele>467</ele>
        <time>2010-06-17T09:22:28Z</time>
      </trkpt>
      <trkpt lat="45.58151" lon="4.6229">
        <ele>467</ele>
        <time>2010-06-17T09:22:30Z</time>
      </trkpt>
      <trkpt lat="45.58143" lon="4.62289">
        <ele>467</ele>
        <time>2010-06-17T09:22:32Z</time>
      </trkpt>
      <trkpt lat="45.58135" lon="4.62289">
        <ele>467</ele>
        <time>2010-06-17T09:22:34Z</time>
      </trkpt>
      <trkpt lat="45.58126" lon="4.6229">
        <ele>467</ele>
        <time>2010-06-17T09:22:36Z</time>
      </trkpt>
      <trkpt lat="45.58117" lon="4.6229">
        <ele>467</ele>
        <time>2010-06-17T09:22:38Z</time>
      </trkpt>
      <trkpt lat="45.58113" lon="4.62291">
        <ele>467</ele>
        <time>2010-06-17T09:22:39Z</time>
      </trkpt>
      <trkpt lat="45.58108" lon="4.62291">
        <ele>467</ele>
        <time>2010-06-17T09:22:40Z</time>
      </trkpt>
      <trkpt lat="45.58104" lon="4.62291">
        <ele>467</ele>
        <time>2010-06-17T09:22:41Z</time>
      </trkpt>
      <trkpt lat="45.58099" lon="4.62292">
        <ele>467</ele>
        <time>2010-06-17T09:22:42Z</time>
      </trkpt>
      <trkpt lat="45.58094" lon="4.62292">
        <ele>467</ele>
        <time>2010-06-17T09:22:43Z</time>
      </trkpt>
      <trkpt lat="45.5809" lon="4.62292">
        <ele>467</ele>
        <time>2010-06-17T09:22:44Z</time>
      </trkpt>
      <trkpt lat="45.58085" lon="4.62293">
        <ele>467</ele>
        <time>2010-06-17T09:22:45Z</time>
      </trkpt>
      <trkpt lat="45.58081" lon="4.62294">
        <ele>466</ele>
        <time>2010-06-17T09:22:46Z</time>
      </trkpt>
      <trkpt lat="45.58076" lon="4.62294">
        <ele>466</ele>
        <time>2010-06-17T09:22:47Z</time>
      </trkpt>
      <trkpt lat="45.58072" lon="4.62294">
        <ele>466</ele>
        <time>2010-06-17T09:22:48Z</time>
      </trkpt>
      <trkpt lat="45.58067" lon="4.62295">
        <ele>466</ele>
        <time>2010-06-17T09:22:49Z</time>
      </trkpt>
      <trkpt lat="45.58063" lon="4.62295">
        <ele>466</ele>
        <time>2010-06-17T09:22:50Z</time>
      </trkpt>
      <trkpt lat="45.58058" lon="4.62296">
        <ele>466</ele>
        <time>2010-06-17T09:22:51Z</time>
      </trkpt>
      <trkpt lat="45.58045" lon="4.62297">
        <ele>465</ele>
        <time>2010-06-17T09:22:54Z</time>
      </trkpt>
      <trkpt lat="45.58036" lon="4.62297">
        <ele>465</ele>
        <time>2010-06-17T09:22:56Z</time>
      </trkpt>
      <trkpt lat="45.58028" lon="4.62298">
        <ele>465</ele>
        <time>2010-06-17T09:22:58Z</time>
      </trkpt>
      <trkpt lat="45.5802" lon="4.62299">
        <ele>465</ele>
        <time>2010-06-17T09:23:00Z</time>
      </trkpt>
      <trkpt lat="45.58012" lon="4.62299">
        <ele>465</ele>
        <time>2010-06-17T09:23:02Z</time>
      </trkpt>
      <trkpt lat="45.58004" lon="4.623">
        <ele>465</ele>
        <time>2010-06-17T09:23:04Z</time>
      </trkpt>
      <trkpt lat="45.57996" lon="4.62302">
        <ele>463</ele>
        <time>2010-06-17T09:23:06Z</time>
      </trkpt>
      <trkpt lat="45.57989" lon="4.62303">
        <ele>463</ele>
        <time>2010-06-17T09:23:08Z</time>
      </trkpt>
      <trkpt lat="45.5798" lon="4.62304">
        <ele>463</ele>
        <time>2010-06-17T09:23:10Z</time>
      </trkpt>
      <trkpt lat="45.57972" lon="4.62306">
        <ele>462</ele>
        <time>2010-06-17T09:23:12Z</time>
      </trkpt>
      <trkpt lat="45.57963" lon="4.62307">
        <ele>462</ele>
        <time>2010-06-17T09:23:14Z</time>
      </trkpt>
      <trkpt lat="45.57955" lon="4.62309">
        <ele>462</ele>
        <time>2010-06-17T09:23:16Z</time>
      </trkpt>
      <trkpt lat="45.57947" lon="4.62311">
        <ele>461</ele>
        <time>2010-06-17T09:23:18Z</time>
      </trkpt>
      <trkpt lat="45.57939" lon="4.62312">
        <ele>461</ele>
        <time>2010-06-17T09:23:20Z</time>
      </trkpt>
      <trkpt lat="45.57931" lon="4.62313">
        <ele>461</ele>
        <time>2010-06-17T09:23:22Z</time>
      </trkpt>
      <trkpt lat="45.57923" lon="4.62315">
        <ele>461</ele>
        <time>2010-06-17T09:23:24Z</time>
      </trkpt>
      <trkpt lat="45.57915" lon="4.62317">
        <ele>459</ele>
        <time>2010-06-17T09:23:26Z</time>
      </trkpt>
      <trkpt lat="45.57907" lon="4.62318">
        <ele>459</ele>
        <time>2010-06-17T09:23:28Z</time>
      </trkpt>
      <trkpt lat="45.57899" lon="4.6232">
        <ele>458</ele>
        <time>2010-06-17T09:23:30Z</time>
      </trkpt>
      <trkpt lat="45.57891" lon="4.62322">
        <ele>458</ele>
        <time>2010-06-17T09:23:32Z</time>
      </trkpt>
      <trkpt lat="45.57882" lon="4.62324">
        <ele>457</ele>
        <time>2010-06-17T09:23:34Z</time>
      </trkpt>
      <trkpt lat="45.57874" lon="4.62325">
        <ele>457</ele>
        <time>2010-06-17T09:23:36Z</time>
      </trkpt>
      <trkpt lat="45.57865" lon="4.62327">
        <ele>457</ele>
        <time>2010-06-17T09:23:38Z</time>
      </trkpt>
      <trkpt lat="45.57856" lon="4.62328">
        <ele>457</ele>
        <time>2010-06-17T09:23:40Z</time>
      </trkpt>
      <trkpt lat="45.57848" lon="4.62331">
        <ele>457</ele>
        <time>2010-06-17T09:23:42Z</time>
      </trkpt>
      <trkpt lat="45.57841" lon="4.62333">
        <ele>457</ele>
        <time>2010-06-17T09:23:44Z</time>
      </trkpt>
      <trkpt lat="45.57835" lon="4.62334">
        <ele>459</ele>
        <time>2010-06-17T09:23:46Z</time>
      </trkpt>
      <trkpt lat="45.57828" lon="4.62337">
        <ele>458</ele>
        <time>2010-06-17T09:23:49Z</time>
      </trkpt>
      <trkpt lat="45.57819" lon="4.6234">
        <ele>458</ele>
        <time>2010-06-17T09:23:53Z</time>
      </trkpt>
      <trkpt lat="45.57817" lon="4.62341">
        <ele>458</ele>
        <time>2010-06-17T09:23:54Z</time>
      </trkpt>
      <trkpt lat="45.57803" lon="4.62347">
        <ele>458</ele>
        <time>2010-06-17T09:24:02Z</time>
      </trkpt>
      <trkpt lat="45.57797" lon="4.62356">
        <ele>458</ele>
        <time>2010-06-17T09:24:07Z</time>
      </trkpt>
      <trkpt lat="45.57791" lon="4.62363">
        <ele>458</ele>
        <time>2010-06-17T09:24:13Z</time>
      </trkpt>
      <trkpt lat="45.57786" lon="4.62372">
        <ele>458</ele>
        <time>2010-06-17T09:24:19Z</time>
      </trkpt>
      <trkpt lat="45.57783" lon="4.62382">
        <ele>458</ele>
        <time>2010-06-17T09:24:25Z</time>
      </trkpt>
      <trkpt lat="45.57779" lon="4.62392">
        <ele>458</ele>
        <time>2010-06-17T09:24:31Z</time>
      </trkpt>
      <trkpt lat="45.57775" lon="4.62402">
        <ele>458</ele>
        <time>2010-06-17T09:24:36Z</time>
      </trkpt>
      <trkpt lat="45.57773" lon="4.62414">
        <ele>458</ele>
        <time>2010-06-17T09:24:42Z</time>
      </trkpt>
      <trkpt lat="45.57771" lon="4.62427">
        <ele>462</ele>
        <time>2010-06-17T09:24:48Z</time>
      </trkpt>
      <trkpt lat="45.57766" lon="4.62436">
        <ele>462</ele>
        <time>2010-06-17T09:24:53Z</time>
      </trkpt>
      <trkpt lat="45.57765" lon="4.62447">
        <ele>463</ele>
        <time>2010-06-17T09:24:58Z</time>
      </trkpt>
      <trkpt lat="45.57765" lon="4.6245">
        <ele>463</ele>
        <time>2010-06-17T09:24:59Z</time>
      </trkpt>
      <trkpt lat="45.57767" lon="4.62469">
        <ele>464</ele>
        <time>2010-06-17T09:25:08Z</time>
      </trkpt>
      <trkpt lat="45.57767" lon="4.62481">
        <ele>464</ele>
        <time>2010-06-17T09:25:13Z</time>
      </trkpt>
      <trkpt lat="45.57767" lon="4.62493">
        <ele>463</ele>
        <time>2010-06-17T09:25:18Z</time>
      </trkpt>
      <trkpt lat="45.57767" lon="4.62503">
        <ele>464</ele>
        <time>2010-06-17T09:25:21Z</time>
      </trkpt>
      <trkpt lat="45.57768" lon="4.62515">
        <ele>465</ele>
        <time>2010-06-17T09:25:24Z</time>
      </trkpt>
      <trkpt lat="45.57768" lon="4.62526">
        <ele>466</ele>
        <time>2010-06-17T09:25:27Z</time>
      </trkpt>
      <trkpt lat="45.57768" lon="4.62537">
        <ele>466</ele>
        <time>2010-06-17T09:25:30Z</time>
      </trkpt>
      <trkpt lat="45.57769" lon="4.62548">
        <ele>466</ele>
        <time>2010-06-17T09:25:33Z</time>
      </trkpt>
      <trkpt lat="45.57769" lon="4.62558">
        <ele>465</ele>
        <time>2010-06-17T09:25:36Z</time>
      </trkpt>
      <trkpt lat="45.57769" lon="4.62569">
        <ele>465</ele>
        <time>2010-06-17T09:25:39Z</time>
      </trkpt>
      <trkpt lat="45.5777" lon="4.6258">
        <ele>464</ele>
        <time>2010-06-17T09:25:42Z</time>
      </trkpt>
      <trkpt lat="45.57771" lon="4.62591">
        <ele>463</ele>
        <time>2010-06-17T09:25:45Z</time>
      </trkpt>
      <trkpt lat="45.57774" lon="4.62601">
        <ele>463</ele>
        <time>2010-06-17T09:25:48Z</time>
      </trkpt>
      <trkpt lat="45.57776" lon="4.62611">
        <ele>463</ele>
        <time>2010-06-17T09:25:51Z</time>
      </trkpt>
      <trkpt lat="45.57779" lon="4.62621">
        <ele>463</ele>
        <time>2010-06-17T09:25:54Z</time>
      </trkpt>
      <trkpt lat="45.57782" lon="4.6263">
        <ele>463</ele>
        <time>2010-06-17T09:25:57Z</time>
      </trkpt>
      <trkpt lat="45.57785" lon="4.62639">
        <ele>463</ele>
        <time>2010-06-17T09:25:59Z</time>
      </trkpt>
      <trkpt lat="45.57786" lon="4.62643">
        <ele>463</ele>
        <time>2010-06-17T09:26:00Z</time>
      </trkpt>
      <trkpt lat="45.57791" lon="4.62657">
        <ele>463</ele>
        <time>2010-06-17T09:26:03Z</time>
      </trkpt>
      <trkpt lat="45.57794" lon="4.62666">
        <ele>464</ele>
        <time>2010-06-17T09:26:05Z</time>
      </trkpt>
      <trkpt lat="45.57797" lon="4.62676">
        <ele>460</ele>
        <time>2010-06-17T09:26:07Z</time>
      </trkpt>
      <trkpt lat="45.57799" lon="4.62685">
        <ele>460</ele>
        <time>2010-06-17T09:26:09Z</time>
      </trkpt>
      <trkpt lat="45.57802" lon="4.62693">
        <ele>460</ele>
        <time>2010-06-17T09:26:11Z</time>
      </trkpt>
      <trkpt lat="45.57806" lon="4.62701">
        <ele>460</ele>
        <time>2010-06-17T09:26:13Z</time>
      </trkpt>
      <trkpt lat="45.5781" lon="4.6271">
        <ele>459</ele>
        <time>2010-06-17T09:26:15Z</time>
      </trkpt>
      <trkpt lat="45.57814" lon="4.62718">
        <ele>459</ele>
        <time>2010-06-17T09:26:17Z</time>
      </trkpt>
      <trkpt lat="45.57818" lon="4.62729">
        <ele>459</ele>
        <time>2010-06-17T09:26:20Z</time>
      </trkpt>
      <trkpt lat="45.57822" lon="4.62737">
        <ele>460</ele>
        <time>2010-06-17T09:26:22Z</time>
      </trkpt>
      <trkpt lat="45.57825" lon="4.62746">
        <ele>460</ele>
        <time>2010-06-17T09:26:24Z</time>
      </trkpt>
      <trkpt lat="45.57827" lon="4.62755">
        <ele>459</ele>
        <time>2010-06-17T09:26:26Z</time>
      </trkpt>
      <trkpt lat="45.5783" lon="4.62763">
        <ele>458</ele>
        <time>2010-06-17T09:26:28Z</time>
      </trkpt>
      <trkpt lat="45.57834" lon="4.62774">
        <ele>465</ele>
        <time>2010-06-17T09:26:31Z</time>
      </trkpt>
      <trkpt lat="45.57838" lon="4.62784">
        <ele>465</ele>
        <time>2010-06-17T09:26:35Z</time>
      </trkpt>
      <trkpt lat="45.5784" lon="4.62794">
        <ele>465</ele>
        <time>2010-06-17T09:26:42Z</time>
      </trkpt>
      <trkpt lat="45.57842" lon="4.62804">
        <ele>465</ele>
        <time>2010-06-17T09:26:45Z</time>
      </trkpt>
      <trkpt lat="45.57845" lon="4.62815">
        <ele>464</ele>
        <time>2010-06-17T09:26:49Z</time>
      </trkpt>
      <trkpt lat="45.57849" lon="4.62825">
        <ele>464</ele>
        <time>2010-06-17T09:26:53Z</time>
      </trkpt>
      <trkpt lat="45.57852" lon="4.62836">
        <ele>461</ele>
        <time>2010-06-17T09:26:57Z</time>
      </trkpt>
      <trkpt lat="45.57855" lon="4.62847">
        <ele>462</ele>
        <time>2010-06-17T09:27:01Z</time>
      </trkpt>
      <trkpt lat="45.57856" lon="4.6285">
        <ele>462</ele>
        <time>2010-06-17T09:27:02Z</time>
      </trkpt>
      <trkpt lat="45.57861" lon="4.62869">
        <ele>462</ele>
        <time>2010-06-17T09:27:09Z</time>
      </trkpt>
      <trkpt lat="45.57863" lon="4.62878">
        <ele>462</ele>
        <time>2010-06-17T09:27:12Z</time>
      </trkpt>
      <trkpt lat="45.57866" lon="4.62887">
        <ele>462</ele>
        <time>2010-06-17T09:27:15Z</time>
      </trkpt>
      <trkpt lat="45.5787" lon="4.62898">
        <ele>461</ele>
        <time>2010-06-17T09:27:19Z</time>
      </trkpt>
      <trkpt lat="45.57875" lon="4.62909">
        <ele>461</ele>
        <time>2010-06-17T09:27:26Z</time>
      </trkpt>
      <trkpt lat="45.57879" lon="4.62916">
        <ele>462</ele>
        <time>2010-06-17T09:27:31Z</time>
      </trkpt>
      <trkpt lat="45.57884" lon="4.62924">
        <ele>458</ele>
        <time>2010-06-17T09:27:34Z</time>
      </trkpt>
      <trkpt lat="45.57889" lon="4.62933">
        <ele>458</ele>
        <time>2010-06-17T09:27:37Z</time>
      </trkpt>
      <trkpt lat="45.57893" lon="4.6294">
        <ele>458</ele>
        <time>2010-06-17T09:27:40Z</time>
      </trkpt>
      <trkpt lat="45.57898" lon="4.62948">
        <ele>457</ele>
        <time>2010-06-17T09:27:43Z</time>
      </trkpt>
      <trkpt lat="45.57902" lon="4.62958">
        <ele>457</ele>
        <time>2010-06-17T09:27:46Z</time>
      </trkpt>
      <trkpt lat="45.57906" lon="4.62968">
        <ele>457</ele>
        <time>2010-06-17T09:27:49Z</time>
      </trkpt>
      <trkpt lat="45.5791" lon="4.62979">
        <ele>456</ele>
        <time>2010-06-17T09:27:52Z</time>
      </trkpt>
      <trkpt lat="45.57917" lon="4.62985">
        <ele>457</ele>
        <time>2010-06-17T09:27:54Z</time>
      </trkpt>
      <trkpt lat="45.57923" lon="4.62992">
        <ele>460</ele>
        <time>2010-06-17T09:27:58Z</time>
      </trkpt>
      <trkpt lat="45.57931" lon="4.62998">
        <ele>460</ele>
        <time>2010-06-17T09:28:14Z</time>
      </trkpt>
      <trkpt lat="45.57932" lon="4.62999">
        <ele>460</ele>
        <time>2010-06-17T09:28:15Z</time>
      </trkpt>
      <trkpt lat="45.57944" lon="4.63004">
        <ele>457</ele>
        <time>2010-06-17T09:28:22Z</time>
      </trkpt>
      <trkpt lat="45.57951" lon="4.63007">
        <ele>457</ele>
        <time>2010-06-17T09:28:26Z</time>
      </trkpt>
      <trkpt lat="45.5796" lon="4.63009">
        <ele>457</ele>
        <time>2010-06-17T09:28:30Z</time>
      </trkpt>
      <trkpt lat="45.57968" lon="4.63012">
        <ele>458</ele>
        <time>2010-06-17T09:28:34Z</time>
      </trkpt>
      <trkpt lat="45.57976" lon="4.63014">
        <ele>458</ele>
        <time>2010-06-17T09:28:38Z</time>
      </trkpt>
      <trkpt lat="45.57983" lon="4.63016">
        <ele>458</ele>
        <time>2010-06-17T09:28:41Z</time>
      </trkpt>
      <trkpt lat="45.5799" lon="4.63018">
        <ele>459</ele>
        <time>2010-06-17T09:28:44Z</time>
      </trkpt>
      <trkpt lat="45.57997" lon="4.6302">
        <ele>459</ele>
        <time>2010-06-17T09:28:48Z</time>
      </trkpt>
      <trkpt lat="45.58004" lon="4.63024">
        <ele>462</ele>
        <time>2010-06-17T09:28:52Z</time>
      </trkpt>
      <trkpt lat="45.58013" lon="4.63029">
        <ele>462</ele>
        <time>2010-06-17T09:28:57Z</time>
      </trkpt>
      <trkpt lat="45.58021" lon="4.63032">
        <ele>462</ele>
        <time>2010-06-17T09:29:08Z</time>
      </trkpt>
      <trkpt lat="45.58027" lon="4.63042">
        <ele>461</ele>
        <time>2010-06-17T09:29:53Z</time>
      </trkpt>
      <trkpt lat="45.58028" lon="4.63044">
        <ele>461</ele>
        <time>2010-06-17T09:29:54Z</time>
      </trkpt>
      <trkpt lat="45.58013" lon="4.63047">
        <ele>461</ele>
        <time>2010-06-17T09:30:00Z</time>
      </trkpt>
      <trkpt lat="45.58005" lon="4.63047">
        <ele>460</ele>
        <time>2010-06-17T09:30:02Z</time>
      </trkpt>
      <trkpt lat="45.58" lon="4.63048">
        <ele>460</ele>
        <time>2010-06-17T09:30:03Z</time>
      </trkpt>
      <trkpt lat="45.57996" lon="4.63048">
        <ele>457</ele>
        <time>2010-06-17T09:30:04Z</time>
      </trkpt>
      <trkpt lat="45.5799" lon="4.63049">
        <ele>457</ele>
        <time>2010-06-17T09:30:05Z</time>
      </trkpt>
      <trkpt lat="45.57984" lon="4.63049">
        <ele>456</ele>
        <time>2010-06-17T09:30:06Z</time>
      </trkpt>
      <trkpt lat="45.57978" lon="4.6305">
        <ele>456</ele>
        <time>2010-06-17T09:30:07Z</time>
      </trkpt>
      <trkpt lat="45.57972" lon="4.63051">
        <ele>456</ele>
        <time>2010-06-17T09:30:08Z</time>
      </trkpt>
      <trkpt lat="45.57966" lon="4.63053">
        <ele>456</ele>
        <time>2010-06-17T09:30:09Z</time>
      </trkpt>
      <trkpt lat="45.5796" lon="4.63054">
        <ele>456</ele>
        <time>2010-06-17T09:30:10Z</time>
      </trkpt>
      <trkpt lat="45.57953" lon="4.63055">
        <ele>456</ele>
        <time>2010-06-17T09:30:11Z</time>
      </trkpt>
      <trkpt lat="45.57947" lon="4.63055">
        <ele>455</ele>
        <time>2010-06-17T09:30:12Z</time>
      </trkpt>
      <trkpt lat="45.57941" lon="4.63056">
        <ele>455</ele>
        <time>2010-06-17T09:30:13Z</time>
      </trkpt>
      <trkpt lat="45.57936" lon="4.63057">
        <ele>455</ele>
        <time>2010-06-17T09:30:14Z</time>
      </trkpt>
      <trkpt lat="45.57931" lon="4.63058">
        <ele>455</ele>
        <time>2010-06-17T09:30:15Z</time>
      </trkpt>
      <trkpt lat="45.57922" lon="4.6306">
        <ele>454</ele>
        <time>2010-06-17T09:30:17Z</time>
      </trkpt>
      <trkpt lat="45.57916" lon="4.6306">
        <ele>450</ele>
        <time>2010-06-17T09:30:19Z</time>
      </trkpt>
      <trkpt lat="45.57909" lon="4.63061">
        <ele>450</ele>
        <time>2010-06-17T09:30:21Z</time>
      </trkpt>
      <trkpt lat="45.57903" lon="4.63062">
        <ele>450</ele>
        <time>2010-06-17T09:30:23Z</time>
      </trkpt>
      <trkpt lat="45.57897" lon="4.63061">
        <ele>450</ele>
        <time>2010-06-17T09:30:25Z</time>
      </trkpt>
      <trkpt lat="45.57889" lon="4.6306">
        <ele>449</ele>
        <time>2010-06-17T09:30:27Z</time>
      </trkpt>
      <trkpt lat="45.57885" lon="4.63058">
        <ele>449</ele>
        <time>2010-06-17T09:30:28Z</time>
      </trkpt>
      <trkpt lat="45.5788" lon="4.63057">
        <ele>449</ele>
        <time>2010-06-17T09:30:29Z</time>
      </trkpt>
      <trkpt lat="45.57875" lon="4.63055">
        <ele>449</ele>
        <time>2010-06-17T09:30:30Z</time>
      </trkpt>
      <trkpt lat="45.5787" lon="4.63053">
        <ele>448</ele>
        <time>2010-06-17T09:30:31Z</time>
      </trkpt>
      <trkpt lat="45.57865" lon="4.6305">
        <ele>448</ele>
        <time>2010-06-17T09:30:32Z</time>
      </trkpt>
      <trkpt lat="45.57859" lon="4.63047">
        <ele>448</ele>
        <time>2010-06-17T09:30:33Z</time>
      </trkpt>
      <trkpt lat="45.57854" lon="4.63044">
        <ele>448</ele>
        <time>2010-06-17T09:30:34Z</time>
      </trkpt>
      <trkpt lat="45.57848" lon="4.63041">
        <ele>448</ele>
        <time>2010-06-17T09:30:35Z</time>
      </trkpt>
      <trkpt lat="45.57842" lon="4.63037">
        <ele>448</ele>
        <time>2010-06-17T09:30:36Z</time>
      </trkpt>
      <trkpt lat="45.57836" lon="4.63034">
        <ele>447</ele>
        <time>2010-06-17T09:30:37Z</time>
      </trkpt>
      <trkpt lat="45.5783" lon="4.6303">
        <ele>443</ele>
        <time>2010-06-17T09:30:38Z</time>
      </trkpt>
      <trkpt lat="45.57823" lon="4.63027">
        <ele>443</ele>
        <time>2010-06-17T09:30:39Z</time>
      </trkpt>
      <trkpt lat="45.57817" lon="4.63024">
        <ele>443</ele>
        <time>2010-06-17T09:30:40Z</time>
      </trkpt>
      <trkpt lat="45.5781" lon="4.63021">
        <ele>443</ele>
        <time>2010-06-17T09:30:41Z</time>
      </trkpt>
      <trkpt lat="45.57803" lon="4.63018">
        <ele>442</ele>
        <time>2010-06-17T09:30:42Z</time>
      </trkpt>
      <trkpt lat="45.57795" lon="4.63017">
        <ele>442</ele>
        <time>2010-06-17T09:30:43Z</time>
      </trkpt>
      <trkpt lat="45.57787" lon="4.63016">
        <ele>441</ele>
        <time>2010-06-17T09:30:44Z</time>
      </trkpt>
      <trkpt lat="45.5778" lon="4.63017">
        <ele>441</ele>
        <time>2010-06-17T09:30:45Z</time>
      </trkpt>
      <trkpt lat="45.57772" lon="4.6302">
        <ele>441</ele>
        <time>2010-06-17T09:30:46Z</time>
      </trkpt>
      <trkpt lat="45.57765" lon="4.63025">
        <ele>441</ele>
        <time>2010-06-17T09:30:47Z</time>
      </trkpt>
      <trkpt lat="45.57759" lon="4.63033">
        <ele>440</ele>
        <time>2010-06-17T09:30:48Z</time>
      </trkpt>
      <trkpt lat="45.57755" lon="4.63044">
        <ele>440</ele>
        <time>2010-06-17T09:30:49Z</time>
      </trkpt>
      <trkpt lat="45.57753" lon="4.63057">
        <ele>439</ele>
        <time>2010-06-17T09:30:50Z</time>
      </trkpt>
      <trkpt lat="45.57751" lon="4.6307">
        <ele>438</ele>
        <time>2010-06-17T09:30:51Z</time>
      </trkpt>
      <trkpt lat="45.57749" lon="4.63084">
        <ele>436</ele>
        <time>2010-06-17T09:30:52Z</time>
      </trkpt>
      <trkpt lat="45.57748" lon="4.63098">
        <ele>434</ele>
        <time>2010-06-17T09:30:53Z</time>
      </trkpt>
      <trkpt lat="45.57746" lon="4.63112">
        <ele>433</ele>
        <time>2010-06-17T09:30:54Z</time>
      </trkpt>
      <trkpt lat="45.57745" lon="4.63126">
        <ele>432</ele>
        <time>2010-06-17T09:30:55Z</time>
      </trkpt>
      <trkpt lat="45.57744" lon="4.6314">
        <ele>432</ele>
        <time>2010-06-17T09:30:56Z</time>
      </trkpt>
      <trkpt lat="45.57742" lon="4.63154">
        <ele>432</ele>
        <time>2010-06-17T09:30:57Z</time>
      </trkpt>
      <trkpt lat="45.57741" lon="4.63168">
        <ele>431</ele>
        <time>2010-06-17T09:30:58Z</time>
      </trkpt>
      <trkpt lat="45.57739" lon="4.63182">
        <ele>430</ele>
        <time>2010-06-17T09:30:59Z</time>
      </trkpt>
      <trkpt lat="45.57738" lon="4.63197">
        <ele>430</ele>
        <time>2010-06-17T09:31:00Z</time>
      </trkpt>
      <trkpt lat="45.57736" lon="4.63211">
        <ele>429</ele>
        <time>2010-06-17T09:31:01Z</time>
      </trkpt>
      <trkpt lat="45.57735" lon="4.63225">
        <ele>429</ele>
        <time>2010-06-17T09:31:02Z</time>
      </trkpt>
      <trkpt lat="45.57733" lon="4.63239">
        <ele>429</ele>
        <time>2010-06-17T09:31:03Z</time>
      </trkpt>
      <trkpt lat="45.57732" lon="4.63252">
        <ele>428</ele>
        <time>2010-06-17T09:31:04Z</time>
      </trkpt>
      <trkpt lat="45.5773" lon="4.63265">
        <ele>428</ele>
        <time>2010-06-17T09:31:05Z</time>
      </trkpt>
      <trkpt lat="45.57728" lon="4.63278">
        <ele>427</ele>
        <time>2010-06-17T09:31:06Z</time>
      </trkpt>
      <trkpt lat="45.57725" lon="4.6329">
        <ele>427</ele>
        <time>2010-06-17T09:31:07Z</time>
      </trkpt>
      <trkpt lat="45.57721" lon="4.63301">
        <ele>427</ele>
        <time>2010-06-17T09:31:08Z</time>
      </trkpt>
      <trkpt lat="45.57715" lon="4.63309">
        <ele>426</ele>
        <time>2010-06-17T09:31:09Z</time>
      </trkpt>
      <trkpt lat="45.57707" lon="4.63317">
        <ele>426</ele>
        <time>2010-06-17T09:31:10Z</time>
      </trkpt>
      <trkpt lat="45.57699" lon="4.63322">
        <ele>425</ele>
        <time>2010-06-17T09:31:11Z</time>
      </trkpt>
      <trkpt lat="45.57688" lon="4.63323">
        <ele>425</ele>
        <time>2010-06-17T09:31:12Z</time>
      </trkpt>
      <trkpt lat="45.57678" lon="4.63322">
        <ele>424</ele>
        <time>2010-06-17T09:31:13Z</time>
      </trkpt>
      <trkpt lat="45.57668" lon="4.6332">
        <ele>424</ele>
        <time>2010-06-17T09:31:14Z</time>
      </trkpt>
      <trkpt lat="45.57659" lon="4.63318">
        <ele>422</ele>
        <time>2010-06-17T09:31:15Z</time>
      </trkpt>
      <trkpt lat="45.5765" lon="4.63315">
        <ele>421</ele>
        <time>2010-06-17T09:31:16Z</time>
      </trkpt>
      <trkpt lat="45.57641" lon="4.63311">
        <ele>421</ele>
        <time>2010-06-17T09:31:17Z</time>
      </trkpt>
      <trkpt lat="45.57632" lon="4.63308">
        <ele>420</ele>
        <time>2010-06-17T09:31:18Z</time>
      </trkpt>
      <trkpt lat="45.57623" lon="4.63304">
        <ele>420</ele>
        <time>2010-06-17T09:31:19Z</time>
      </trkpt>
      <trkpt lat="45.57615" lon="4.63301">
        <ele>419</ele>
        <time>2010-06-17T09:31:20Z</time>
      </trkpt>
      <trkpt lat="45.57606" lon="4.63297">
        <ele>419</ele>
        <time>2010-06-17T09:31:21Z</time>
      </trkpt>
      <trkpt lat="45.57597" lon="4.63292">
        <ele>419</ele>
        <time>2010-06-17T09:31:22Z</time>
      </trkpt>
      <trkpt lat="45.57588" lon="4.63288">
        <ele>419</ele>
        <time>2010-06-17T09:31:23Z</time>
      </trkpt>
      <trkpt lat="45.57579" lon="4.63285">
        <ele>415</ele>
        <time>2010-06-17T09:31:24Z</time>
      </trkpt>
      <trkpt lat="45.5757" lon="4.63282">
        <ele>415</ele>
        <time>2010-06-17T09:31:25Z</time>
      </trkpt>
      <trkpt lat="45.5756" lon="4.63278">
        <ele>414</ele>
        <time>2010-06-17T09:31:26Z</time>
      </trkpt>
      <trkpt lat="45.57551" lon="4.63274">
        <ele>414</ele>
        <time>2010-06-17T09:31:27Z</time>
      </trkpt>
      <trkpt lat="45.57542" lon="4.63271">
        <ele>414</ele>
        <time>2010-06-17T09:31:28Z</time>
      </trkpt>
      <trkpt lat="45.57533" lon="4.63267">
        <ele>413</ele>
        <time>2010-06-17T09:31:29Z</time>
      </trkpt>
      <trkpt lat="45.57523" lon="4.63263">
        <ele>413</ele>
        <time>2010-06-17T09:31:30Z</time>
      </trkpt>
      <trkpt lat="45.57514" lon="4.63259">
        <ele>412</ele>
        <time>2010-06-17T09:31:31Z</time>
      </trkpt>
      <trkpt lat="45.57504" lon="4.63256">
        <ele>412</ele>
        <time>2010-06-17T09:31:32Z</time>
      </trkpt>
      <trkpt lat="45.57495" lon="4.63252">
        <ele>411</ele>
        <time>2010-06-17T09:31:33Z</time>
      </trkpt>
      <trkpt lat="45.57485" lon="4.63248">
        <ele>410</ele>
        <time>2010-06-17T09:31:34Z</time>
      </trkpt>
      <trkpt lat="45.57476" lon="4.63244">
        <ele>410</ele>
        <time>2010-06-17T09:31:35Z</time>
      </trkpt>
      <trkpt lat="45.57466" lon="4.6324">
        <ele>409</ele>
        <time>2010-06-17T09:31:36Z</time>
      </trkpt>
      <trkpt lat="45.57457" lon="4.63236">
        <ele>409</ele>
        <time>2010-06-17T09:31:37Z</time>
      </trkpt>
      <trkpt lat="45.57447" lon="4.63232">
        <ele>409</ele>
        <time>2010-06-17T09:31:38Z</time>
      </trkpt>
      <trkpt lat="45.57438" lon="4.63228">
        <ele>409</ele>
        <time>2010-06-17T09:31:39Z</time>
      </trkpt>
      <trkpt lat="45.57429" lon="4.63224">
        <ele>408</ele>
        <time>2010-06-17T09:31:40Z</time>
      </trkpt>
      <trkpt lat="45.57419" lon="4.6322">
        <ele>408</ele>
        <time>2010-06-17T09:31:41Z</time>
      </trkpt>
      <trkpt lat="45.57409" lon="4.63215">
        <ele>404</ele>
        <time>2010-06-17T09:31:42Z</time>
      </trkpt>
      <trkpt lat="45.57399" lon="4.63211">
        <ele>404</ele>
        <time>2010-06-17T09:31:43Z</time>
      </trkpt>
      <trkpt lat="45.5739" lon="4.63207">
        <ele>403</ele>
        <time>2010-06-17T09:31:44Z</time>
      </trkpt>
      <trkpt lat="45.5738" lon="4.63203">
        <ele>403</ele>
        <time>2010-06-17T09:31:45Z</time>
      </trkpt>
      <trkpt lat="45.5737" lon="4.63198">
        <ele>402</ele>
        <time>2010-06-17T09:31:46Z</time>
      </trkpt>
      <trkpt lat="45.5736" lon="4.63194">
        <ele>402</ele>
        <time>2010-06-17T09:31:47Z</time>
      </trkpt>
      <trkpt lat="45.5735" lon="4.63189">
        <ele>401</ele>
        <time>2010-06-17T09:31:48Z</time>
      </trkpt>
      <trkpt lat="45.5734" lon="4.63185">
        <ele>401</ele>
        <time>2010-06-17T09:31:49Z</time>
      </trkpt>
      <trkpt lat="45.57331" lon="4.6318">
        <ele>398</ele>
        <time>2010-06-17T09:31:50Z</time>
      </trkpt>
      <trkpt lat="45.57322" lon="4.63176">
        <ele>398</ele>
        <time>2010-06-17T09:31:51Z</time>
      </trkpt>
      <trkpt lat="45.57312" lon="4.63172">
        <ele>397</ele>
        <time>2010-06-17T09:31:52Z</time>
      </trkpt>
      <trkpt lat="45.57303" lon="4.63168">
        <ele>397</ele>
        <time>2010-06-17T09:31:53Z</time>
      </trkpt>
      <trkpt lat="45.57294" lon="4.63164">
        <ele>396</ele>
        <time>2010-06-17T09:31:54Z</time>
      </trkpt>
      <trkpt lat="45.57285" lon="4.6316">
        <ele>396</ele>
        <time>2010-06-17T09:31:55Z</time>
      </trkpt>
      <trkpt lat="45.57276" lon="4.63156">
        <ele>396</ele>
        <time>2010-06-17T09:31:56Z</time>
      </trkpt>
      <trkpt lat="45.57266" lon="4.63152">
        <ele>395</ele>
        <time>2010-06-17T09:31:57Z</time>
      </trkpt>
      <trkpt lat="45.57257" lon="4.63148">
        <ele>395</ele>
        <time>2010-06-17T09:31:58Z</time>
      </trkpt>
      <trkpt lat="45.57247" lon="4.63145">
        <ele>392</ele>
        <time>2010-06-17T09:31:59Z</time>
      </trkpt>
      <trkpt lat="45.57237" lon="4.63144">
        <ele>392</ele>
        <time>2010-06-17T09:32:00Z</time>
      </trkpt>
      <trkpt lat="45.57227" lon="4.63145">
        <ele>392</ele>
        <time>2010-06-17T09:32:01Z</time>
      </trkpt>
      <trkpt lat="45.57218" lon="4.63148">
        <ele>391</ele>
        <time>2010-06-17T09:32:02Z</time>
      </trkpt>
      <trkpt lat="45.57208" lon="4.63152">
        <ele>391</ele>
        <time>2010-06-17T09:32:03Z</time>
      </trkpt>
      <trkpt lat="45.57199" lon="4.63157">
        <ele>391</ele>
        <time>2010-06-17T09:32:04Z</time>
      </trkpt>
      <trkpt lat="45.57189" lon="4.63162">
        <ele>390</ele>
        <time>2010-06-17T09:32:05Z</time>
      </trkpt>
      <trkpt lat="45.5718" lon="4.63167">
        <ele>390</ele>
        <time>2010-06-17T09:32:06Z</time>
      </trkpt>
      <trkpt lat="45.5717" lon="4.63172">
        <ele>390</ele>
        <time>2010-06-17T09:32:07Z</time>
      </trkpt>
      <trkpt lat="45.57161" lon="4.63178">
        <ele>388</ele>
        <time>2010-06-17T09:32:08Z</time>
      </trkpt>
      <trkpt lat="45.57152" lon="4.63183">
        <ele>388</ele>
        <time>2010-06-17T09:32:09Z</time>
      </trkpt>
      <trkpt lat="45.57142" lon="4.63188">
        <ele>388</ele>
        <time>2010-06-17T09:32:10Z</time>
      </trkpt>
      <trkpt lat="45.57133" lon="4.63193">
        <ele>388</ele>
        <time>2010-06-17T09:32:11Z</time>
      </trkpt>
      <trkpt lat="45.57124" lon="4.63198">
        <ele>387</ele>
        <time>2010-06-17T09:32:12Z</time>
      </trkpt>
      <trkpt lat="45.57114" lon="4.63203">
        <ele>387</ele>
        <time>2010-06-17T09:32:13Z</time>
      </trkpt>
      <trkpt lat="45.57105" lon="4.63208">
        <ele>387</ele>
        <time>2010-06-17T09:32:14Z</time>
      </trkpt>
      <trkpt lat="45.57096" lon="4.63213">
        <ele>387</ele>
        <time>2010-06-17T09:32:15Z</time>
      </trkpt>
      <trkpt lat="45.57087" lon="4.63218">
        <ele>387</ele>
        <time>2010-06-17T09:32:16Z</time>
      </trkpt>
      <trkpt lat="45.57077" lon="4.63223">
        <ele>385</ele>
        <time>2010-06-17T09:32:17Z</time>
      </trkpt>
      <trkpt lat="45.57068" lon="4.63228">
        <ele>385</ele>
        <time>2010-06-17T09:32:18Z</time>
      </trkpt>
      <trkpt lat="45.57059" lon="4.63234">
        <ele>385</ele>
        <time>2010-06-17T09:32:19Z</time>
      </trkpt>
      <trkpt lat="45.5705" lon="4.63239">
        <ele>384</ele>
        <time>2010-06-17T09:32:20Z</time>
      </trkpt>
      <trkpt lat="45.57041" lon="4.63243">
        <ele>384</ele>
        <time>2010-06-17T09:32:21Z</time>
      </trkpt>
      <trkpt lat="45.57032" lon="4.63248">
        <ele>384</ele>
        <time>2010-06-17T09:32:22Z</time>
      </trkpt>
      <trkpt lat="45.57023" lon="4.63253">
        <ele>384</ele>
        <time>2010-06-17T09:32:23Z</time>
      </trkpt>
      <trkpt lat="45.57014" lon="4.63258">
        <ele>384</ele>
        <time>2010-06-17T09:32:24Z</time>
      </trkpt>
      <trkpt lat="45.57005" lon="4.63263">
        <ele>384</ele>
        <time>2010-06-17T09:32:25Z</time>
      </trkpt>
      <trkpt lat="45.56996" lon="4.63268">
        <ele>382</ele>
        <time>2010-06-17T09:32:26Z</time>
      </trkpt>
      <trkpt lat="45.56988" lon="4.63273">
        <ele>382</ele>
        <time>2010-06-17T09:32:27Z</time>
      </trkpt>
      <trkpt lat="45.56979" lon="4.63277">
        <ele>382</ele>
        <time>2010-06-17T09:32:28Z</time>
      </trkpt>
      <trkpt lat="45.56971" lon="4.63282">
        <ele>382</ele>
        <time>2010-06-17T09:32:29Z</time>
      </trkpt>
      <trkpt lat="45.56962" lon="4.63287">
        <ele>382</ele>
        <time>2010-06-17T09:32:30Z</time>
      </trkpt>
      <trkpt lat="45.56954" lon="4.63291">
        <ele>382</ele>
        <time>2010-06-17T09:32:31Z</time>
      </trkpt>
      <trkpt lat="45.56946" lon="4.63296">
        <ele>382</ele>
        <time>2010-06-17T09:32:32Z</time>
      </trkpt>
      <trkpt lat="45.56938" lon="4.633">
        <ele>381</ele>
        <time>2010-06-17T09:32:33Z</time>
      </trkpt>
      <trkpt lat="45.56931" lon="4.63304">
        <ele>381</ele>
        <time>2010-06-17T09:32:34Z</time>
      </trkpt>
      <trkpt lat="45.56923" lon="4.63308">
        <ele>381</ele>
        <time>2010-06-17T09:32:35Z</time>
      </trkpt>
      <trkpt lat="45.56915" lon="4.63313">
        <ele>379</ele>
        <time>2010-06-17T09:32:36Z</time>
      </trkpt>
      <trkpt lat="45.56908" lon="4.63317">
        <ele>379</ele>
        <time>2010-06-17T09:32:37Z</time>
      </trkpt>
      <trkpt lat="45.569" lon="4.63321">
        <ele>379</ele>
        <time>2010-06-17T09:32:38Z</time>
      </trkpt>
      <trkpt lat="45.56893" lon="4.63325">
        <ele>379</ele>
        <time>2010-06-17T09:32:39Z</time>
      </trkpt>
      <trkpt lat="45.56886" lon="4.63329">
        <ele>379</ele>
        <time>2010-06-17T09:32:40Z</time>
      </trkpt>
      <trkpt lat="45.56878" lon="4.63334">
        <ele>379</ele>
        <time>2010-06-17T09:32:41Z</time>
      </trkpt>
      <trkpt lat="45.56871" lon="4.63338">
        <ele>378</ele>
        <time>2010-06-17T09:32:42Z</time>
      </trkpt>
      <trkpt lat="45.56863" lon="4.63342">
        <ele>378</ele>
        <time>2010-06-17T09:32:43Z</time>
      </trkpt>
      <trkpt lat="45.56856" lon="4.63345">
        <ele>378</ele>
        <time>2010-06-17T09:32:44Z</time>
      </trkpt>
      <trkpt lat="45.56849" lon="4.63349">
        <ele>378</ele>
        <time>2010-06-17T09:32:45Z</time>
      </trkpt>
      <trkpt lat="45.56842" lon="4.63352">
        <ele>378</ele>
        <time>2010-06-17T09:32:46Z</time>
      </trkpt>
      <trkpt lat="45.56835" lon="4.63356">
        <ele>378</ele>
        <time>2010-06-17T09:32:47Z</time>
      </trkpt>
      <trkpt lat="45.56828" lon="4.6336">
        <ele>376</ele>
        <time>2010-06-17T09:32:48Z</time>
      </trkpt>
      <trkpt lat="45.56821" lon="4.63364">
        <ele>376</ele>
        <time>2010-06-17T09:32:49Z</time>
      </trkpt>
      <trkpt lat="45.56815" lon="4.63368">
        <ele>376</ele>
        <time>2010-06-17T09:32:50Z</time>
      </trkpt>
      <trkpt lat="45.56809" lon="4.63371">
        <ele>375</ele>
        <time>2010-06-17T09:32:51Z</time>
      </trkpt>
      <trkpt lat="45.56804" lon="4.63373">
        <ele>375</ele>
        <time>2010-06-17T09:32:52Z</time>
      </trkpt>
      <trkpt lat="45.56797" lon="4.63375">
        <ele>375</ele>
        <time>2010-06-17T09:32:54Z</time>
      </trkpt>
      <trkpt lat="45.56791" lon="4.63367">
        <ele>375</ele>
        <time>2010-06-17T09:32:57Z</time>
      </trkpt>
      <trkpt lat="45.5679" lon="4.63362">
        <ele>375</ele>
        <time>2010-06-17T09:32:58Z</time>
      </trkpt>
      <trkpt lat="45.56787" lon="4.63347">
        <ele>375</ele>
        <time>2010-06-17T09:33:01Z</time>
      </trkpt>
      <trkpt lat="45.56784" lon="4.63337">
        <ele>374</ele>
        <time>2010-06-17T09:33:03Z</time>
      </trkpt>
      <trkpt lat="45.56782" lon="4.63327">
        <ele>374</ele>
        <time>2010-06-17T09:33:05Z</time>
      </trkpt>
      <trkpt lat="45.56779" lon="4.63317">
        <ele>374</ele>
        <time>2010-06-17T09:33:07Z</time>
      </trkpt>
      <trkpt lat="45.56777" lon="4.63307">
        <ele>374</ele>
        <time>2010-06-17T09:33:09Z</time>
      </trkpt>
      <trkpt lat="45.56774" lon="4.63297">
        <ele>374</ele>
        <time>2010-06-17T09:33:11Z</time>
      </trkpt>
      <trkpt lat="45.56772" lon="4.63287">
        <ele>374</ele>
        <time>2010-06-17T09:33:13Z</time>
      </trkpt>
      <trkpt lat="45.5677" lon="4.63277">
        <ele>374</ele>
        <time>2010-06-17T09:33:15Z</time>
      </trkpt>
      <trkpt lat="45.56768" lon="4.63266">
        <ele>374</ele>
        <time>2010-06-17T09:33:17Z</time>
      </trkpt>
      <trkpt lat="45.56765" lon="4.63256">
        <ele>374</ele>
        <time>2010-06-17T09:33:19Z</time>
      </trkpt>
      <trkpt lat="45.56762" lon="4.63245">
        <ele>373</ele>
        <time>2010-06-17T09:33:21Z</time>
      </trkpt>
      <trkpt lat="45.56761" lon="4.63239">
        <ele>373</ele>
        <time>2010-06-17T09:33:22Z</time>
      </trkpt>
      <trkpt lat="45.56759" lon="4.63233">
        <ele>373</ele>
        <time>2010-06-17T09:33:23Z</time>
      </trkpt>
      <trkpt lat="45.56758" lon="4.63226">
        <ele>373</ele>
        <time>2010-06-17T09:33:24Z</time>
      </trkpt>
      <trkpt lat="45.56756" lon="4.6322">
        <ele>373</ele>
        <time>2010-06-17T09:33:25Z</time>
      </trkpt>
      <trkpt lat="45.56753" lon="4.63208">
        <ele>373</ele>
        <time>2010-06-17T09:33:27Z</time>
      </trkpt>
      <trkpt lat="45.56749" lon="4.63197">
        <ele>370</ele>
        <time>2010-06-17T09:33:29Z</time>
      </trkpt>
      <trkpt lat="45.56748" lon="4.6319">
        <ele>370</ele>
        <time>2010-06-17T09:33:30Z</time>
      </trkpt>
      <trkpt lat="45.56746" lon="4.63184">
        <ele>370</ele>
        <time>2010-06-17T09:33:31Z</time>
      </trkpt>
      <trkpt lat="45.56744" lon="4.63178">
        <ele>370</ele>
        <time>2010-06-17T09:33:32Z</time>
      </trkpt>
      <trkpt lat="45.56742" lon="4.63171">
        <ele>370</ele>
        <time>2010-06-17T09:33:33Z</time>
      </trkpt>
      <trkpt lat="45.5674" lon="4.63165">
        <ele>369</ele>
        <time>2010-06-17T09:33:34Z</time>
      </trkpt>
      <trkpt lat="45.56738" lon="4.63158">
        <ele>369</ele>
        <time>2010-06-17T09:33:35Z</time>
      </trkpt>
      <trkpt lat="45.56736" lon="4.63152">
        <ele>369</ele>
        <time>2010-06-17T09:33:36Z</time>
      </trkpt>
      <trkpt lat="45.56734" lon="4.63146">
        <ele>369</ele>
        <time>2010-06-17T09:33:37Z</time>
      </trkpt>
      <trkpt lat="45.56732" lon="4.63139">
        <ele>368</ele>
        <time>2010-06-17T09:33:38Z</time>
      </trkpt>
      <trkpt lat="45.5673" lon="4.63132">
        <ele>368</ele>
        <time>2010-06-17T09:33:39Z</time>
      </trkpt>
      <trkpt lat="45.56728" lon="4.63125">
        <ele>368</ele>
        <time>2010-06-17T09:33:40Z</time>
      </trkpt>
      <trkpt lat="45.56726" lon="4.63118">
        <ele>368</ele>
        <time>2010-06-17T09:33:41Z</time>
      </trkpt>
      <trkpt lat="45.56724" lon="4.63111">
        <ele>368</ele>
        <time>2010-06-17T09:33:42Z</time>
      </trkpt>
      <trkpt lat="45.56721" lon="4.63103">
        <ele>368</ele>
        <time>2010-06-17T09:33:43Z</time>
      </trkpt>
      <trkpt lat="45.56719" lon="4.63096">
        <ele>368</ele>
        <time>2010-06-17T09:33:44Z</time>
      </trkpt>
      <trkpt lat="45.56717" lon="4.63088">
        <ele>368</ele>
        <time>2010-06-17T09:33:45Z</time>
      </trkpt>
      <trkpt lat="45.56715" lon="4.63082">
        <ele>366</ele>
        <time>2010-06-17T09:33:46Z</time>
      </trkpt>
      <trkpt lat="45.56712" lon="4.63075">
        <ele>365</ele>
        <time>2010-06-17T09:33:47Z</time>
      </trkpt>
      <trkpt lat="45.5671" lon="4.63068">
        <ele>365</ele>
        <time>2010-06-17T09:33:48Z</time>
      </trkpt>
      <trkpt lat="45.56708" lon="4.63061">
        <ele>365</ele>
        <time>2010-06-17T09:33:49Z</time>
      </trkpt>
      <trkpt lat="45.56705" lon="4.63055">
        <ele>365</ele>
        <time>2010-06-17T09:33:50Z</time>
      </trkpt>
      <trkpt lat="45.56703" lon="4.63049">
        <ele>365</ele>
        <time>2010-06-17T09:33:51Z</time>
      </trkpt>
      <trkpt lat="45.56698" lon="4.63039">
        <ele>364</ele>
        <time>2010-06-17T09:33:53Z</time>
      </trkpt>
      <trkpt lat="45.56692" lon="4.6303">
        <ele>364</ele>
        <time>2010-06-17T09:33:55Z</time>
      </trkpt>
      <trkpt lat="45.56685" lon="4.63022">
        <ele>363</ele>
        <time>2010-06-17T09:33:57Z</time>
      </trkpt>
      <trkpt lat="45.56679" lon="4.63015">
        <ele>362</ele>
        <time>2010-06-17T09:33:59Z</time>
      </trkpt>
      <trkpt lat="45.56677" lon="4.63012">
        <ele>362</ele>
        <time>2010-06-17T09:34:00Z</time>
      </trkpt>
      <trkpt lat="45.56669" lon="4.62998">
        <ele>360</ele>
        <time>2010-06-17T09:34:07Z</time>
      </trkpt>
      <trkpt lat="45.56663" lon="4.62989">
        <ele>358</ele>
        <time>2010-06-17T09:34:12Z</time>
      </trkpt>
      <trkpt lat="45.56658" lon="4.6298">
        <ele>356</ele>
        <time>2010-06-17T09:34:16Z</time>
      </trkpt>
      <trkpt lat="45.56653" lon="4.6297">
        <ele>355</ele>
        <time>2010-06-17T09:34:20Z</time>
      </trkpt>
      <trkpt lat="45.56647" lon="4.62961">
        <ele>354</ele>
        <time>2010-06-17T09:34:24Z</time>
      </trkpt>
      <trkpt lat="45.56641" lon="4.62951">
        <ele>353</ele>
        <time>2010-06-17T09:34:28Z</time>
      </trkpt>
      <trkpt lat="45.56635" lon="4.62944">
        <ele>353</ele>
        <time>2010-06-17T09:34:32Z</time>
      </trkpt>
      <trkpt lat="45.56629" lon="4.62938">
        <ele>352</ele>
        <time>2010-06-17T09:34:36Z</time>
      </trkpt>
      <trkpt lat="45.56623" lon="4.62931">
        <ele>352</ele>
        <time>2010-06-17T09:34:40Z</time>
      </trkpt>
      <trkpt lat="45.56616" lon="4.62923">
        <ele>351</ele>
        <time>2010-06-17T09:34:44Z</time>
      </trkpt>
      <trkpt lat="45.5661" lon="4.62917">
        <ele>350</ele>
        <time>2010-06-17T09:34:47Z</time>
      </trkpt>
      <trkpt lat="45.56604" lon="4.6291">
        <ele>343</ele>
        <time>2010-06-17T09:34:50Z</time>
      </trkpt>
      <trkpt lat="45.56596" lon="4.62905">
        <ele>343</ele>
        <time>2010-06-17T09:34:54Z</time>
      </trkpt>
      <trkpt lat="45.5659" lon="4.629">
        <ele>343</ele>
        <time>2010-06-17T09:34:57Z</time>
      </trkpt>
      <trkpt lat="45.56584" lon="4.62894">
        <ele>342</ele>
        <time>2010-06-17T09:35:00Z</time>
      </trkpt>
      <trkpt lat="45.56582" lon="4.62892">
        <ele>336</ele>
        <time>2010-06-17T09:35:01Z</time>
      </trkpt>
      <trkpt lat="45.56571" lon="4.62879">
        <ele>334</ele>
        <time>2010-06-17T09:35:08Z</time>
      </trkpt>
      <trkpt lat="45.56567" lon="4.62868">
        <ele>332</ele>
        <time>2010-06-17T09:37:07Z</time>
      </trkpt>
      <trkpt lat="45.56567" lon="4.62867">
        <ele>332</ele>
        <time>2010-06-17T09:37:08Z</time>
      </trkpt>
      <trkpt lat="45.56579" lon="4.62855">
        <ele>332</ele>
        <time>2010-06-17T09:37:31Z</time>
      </trkpt>
      <trkpt lat="45.56585" lon="4.6285">
        <ele>336</ele>
        <time>2010-06-17T09:37:34Z</time>
      </trkpt>
      <trkpt lat="45.56592" lon="4.62844">
        <ele>335</ele>
        <time>2010-06-17T09:37:37Z</time>
      </trkpt>
      <trkpt lat="45.56599" lon="4.62839">
        <ele>336</ele>
        <time>2010-06-17T09:37:40Z</time>
      </trkpt>
      <trkpt lat="45.56607" lon="4.62832">
        <ele>328</ele>
        <time>2010-06-17T09:37:43Z</time>
      </trkpt>
      <trkpt lat="45.56614" lon="4.62825">
        <ele>327</ele>
        <time>2010-06-17T09:37:46Z</time>
      </trkpt>
      <trkpt lat="45.5662" lon="4.62817">
        <ele>326</ele>
        <time>2010-06-17T09:37:50Z</time>
      </trkpt>
      <trkpt lat="45.56627" lon="4.62809">
        <ele>326</ele>
        <time>2010-06-17T09:37:56Z</time>
      </trkpt>
      <trkpt lat="45.56635" lon="4.62807">
        <ele>326</ele>
        <time>2010-06-17T09:38:01Z</time>
      </trkpt>
      <trkpt lat="45.56643" lon="4.62807">
        <ele>327</ele>
        <time>2010-06-17T09:38:06Z</time>
      </trkpt>
      <trkpt lat="45.56651" lon="4.62805">
        <ele>327</ele>
        <time>2010-06-17T09:38:11Z</time>
      </trkpt>
      <trkpt lat="45.56653" lon="4.62805">
        <ele>327</ele>
        <time>2010-06-17T09:38:12Z</time>
      </trkpt>
      <trkpt lat="45.56666" lon="4.62792">
        <ele>325</ele>
        <time>2010-06-17T09:38:21Z</time>
      </trkpt>
      <trkpt lat="45.56672" lon="4.62783">
        <ele>328</ele>
        <time>2010-06-17T09:38:27Z</time>
      </trkpt>
      <trkpt lat="45.56678" lon="4.62774">
        <ele>327</ele>
        <time>2010-06-17T09:38:35Z</time>
      </trkpt>
      <trkpt lat="45.56684" lon="4.62767">
        <ele>326</ele>
        <time>2010-06-17T09:38:39Z</time>
      </trkpt>
      <trkpt lat="45.56691" lon="4.62761">
        <ele>326</ele>
        <time>2010-06-17T09:38:41Z</time>
      </trkpt>
      <trkpt lat="45.56696" lon="4.62753">
        <ele>327</ele>
        <time>2010-06-17T09:38:43Z</time>
      </trkpt>
      <trkpt lat="45.56701" lon="4.62746">
        <ele>318</ele>
        <time>2010-06-17T09:38:45Z</time>
      </trkpt>
      <trkpt lat="45.56705" lon="4.62738">
        <ele>319</ele>
        <time>2010-06-17T09:38:47Z</time>
      </trkpt>
      <trkpt lat="45.5671" lon="4.62729">
        <ele>319</ele>
        <time>2010-06-17T09:38:49Z</time>
      </trkpt>
      <trkpt lat="45.56713" lon="4.62717">
        <ele>318</ele>
        <time>2010-06-17T09:38:52Z</time>
      </trkpt>
      <trkpt lat="45.56718" lon="4.62709">
        <ele>318</ele>
        <time>2010-06-17T09:38:54Z</time>
      </trkpt>
      <trkpt lat="45.56722" lon="4.627">
        <ele>318</ele>
        <time>2010-06-17T09:38:56Z</time>
      </trkpt>
      <trkpt lat="45.56726" lon="4.6269">
        <ele>317</ele>
        <time>2010-06-17T09:38:59Z</time>
      </trkpt>
      <trkpt lat="45.56732" lon="4.6268">
        <ele>317</ele>
        <time>2010-06-17T09:39:02Z</time>
      </trkpt>
      <trkpt lat="45.56736" lon="4.62674">
        <ele>316</ele>
        <time>2010-06-17T09:39:04Z</time>
      </trkpt>
      <trkpt lat="45.56742" lon="4.62667">
        <ele>316</ele>
        <time>2010-06-17T09:39:06Z</time>
      </trkpt>
      <trkpt lat="45.56748" lon="4.62658">
        <ele>315</ele>
        <time>2010-06-17T09:39:10Z</time>
      </trkpt>
      <trkpt lat="45.56746" lon="4.62647">
        <ele>316</ele>
        <time>2010-06-17T09:39:17Z</time>
      </trkpt>
      <trkpt lat="45.56745" lon="4.62645">
        <ele>316</ele>
        <time>2010-06-17T09:39:18Z</time>
      </trkpt>
      <trkpt lat="45.56745" lon="4.62624">
        <ele>316</ele>
        <time>2010-06-17T09:39:59Z</time>
      </trkpt>
      <trkpt lat="45.56738" lon="4.62632">
        <ele>316</ele>
        <time>2010-06-17T09:40:33Z</time>
      </trkpt>
      <trkpt lat="45.56738" lon="4.62632">
        <ele>316</ele>
        <time>2010-06-17T09:40:34Z</time>
      </trkpt>
      <trkpt lat="45.56726" lon="4.62617">
        <ele>316</ele>
        <time>2010-06-17T09:41:36Z</time>
      </trkpt>
      <trkpt lat="45.56727" lon="4.62615">
        <ele>317</ele>
        <time>2010-06-17T09:41:37Z</time>
      </trkpt>
      <trkpt lat="45.56734" lon="4.62596">
        <ele>317</ele>
        <time>2010-06-17T09:41:43Z</time>
      </trkpt>
      <trkpt lat="45.56738" lon="4.62585">
        <ele>316</ele>
        <time>2010-06-17T09:41:47Z</time>
      </trkpt>
      <trkpt lat="45.56742" lon="4.62576">
        <ele>319</ele>
        <time>2010-06-17T09:41:50Z</time>
      </trkpt>
      <trkpt lat="45.56748" lon="4.62568">
        <ele>320</ele>
        <time>2010-06-17T09:41:54Z</time>
      </trkpt>
      <trkpt lat="45.56752" lon="4.62558">
        <ele>319</ele>
        <time>2010-06-17T09:41:58Z</time>
      </trkpt>
      <trkpt lat="45.56756" lon="4.62548">
        <ele>320</ele>
        <time>2010-06-17T09:42:04Z</time>
      </trkpt>
      <trkpt lat="45.5675" lon="4.6254">
        <ele>320</ele>
        <time>2010-06-17T09:42:11Z</time>
      </trkpt>
      <trkpt lat="45.56743" lon="4.62547">
        <ele>323</ele>
        <time>2010-06-17T09:42:26Z</time>
      </trkpt>
      <trkpt lat="45.56741" lon="4.62558">
        <ele>322</ele>
        <time>2010-06-17T09:42:38Z</time>
      </trkpt>
      <trkpt lat="45.5674" lon="4.62559">
        <ele>322</ele>
        <time>2010-06-17T09:42:39Z</time>
      </trkpt>
      <trkpt lat="45.56728" lon="4.62574">
        <ele>321</ele>
        <time>2010-06-17T09:42:55Z</time>
      </trkpt>
      <trkpt lat="45.56721" lon="4.62581">
        <ele>322</ele>
        <time>2010-06-17T09:43:02Z</time>
      </trkpt>
      <trkpt lat="45.56714" lon="4.62587">
        <ele>317</ele>
        <time>2010-06-17T09:43:09Z</time>
      </trkpt>
      <trkpt lat="45.56708" lon="4.62595">
        <ele>318</ele>
        <time>2010-06-17T09:43:17Z</time>
      </trkpt>
      <trkpt lat="45.567" lon="4.62601">
        <ele>318</ele>
        <time>2010-06-17T09:43:24Z</time>
      </trkpt>
      <trkpt lat="45.56692" lon="4.62605">
        <ele>318</ele>
        <time>2010-06-17T09:43:30Z</time>
      </trkpt>
      <trkpt lat="45.56684" lon="4.62609">
        <ele>318</ele>
        <time>2010-06-17T09:43:36Z</time>
      </trkpt>
      <trkpt lat="45.56677" lon="4.62612">
        <ele>318</ele>
        <time>2010-06-17T09:43:41Z</time>
      </trkpt>
      <trkpt lat="45.56675" lon="4.62611">
        <ele>318</ele>
        <time>2010-06-17T09:43:42Z</time>
      </trkpt>
      <trkpt lat="45.5666" lon="4.62614">
        <ele>320</ele>
        <time>2010-06-17T09:43:51Z</time>
      </trkpt>
      <trkpt lat="45.56653" lon="4.62613">
        <ele>320</ele>
        <time>2010-06-17T09:43:56Z</time>
      </trkpt>
      <trkpt lat="45.56645" lon="4.62612">
        <ele>320</ele>
        <time>2010-06-17T09:44:01Z</time>
      </trkpt>
      <trkpt lat="45.56636" lon="4.62612">
        <ele>320</ele>
        <time>2010-06-17T09:44:07Z</time>
      </trkpt>
      <trkpt lat="45.56628" lon="4.62608">
        <ele>320</ele>
        <time>2010-06-17T09:44:13Z</time>
      </trkpt>
      <trkpt lat="45.56621" lon="4.62603">
        <ele>321</ele>
        <time>2010-06-17T09:44:19Z</time>
      </trkpt>
      <trkpt lat="45.56613" lon="4.62596">
        <ele>322</ele>
        <time>2010-06-17T09:44:26Z</time>
      </trkpt>
      <trkpt lat="45.56606" lon="4.62589">
        <ele>323</ele>
        <time>2010-06-17T09:44:33Z</time>
      </trkpt>
      <trkpt lat="45.56598" lon="4.62587">
        <ele>324</ele>
        <time>2010-06-17T09:44:40Z</time>
      </trkpt>
      <trkpt lat="45.5659" lon="4.62587">
        <ele>326</ele>
        <time>2010-06-17T09:44:46Z</time>
      </trkpt>
      <trkpt lat="45.56588" lon="4.62588">
        <ele>326</ele>
        <time>2010-06-17T09:44:47Z</time>
      </trkpt>
      <trkpt lat="45.56573" lon="4.62593">
        <ele>326</ele>
        <time>2010-06-17T09:45:00Z</time>
      </trkpt>
      <trkpt lat="45.56566" lon="4.62596">
        <ele>325</ele>
        <time>2010-06-17T09:45:05Z</time>
      </trkpt>
      <trkpt lat="45.56558" lon="4.62599">
        <ele>325</ele>
        <time>2010-06-17T09:45:10Z</time>
      </trkpt>
      <trkpt lat="45.5655" lon="4.62602">
        <ele>324</ele>
        <time>2010-06-17T09:45:15Z</time>
      </trkpt>
      <trkpt lat="45.56543" lon="4.62604">
        <ele>324</ele>
        <time>2010-06-17T09:45:20Z</time>
      </trkpt>
      <trkpt lat="45.56534" lon="4.62605">
        <ele>325</ele>
        <time>2010-06-17T09:45:25Z</time>
      </trkpt>
      <trkpt lat="45.56526" lon="4.62607">
        <ele>325</ele>
        <time>2010-06-17T09:45:30Z</time>
      </trkpt>
      <trkpt lat="45.56518" lon="4.6261">
        <ele>325</ele>
        <time>2010-06-17T09:45:36Z</time>
      </trkpt>
      <trkpt lat="45.56509" lon="4.6261">
        <ele>325</ele>
        <time>2010-06-17T09:45:42Z</time>
      </trkpt>
      <trkpt lat="45.56502" lon="4.6261">
        <ele>326</ele>
        <time>2010-06-17T09:45:47Z</time>
      </trkpt>
      <trkpt lat="45.565" lon="4.6261">
        <ele>326</ele>
        <time>2010-06-17T09:45:48Z</time>
      </trkpt>
      <trkpt lat="45.56489" lon="4.62599">
        <ele>329</ele>
        <time>2010-06-17T09:45:57Z</time>
      </trkpt>
      <trkpt lat="45.56484" lon="4.62589">
        <ele>330</ele>
        <time>2010-06-17T09:46:02Z</time>
      </trkpt>
      <trkpt lat="45.5648" lon="4.62579">
        <ele>334</ele>
        <time>2010-06-17T09:46:07Z</time>
      </trkpt>
      <trkpt lat="45.5648" lon="4.62567">
        <ele>334</ele>
        <time>2010-06-17T09:46:13Z</time>
      </trkpt>
      <trkpt lat="45.56479" lon="4.62555">
        <ele>335</ele>
        <time>2010-06-17T09:46:19Z</time>
      </trkpt>
      <trkpt lat="45.56479" lon="4.62544">
        <ele>335</ele>
        <time>2010-06-17T09:46:24Z</time>
      </trkpt>
      <trkpt lat="45.56478" lon="4.62531">
        <ele>336</ele>
        <time>2010-06-17T09:46:30Z</time>
      </trkpt>
      <trkpt lat="45.56479" lon="4.6252">
        <ele>336</ele>
        <time>2010-06-17T09:46:35Z</time>
      </trkpt>
      <trkpt lat="45.56479" lon="4.62509">
        <ele>337</ele>
        <time>2010-06-17T09:46:40Z</time>
      </trkpt>
      <trkpt lat="45.5648" lon="4.62498">
        <ele>340</ele>
        <time>2010-06-17T09:46:46Z</time>
      </trkpt>
      <trkpt lat="45.56481" lon="4.62486">
        <ele>340</ele>
        <time>2010-06-17T09:46:52Z</time>
      </trkpt>
      <trkpt lat="45.56481" lon="4.62484">
        <ele>340</ele>
        <time>2010-06-17T09:46:53Z</time>
      </trkpt>
      <trkpt lat="45.56483" lon="4.62463">
        <ele>341</ele>
        <time>2010-06-17T09:47:04Z</time>
      </trkpt>
      <trkpt lat="45.56484" lon="4.62452">
        <ele>342</ele>
        <time>2010-06-17T09:47:10Z</time>
      </trkpt>
      <trkpt lat="45.56485" lon="4.6244">
        <ele>343</ele>
        <time>2010-06-17T09:47:16Z</time>
      </trkpt>
      <trkpt lat="45.56487" lon="4.62428">
        <ele>343</ele>
        <time>2010-06-17T09:47:22Z</time>
      </trkpt>
      <trkpt lat="45.56488" lon="4.62416">
        <ele>346</ele>
        <time>2010-06-17T09:47:28Z</time>
      </trkpt>
      <trkpt lat="45.5649" lon="4.62405">
        <ele>346</ele>
        <time>2010-06-17T09:47:33Z</time>
      </trkpt>
      <trkpt lat="45.56492" lon="4.62395">
        <ele>347</ele>
        <time>2010-06-17T09:47:38Z</time>
      </trkpt>
      <trkpt lat="45.56494" lon="4.62384">
        <ele>347</ele>
        <time>2010-06-17T09:47:43Z</time>
      </trkpt>
      <trkpt lat="45.56496" lon="4.62373">
        <ele>348</ele>
        <time>2010-06-17T09:47:48Z</time>
      </trkpt>
      <trkpt lat="45.56498" lon="4.62362">
        <ele>348</ele>
        <time>2010-06-17T09:47:53Z</time>
      </trkpt>
      <trkpt lat="45.56498" lon="4.6236">
        <ele>348</ele>
        <time>2010-06-17T09:47:54Z</time>
      </trkpt>
      <trkpt lat="45.56502" lon="4.6234">
        <ele>349</ele>
        <time>2010-06-17T09:48:04Z</time>
      </trkpt>
      <trkpt lat="45.56504" lon="4.62328">
        <ele>350</ele>
        <time>2010-06-17T09:48:10Z</time>
      </trkpt>
      <trkpt lat="45.56506" lon="4.62317">
        <ele>351</ele>
        <time>2010-06-17T09:48:15Z</time>
      </trkpt>
      <trkpt lat="45.56507" lon="4.62306">
        <ele>351</ele>
        <time>2010-06-17T09:48:20Z</time>
      </trkpt>
      <trkpt lat="45.56506" lon="4.62295">
        <ele>351</ele>
        <time>2010-06-17T09:48:25Z</time>
      </trkpt>
      <trkpt lat="45.56502" lon="4.62285">
        <ele>352</ele>
        <time>2010-06-17T09:48:30Z</time>
      </trkpt>
      <trkpt lat="45.56496" lon="4.62277">
        <ele>352</ele>
        <time>2010-06-17T09:48:35Z</time>
      </trkpt>
      <trkpt lat="45.56491" lon="4.62269">
        <ele>352</ele>
        <time>2010-06-17T09:48:40Z</time>
      </trkpt>
      <trkpt lat="45.56484" lon="4.62261">
        <ele>353</ele>
        <time>2010-06-17T09:48:46Z</time>
      </trkpt>
      <trkpt lat="45.56477" lon="4.62253">
        <ele>353</ele>
        <time>2010-06-17T09:48:52Z</time>
      </trkpt>
      <trkpt lat="45.56471" lon="4.62245">
        <ele>356</ele>
        <time>2010-06-17T09:48:58Z</time>
      </trkpt>
      <trkpt lat="45.5647" lon="4.62244">
        <ele>356</ele>
        <time>2010-06-17T09:48:59Z</time>
      </trkpt>
      <trkpt lat="45.56459" lon="4.6223">
        <ele>356</ele>
        <time>2010-06-17T09:49:08Z</time>
      </trkpt>
      <trkpt lat="45.56453" lon="4.62222">
        <ele>357</ele>
        <time>2010-06-17T09:49:13Z</time>
      </trkpt>
      <trkpt lat="45.56448" lon="4.62215">
        <ele>357</ele>
        <time>2010-06-17T09:49:17Z</time>
      </trkpt>
      <trkpt lat="45.56443" lon="4.62208">
        <ele>357</ele>
        <time>2010-06-17T09:49:21Z</time>
      </trkpt>
      <trkpt lat="45.56436" lon="4.62199">
        <ele>358</ele>
        <time>2010-06-17T09:49:26Z</time>
      </trkpt>
      <trkpt lat="45.5643" lon="4.6219">
        <ele>358</ele>
        <time>2010-06-17T09:49:31Z</time>
      </trkpt>
      <trkpt lat="45.56423" lon="4.62183">
        <ele>359</ele>
        <time>2010-06-17T09:49:36Z</time>
      </trkpt>
      <trkpt lat="45.56417" lon="4.62174">
        <ele>360</ele>
        <time>2010-06-17T09:49:41Z</time>
      </trkpt>
      <trkpt lat="45.5641" lon="4.62166">
        <ele>362</ele>
        <time>2010-06-17T09:49:46Z</time>
      </trkpt>
      <trkpt lat="45.56404" lon="4.6216">
        <ele>362</ele>
        <time>2010-06-17T09:49:51Z</time>
      </trkpt>
      <trkpt lat="45.56397" lon="4.62154">
        <ele>363</ele>
        <time>2010-06-17T09:49:56Z</time>
      </trkpt>
      <trkpt lat="45.56392" lon="4.62145">
        <ele>363</ele>
        <time>2010-06-17T09:50:01Z</time>
      </trkpt>
      <trkpt lat="45.56391" lon="4.62144">
        <ele>363</ele>
        <time>2010-06-17T09:50:02Z</time>
      </trkpt>
      <trkpt lat="45.56378" lon="4.62131">
        <ele>364</ele>
        <time>2010-06-17T09:50:11Z</time>
      </trkpt>
      <trkpt lat="45.56372" lon="4.62122">
        <ele>364</ele>
        <time>2010-06-17T09:50:16Z</time>
      </trkpt>
      <trkpt lat="45.56366" lon="4.62113">
        <ele>365</ele>
        <time>2010-06-17T09:50:21Z</time>
      </trkpt>
      <trkpt lat="45.5636" lon="4.62106">
        <ele>365</ele>
        <time>2010-06-17T09:50:26Z</time>
      </trkpt>
      <trkpt lat="45.56354" lon="4.62096">
        <ele>365</ele>
        <time>2010-06-17T09:50:31Z</time>
      </trkpt>
      <trkpt lat="45.56349" lon="4.62088">
        <ele>366</ele>
        <time>2010-06-17T09:50:35Z</time>
      </trkpt>
      <trkpt lat="45.56344" lon="4.62078">
        <ele>367</ele>
        <time>2010-06-17T09:50:40Z</time>
      </trkpt>
      <trkpt lat="45.56338" lon="4.6207">
        <ele>367</ele>
        <time>2010-06-17T09:50:45Z</time>
      </trkpt>
      <trkpt lat="45.56333" lon="4.62061">
        <ele>369</ele>
        <time>2010-06-17T09:50:50Z</time>
      </trkpt>
      <trkpt lat="45.56329" lon="4.62051">
        <ele>369</ele>
        <time>2010-06-17T09:50:55Z</time>
      </trkpt>
      <trkpt lat="45.56323" lon="4.62043">
        <ele>370</ele>
        <time>2010-06-17T09:51:00Z</time>
      </trkpt>
      <trkpt lat="45.56318" lon="4.62034">
        <ele>370</ele>
        <time>2010-06-17T09:51:05Z</time>
      </trkpt>
      <trkpt lat="45.56317" lon="4.62033">
        <ele>370</ele>
        <time>2010-06-17T09:51:06Z</time>
      </trkpt>
      <trkpt lat="45.56307" lon="4.62018">
        <ele>370</ele>
        <time>2010-06-17T09:51:15Z</time>
      </trkpt>
      <trkpt lat="45.56301" lon="4.62009">
        <ele>371</ele>
        <time>2010-06-17T09:51:20Z</time>
      </trkpt>
      <trkpt lat="45.56296" lon="4.62001">
        <ele>371</ele>
        <time>2010-06-17T09:51:24Z</time>
      </trkpt>
      <trkpt lat="45.56291" lon="4.61993">
        <ele>374</ele>
        <time>2010-06-17T09:51:28Z</time>
      </trkpt>
      <trkpt lat="45.56286" lon="4.61986">
        <ele>374</ele>
        <time>2010-06-17T09:51:32Z</time>
      </trkpt>
      <trkpt lat="45.56281" lon="4.61977">
        <ele>374</ele>
        <time>2010-06-17T09:51:36Z</time>
      </trkpt>
      <trkpt lat="45.56275" lon="4.61969">
        <ele>374</ele>
        <time>2010-06-17T09:51:40Z</time>
      </trkpt>
      <trkpt lat="45.5627" lon="4.61961">
        <ele>375</ele>
        <time>2010-06-17T09:51:44Z</time>
      </trkpt>
      <trkpt lat="45.56265" lon="4.61953">
        <ele>375</ele>
        <time>2010-06-17T09:51:48Z</time>
      </trkpt>
      <trkpt lat="45.5626" lon="4.61944">
        <ele>375</ele>
        <time>2010-06-17T09:51:52Z</time>
      </trkpt>
      <trkpt lat="45.56254" lon="4.61935">
        <ele>376</ele>
        <time>2010-06-17T09:51:58Z</time>
      </trkpt>
      <trkpt lat="45.56246" lon="4.61929">
        <ele>377</ele>
        <time>2010-06-17T09:52:07Z</time>
      </trkpt>
      <trkpt lat="45.56246" lon="4.61928">
        <ele>377</ele>
        <time>2010-06-17T09:52:08Z</time>
      </trkpt>
      <trkpt lat="45.56243" lon="4.61915">
        <ele>378</ele>
        <time>2010-06-17T09:56:21Z</time>
      </trkpt>
      <trkpt lat="45.56237" lon="4.61898">
        <ele>378</ele>
        <time>2010-06-17T09:56:27Z</time>
      </trkpt>
      <trkpt lat="45.56232" lon="4.61887">
        <ele>378</ele>
        <time>2010-06-17T09:56:31Z</time>
      </trkpt>
      <trkpt lat="45.56228" lon="4.61877">
        <ele>378</ele>
        <time>2010-06-17T09:56:35Z</time>
      </trkpt>
      <trkpt lat="45.56225" lon="4.61866">
        <ele>378</ele>
        <time>2010-06-17T09:56:39Z</time>
      </trkpt>
      <trkpt lat="45.56222" lon="4.61855">
        <ele>379</ele>
        <time>2010-06-17T09:56:43Z</time>
      </trkpt>
      <trkpt lat="45.56219" lon="4.61844">
        <ele>379</ele>
        <time>2010-06-17T09:56:47Z</time>
      </trkpt>
      <trkpt lat="45.56216" lon="4.61832">
        <ele>380</ele>
        <time>2010-06-17T09:56:51Z</time>
      </trkpt>
      <trkpt lat="45.56213" lon="4.61823">
        <ele>380</ele>
        <time>2010-06-17T09:56:54Z</time>
      </trkpt>
      <trkpt lat="45.5621" lon="4.61814">
        <ele>380</ele>
        <time>2010-06-17T09:56:57Z</time>
      </trkpt>
      <trkpt lat="45.56207" lon="4.61804">
        <ele>380</ele>
        <time>2010-06-17T09:57:00Z</time>
      </trkpt>
      <trkpt lat="45.56204" lon="4.61795">
        <ele>381</ele>
        <time>2010-06-17T09:57:03Z</time>
      </trkpt>
      <trkpt lat="45.56201" lon="4.61786">
        <ele>381</ele>
        <time>2010-06-17T09:57:06Z</time>
      </trkpt>
      <trkpt lat="45.56198" lon="4.61777">
        <ele>381</ele>
        <time>2010-06-17T09:57:09Z</time>
      </trkpt>
      <trkpt lat="45.56193" lon="4.61768">
        <ele>381</ele>
        <time>2010-06-17T09:57:12Z</time>
      </trkpt>
      <trkpt lat="45.56189" lon="4.61758">
        <ele>380</ele>
        <time>2010-06-17T09:57:15Z</time>
      </trkpt>
      <trkpt lat="45.56186" lon="4.61748">
        <ele>382</ele>
        <time>2010-06-17T09:57:18Z</time>
      </trkpt>
      <trkpt lat="45.56183" lon="4.61737">
        <ele>382</ele>
        <time>2010-06-17T09:57:21Z</time>
      </trkpt>
      <trkpt lat="45.56181" lon="4.61734">
        <ele>382</ele>
        <time>2010-06-17T09:57:22Z</time>
      </trkpt>
      <trkpt lat="45.56175" lon="4.61718">
        <ele>382</ele>
        <time>2010-06-17T09:57:26Z</time>
      </trkpt>
      <trkpt lat="45.56172" lon="4.6171">
        <ele>383</ele>
        <time>2010-06-17T09:57:28Z</time>
      </trkpt>
      <trkpt lat="45.5617" lon="4.61701">
        <ele>383</ele>
        <time>2010-06-17T09:57:30Z</time>
      </trkpt>
      <trkpt lat="45.56167" lon="4.61691">
        <ele>382</ele>
        <time>2010-06-17T09:57:32Z</time>
      </trkpt>
      <trkpt lat="45.56164" lon="4.61682">
        <ele>378</ele>
        <time>2010-06-17T09:57:34Z</time>
      </trkpt>
      <trkpt lat="45.56162" lon="4.61672">
        <ele>379</ele>
        <time>2010-06-17T09:57:36Z</time>
      </trkpt>
      <trkpt lat="45.5616" lon="4.61663">
        <ele>379</ele>
        <time>2010-06-17T09:57:38Z</time>
      </trkpt>
      <trkpt lat="45.56158" lon="4.61654">
        <ele>379</ele>
        <time>2010-06-17T09:57:40Z</time>
      </trkpt>
      <trkpt lat="45.56157" lon="4.61645">
        <ele>378</ele>
        <time>2010-06-17T09:57:42Z</time>
      </trkpt>
      <trkpt lat="45.56156" lon="4.61636">
        <ele>378</ele>
        <time>2010-06-17T09:57:44Z</time>
      </trkpt>
      <trkpt lat="45.56156" lon="4.61627">
        <ele>378</ele>
        <time>2010-06-17T09:57:46Z</time>
      </trkpt>
      <trkpt lat="45.56156" lon="4.61618">
        <ele>378</ele>
        <time>2010-06-17T09:57:48Z</time>
      </trkpt>
      <trkpt lat="45.56156" lon="4.61605">
        <ele>379</ele>
        <time>2010-06-17T09:57:51Z</time>
      </trkpt>
      <trkpt lat="45.56156" lon="4.61594">
        <ele>379</ele>
        <time>2010-06-17T09:57:54Z</time>
      </trkpt>
      <trkpt lat="45.56155" lon="4.61582">
        <ele>380</ele>
        <time>2010-06-17T09:57:57Z</time>
      </trkpt>
      <trkpt lat="45.56156" lon="4.61571">
        <ele>380</ele>
        <time>2010-06-17T09:58:00Z</time>
      </trkpt>
      <trkpt lat="45.56157" lon="4.6156">
        <ele>379</ele>
        <time>2010-06-17T09:58:03Z</time>
      </trkpt>
      <trkpt lat="45.56157" lon="4.6155">
        <ele>379</ele>
        <time>2010-06-17T09:58:06Z</time>
      </trkpt>
      <trkpt lat="45.56158" lon="4.6154">
        <ele>379</ele>
        <time>2010-06-17T09:58:09Z</time>
      </trkpt>
      <trkpt lat="45.56155" lon="4.61528">
        <ele>379</ele>
        <time>2010-06-17T09:58:13Z</time>
      </trkpt>
      <trkpt lat="45.56154" lon="4.61518">
        <ele>379</ele>
        <time>2010-06-17T09:58:16Z</time>
      </trkpt>
      <trkpt lat="45.56154" lon="4.61508">
        <ele>380</ele>
        <time>2010-06-17T09:58:19Z</time>
      </trkpt>
      <trkpt lat="45.56155" lon="4.61495">
        <ele>381</ele>
        <time>2010-06-17T09:58:23Z</time>
      </trkpt>
      <trkpt lat="45.56154" lon="4.61492">
        <ele>381</ele>
        <time>2010-06-17T09:58:24Z</time>
      </trkpt>
      <trkpt lat="45.56152" lon="4.6147">
        <ele>382</ele>
        <time>2010-06-17T09:58:31Z</time>
      </trkpt>
      <trkpt lat="45.56152" lon="4.61461">
        <ele>382</ele>
        <time>2010-06-17T09:58:34Z</time>
      </trkpt>
      <trkpt lat="45.56151" lon="4.61448">
        <ele>382</ele>
        <time>2010-06-17T09:58:38Z</time>
      </trkpt>
      <trkpt lat="45.5615" lon="4.61438">
        <ele>383</ele>
        <time>2010-06-17T09:58:41Z</time>
      </trkpt>
      <trkpt lat="45.56148" lon="4.61429">
        <ele>383</ele>
        <time>2010-06-17T09:58:44Z</time>
      </trkpt>
      <trkpt lat="45.56145" lon="4.61417">
        <ele>383</ele>
        <time>2010-06-17T09:58:48Z</time>
      </trkpt>
      <trkpt lat="45.56142" lon="4.61406">
        <ele>386</ele>
        <time>2010-06-17T09:58:52Z</time>
      </trkpt>
      <trkpt lat="45.5614" lon="4.61396">
        <ele>386</ele>
        <time>2010-06-17T09:58:55Z</time>
      </trkpt>
      <trkpt lat="45.56138" lon="4.61387">
        <ele>386</ele>
        <time>2010-06-17T09:58:58Z</time>
      </trkpt>
      <trkpt lat="45.56135" lon="4.61378">
        <ele>387</ele>
        <time>2010-06-17T09:59:01Z</time>
      </trkpt>
      <trkpt lat="45.56131" lon="4.61369">
        <ele>387</ele>
        <time>2010-06-17T09:59:04Z</time>
      </trkpt>
      <trkpt lat="45.56127" lon="4.6136">
        <ele>387</ele>
        <time>2010-06-17T09:59:07Z</time>
      </trkpt>
      <trkpt lat="45.56123" lon="4.61351">
        <ele>387</ele>
        <time>2010-06-17T09:59:10Z</time>
      </trkpt>
      <trkpt lat="45.5612" lon="4.61341">
        <ele>387</ele>
        <time>2010-06-17T09:59:13Z</time>
      </trkpt>
      <trkpt lat="45.56116" lon="4.61332">
        <ele>390</ele>
        <time>2010-06-17T09:59:16Z</time>
      </trkpt>
      <trkpt lat="45.56112" lon="4.61322">
        <ele>390</ele>
        <time>2010-06-17T09:59:19Z</time>
      </trkpt>
      <trkpt lat="45.56108" lon="4.61313">
        <ele>390</ele>
        <time>2010-06-17T09:59:22Z</time>
      </trkpt>
      <trkpt lat="45.56105" lon="4.61304">
        <ele>390</ele>
        <time>2010-06-17T09:59:25Z</time>
      </trkpt>
      <trkpt lat="45.56104" lon="4.61301">
        <ele>390</ele>
        <time>2010-06-17T09:59:26Z</time>
      </trkpt>
      <trkpt lat="45.56098" lon="4.61284">
        <ele>391</ele>
        <time>2010-06-17T09:59:32Z</time>
      </trkpt>
      <trkpt lat="45.56095" lon="4.61272">
        <ele>391</ele>
        <time>2010-06-17T09:59:36Z</time>
      </trkpt>
      <trkpt lat="45.56094" lon="4.61263">
        <ele>392</ele>
        <time>2010-06-17T09:59:39Z</time>
      </trkpt>
      <trkpt lat="45.56091" lon="4.61253">
        <ele>392</ele>
        <time>2010-06-17T09:59:42Z</time>
      </trkpt>
      <trkpt lat="45.56089" lon="4.61244">
        <ele>393</ele>
        <time>2010-06-17T09:59:45Z</time>
      </trkpt>
      <trkpt lat="45.56087" lon="4.61235">
        <ele>394</ele>
        <time>2010-06-17T09:59:48Z</time>
      </trkpt>
      <trkpt lat="45.56085" lon="4.61226">
        <ele>395</ele>
        <time>2010-06-17T09:59:51Z</time>
      </trkpt>
      <trkpt lat="45.56082" lon="4.61217">
        <ele>395</ele>
        <time>2010-06-17T09:59:54Z</time>
      </trkpt>
      <trkpt lat="45.56079" lon="4.61207">
        <ele>395</ele>
        <time>2010-06-17T09:59:57Z</time>
      </trkpt>
      <trkpt lat="45.56075" lon="4.61198">
        <ele>396</ele>
        <time>2010-06-17T10:00:00Z</time>
      </trkpt>
      <trkpt lat="45.56071" lon="4.61191">
        <ele>396</ele>
        <time>2010-06-17T10:00:03Z</time>
      </trkpt>
      <trkpt lat="45.56066" lon="4.61181">
        <ele>396</ele>
        <time>2010-06-17T10:00:07Z</time>
      </trkpt>
      <trkpt lat="45.5606" lon="4.61173">
        <ele>396</ele>
        <time>2010-06-17T10:00:11Z</time>
      </trkpt>
      <trkpt lat="45.56055" lon="4.61167">
        <ele>400</ele>
        <time>2010-06-17T10:00:14Z</time>
      </trkpt>
      <trkpt lat="45.5605" lon="4.61158">
        <ele>400</ele>
        <time>2010-06-17T10:00:17Z</time>
      </trkpt>
      <trkpt lat="45.56047" lon="4.6115">
        <ele>400</ele>
        <time>2010-06-17T10:00:20Z</time>
      </trkpt>
      <trkpt lat="45.56043" lon="4.61141">
        <ele>400</ele>
        <time>2010-06-17T10:00:23Z</time>
      </trkpt>
      <trkpt lat="45.56038" lon="4.61131">
        <ele>400</ele>
        <time>2010-06-17T10:00:27Z</time>
      </trkpt>
      <trkpt lat="45.56036" lon="4.61129">
        <ele>400</ele>
        <time>2010-06-17T10:00:28Z</time>
      </trkpt>
      <trkpt lat="45.5603" lon="4.61119">
        <ele>401</ele>
        <time>2010-06-17T10:00:32Z</time>
      </trkpt>
      <trkpt lat="45.56025" lon="4.61109">
        <ele>401</ele>
        <time>2010-06-17T10:00:36Z</time>
      </trkpt>
      <trkpt lat="45.5602" lon="4.61099">
        <ele>401</ele>
        <time>2010-06-17T10:00:40Z</time>
      </trkpt>
      <trkpt lat="45.56013" lon="4.6109">
        <ele>401</ele>
        <time>2010-06-17T10:00:44Z</time>
      </trkpt>
      <trkpt lat="45.56008" lon="4.6108">
        <ele>403</ele>
        <time>2010-06-17T10:00:48Z</time>
      </trkpt>
      <trkpt lat="45.56002" lon="4.61071">
        <ele>403</ele>
        <time>2010-06-17T10:00:52Z</time>
      </trkpt>
      <trkpt lat="45.55998" lon="4.61061">
        <ele>403</ele>
        <time>2010-06-17T10:00:56Z</time>
      </trkpt>
      <trkpt lat="45.55993" lon="4.61052">
        <ele>403</ele>
        <time>2010-06-17T10:01:00Z</time>
      </trkpt>
      <trkpt lat="45.55987" lon="4.61043">
        <ele>404</ele>
        <time>2010-06-17T10:01:04Z</time>
      </trkpt>
      <trkpt lat="45.55982" lon="4.61033">
        <ele>404</ele>
        <time>2010-06-17T10:01:08Z</time>
      </trkpt>
      <trkpt lat="45.55975" lon="4.61025">
        <ele>404</ele>
        <time>2010-06-17T10:01:12Z</time>
      </trkpt>
      <trkpt lat="45.55969" lon="4.61016">
        <ele>404</ele>
        <time>2010-06-17T10:01:16Z</time>
      </trkpt>
      <trkpt lat="45.55962" lon="4.61008">
        <ele>404</ele>
        <time>2010-06-17T10:01:21Z</time>
      </trkpt>
      <trkpt lat="45.55959" lon="4.60997">
        <ele>407</ele>
        <time>2010-06-17T10:01:30Z</time>
      </trkpt>
      <trkpt lat="45.55958" lon="4.60985">
        <ele>407</ele>
        <time>2010-06-17T10:01:35Z</time>
      </trkpt>
      <trkpt lat="45.55961" lon="4.60973">
        <ele>407</ele>
        <time>2010-06-17T10:01:40Z</time>
      </trkpt>
      <trkpt lat="45.5596" lon="4.60962">
        <ele>407</ele>
        <time>2010-06-17T10:01:44Z</time>
      </trkpt>
      <trkpt lat="45.5596" lon="4.60959">
        <ele>407</ele>
        <time>2010-06-17T10:01:45Z</time>
      </trkpt>
      <trkpt lat="45.55962" lon="4.60939">
        <ele>408</ele>
        <time>2010-06-17T10:01:52Z</time>
      </trkpt>
      <trkpt lat="45.55962" lon="4.60927">
        <ele>408</ele>
        <time>2010-06-17T10:01:56Z</time>
      </trkpt>
      <trkpt lat="45.55961" lon="4.60916">
        <ele>409</ele>
        <time>2010-06-17T10:02:00Z</time>
      </trkpt>
      <trkpt lat="45.55961" lon="4.60905">
        <ele>409</ele>
        <time>2010-06-17T10:02:04Z</time>
      </trkpt>
      <trkpt lat="45.55962" lon="4.60893">
        <ele>409</ele>
        <time>2010-06-17T10:02:08Z</time>
      </trkpt>
      <trkpt lat="45.55962" lon="4.60882">
        <ele>409</ele>
        <time>2010-06-17T10:02:12Z</time>
      </trkpt>
      <trkpt lat="45.55963" lon="4.60869">
        <ele>410</ele>
        <time>2010-06-17T10:02:16Z</time>
      </trkpt>
      <trkpt lat="45.55963" lon="4.6086">
        <ele>410</ele>
        <time>2010-06-17T10:02:19Z</time>
      </trkpt>
      <trkpt lat="45.55963" lon="4.6085">
        <ele>410</ele>
        <time>2010-06-17T10:02:22Z</time>
      </trkpt>
      <trkpt lat="45.55965" lon="4.6084">
        <ele>410</ele>
        <time>2010-06-17T10:02:25Z</time>
      </trkpt>
      <trkpt lat="45.55967" lon="4.6083">
        <ele>412</ele>
        <time>2010-06-17T10:02:28Z</time>
      </trkpt>
      <trkpt lat="45.55968" lon="4.60819">
        <ele>412</ele>
        <time>2010-06-17T10:02:31Z</time>
      </trkpt>
      <trkpt lat="45.55969" lon="4.60808">
        <ele>413</ele>
        <time>2010-06-17T10:02:34Z</time>
      </trkpt>
      <trkpt lat="45.55967" lon="4.60796">
        <ele>413</ele>
        <time>2010-06-17T10:02:37Z</time>
      </trkpt>
      <trkpt lat="45.55964" lon="4.60787">
        <ele>413</ele>
        <time>2010-06-17T10:02:39Z</time>
      </trkpt>
      <trkpt lat="45.5596" lon="4.60779">
        <ele>413</ele>
        <time>2010-06-17T10:02:41Z</time>
      </trkpt>
      <trkpt lat="45.55953" lon="4.60772">
        <ele>413</ele>
        <time>2010-06-17T10:02:44Z</time>
      </trkpt>
      <trkpt lat="45.55947" lon="4.60768">
        <ele>413</ele>
        <time>2010-06-17T10:02:47Z</time>
      </trkpt>
      <trkpt lat="45.55944" lon="4.60768">
        <ele>413</ele>
        <time>2010-06-17T10:02:48Z</time>
      </trkpt>
      <trkpt lat="45.55932" lon="4.60763">
        <ele>412</ele>
        <time>2010-06-17T10:02:54Z</time>
      </trkpt>
      <trkpt lat="45.55925" lon="4.60756">
        <ele>412</ele>
        <time>2010-06-17T10:02:58Z</time>
      </trkpt>
      <trkpt lat="45.55919" lon="4.60748">
        <ele>413</ele>
        <time>2010-06-17T10:03:02Z</time>
      </trkpt>
      <trkpt lat="45.55915" lon="4.6074">
        <ele>412</ele>
        <time>2010-06-17T10:03:05Z</time>
      </trkpt>
      <trkpt lat="45.55911" lon="4.6073">
        <ele>413</ele>
        <time>2010-06-17T10:03:08Z</time>
      </trkpt>
      <trkpt lat="45.55907" lon="4.60719">
        <ele>413</ele>
        <time>2010-06-17T10:03:11Z</time>
      </trkpt>
      <trkpt lat="45.55905" lon="4.60706">
        <ele>414</ele>
        <time>2010-06-17T10:03:14Z</time>
      </trkpt>
      <trkpt lat="45.55903" lon="4.60698">
        <ele>414</ele>
        <time>2010-06-17T10:03:16Z</time>
      </trkpt>
      <trkpt lat="45.55899" lon="4.60687">
        <ele>415</ele>
        <time>2010-06-17T10:03:19Z</time>
      </trkpt>
      <trkpt lat="45.55895" lon="4.60676">
        <ele>415</ele>
        <time>2010-06-17T10:03:22Z</time>
      </trkpt>
      <trkpt lat="45.55891" lon="4.60666">
        <ele>419</ele>
        <time>2010-06-17T10:03:25Z</time>
      </trkpt>
      <trkpt lat="45.55886" lon="4.60658">
        <ele>419</ele>
        <time>2010-06-17T10:03:28Z</time>
      </trkpt>
      <trkpt lat="45.5588" lon="4.60652">
        <ele>419</ele>
        <time>2010-06-17T10:03:31Z</time>
      </trkpt>
      <trkpt lat="45.55874" lon="4.60646">
        <ele>419</ele>
        <time>2010-06-17T10:03:34Z</time>
      </trkpt>
      <trkpt lat="45.55867" lon="4.6064">
        <ele>419</ele>
        <time>2010-06-17T10:03:38Z</time>
      </trkpt>
      <trkpt lat="45.5586" lon="4.60633">
        <ele>419</ele>
        <time>2010-06-17T10:03:42Z</time>
      </trkpt>
      <trkpt lat="45.55853" lon="4.60626">
        <ele>419</ele>
        <time>2010-06-17T10:03:46Z</time>
      </trkpt>
      <trkpt lat="45.55847" lon="4.60617">
        <ele>419</ele>
        <time>2010-06-17T10:03:50Z</time>
      </trkpt>
      <trkpt lat="45.55845" lon="4.60615">
        <ele>419</ele>
        <time>2010-06-17T10:03:51Z</time>
      </trkpt>
      <trkpt lat="45.55834" lon="4.60605">
        <ele>420</ele>
        <time>2010-06-17T10:03:57Z</time>
      </trkpt>
      <trkpt lat="45.55827" lon="4.60599">
        <ele>419</ele>
        <time>2010-06-17T10:04:00Z</time>
      </trkpt>
      <trkpt lat="45.55821" lon="4.60594">
        <ele>419</ele>
        <time>2010-06-17T10:04:03Z</time>
      </trkpt>
      <trkpt lat="45.55816" lon="4.60588">
        <ele>419</ele>
        <time>2010-06-17T10:04:06Z</time>
      </trkpt>
      <trkpt lat="45.5581" lon="4.60582">
        <ele>422</ele>
        <time>2010-06-17T10:04:09Z</time>
      </trkpt>
      <trkpt lat="45.55805" lon="4.60575">
        <ele>422</ele>
        <time>2010-06-17T10:04:12Z</time>
      </trkpt>
      <trkpt lat="45.558" lon="4.60569">
        <ele>422</ele>
        <time>2010-06-17T10:04:15Z</time>
      </trkpt>
      <trkpt lat="45.55795" lon="4.60562">
        <ele>422</ele>
        <time>2010-06-17T10:04:18Z</time>
      </trkpt>
      <trkpt lat="45.55789" lon="4.60556">
        <ele>422</ele>
        <time>2010-06-17T10:04:21Z</time>
      </trkpt>
      <trkpt lat="45.55782" lon="4.60548">
        <ele>422</ele>
        <time>2010-06-17T10:04:25Z</time>
      </trkpt>
      <trkpt lat="45.55776" lon="4.6054">
        <ele>423</ele>
        <time>2010-06-17T10:04:29Z</time>
      </trkpt>
      <trkpt lat="45.5577" lon="4.60532">
        <ele>423</ele>
        <time>2010-06-17T10:04:33Z</time>
      </trkpt>
      <trkpt lat="45.55764" lon="4.60526">
        <ele>423</ele>
        <time>2010-06-17T10:04:36Z</time>
      </trkpt>
      <trkpt lat="45.55757" lon="4.60519">
        <ele>424</ele>
        <time>2010-06-17T10:04:40Z</time>
      </trkpt>
      <trkpt lat="45.55749" lon="4.60514">
        <ele>423</ele>
        <time>2010-06-17T10:04:44Z</time>
      </trkpt>
      <trkpt lat="45.5574" lon="4.60511">
        <ele>423</ele>
        <time>2010-06-17T10:04:48Z</time>
      </trkpt>
      <trkpt lat="45.55733" lon="4.60509">
        <ele>423</ele>
        <time>2010-06-17T10:04:51Z</time>
      </trkpt>
      <trkpt lat="45.5573" lon="4.60508">
        <ele>423</ele>
        <time>2010-06-17T10:04:52Z</time>
      </trkpt>
      <trkpt lat="45.55716" lon="4.60506">
        <ele>422</ele>
        <time>2010-06-17T10:04:57Z</time>
      </trkpt>
      <trkpt lat="45.55708" lon="4.60504">
        <ele>422</ele>
        <time>2010-06-17T10:05:00Z</time>
      </trkpt>
      <trkpt lat="45.55701" lon="4.60502">
        <ele>422</ele>
        <time>2010-06-17T10:05:03Z</time>
      </trkpt>
      <trkpt lat="45.55694" lon="4.60499">
        <ele>425</ele>
        <time>2010-06-17T10:05:06Z</time>
      </trkpt>
      <trkpt lat="45.55687" lon="4.60495">
        <ele>425</ele>
        <time>2010-06-17T10:05:09Z</time>
      </trkpt>
      <trkpt lat="45.5568" lon="4.60492">
        <ele>425</ele>
        <time>2010-06-17T10:05:12Z</time>
      </trkpt>
      <trkpt lat="45.55673" lon="4.60489">
        <ele>425</ele>
        <time>2010-06-17T10:05:15Z</time>
      </trkpt>
      <trkpt lat="45.55667" lon="4.60486">
        <ele>424</ele>
        <time>2010-06-17T10:05:18Z</time>
      </trkpt>
      <trkpt lat="45.5566" lon="4.60482">
        <ele>424</ele>
        <time>2010-06-17T10:05:21Z</time>
      </trkpt>
      <trkpt lat="45.55651" lon="4.60479">
        <ele>425</ele>
        <time>2010-06-17T10:05:25Z</time>
      </trkpt>
      <trkpt lat="45.55643" lon="4.60475">
        <ele>425</ele>
        <time>2010-06-17T10:05:29Z</time>
      </trkpt>
      <trkpt lat="45.55636" lon="4.6047">
        <ele>425</ele>
        <time>2010-06-17T10:05:33Z</time>
      </trkpt>
      <trkpt lat="45.55628" lon="4.60466">
        <ele>425</ele>
        <time>2010-06-17T10:05:37Z</time>
      </trkpt>
      <trkpt lat="45.5562" lon="4.60461">
        <ele>425</ele>
        <time>2010-06-17T10:05:41Z</time>
      </trkpt>
      <trkpt lat="45.55612" lon="4.60456">
        <ele>426</ele>
        <time>2010-06-17T10:05:45Z</time>
      </trkpt>
      <trkpt lat="45.55605" lon="4.60451">
        <ele>426</ele>
        <time>2010-06-17T10:05:49Z</time>
      </trkpt>
      <trkpt lat="45.55597" lon="4.60445">
        <ele>426</ele>
        <time>2010-06-17T10:05:53Z</time>
      </trkpt>
      <trkpt lat="45.55595" lon="4.60444">
        <ele>426</ele>
        <time>2010-06-17T10:05:54Z</time>
      </trkpt>
      <trkpt lat="45.55582" lon="4.60439">
        <ele>426</ele>
        <time>2010-06-17T10:06:00Z</time>
      </trkpt>
      <trkpt lat="45.55576" lon="4.60434">
        <ele>427</ele>
        <time>2010-06-17T10:06:03Z</time>
      </trkpt>
      <trkpt lat="45.55569" lon="4.60431">
        <ele>427</ele>
        <time>2010-06-17T10:06:06Z</time>
      </trkpt>
      <trkpt lat="45.55562" lon="4.60427">
        <ele>426</ele>
        <time>2010-06-17T10:06:09Z</time>
      </trkpt>
      <trkpt lat="45.55555" lon="4.60424">
        <ele>426</ele>
        <time>2010-06-17T10:06:12Z</time>
      </trkpt>
      <trkpt lat="45.55549" lon="4.6042">
        <ele>426</ele>
        <time>2010-06-17T10:06:15Z</time>
      </trkpt>
      <trkpt lat="45.55543" lon="4.60417">
        <ele>431</ele>
        <time>2010-06-17T10:06:18Z</time>
      </trkpt>
      <trkpt lat="45.55536" lon="4.60413">
        <ele>431</ele>
        <time>2010-06-17T10:06:21Z</time>
      </trkpt>
      <trkpt lat="45.55529" lon="4.60409">
        <ele>431</ele>
        <time>2010-06-17T10:06:24Z</time>
      </trkpt>
      <trkpt lat="45.55523" lon="4.60405">
        <ele>431</ele>
        <time>2010-06-17T10:06:27Z</time>
      </trkpt>
      <trkpt lat="45.55516" lon="4.60401">
        <ele>431</ele>
        <time>2010-06-17T10:06:30Z</time>
      </trkpt>
      <trkpt lat="45.55509" lon="4.60396">
        <ele>431</ele>
        <time>2010-06-17T10:06:33Z</time>
      </trkpt>
      <trkpt lat="45.55502" lon="4.60392">
        <ele>431</ele>
        <time>2010-06-17T10:06:36Z</time>
      </trkpt>
      <trkpt lat="45.55495" lon="4.60388">
        <ele>429</ele>
        <time>2010-06-17T10:06:39Z</time>
      </trkpt>
      <trkpt lat="45.55489" lon="4.60383">
        <ele>429</ele>
        <time>2010-06-17T10:06:42Z</time>
      </trkpt>
      <trkpt lat="45.55481" lon="4.60377">
        <ele>429</ele>
        <time>2010-06-17T10:06:46Z</time>
      </trkpt>
      <trkpt lat="45.55474" lon="4.6037">
        <ele>429</ele>
        <time>2010-06-17T10:06:50Z</time>
      </trkpt>
      <trkpt lat="45.55469" lon="4.60363">
        <ele>429</ele>
        <time>2010-06-17T10:06:53Z</time>
      </trkpt>
      <trkpt lat="45.55464" lon="4.60357">
        <ele>429</ele>
        <time>2010-06-17T10:06:56Z</time>
      </trkpt>
      <trkpt lat="45.55462" lon="4.60355">
        <ele>429</ele>
        <time>2010-06-17T10:06:57Z</time>
      </trkpt>
      <trkpt lat="45.55453" lon="4.60342">
        <ele>429</ele>
        <time>2010-06-17T10:07:02Z</time>
      </trkpt>
      <trkpt lat="45.55448" lon="4.60334">
        <ele>429</ele>
        <time>2010-06-17T10:07:05Z</time>
      </trkpt>
      <trkpt lat="45.55443" lon="4.60324">
        <ele>432</ele>
        <time>2010-06-17T10:07:08Z</time>
      </trkpt>
      <trkpt lat="45.55439" lon="4.60314">
        <ele>433</ele>
        <time>2010-06-17T10:07:11Z</time>
      </trkpt>
      <trkpt lat="45.55435" lon="4.60304">
        <ele>433</ele>
        <time>2010-06-17T10:07:14Z</time>
      </trkpt>
      <trkpt lat="45.55431" lon="4.60294">
        <ele>433</ele>
        <time>2010-06-17T10:07:17Z</time>
      </trkpt>
      <trkpt lat="45.55428" lon="4.60283">
        <ele>434</ele>
        <time>2010-06-17T10:07:20Z</time>
      </trkpt>
      <trkpt lat="45.55426" lon="4.60272">
        <ele>434</ele>
        <time>2010-06-17T10:07:23Z</time>
      </trkpt>
      <trkpt lat="45.55424" lon="4.60261">
        <ele>433</ele>
        <time>2010-06-17T10:07:26Z</time>
      </trkpt>
      <trkpt lat="45.55422" lon="4.6025">
        <ele>433</ele>
        <time>2010-06-17T10:07:29Z</time>
      </trkpt>
      <trkpt lat="45.5542" lon="4.6024">
        <ele>434</ele>
        <time>2010-06-17T10:07:32Z</time>
      </trkpt>
      <trkpt lat="45.5542" lon="4.6023">
        <ele>436</ele>
        <time>2010-06-17T10:07:35Z</time>
      </trkpt>
      <trkpt lat="45.5542" lon="4.60218">
        <ele>436</ele>
        <time>2010-06-17T10:07:39Z</time>
      </trkpt>
      <trkpt lat="45.5542" lon="4.60207">
        <ele>437</ele>
        <time>2010-06-17T10:07:45Z</time>
      </trkpt>
      <trkpt lat="45.55421" lon="4.60194">
        <ele>437</ele>
        <time>2010-06-17T10:07:51Z</time>
      </trkpt>
      <trkpt lat="45.5542" lon="4.60182">
        <ele>436</ele>
        <time>2010-06-17T10:07:56Z</time>
      </trkpt>
      <trkpt lat="45.55422" lon="4.60172">
        <ele>435</ele>
        <time>2010-06-17T10:08:00Z</time>
      </trkpt>
      <trkpt lat="45.55422" lon="4.60169">
        <ele>434</ele>
        <time>2010-06-17T10:08:01Z</time>
      </trkpt>
      <trkpt lat="45.55424" lon="4.60148">
        <ele>437</ele>
        <time>2010-06-17T10:08:11Z</time>
      </trkpt>
      <trkpt lat="45.55425" lon="4.60136">
        <ele>438</ele>
        <time>2010-06-17T10:08:17Z</time>
      </trkpt>
      <trkpt lat="45.55424" lon="4.60126">
        <ele>438</ele>
        <time>2010-06-17T10:08:21Z</time>
      </trkpt>
      <trkpt lat="45.55425" lon="4.60115">
        <ele>438</ele>
        <time>2010-06-17T10:08:25Z</time>
      </trkpt>
      <trkpt lat="45.55426" lon="4.60103">
        <ele>437</ele>
        <time>2010-06-17T10:08:29Z</time>
      </trkpt>
      <trkpt lat="45.55426" lon="4.60091">
        <ele>436</ele>
        <time>2010-06-17T10:08:33Z</time>
      </trkpt>
      <trkpt lat="45.55426" lon="4.6008">
        <ele>436</ele>
        <time>2010-06-17T10:08:37Z</time>
      </trkpt>
      <trkpt lat="45.55427" lon="4.60068">
        <ele>437</ele>
        <time>2010-06-17T10:08:41Z</time>
      </trkpt>
      <trkpt lat="45.55427" lon="4.60058">
        <ele>438</ele>
        <time>2010-06-17T10:08:45Z</time>
      </trkpt>
      <trkpt lat="45.55428" lon="4.60046">
        <ele>438</ele>
        <time>2010-06-17T10:08:49Z</time>
      </trkpt>
      <trkpt lat="45.55429" lon="4.60035">
        <ele>438</ele>
        <time>2010-06-17T10:08:53Z</time>
      </trkpt>
      <trkpt lat="45.5543" lon="4.60023">
        <ele>438</ele>
        <time>2010-06-17T10:08:57Z</time>
      </trkpt>
      <trkpt lat="45.55431" lon="4.60013">
        <ele>437</ele>
        <time>2010-06-17T10:09:01Z</time>
      </trkpt>
      <trkpt lat="45.55432" lon="4.6001">
        <ele>437</ele>
        <time>2010-06-17T10:09:02Z</time>
      </trkpt>
      <trkpt lat="45.55434" lon="4.59991">
        <ele>437</ele>
        <time>2010-06-17T10:09:09Z</time>
      </trkpt>
      <trkpt lat="45.55437" lon="4.5998">
        <ele>438</ele>
        <time>2010-06-17T10:09:13Z</time>
      </trkpt>
      <trkpt lat="45.55438" lon="4.59969">
        <ele>438</ele>
        <time>2010-06-17T10:09:17Z</time>
      </trkpt>
      <trkpt lat="45.55442" lon="4.59958">
        <ele>439</ele>
        <time>2010-06-17T10:09:22Z</time>
      </trkpt>
      <trkpt lat="45.55445" lon="4.59947">
        <ele>439</ele>
        <time>2010-06-17T10:09:27Z</time>
      </trkpt>
      <trkpt lat="45.55447" lon="4.59936">
        <ele>439</ele>
        <time>2010-06-17T10:09:32Z</time>
      </trkpt>
      <trkpt lat="45.55449" lon="4.59924">
        <ele>439</ele>
        <time>2010-06-17T10:09:37Z</time>
      </trkpt>
      <trkpt lat="45.55452" lon="4.59912">
        <ele>438</ele>
        <time>2010-06-17T10:09:42Z</time>
      </trkpt>
      <trkpt lat="45.55454" lon="4.59901">
        <ele>438</ele>
        <time>2010-06-17T10:09:47Z</time>
      </trkpt>
      <trkpt lat="45.55457" lon="4.59888">
        <ele>438</ele>
        <time>2010-06-17T10:09:52Z</time>
      </trkpt>
      <trkpt lat="45.5546" lon="4.59878">
        <ele>438</ele>
        <time>2010-06-17T10:09:56Z</time>
      </trkpt>
      <trkpt lat="45.55463" lon="4.59868">
        <ele>438</ele>
        <time>2010-06-17T10:10:00Z</time>
      </trkpt>
      <trkpt lat="45.55466" lon="4.59856">
        <ele>438</ele>
        <time>2010-06-17T10:10:06Z</time>
      </trkpt>
      <trkpt lat="45.55466" lon="4.59855">
        <ele>439</ele>
        <time>2010-06-17T10:10:07Z</time>
      </trkpt>
      <trkpt lat="45.55474" lon="4.59849">
        <ele>439</ele>
        <time>2010-06-17T10:12:41Z</time>
      </trkpt>
      <trkpt lat="45.5548" lon="4.59831">
        <ele>439</ele>
        <time>2010-06-17T10:12:48Z</time>
      </trkpt>
      <trkpt lat="45.55484" lon="4.59821">
        <ele>439</ele>
        <time>2010-06-17T10:12:52Z</time>
      </trkpt>
      <trkpt lat="45.55488" lon="4.5981">
        <ele>439</ele>
        <time>2010-06-17T10:12:56Z</time>
      </trkpt>
      <trkpt lat="45.55491" lon="4.59802">
        <ele>438</ele>
        <time>2010-06-17T10:12:59Z</time>
      </trkpt>
      <trkpt lat="45.55495" lon="4.59793">
        <ele>438</ele>
        <time>2010-06-17T10:13:02Z</time>
      </trkpt>
      <trkpt lat="45.55498" lon="4.59783">
        <ele>438</ele>
        <time>2010-06-17T10:13:05Z</time>
      </trkpt>
      <trkpt lat="45.555" lon="4.59771">
        <ele>439</ele>
        <time>2010-06-17T10:13:08Z</time>
      </trkpt>
      <trkpt lat="45.55501" lon="4.5976">
        <ele>444</ele>
        <time>2010-06-17T10:13:11Z</time>
      </trkpt>
      <trkpt lat="45.55501" lon="4.59748">
        <ele>442</ele>
        <time>2010-06-17T10:13:14Z</time>
      </trkpt>
      <trkpt lat="45.55503" lon="4.59735">
        <ele>444</ele>
        <time>2010-06-17T10:13:18Z</time>
      </trkpt>
      <trkpt lat="45.55505" lon="4.59725">
        <ele>445</ele>
        <time>2010-06-17T10:13:22Z</time>
      </trkpt>
      <trkpt lat="45.55508" lon="4.59714">
        <ele>446</ele>
        <time>2010-06-17T10:13:26Z</time>
      </trkpt>
      <trkpt lat="45.55511" lon="4.59705">
        <ele>446</ele>
        <time>2010-06-17T10:13:30Z</time>
      </trkpt>
      <trkpt lat="45.55515" lon="4.59695">
        <ele>446</ele>
        <time>2010-06-17T10:13:34Z</time>
      </trkpt>
      <trkpt lat="45.5552" lon="4.59685">
        <ele>446</ele>
        <time>2010-06-17T10:13:38Z</time>
      </trkpt>
      <trkpt lat="45.55526" lon="4.59675">
        <ele>446</ele>
        <time>2010-06-17T10:13:42Z</time>
      </trkpt>
      <trkpt lat="45.55527" lon="4.59673">
        <ele>446</ele>
        <time>2010-06-17T10:13:43Z</time>
      </trkpt>
      <trkpt lat="45.55538" lon="4.59657">
        <ele>445</ele>
        <time>2010-06-17T10:13:50Z</time>
      </trkpt>
      <trkpt lat="45.55544" lon="4.59649">
        <ele>446</ele>
        <time>2010-06-17T10:13:54Z</time>
      </trkpt>
      <trkpt lat="45.5555" lon="4.59641">
        <ele>446</ele>
        <time>2010-06-17T10:13:59Z</time>
      </trkpt>
      <trkpt lat="45.55557" lon="4.59633">
        <ele>447</ele>
        <time>2010-06-17T10:14:05Z</time>
      </trkpt>
      <trkpt lat="45.55562" lon="4.59623">
        <ele>447</ele>
        <time>2010-06-17T10:14:10Z</time>
      </trkpt>
      <trkpt lat="45.55568" lon="4.59615">
        <ele>447</ele>
        <time>2010-06-17T10:14:14Z</time>
      </trkpt>
      <trkpt lat="45.55573" lon="4.59608">
        <ele>447</ele>
        <time>2010-06-17T10:14:18Z</time>
      </trkpt>
      <trkpt lat="45.55579" lon="4.59598">
        <ele>447</ele>
        <time>2010-06-17T10:14:22Z</time>
      </trkpt>
      <trkpt lat="45.55584" lon="4.59588">
        <ele>451</ele>
        <time>2010-06-17T10:14:26Z</time>
      </trkpt>
      <trkpt lat="45.5559" lon="4.59579">
        <ele>450</ele>
        <time>2010-06-17T10:14:30Z</time>
      </trkpt>
      <trkpt lat="45.55595" lon="4.5957">
        <ele>451</ele>
        <time>2010-06-17T10:14:34Z</time>
      </trkpt>
      <trkpt lat="45.556" lon="4.5956">
        <ele>452</ele>
        <time>2010-06-17T10:14:38Z</time>
      </trkpt>
      <trkpt lat="45.55604" lon="4.59549">
        <ele>452</ele>
        <time>2010-06-17T10:14:42Z</time>
      </trkpt>
      <trkpt lat="45.55608" lon="4.59539">
        <ele>452</ele>
        <time>2010-06-17T10:14:45Z</time>
      </trkpt>
      <trkpt lat="45.55609" lon="4.59536">
        <ele>452</ele>
        <time>2010-06-17T10:14:46Z</time>
      </trkpt>
      <trkpt lat="45.55614" lon="4.59519">
        <ele>452</ele>
        <time>2010-06-17T10:14:51Z</time>
      </trkpt>
      <trkpt lat="45.55618" lon="4.59509">
        <ele>452</ele>
        <time>2010-06-17T10:14:54Z</time>
      </trkpt>
      <trkpt lat="45.55622" lon="4.59499">
        <ele>450</ele>
        <time>2010-06-17T10:14:57Z</time>
      </trkpt>
      <trkpt lat="45.55626" lon="4.59489">
        <ele>450</ele>
        <time>2010-06-17T10:15:00Z</time>
      </trkpt>
      <trkpt lat="45.5563" lon="4.59479">
        <ele>451</ele>
        <time>2010-06-17T10:15:03Z</time>
      </trkpt>
      <trkpt lat="45.55635" lon="4.59469">
        <ele>451</ele>
        <time>2010-06-17T10:15:06Z</time>
      </trkpt>
      <trkpt lat="45.5564" lon="4.5946">
        <ele>451</ele>
        <time>2010-06-17T10:15:09Z</time>
      </trkpt>
      <trkpt lat="45.55645" lon="4.59451">
        <ele>451</ele>
        <time>2010-06-17T10:15:12Z</time>
      </trkpt>
      <trkpt lat="45.55651" lon="4.59444">
        <ele>451</ele>
        <time>2010-06-17T10:15:15Z</time>
      </trkpt>
      <trkpt lat="45.55657" lon="4.59437">
        <ele>451</ele>
        <time>2010-06-17T10:15:18Z</time>
      </trkpt>
      <trkpt lat="45.55663" lon="4.5943">
        <ele>451</ele>
        <time>2010-06-17T10:15:21Z</time>
      </trkpt>
      <trkpt lat="45.55669" lon="4.59423">
        <ele>454</ele>
        <time>2010-06-17T10:15:24Z</time>
      </trkpt>
      <trkpt lat="45.55675" lon="4.59415">
        <ele>454</ele>
        <time>2010-06-17T10:15:27Z</time>
      </trkpt>
      <trkpt lat="45.55681" lon="4.59408">
        <ele>455</ele>
        <time>2010-06-17T10:15:30Z</time>
      </trkpt>
      <trkpt lat="45.55687" lon="4.59401">
        <ele>456</ele>
        <time>2010-06-17T10:15:33Z</time>
      </trkpt>
      <trkpt lat="45.55693" lon="4.59393">
        <ele>457</ele>
        <time>2010-06-17T10:15:36Z</time>
      </trkpt>
      <trkpt lat="45.55698" lon="4.59386">
        <ele>457</ele>
        <time>2010-06-17T10:15:39Z</time>
      </trkpt>
      <trkpt lat="45.55704" lon="4.59379">
        <ele>458</ele>
        <time>2010-06-17T10:15:42Z</time>
      </trkpt>
      <trkpt lat="45.55709" lon="4.59371">
        <ele>458</ele>
        <time>2010-06-17T10:15:45Z</time>
      </trkpt>
      <trkpt lat="45.55714" lon="4.59362">
        <ele>458</ele>
        <time>2010-06-17T10:15:48Z</time>
      </trkpt>
      <trkpt lat="45.55716" lon="4.59359">
        <ele>459</ele>
        <time>2010-06-17T10:15:49Z</time>
      </trkpt>
      <trkpt lat="45.55722" lon="4.59344">
        <ele>459</ele>
        <time>2010-06-17T10:15:54Z</time>
      </trkpt>
      <trkpt lat="45.55725" lon="4.59334">
        <ele>460</ele>
        <time>2010-06-17T10:15:57Z</time>
      </trkpt>
      <trkpt lat="45.55728" lon="4.59324">
        <ele>461</ele>
        <time>2010-06-17T10:16:00Z</time>
      </trkpt>
      <trkpt lat="45.5573" lon="4.59314">
        <ele>461</ele>
        <time>2010-06-17T10:16:03Z</time>
      </trkpt>
      <trkpt lat="45.55732" lon="4.59302">
        <ele>461</ele>
        <time>2010-06-17T10:16:07Z</time>
      </trkpt>
      <trkpt lat="45.55732" lon="4.59292">
        <ele>461</ele>
        <time>2010-06-17T10:16:10Z</time>
      </trkpt>
      <trkpt lat="45.55732" lon="4.59282">
        <ele>461</ele>
        <time>2010-06-17T10:16:13Z</time>
      </trkpt>
      <trkpt lat="45.55731" lon="4.59272">
        <ele>461</ele>
        <time>2010-06-17T10:16:16Z</time>
      </trkpt>
      <trkpt lat="45.55729" lon="4.59261">
        <ele>461</ele>
        <time>2010-06-17T10:16:19Z</time>
      </trkpt>
      <trkpt lat="45.55727" lon="4.59251">
        <ele>461</ele>
        <time>2010-06-17T10:16:22Z</time>
      </trkpt>
      <trkpt lat="45.55725" lon="4.59241">
        <ele>464</ele>
        <time>2010-06-17T10:16:25Z</time>
      </trkpt>
      <trkpt lat="45.55721" lon="4.59231">
        <ele>464</ele>
        <time>2010-06-17T10:16:28Z</time>
      </trkpt>
      <trkpt lat="45.55716" lon="4.59221">
        <ele>464</ele>
        <time>2010-06-17T10:16:31Z</time>
      </trkpt>
      <trkpt lat="45.55711" lon="4.59212">
        <ele>464</ele>
        <time>2010-06-17T10:16:34Z</time>
      </trkpt>
      <trkpt lat="45.55707" lon="4.59204">
        <ele>464</ele>
        <time>2010-06-17T10:16:37Z</time>
      </trkpt>
      <trkpt lat="45.55702" lon="4.59197">
        <ele>464</ele>
        <time>2010-06-17T10:16:40Z</time>
      </trkpt>
      <trkpt lat="45.55695" lon="4.59189">
        <ele>464</ele>
        <time>2010-06-17T10:16:44Z</time>
      </trkpt>
      <trkpt lat="45.55689" lon="4.59183">
        <ele>464</ele>
        <time>2010-06-17T10:16:47Z</time>
      </trkpt>
      <trkpt lat="45.55682" lon="4.59178">
        <ele>463</ele>
        <time>2010-06-17T10:16:50Z</time>
      </trkpt>
      <trkpt lat="45.5568" lon="4.59176">
        <ele>463</ele>
        <time>2010-06-17T10:16:51Z</time>
      </trkpt>
      <trkpt lat="45.55668" lon="4.59169">
        <ele>463</ele>
        <time>2010-06-17T10:16:56Z</time>
      </trkpt>
      <trkpt lat="45.55661" lon="4.59166">
        <ele>464</ele>
        <time>2010-06-17T10:16:59Z</time>
      </trkpt>
      <trkpt lat="45.55654" lon="4.59165">
        <ele>466</ele>
        <time>2010-06-17T10:17:02Z</time>
      </trkpt>
      <trkpt lat="45.55646" lon="4.59165">
        <ele>467</ele>
        <time>2010-06-17T10:17:05Z</time>
      </trkpt>
      <trkpt lat="45.55639" lon="4.59165">
        <ele>467</ele>
        <time>2010-06-17T10:17:08Z</time>
      </trkpt>
      <trkpt lat="45.55633" lon="4.59166">
        <ele>468</ele>
        <time>2010-06-17T10:17:11Z</time>
      </trkpt>
      <trkpt lat="45.55625" lon="4.59168">
        <ele>465</ele>
        <time>2010-06-17T10:17:14Z</time>
      </trkpt>
      <trkpt lat="45.55618" lon="4.59171">
        <ele>465</ele>
        <time>2010-06-17T10:17:17Z</time>
      </trkpt>
      <trkpt lat="45.55611" lon="4.59176">
        <ele>466</ele>
        <time>2010-06-17T10:17:20Z</time>
      </trkpt>
      <trkpt lat="45.55604" lon="4.59183">
        <ele>466</ele>
        <time>2010-06-17T10:17:23Z</time>
      </trkpt>
      <trkpt lat="45.55597" lon="4.59191">
        <ele>466</ele>
        <time>2010-06-17T10:17:26Z</time>
      </trkpt>
      <trkpt lat="45.55591" lon="4.59201">
        <ele>466</ele>
        <time>2010-06-17T10:17:29Z</time>
      </trkpt>
      <trkpt lat="45.55587" lon="4.59207">
        <ele>465</ele>
        <time>2010-06-17T10:17:31Z</time>
      </trkpt>
      <trkpt lat="45.55583" lon="4.59214">
        <ele>470</ele>
        <time>2010-06-17T10:17:33Z</time>
      </trkpt>
      <trkpt lat="45.55579" lon="4.59221">
        <ele>470</ele>
        <time>2010-06-17T10:17:35Z</time>
      </trkpt>
      <trkpt lat="45.55574" lon="4.59228">
        <ele>469</ele>
        <time>2010-06-17T10:17:37Z</time>
      </trkpt>
      <trkpt lat="45.5557" lon="4.59235">
        <ele>469</ele>
        <time>2010-06-17T10:17:39Z</time>
      </trkpt>
      <trkpt lat="45.55566" lon="4.59243">
        <ele>469</ele>
        <time>2010-06-17T10:17:41Z</time>
      </trkpt>
      <trkpt lat="45.55561" lon="4.59249">
        <ele>469</ele>
        <time>2010-06-17T10:17:43Z</time>
      </trkpt>
      <trkpt lat="45.55557" lon="4.59256">
        <ele>465</ele>
        <time>2010-06-17T10:17:45Z</time>
      </trkpt>
      <trkpt lat="45.55552" lon="4.59263">
        <ele>465</ele>
        <time>2010-06-17T10:17:47Z</time>
      </trkpt>
      <trkpt lat="45.55546" lon="4.59268">
        <ele>465</ele>
        <time>2010-06-17T10:17:49Z</time>
      </trkpt>
      <trkpt lat="45.5554" lon="4.59272">
        <ele>465</ele>
        <time>2010-06-17T10:17:51Z</time>
      </trkpt>
      <trkpt lat="45.55537" lon="4.59274">
        <ele>465</ele>
        <time>2010-06-17T10:17:52Z</time>
      </trkpt>
      <trkpt lat="45.55527" lon="4.59278">
        <ele>465</ele>
        <time>2010-06-17T10:17:55Z</time>
      </trkpt>
      <trkpt lat="45.55521" lon="4.5928">
        <ele>465</ele>
        <time>2010-06-17T10:17:57Z</time>
      </trkpt>
      <trkpt lat="45.55514" lon="4.59281">
        <ele>465</ele>
        <time>2010-06-17T10:17:59Z</time>
      </trkpt>
      <trkpt lat="45.55507" lon="4.59283">
        <ele>466</ele>
        <time>2010-06-17T10:18:01Z</time>
      </trkpt>
      <trkpt lat="45.55501" lon="4.59284">
        <ele>466</ele>
        <time>2010-06-17T10:18:03Z</time>
      </trkpt>
      <trkpt lat="45.55495" lon="4.59284">
        <ele>469</ele>
        <time>2010-06-17T10:18:05Z</time>
      </trkpt>
      <trkpt lat="45.55488" lon="4.59286">
        <ele>469</ele>
        <time>2010-06-17T10:18:07Z</time>
      </trkpt>
      <trkpt lat="45.55482" lon="4.59287">
        <ele>469</ele>
        <time>2010-06-17T10:18:09Z</time>
      </trkpt>
      <trkpt lat="45.55476" lon="4.59289">
        <ele>469</ele>
        <time>2010-06-17T10:18:11Z</time>
      </trkpt>
      <trkpt lat="45.5547" lon="4.5929">
        <ele>469</ele>
        <time>2010-06-17T10:18:13Z</time>
      </trkpt>
      <trkpt lat="45.55463" lon="4.59292">
        <ele>469</ele>
        <time>2010-06-17T10:18:15Z</time>
      </trkpt>
      <trkpt lat="45.55457" lon="4.59293">
        <ele>469</ele>
        <time>2010-06-17T10:18:17Z</time>
      </trkpt>
      <trkpt lat="45.55451" lon="4.59295">
        <ele>469</ele>
        <time>2010-06-17T10:18:19Z</time>
      </trkpt>
      <trkpt lat="45.55445" lon="4.59297">
        <ele>469</ele>
        <time>2010-06-17T10:18:21Z</time>
      </trkpt>
      <trkpt lat="45.55438" lon="4.59298">
        <ele>469</ele>
        <time>2010-06-17T10:18:23Z</time>
      </trkpt>
      <trkpt lat="45.55432" lon="4.593">
        <ele>469</ele>
        <time>2010-06-17T10:18:25Z</time>
      </trkpt>
      <trkpt lat="45.55425" lon="4.59301">
        <ele>469</ele>
        <time>2010-06-17T10:18:27Z</time>
      </trkpt>
      <trkpt lat="45.55419" lon="4.59303">
        <ele>469</ele>
        <time>2010-06-17T10:18:29Z</time>
      </trkpt>
      <trkpt lat="45.55413" lon="4.59304">
        <ele>472</ele>
        <time>2010-06-17T10:18:31Z</time>
      </trkpt>
      <trkpt lat="45.55407" lon="4.59305">
        <ele>472</ele>
        <time>2010-06-17T10:18:33Z</time>
      </trkpt>
      <trkpt lat="45.55401" lon="4.59306">
        <ele>472</ele>
        <time>2010-06-17T10:18:35Z</time>
      </trkpt>
      <trkpt lat="45.55394" lon="4.59308">
        <ele>472</ele>
        <time>2010-06-17T10:18:37Z</time>
      </trkpt>
      <trkpt lat="45.55388" lon="4.59309">
        <ele>472</ele>
        <time>2010-06-17T10:18:39Z</time>
      </trkpt>
      <trkpt lat="45.55381" lon="4.5931">
        <ele>472</ele>
        <time>2010-06-17T10:18:41Z</time>
      </trkpt>
      <trkpt lat="45.55375" lon="4.59311">
        <ele>472</ele>
        <time>2010-06-17T10:18:43Z</time>
      </trkpt>
      <trkpt lat="45.55368" lon="4.59312">
        <ele>472</ele>
        <time>2010-06-17T10:18:45Z</time>
      </trkpt>
      <trkpt lat="45.55362" lon="4.59313">
        <ele>472</ele>
        <time>2010-06-17T10:18:47Z</time>
      </trkpt>
      <trkpt lat="45.55355" lon="4.59313">
        <ele>473</ele>
        <time>2010-06-17T10:18:49Z</time>
      </trkpt>
      <trkpt lat="45.55348" lon="4.59313">
        <ele>473</ele>
        <time>2010-06-17T10:18:51Z</time>
      </trkpt>
      <trkpt lat="45.55342" lon="4.59313">
        <ele>472</ele>
        <time>2010-06-17T10:18:53Z</time>
      </trkpt>
      <trkpt lat="45.55338" lon="4.59313">
        <ele>473</ele>
        <time>2010-06-17T10:18:54Z</time>
      </trkpt>
      <trkpt lat="45.55328" lon="4.59311">
        <ele>474</ele>
        <time>2010-06-17T10:18:57Z</time>
      </trkpt>
      <trkpt lat="45.55322" lon="4.59311">
        <ele>474</ele>
        <time>2010-06-17T10:18:59Z</time>
      </trkpt>
      <trkpt lat="45.55315" lon="4.5931">
        <ele>474</ele>
        <time>2010-06-17T10:19:01Z</time>
      </trkpt>
      <trkpt lat="45.55308" lon="4.59308">
        <ele>475</ele>
        <time>2010-06-17T10:19:03Z</time>
      </trkpt>
      <trkpt lat="45.55302" lon="4.59307">
        <ele>475</ele>
        <time>2010-06-17T10:19:05Z</time>
      </trkpt>
      <trkpt lat="45.55295" lon="4.59306">
        <ele>475</ele>
        <time>2010-06-17T10:19:07Z</time>
      </trkpt>
      <trkpt lat="45.55288" lon="4.59306">
        <ele>475</ele>
        <time>2010-06-17T10:19:09Z</time>
      </trkpt>
      <trkpt lat="45.55281" lon="4.59305">
        <ele>475</ele>
        <time>2010-06-17T10:19:11Z</time>
      </trkpt>
      <trkpt lat="45.55275" lon="4.59303">
        <ele>475</ele>
        <time>2010-06-17T10:19:13Z</time>
      </trkpt>
      <trkpt lat="45.55268" lon="4.59301">
        <ele>475</ele>
        <time>2010-06-17T10:19:15Z</time>
      </trkpt>
      <trkpt lat="45.55262" lon="4.59298">
        <ele>475</ele>
        <time>2010-06-17T10:19:17Z</time>
      </trkpt>
      <trkpt lat="45.55256" lon="4.59295">
        <ele>475</ele>
        <time>2010-06-17T10:19:19Z</time>
      </trkpt>
      <trkpt lat="45.5525" lon="4.59292">
        <ele>476</ele>
        <time>2010-06-17T10:19:21Z</time>
      </trkpt>
      <trkpt lat="45.55245" lon="4.59286">
        <ele>476</ele>
        <time>2010-06-17T10:19:23Z</time>
      </trkpt>
      <trkpt lat="45.55238" lon="4.59283">
        <ele>476</ele>
        <time>2010-06-17T10:19:25Z</time>
      </trkpt>
      <trkpt lat="45.55232" lon="4.59279">
        <ele>476</ele>
        <time>2010-06-17T10:19:27Z</time>
      </trkpt>
      <trkpt lat="45.55226" lon="4.59275">
        <ele>476</ele>
        <time>2010-06-17T10:19:29Z</time>
      </trkpt>
      <trkpt lat="45.55219" lon="4.59271">
        <ele>476</ele>
        <time>2010-06-17T10:19:31Z</time>
      </trkpt>
      <trkpt lat="45.55213" lon="4.59268">
        <ele>476</ele>
        <time>2010-06-17T10:19:33Z</time>
      </trkpt>
      <trkpt lat="45.55206" lon="4.59265">
        <ele>476</ele>
        <time>2010-06-17T10:19:35Z</time>
      </trkpt>
      <trkpt lat="45.55199" lon="4.5926">
        <ele>476</ele>
        <time>2010-06-17T10:19:37Z</time>
      </trkpt>
      <trkpt lat="45.55192" lon="4.59256">
        <ele>476</ele>
        <time>2010-06-17T10:19:39Z</time>
      </trkpt>
      <trkpt lat="45.55185" lon="4.59252">
        <ele>476</ele>
        <time>2010-06-17T10:19:41Z</time>
      </trkpt>
      <trkpt lat="45.55179" lon="4.59246">
        <ele>478</ele>
        <time>2010-06-17T10:19:43Z</time>
      </trkpt>
      <trkpt lat="45.55171" lon="4.59241">
        <ele>478</ele>
        <time>2010-06-17T10:19:45Z</time>
      </trkpt>
      <trkpt lat="45.55163" lon="4.59235">
        <ele>476</ele>
        <time>2010-06-17T10:19:47Z</time>
      </trkpt>
      <trkpt lat="45.55155" lon="4.5923">
        <ele>476</ele>
        <time>2010-06-17T10:19:49Z</time>
      </trkpt>
      <trkpt lat="45.55147" lon="4.59225">
        <ele>476</ele>
        <time>2010-06-17T10:19:51Z</time>
      </trkpt>
      <trkpt lat="45.5514" lon="4.5922">
        <ele>476</ele>
        <time>2010-06-17T10:19:53Z</time>
      </trkpt>
      <trkpt lat="45.55132" lon="4.59214">
        <ele>476</ele>
        <time>2010-06-17T10:19:55Z</time>
      </trkpt>
      <trkpt lat="45.55128" lon="4.59211">
        <ele>476</ele>
        <time>2010-06-17T10:19:56Z</time>
      </trkpt>
      <trkpt lat="45.55117" lon="4.59202">
        <ele>476</ele>
        <time>2010-06-17T10:19:59Z</time>
      </trkpt>
      <trkpt lat="45.5511" lon="4.59195">
        <ele>476</ele>
        <time>2010-06-17T10:20:01Z</time>
      </trkpt>
      <trkpt lat="45.55103" lon="4.59189">
        <ele>476</ele>
        <time>2010-06-17T10:20:03Z</time>
      </trkpt>
      <trkpt lat="45.55096" lon="4.59183">
        <ele>476</ele>
        <time>2010-06-17T10:20:05Z</time>
      </trkpt>
      <trkpt lat="45.55088" lon="4.59179">
        <ele>476</ele>
        <time>2010-06-17T10:20:07Z</time>
      </trkpt>
      <trkpt lat="45.5508" lon="4.59174">
        <ele>475</ele>
        <time>2010-06-17T10:20:09Z</time>
      </trkpt>
      <trkpt lat="45.55076" lon="4.59171">
        <ele>475</ele>
        <time>2010-06-17T10:20:10Z</time>
      </trkpt>
      <trkpt lat="45.55071" lon="4.59168">
        <ele>474</ele>
        <time>2010-06-17T10:20:11Z</time>
      </trkpt>
      <trkpt lat="45.55067" lon="4.59165">
        <ele>477</ele>
        <time>2010-06-17T10:20:12Z</time>
      </trkpt>
      <trkpt lat="45.55062" lon="4.59163">
        <ele>476</ele>
        <time>2010-06-17T10:20:13Z</time>
      </trkpt>
      <trkpt lat="45.55057" lon="4.5916">
        <ele>476</ele>
        <time>2010-06-17T10:20:14Z</time>
      </trkpt>
      <trkpt lat="45.55053" lon="4.59157">
        <ele>476</ele>
        <time>2010-06-17T10:20:15Z</time>
      </trkpt>
      <trkpt lat="45.55049" lon="4.59155">
        <ele>476</ele>
        <time>2010-06-17T10:20:16Z</time>
      </trkpt>
      <trkpt lat="45.55044" lon="4.59152">
        <ele>476</ele>
        <time>2010-06-17T10:20:17Z</time>
      </trkpt>
      <trkpt lat="45.55039" lon="4.5915">
        <ele>476</ele>
        <time>2010-06-17T10:20:18Z</time>
      </trkpt>
      <trkpt lat="45.55035" lon="4.59147">
        <ele>476</ele>
        <time>2010-06-17T10:20:19Z</time>
      </trkpt>
      <trkpt lat="45.5503" lon="4.59144">
        <ele>475</ele>
        <time>2010-06-17T10:20:20Z</time>
      </trkpt>
      <trkpt lat="45.55025" lon="4.59141">
        <ele>475</ele>
        <time>2010-06-17T10:20:21Z</time>
      </trkpt>
      <trkpt lat="45.55021" lon="4.59138">
        <ele>475</ele>
        <time>2010-06-17T10:20:22Z</time>
      </trkpt>
      <trkpt lat="45.55016" lon="4.59135">
        <ele>475</ele>
        <time>2010-06-17T10:20:23Z</time>
      </trkpt>
      <trkpt lat="45.55011" lon="4.59133">
        <ele>475</ele>
        <time>2010-06-17T10:20:24Z</time>
      </trkpt>
      <trkpt lat="45.55006" lon="4.5913">
        <ele>475</ele>
        <time>2010-06-17T10:20:25Z</time>
      </trkpt>
      <trkpt lat="45.55001" lon="4.59128">
        <ele>475</ele>
        <time>2010-06-17T10:20:26Z</time>
      </trkpt>
      <trkpt lat="45.54996" lon="4.59125">
        <ele>473</ele>
        <time>2010-06-17T10:20:27Z</time>
      </trkpt>
      <trkpt lat="45.54991" lon="4.59123">
        <ele>473</ele>
        <time>2010-06-17T10:20:28Z</time>
      </trkpt>
      <trkpt lat="45.54986" lon="4.59122">
        <ele>473</ele>
        <time>2010-06-17T10:20:29Z</time>
      </trkpt>
      <trkpt lat="45.54981" lon="4.59121">
        <ele>473</ele>
        <time>2010-06-17T10:20:30Z</time>
      </trkpt>
      <trkpt lat="45.54975" lon="4.5912">
        <ele>473</ele>
        <time>2010-06-17T10:20:31Z</time>
      </trkpt>
      <trkpt lat="45.5497" lon="4.59119">
        <ele>473</ele>
        <time>2010-06-17T10:20:32Z</time>
      </trkpt>
      <trkpt lat="45.54964" lon="4.59118">
        <ele>473</ele>
        <time>2010-06-17T10:20:33Z</time>
      </trkpt>
      <trkpt lat="45.54959" lon="4.59116">
        <ele>473</ele>
        <time>2010-06-17T10:20:34Z</time>
      </trkpt>
      <trkpt lat="45.54954" lon="4.59115">
        <ele>472</ele>
        <time>2010-06-17T10:20:35Z</time>
      </trkpt>
      <trkpt lat="45.54948" lon="4.59114">
        <ele>472</ele>
        <time>2010-06-17T10:20:36Z</time>
      </trkpt>
      <trkpt lat="45.54943" lon="4.59113">
        <ele>472</ele>
        <time>2010-06-17T10:20:37Z</time>
      </trkpt>
      <trkpt lat="45.54938" lon="4.59113">
        <ele>472</ele>
        <time>2010-06-17T10:20:38Z</time>
      </trkpt>
      <trkpt lat="45.54933" lon="4.59112">
        <ele>472</ele>
        <time>2010-06-17T10:20:39Z</time>
      </trkpt>
      <trkpt lat="45.54928" lon="4.59109">
        <ele>472</ele>
        <time>2010-06-17T10:20:40Z</time>
      </trkpt>
      <trkpt lat="45.54923" lon="4.59107">
        <ele>472</ele>
        <time>2010-06-17T10:20:41Z</time>
      </trkpt>
      <trkpt lat="45.54919" lon="4.59105">
        <ele>472</ele>
        <time>2010-06-17T10:20:42Z</time>
      </trkpt>
      <trkpt lat="45.54915" lon="4.59103">
        <ele>471</ele>
        <time>2010-06-17T10:20:43Z</time>
      </trkpt>
      <trkpt lat="45.5491" lon="4.59101">
        <ele>471</ele>
        <time>2010-06-17T10:20:44Z</time>
      </trkpt>
      <trkpt lat="45.54902" lon="4.59098">
        <ele>471</ele>
        <time>2010-06-17T10:20:46Z</time>
      </trkpt>
      <trkpt lat="45.54894" lon="4.59095">
        <ele>471</ele>
        <time>2010-06-17T10:20:48Z</time>
      </trkpt>
      <trkpt lat="45.54886" lon="4.59091">
        <ele>471</ele>
        <time>2010-06-17T10:20:50Z</time>
      </trkpt>
      <trkpt lat="45.54878" lon="4.59087">
        <ele>471</ele>
        <time>2010-06-17T10:20:52Z</time>
      </trkpt>
      <trkpt lat="45.5487" lon="4.59085">
        <ele>471</ele>
        <time>2010-06-17T10:20:54Z</time>
      </trkpt>
      <trkpt lat="45.54862" lon="4.59083">
        <ele>474</ele>
        <time>2010-06-17T10:20:56Z</time>
      </trkpt>
      <trkpt lat="45.54858" lon="4.59082">
        <ele>473</ele>
        <time>2010-06-17T10:20:57Z</time>
      </trkpt>
      <trkpt lat="45.54846" lon="4.59081">
        <ele>473</ele>
        <time>2010-06-17T10:21:00Z</time>
      </trkpt>
      <trkpt lat="45.5484" lon="4.59077">
        <ele>473</ele>
        <time>2010-06-17T10:21:02Z</time>
      </trkpt>
      <trkpt lat="45.54833" lon="4.59075">
        <ele>472</ele>
        <time>2010-06-17T10:21:04Z</time>
      </trkpt>
      <trkpt lat="45.54826" lon="4.59073">
        <ele>472</ele>
        <time>2010-06-17T10:21:06Z</time>
      </trkpt>
      <trkpt lat="45.54818" lon="4.59068">
        <ele>472</ele>
        <time>2010-06-17T10:21:08Z</time>
      </trkpt>
      <trkpt lat="45.54812" lon="4.59063">
        <ele>471</ele>
        <time>2010-06-17T10:21:10Z</time>
      </trkpt>
      <trkpt lat="45.54806" lon="4.59055">
        <ele>471</ele>
        <time>2010-06-17T10:21:12Z</time>
      </trkpt>
      <trkpt lat="45.54804" lon="4.59049">
        <ele>471</ele>
        <time>2010-06-17T10:21:13Z</time>
      </trkpt>
      <trkpt lat="45.54801" lon="4.59043">
        <ele>471</ele>
        <time>2010-06-17T10:21:14Z</time>
      </trkpt>
      <trkpt lat="45.54799" lon="4.59037">
        <ele>472</ele>
        <time>2010-06-17T10:21:15Z</time>
      </trkpt>
      <trkpt lat="45.54796" lon="4.59025">
        <ele>472</ele>
        <time>2010-06-17T10:21:17Z</time>
      </trkpt>
      <trkpt lat="45.54794" lon="4.59018">
        <ele>472</ele>
        <time>2010-06-17T10:21:18Z</time>
      </trkpt>
      <trkpt lat="45.54793" lon="4.59011">
        <ele>472</ele>
        <time>2010-06-17T10:21:19Z</time>
      </trkpt>
      <trkpt lat="45.54792" lon="4.59003">
        <ele>472</ele>
        <time>2010-06-17T10:21:20Z</time>
      </trkpt>
      <trkpt lat="45.54791" lon="4.58993">
        <ele>473</ele>
        <time>2010-06-17T10:21:21Z</time>
      </trkpt>
      <trkpt lat="45.54791" lon="4.58985">
        <ele>473</ele>
        <time>2010-06-17T10:21:22Z</time>
      </trkpt>
      <trkpt lat="45.54792" lon="4.58977">
        <ele>473</ele>
        <time>2010-06-17T10:21:23Z</time>
      </trkpt>
      <trkpt lat="45.54792" lon="4.58969">
        <ele>473</ele>
        <time>2010-06-17T10:21:24Z</time>
      </trkpt>
      <trkpt lat="45.54793" lon="4.58961">
        <ele>473</ele>
        <time>2010-06-17T10:21:25Z</time>
      </trkpt>
      <trkpt lat="45.54795" lon="4.58952">
        <ele>473</ele>
        <time>2010-06-17T10:21:26Z</time>
      </trkpt>
      <trkpt lat="45.54797" lon="4.58945">
        <ele>473</ele>
        <time>2010-06-17T10:21:27Z</time>
      </trkpt>
      <trkpt lat="45.548" lon="4.58938">
        <ele>473</ele>
        <time>2010-06-17T10:21:28Z</time>
      </trkpt>
      <trkpt lat="45.54802" lon="4.58931">
        <ele>473</ele>
        <time>2010-06-17T10:21:29Z</time>
      </trkpt>
      <trkpt lat="45.54804" lon="4.58924">
        <ele>473</ele>
        <time>2010-06-17T10:21:30Z</time>
      </trkpt>
      <trkpt lat="45.54807" lon="4.58918">
        <ele>473</ele>
        <time>2010-06-17T10:21:31Z</time>
      </trkpt>
      <trkpt lat="45.54811" lon="4.58912">
        <ele>471</ele>
        <time>2010-06-17T10:21:32Z</time>
      </trkpt>
      <trkpt lat="45.54814" lon="4.58907">
        <ele>471</ele>
        <time>2010-06-17T10:21:33Z</time>
      </trkpt>
      <trkpt lat="45.54818" lon="4.58903">
        <ele>471</ele>
        <time>2010-06-17T10:21:34Z</time>
      </trkpt>
      <trkpt lat="45.54823" lon="4.58899">
        <ele>471</ele>
        <time>2010-06-17T10:21:35Z</time>
      </trkpt>
      <trkpt lat="45.54827" lon="4.58895">
        <ele>471</ele>
        <time>2010-06-17T10:21:36Z</time>
      </trkpt>
      <trkpt lat="45.54832" lon="4.58892">
        <ele>471</ele>
        <time>2010-06-17T10:21:37Z</time>
      </trkpt>
      <trkpt lat="45.54836" lon="4.58889">
        <ele>473</ele>
        <time>2010-06-17T10:21:38Z</time>
      </trkpt>
      <trkpt lat="45.54841" lon="4.58887">
        <ele>473</ele>
        <time>2010-06-17T10:21:39Z</time>
      </trkpt>
      <trkpt lat="45.54846" lon="4.58884">
        <ele>473</ele>
        <time>2010-06-17T10:21:40Z</time>
      </trkpt>
      <trkpt lat="45.54851" lon="4.58882">
        <ele>473</ele>
        <time>2010-06-17T10:21:41Z</time>
      </trkpt>
      <trkpt lat="45.54856" lon="4.58879">
        <ele>473</ele>
        <time>2010-06-17T10:21:42Z</time>
      </trkpt>
      <trkpt lat="45.5486" lon="4.58877">
        <ele>473</ele>
        <time>2010-06-17T10:21:43Z</time>
      </trkpt>
      <trkpt lat="45.54865" lon="4.58874">
        <ele>474</ele>
        <time>2010-06-17T10:21:44Z</time>
      </trkpt>
      <trkpt lat="45.5487" lon="4.58872">
        <ele>474</ele>
        <time>2010-06-17T10:21:45Z</time>
      </trkpt>
      <trkpt lat="45.54875" lon="4.58871">
        <ele>474</ele>
        <time>2010-06-17T10:21:46Z</time>
      </trkpt>
      <trkpt lat="45.5488" lon="4.58869">
        <ele>474</ele>
        <time>2010-06-17T10:21:47Z</time>
      </trkpt>
      <trkpt lat="45.54884" lon="4.58866">
        <ele>474</ele>
        <time>2010-06-17T10:21:48Z</time>
      </trkpt>
      <trkpt lat="45.54889" lon="4.58864">
        <ele>474</ele>
        <time>2010-06-17T10:21:49Z</time>
      </trkpt>
      <trkpt lat="45.54894" lon="4.58862">
        <ele>474</ele>
        <time>2010-06-17T10:21:50Z</time>
      </trkpt>
      <trkpt lat="45.54899" lon="4.5886">
        <ele>474</ele>
        <time>2010-06-17T10:21:51Z</time>
      </trkpt>
      <trkpt lat="45.54903" lon="4.58858">
        <ele>475</ele>
        <time>2010-06-17T10:21:52Z</time>
      </trkpt>
      <trkpt lat="45.54908" lon="4.58855">
        <ele>475</ele>
        <time>2010-06-17T10:21:53Z</time>
      </trkpt>
      <trkpt lat="45.54913" lon="4.58853">
        <ele>475</ele>
        <time>2010-06-17T10:21:54Z</time>
      </trkpt>
      <trkpt lat="45.54917" lon="4.58851">
        <ele>476</ele>
        <time>2010-06-17T10:21:55Z</time>
      </trkpt>
      <trkpt lat="45.54922" lon="4.58849">
        <ele>476</ele>
        <time>2010-06-17T10:21:56Z</time>
      </trkpt>
      <trkpt lat="45.54926" lon="4.58847">
        <ele>476</ele>
        <time>2010-06-17T10:21:57Z</time>
      </trkpt>
      <trkpt lat="45.54931" lon="4.58845">
        <ele>476</ele>
        <time>2010-06-17T10:21:58Z</time>
      </trkpt>
      <trkpt lat="45.54935" lon="4.58843">
        <ele>476</ele>
        <time>2010-06-17T10:21:59Z</time>
      </trkpt>
      <trkpt lat="45.5494" lon="4.5884">
        <ele>476</ele>
        <time>2010-06-17T10:22:00Z</time>
      </trkpt>
      <trkpt lat="45.54944" lon="4.58838">
        <ele>476</ele>
        <time>2010-06-17T10:22:01Z</time>
      </trkpt>
      <trkpt lat="45.54949" lon="4.58836">
        <ele>477</ele>
        <time>2010-06-17T10:22:02Z</time>
      </trkpt>
      <trkpt lat="45.54953" lon="4.58834">
        <ele>477</ele>
        <time>2010-06-17T10:22:03Z</time>
      </trkpt>
      <trkpt lat="45.54958" lon="4.58832">
        <ele>472</ele>
        <time>2010-06-17T10:22:04Z</time>
      </trkpt>
      <trkpt lat="45.54963" lon="4.5883">
        <ele>472</ele>
        <time>2010-06-17T10:22:05Z</time>
      </trkpt>
      <trkpt lat="45.54967" lon="4.58829">
        <ele>472</ele>
        <time>2010-06-17T10:22:06Z</time>
      </trkpt>
      <trkpt lat="45.54972" lon="4.58827">
        <ele>472</ele>
        <time>2010-06-17T10:22:07Z</time>
      </trkpt>
      <trkpt lat="45.54977" lon="4.58826">
        <ele>472</ele>
        <time>2010-06-17T10:22:08Z</time>
      </trkpt>
      <trkpt lat="45.54982" lon="4.58825">
        <ele>473</ele>
        <time>2010-06-17T10:22:09Z</time>
      </trkpt>
      <trkpt lat="45.54986" lon="4.58824">
        <ele>473</ele>
        <time>2010-06-17T10:22:10Z</time>
      </trkpt>
      <trkpt lat="45.54991" lon="4.58822">
        <ele>473</ele>
        <time>2010-06-17T10:22:11Z</time>
      </trkpt>
      <trkpt lat="45.54996" lon="4.58821">
        <ele>473</ele>
        <time>2010-06-17T10:22:12Z</time>
      </trkpt>
      <trkpt lat="45.55001" lon="4.58821">
        <ele>473</ele>
        <time>2010-06-17T10:22:13Z</time>
      </trkpt>
      <trkpt lat="45.55006" lon="4.5882">
        <ele>473</ele>
        <time>2010-06-17T10:22:14Z</time>
      </trkpt>
      <trkpt lat="45.55012" lon="4.5882">
        <ele>473</ele>
        <time>2010-06-17T10:22:15Z</time>
      </trkpt>
      <trkpt lat="45.55017" lon="4.5882">
        <ele>472</ele>
        <time>2010-06-17T10:22:16Z</time>
      </trkpt>
      <trkpt lat="45.55022" lon="4.5882">
        <ele>472</ele>
        <time>2010-06-17T10:22:17Z</time>
      </trkpt>
      <trkpt lat="45.55028" lon="4.58819">
        <ele>472</ele>
        <time>2010-06-17T10:22:18Z</time>
      </trkpt>
      <trkpt lat="45.55033" lon="4.58819">
        <ele>472</ele>
        <time>2010-06-17T10:22:19Z</time>
      </trkpt>
      <trkpt lat="45.55039" lon="4.58818">
        <ele>471</ele>
        <time>2010-06-17T10:22:20Z</time>
      </trkpt>
      <trkpt lat="45.55044" lon="4.58818">
        <ele>471</ele>
        <time>2010-06-17T10:22:21Z</time>
      </trkpt>
      <trkpt lat="45.5505" lon="4.58819">
        <ele>471</ele>
        <time>2010-06-17T10:22:22Z</time>
      </trkpt>
      <trkpt lat="45.55055" lon="4.5882">
        <ele>472</ele>
        <time>2010-06-17T10:22:23Z</time>
      </trkpt>
      <trkpt lat="45.5506" lon="4.5882">
        <ele>472</ele>
        <time>2010-06-17T10:22:24Z</time>
      </trkpt>
      <trkpt lat="45.55066" lon="4.5882">
        <ele>472</ele>
        <time>2010-06-17T10:22:25Z</time>
      </trkpt>
      <trkpt lat="45.55071" lon="4.58819">
        <ele>472</ele>
        <time>2010-06-17T10:22:26Z</time>
      </trkpt>
      <trkpt lat="45.55076" lon="4.58818">
        <ele>472</ele>
        <time>2010-06-17T10:22:27Z</time>
      </trkpt>
      <trkpt lat="45.55082" lon="4.58818">
        <ele>472</ele>
        <time>2010-06-17T10:22:28Z</time>
      </trkpt>
      <trkpt lat="45.55087" lon="4.58818">
        <ele>472</ele>
        <time>2010-06-17T10:22:29Z</time>
      </trkpt>
      <trkpt lat="45.55093" lon="4.58818">
        <ele>472</ele>
        <time>2010-06-17T10:22:30Z</time>
      </trkpt>
      <trkpt lat="45.55099" lon="4.58818">
        <ele>472</ele>
        <time>2010-06-17T10:22:31Z</time>
      </trkpt>
      <trkpt lat="45.55104" lon="4.58819">
        <ele>472</ele>
        <time>2010-06-17T10:22:32Z</time>
      </trkpt>
      <trkpt lat="45.5511" lon="4.58819">
        <ele>472</ele>
        <time>2010-06-17T10:22:33Z</time>
      </trkpt>
      <trkpt lat="45.55115" lon="4.58819">
        <ele>471</ele>
        <time>2010-06-17T10:22:34Z</time>
      </trkpt>
      <trkpt lat="45.55121" lon="4.58819">
        <ele>471</ele>
        <time>2010-06-17T10:22:35Z</time>
      </trkpt>
      <trkpt lat="45.55126" lon="4.58818">
        <ele>471</ele>
        <time>2010-06-17T10:22:36Z</time>
      </trkpt>
      <trkpt lat="45.55131" lon="4.58817">
        <ele>471</ele>
        <time>2010-06-17T10:22:37Z</time>
      </trkpt>
      <trkpt lat="45.55137" lon="4.58817">
        <ele>471</ele>
        <time>2010-06-17T10:22:38Z</time>
      </trkpt>
      <trkpt lat="45.55142" lon="4.58817">
        <ele>472</ele>
        <time>2010-06-17T10:22:39Z</time>
      </trkpt>
      <trkpt lat="45.55147" lon="4.58817">
        <ele>472</ele>
        <time>2010-06-17T10:22:40Z</time>
      </trkpt>
      <trkpt lat="45.55152" lon="4.58815">
        <ele>472</ele>
        <time>2010-06-17T10:22:41Z</time>
      </trkpt>
      <trkpt lat="45.55157" lon="4.58814">
        <ele>472</ele>
        <time>2010-06-17T10:22:42Z</time>
      </trkpt>
      <trkpt lat="45.55162" lon="4.58813">
        <ele>472</ele>
        <time>2010-06-17T10:22:43Z</time>
      </trkpt>
      <trkpt lat="45.55166" lon="4.5881">
        <ele>472</ele>
        <time>2010-06-17T10:22:44Z</time>
      </trkpt>
      <trkpt lat="45.55171" lon="4.58807">
        <ele>474</ele>
        <time>2010-06-17T10:22:45Z</time>
      </trkpt>
      <trkpt lat="45.55176" lon="4.58803">
        <ele>474</ele>
        <time>2010-06-17T10:22:46Z</time>
      </trkpt>
      <trkpt lat="45.55181" lon="4.588">
        <ele>474</ele>
        <time>2010-06-17T10:22:47Z</time>
      </trkpt>
      <trkpt lat="45.55186" lon="4.58796">
        <ele>474</ele>
        <time>2010-06-17T10:22:48Z</time>
      </trkpt>
      <trkpt lat="45.55191" lon="4.58792">
        <ele>474</ele>
        <time>2010-06-17T10:22:49Z</time>
      </trkpt>
      <trkpt lat="45.55195" lon="4.58787">
        <ele>474</ele>
        <time>2010-06-17T10:22:50Z</time>
      </trkpt>
      <trkpt lat="45.55199" lon="4.58781">
        <ele>474</ele>
        <time>2010-06-17T10:22:51Z</time>
      </trkpt>
      <trkpt lat="45.55203" lon="4.58776">
        <ele>474</ele>
        <time>2010-06-17T10:22:52Z</time>
      </trkpt>
      <trkpt lat="45.55206" lon="4.5877">
        <ele>474</ele>
        <time>2010-06-17T10:22:53Z</time>
      </trkpt>
      <trkpt lat="45.55208" lon="4.58764">
        <ele>474</ele>
        <time>2010-06-17T10:22:54Z</time>
      </trkpt>
      <trkpt lat="45.55211" lon="4.58759">
        <ele>474</ele>
        <time>2010-06-17T10:22:55Z</time>
      </trkpt>
      <trkpt lat="45.55214" lon="4.58753">
        <ele>474</ele>
        <time>2010-06-17T10:22:56Z</time>
      </trkpt>
      <trkpt lat="45.55216" lon="4.58747">
        <ele>470</ele>
        <time>2010-06-17T10:22:57Z</time>
      </trkpt>
      <trkpt lat="45.55218" lon="4.5874">
        <ele>470</ele>
        <time>2010-06-17T10:22:58Z</time>
      </trkpt>
      <trkpt lat="45.5522" lon="4.58733">
        <ele>470</ele>
        <time>2010-06-17T10:22:59Z</time>
      </trkpt>
      <trkpt lat="45.55222" lon="4.58725">
        <ele>470</ele>
        <time>2010-06-17T10:23:00Z</time>
      </trkpt>
      <trkpt lat="45.55223" lon="4.58717">
        <ele>470</ele>
        <time>2010-06-17T10:23:01Z</time>
      </trkpt>
      <trkpt lat="45.55225" lon="4.58709">
        <ele>470</ele>
        <time>2010-06-17T10:23:02Z</time>
      </trkpt>
      <trkpt lat="45.55227" lon="4.58701">
        <ele>470</ele>
        <time>2010-06-17T10:23:03Z</time>
      </trkpt>
      <trkpt lat="45.55229" lon="4.58693">
        <ele>469</ele>
        <time>2010-06-17T10:23:04Z</time>
      </trkpt>
      <trkpt lat="45.5523" lon="4.58685">
        <ele>469</ele>
        <time>2010-06-17T10:23:05Z</time>
      </trkpt>
      <trkpt lat="45.55232" lon="4.58677">
        <ele>470</ele>
        <time>2010-06-17T10:23:06Z</time>
      </trkpt>
      <trkpt lat="45.55234" lon="4.5867">
        <ele>470</ele>
        <time>2010-06-17T10:23:07Z</time>
      </trkpt>
      <trkpt lat="45.55236" lon="4.58663">
        <ele>468</ele>
        <time>2010-06-17T10:23:08Z</time>
      </trkpt>
      <trkpt lat="45.55237" lon="4.58655">
        <ele>468</ele>
        <time>2010-06-17T10:23:09Z</time>
      </trkpt>
      <trkpt lat="45.55239" lon="4.58648">
        <ele>468</ele>
        <time>2010-06-17T10:23:10Z</time>
      </trkpt>
      <trkpt lat="45.5524" lon="4.58641">
        <ele>467</ele>
        <time>2010-06-17T10:23:11Z</time>
      </trkpt>
      <trkpt lat="45.55241" lon="4.58633">
        <ele>467</ele>
        <time>2010-06-17T10:23:12Z</time>
      </trkpt>
      <trkpt lat="45.55241" lon="4.58626">
        <ele>467</ele>
        <time>2010-06-17T10:23:13Z</time>
      </trkpt>
      <trkpt lat="45.55242" lon="4.58619">
        <ele>467</ele>
        <time>2010-06-17T10:23:14Z</time>
      </trkpt>
      <trkpt lat="45.55242" lon="4.58611">
        <ele>467</ele>
        <time>2010-06-17T10:23:15Z</time>
      </trkpt>
      <trkpt lat="45.55241" lon="4.58604">
        <ele>467</ele>
        <time>2010-06-17T10:23:16Z</time>
      </trkpt>
      <trkpt lat="45.55241" lon="4.58597">
        <ele>468</ele>
        <time>2010-06-17T10:23:17Z</time>
      </trkpt>
      <trkpt lat="45.5524" lon="4.5859">
        <ele>468</ele>
        <time>2010-06-17T10:23:18Z</time>
      </trkpt>
      <trkpt lat="45.55238" lon="4.58582">
        <ele>469</ele>
        <time>2010-06-17T10:23:19Z</time>
      </trkpt>
      <trkpt lat="45.55237" lon="4.58574">
        <ele>469</ele>
        <time>2010-06-17T10:23:20Z</time>
      </trkpt>
      <trkpt lat="45.55235" lon="4.58567">
        <ele>469</ele>
        <time>2010-06-17T10:23:21Z</time>
      </trkpt>
      <trkpt lat="45.55233" lon="4.58559">
        <ele>469</ele>
        <time>2010-06-17T10:23:22Z</time>
      </trkpt>
      <trkpt lat="45.5523" lon="4.58551">
        <ele>469</ele>
        <time>2010-06-17T10:23:23Z</time>
      </trkpt>
      <trkpt lat="45.55227" lon="4.58544">
        <ele>469</ele>
        <time>2010-06-17T10:23:24Z</time>
      </trkpt>
      <trkpt lat="45.55224" lon="4.58537">
        <ele>469</ele>
        <time>2010-06-17T10:23:25Z</time>
      </trkpt>
      <trkpt lat="45.5522" lon="4.58531">
        <ele>469</ele>
        <time>2010-06-17T10:23:26Z</time>
      </trkpt>
      <trkpt lat="45.55215" lon="4.58525">
        <ele>469</ele>
        <time>2010-06-17T10:23:27Z</time>
      </trkpt>
      <trkpt lat="45.55211" lon="4.58519">
        <ele>469</ele>
        <time>2010-06-17T10:23:28Z</time>
      </trkpt>
      <trkpt lat="45.55207" lon="4.58514">
        <ele>468</ele>
        <time>2010-06-17T10:23:29Z</time>
      </trkpt>
      <trkpt lat="45.55202" lon="4.58509">
        <ele>468</ele>
        <time>2010-06-17T10:23:30Z</time>
      </trkpt>
      <trkpt lat="45.55197" lon="4.58504">
        <ele>467</ele>
        <time>2010-06-17T10:23:31Z</time>
      </trkpt>
      <trkpt lat="45.55192" lon="4.585">
        <ele>471</ele>
        <time>2010-06-17T10:23:32Z</time>
      </trkpt>
      <trkpt lat="45.55186" lon="4.58496">
        <ele>471</ele>
        <time>2010-06-17T10:23:33Z</time>
      </trkpt>
      <trkpt lat="45.55181" lon="4.58493">
        <ele>470</ele>
        <time>2010-06-17T10:23:34Z</time>
      </trkpt>
      <trkpt lat="45.55175" lon="4.5849">
        <ele>469</ele>
        <time>2010-06-17T10:23:35Z</time>
      </trkpt>
      <trkpt lat="45.55169" lon="4.58487">
        <ele>469</ele>
        <time>2010-06-17T10:23:36Z</time>
      </trkpt>
      <trkpt lat="45.55163" lon="4.58485">
        <ele>464</ele>
        <time>2010-06-17T10:23:37Z</time>
      </trkpt>
      <trkpt lat="45.55158" lon="4.58483">
        <ele>464</ele>
        <time>2010-06-17T10:23:38Z</time>
      </trkpt>
      <trkpt lat="45.55152" lon="4.5848">
        <ele>464</ele>
        <time>2010-06-17T10:23:39Z</time>
      </trkpt>
      <trkpt lat="45.55147" lon="4.58477">
        <ele>463</ele>
        <time>2010-06-17T10:23:40Z</time>
      </trkpt>
      <trkpt lat="45.55142" lon="4.58473">
        <ele>463</ele>
        <time>2010-06-17T10:23:41Z</time>
      </trkpt>
      <trkpt lat="45.55137" lon="4.5847">
        <ele>463</ele>
        <time>2010-06-17T10:23:42Z</time>
      </trkpt>
      <trkpt lat="45.55131" lon="4.58467">
        <ele>463</ele>
        <time>2010-06-17T10:23:43Z</time>
      </trkpt>
      <trkpt lat="45.55126" lon="4.58464">
        <ele>463</ele>
        <time>2010-06-17T10:23:44Z</time>
      </trkpt>
      <trkpt lat="45.55121" lon="4.5846">
        <ele>463</ele>
        <time>2010-06-17T10:23:45Z</time>
      </trkpt>
      <trkpt lat="45.55117" lon="4.58455">
        <ele>463</ele>
        <time>2010-06-17T10:23:46Z</time>
      </trkpt>
      <trkpt lat="45.55112" lon="4.5845">
        <ele>463</ele>
        <time>2010-06-17T10:23:47Z</time>
      </trkpt>
      <trkpt lat="45.55108" lon="4.58445">
        <ele>463</ele>
        <time>2010-06-17T10:23:48Z</time>
      </trkpt>
      <trkpt lat="45.55104" lon="4.5844">
        <ele>463</ele>
        <time>2010-06-17T10:23:49Z</time>
      </trkpt>
      <trkpt lat="45.551" lon="4.58434">
        <ele>463</ele>
        <time>2010-06-17T10:23:50Z</time>
      </trkpt>
      <trkpt lat="45.55096" lon="4.58428">
        <ele>463</ele>
        <time>2010-06-17T10:23:51Z</time>
      </trkpt>
      <trkpt lat="45.55093" lon="4.58422">
        <ele>462</ele>
        <time>2010-06-17T10:23:52Z</time>
      </trkpt>
      <trkpt lat="45.55089" lon="4.58416">
        <ele>464</ele>
        <time>2010-06-17T10:23:53Z</time>
      </trkpt>
      <trkpt lat="45.55087" lon="4.58409">
        <ele>464</ele>
        <time>2010-06-17T10:23:54Z</time>
      </trkpt>
      <trkpt lat="45.55084" lon="4.58403">
        <ele>465</ele>
        <time>2010-06-17T10:23:55Z</time>
      </trkpt>
      <trkpt lat="45.55082" lon="4.58396">
        <ele>457</ele>
        <time>2010-06-17T10:23:56Z</time>
      </trkpt>
      <trkpt lat="45.5508" lon="4.58389">
        <ele>457</ele>
        <time>2010-06-17T10:23:57Z</time>
      </trkpt>
      <trkpt lat="45.55078" lon="4.58382">
        <ele>456</ele>
        <time>2010-06-17T10:23:58Z</time>
      </trkpt>
      <trkpt lat="45.55076" lon="4.58374">
        <ele>456</ele>
        <time>2010-06-17T10:23:59Z</time>
      </trkpt>
      <trkpt lat="45.55075" lon="4.58367">
        <ele>456</ele>
        <time>2010-06-17T10:24:00Z</time>
      </trkpt>
      <trkpt lat="45.55075" lon="4.5836">
        <ele>457</ele>
        <time>2010-06-17T10:24:01Z</time>
      </trkpt>
      <trkpt lat="45.55074" lon="4.58352">
        <ele>457</ele>
        <time>2010-06-17T10:24:02Z</time>
      </trkpt>
      <trkpt lat="45.55074" lon="4.58345">
        <ele>458</ele>
        <time>2010-06-17T10:24:03Z</time>
      </trkpt>
      <trkpt lat="45.55074" lon="4.58338">
        <ele>460</ele>
        <time>2010-06-17T10:24:04Z</time>
      </trkpt>
      <trkpt lat="45.55075" lon="4.5833">
        <ele>460</ele>
        <time>2010-06-17T10:24:05Z</time>
      </trkpt>
      <trkpt lat="45.55077" lon="4.58323">
        <ele>459</ele>
        <time>2010-06-17T10:24:06Z</time>
      </trkpt>
      <trkpt lat="45.55078" lon="4.58316">
        <ele>458</ele>
        <time>2010-06-17T10:24:07Z</time>
      </trkpt>
      <trkpt lat="45.55079" lon="4.58309">
        <ele>457</ele>
        <time>2010-06-17T10:24:08Z</time>
      </trkpt>
      <trkpt lat="45.55081" lon="4.58303">
        <ele>456</ele>
        <time>2010-06-17T10:24:09Z</time>
      </trkpt>
      <trkpt lat="45.55083" lon="4.58296">
        <ele>456</ele>
        <time>2010-06-17T10:24:10Z</time>
      </trkpt>
      <trkpt lat="45.55086" lon="4.5829">
        <ele>464</ele>
        <time>2010-06-17T10:24:11Z</time>
      </trkpt>
      <trkpt lat="45.55091" lon="4.5828">
        <ele>464</ele>
        <time>2010-06-17T10:24:13Z</time>
      </trkpt>
      <trkpt lat="45.55094" lon="4.5827">
        <ele>463</ele>
        <time>2010-06-17T10:24:15Z</time>
      </trkpt>
      <trkpt lat="45.55098" lon="4.5826">
        <ele>462</ele>
        <time>2010-06-17T10:24:17Z</time>
      </trkpt>
      <trkpt lat="45.55103" lon="4.58252">
        <ele>463</ele>
        <time>2010-06-17T10:24:19Z</time>
      </trkpt>
      <trkpt lat="45.55109" lon="4.58246">
        <ele>460</ele>
        <time>2010-06-17T10:24:21Z</time>
      </trkpt>
      <trkpt lat="45.55115" lon="4.5824">
        <ele>460</ele>
        <time>2010-06-17T10:24:23Z</time>
      </trkpt>
      <trkpt lat="45.55121" lon="4.58236">
        <ele>460</ele>
        <time>2010-06-17T10:24:25Z</time>
      </trkpt>
      <trkpt lat="45.55127" lon="4.58233">
        <ele>461</ele>
        <time>2010-06-17T10:24:27Z</time>
      </trkpt>
      <trkpt lat="45.55135" lon="4.58227">
        <ele>461</ele>
        <time>2010-06-17T10:24:30Z</time>
      </trkpt>
      <trkpt lat="45.55143" lon="4.58224">
        <ele>462</ele>
        <time>2010-06-17T10:24:33Z</time>
      </trkpt>
      <trkpt lat="45.55151" lon="4.5822">
        <ele>462</ele>
        <time>2010-06-17T10:24:36Z</time>
      </trkpt>
      <trkpt lat="45.55158" lon="4.58219">
        <ele>462</ele>
        <time>2010-06-17T10:24:38Z</time>
      </trkpt>
      <trkpt lat="45.55165" lon="4.58217">
        <ele>462</ele>
        <time>2010-06-17T10:24:40Z</time>
      </trkpt>
      <trkpt lat="45.55172" lon="4.58214">
        <ele>469</ele>
        <time>2010-06-17T10:24:42Z</time>
      </trkpt>
      <trkpt lat="45.55178" lon="4.5821">
        <ele>469</ele>
        <time>2010-06-17T10:24:44Z</time>
      </trkpt>
      <trkpt lat="45.55184" lon="4.58207">
        <ele>469</ele>
        <time>2010-06-17T10:24:46Z</time>
      </trkpt>
      <trkpt lat="45.55191" lon="4.58202">
        <ele>469</ele>
        <time>2010-06-17T10:24:49Z</time>
      </trkpt>
      <trkpt lat="45.55193" lon="4.58191">
        <ele>468</ele>
        <time>2010-06-17T10:25:11Z</time>
      </trkpt>
      <trkpt lat="45.55194" lon="4.58189">
        <ele>468</ele>
        <time>2010-06-17T10:25:12Z</time>
      </trkpt>
      <trkpt lat="45.55201" lon="4.58175">
        <ele>468</ele>
        <time>2010-06-17T10:25:18Z</time>
      </trkpt>
      <trkpt lat="45.55205" lon="4.58164">
        <ele>466</ele>
        <time>2010-06-17T10:25:21Z</time>
      </trkpt>
      <trkpt lat="45.55208" lon="4.58156">
        <ele>466</ele>
        <time>2010-06-17T10:25:23Z</time>
      </trkpt>
      <trkpt lat="45.55211" lon="4.58148">
        <ele>466</ele>
        <time>2010-06-17T10:25:25Z</time>
      </trkpt>
      <trkpt lat="45.55212" lon="4.5814">
        <ele>466</ele>
        <time>2010-06-17T10:25:27Z</time>
      </trkpt>
      <trkpt lat="45.55213" lon="4.58131">
        <ele>466</ele>
        <time>2010-06-17T10:25:29Z</time>
      </trkpt>
      <trkpt lat="45.55213" lon="4.58121">
        <ele>466</ele>
        <time>2010-06-17T10:25:31Z</time>
      </trkpt>
      <trkpt lat="45.55213" lon="4.58112">
        <ele>466</ele>
        <time>2010-06-17T10:25:33Z</time>
      </trkpt>
      <trkpt lat="45.55213" lon="4.58103">
        <ele>466</ele>
        <time>2010-06-17T10:25:35Z</time>
      </trkpt>
      <trkpt lat="45.55211" lon="4.58094">
        <ele>466</ele>
        <time>2010-06-17T10:25:37Z</time>
      </trkpt>
      <trkpt lat="45.55209" lon="4.58085">
        <ele>466</ele>
        <time>2010-06-17T10:25:39Z</time>
      </trkpt>
      <trkpt lat="45.55206" lon="4.58078">
        <ele>469</ele>
        <time>2010-06-17T10:25:41Z</time>
      </trkpt>
      <trkpt lat="45.55203" lon="4.58069">
        <ele>469</ele>
        <time>2010-06-17T10:25:43Z</time>
      </trkpt>
      <trkpt lat="45.55198" lon="4.58062">
        <ele>469</ele>
        <time>2010-06-17T10:25:45Z</time>
      </trkpt>
      <trkpt lat="45.55192" lon="4.58054">
        <ele>469</ele>
        <time>2010-06-17T10:25:48Z</time>
      </trkpt>
      <trkpt lat="45.55187" lon="4.5805">
        <ele>469</ele>
        <time>2010-06-17T10:25:50Z</time>
      </trkpt>
      <trkpt lat="45.55181" lon="4.58045">
        <ele>470</ele>
        <time>2010-06-17T10:25:52Z</time>
      </trkpt>
      <trkpt lat="45.55174" lon="4.58042">
        <ele>470</ele>
        <time>2010-06-17T10:25:54Z</time>
      </trkpt>
      <trkpt lat="45.55167" lon="4.58038">
        <ele>470</ele>
        <time>2010-06-17T10:25:56Z</time>
      </trkpt>
      <trkpt lat="45.5516" lon="4.58036">
        <ele>470</ele>
        <time>2010-06-17T10:25:58Z</time>
      </trkpt>
      <trkpt lat="45.55152" lon="4.58035">
        <ele>470</ele>
        <time>2010-06-17T10:26:00Z</time>
      </trkpt>
      <trkpt lat="45.55143" lon="4.58035">
        <ele>470</ele>
        <time>2010-06-17T10:26:02Z</time>
      </trkpt>
      <trkpt lat="45.55135" lon="4.58037">
        <ele>470</ele>
        <time>2010-06-17T10:26:04Z</time>
      </trkpt>
      <trkpt lat="45.55127" lon="4.58041">
        <ele>470</ele>
        <time>2010-06-17T10:26:06Z</time>
      </trkpt>
      <trkpt lat="45.55123" lon="4.58043">
        <ele>470</ele>
        <time>2010-06-17T10:26:07Z</time>
      </trkpt>
      <trkpt lat="45.55115" lon="4.58047">
        <ele>469</ele>
        <time>2010-06-17T10:26:09Z</time>
      </trkpt>
      <trkpt lat="45.55106" lon="4.5805">
        <ele>469</ele>
        <time>2010-06-17T10:26:11Z</time>
      </trkpt>
      <trkpt lat="45.55099" lon="4.58054">
        <ele>469</ele>
        <time>2010-06-17T10:26:13Z</time>
      </trkpt>
      <trkpt lat="45.55095" lon="4.58056">
        <ele>468</ele>
        <time>2010-06-17T10:26:14Z</time>
      </trkpt>
      <trkpt lat="45.55084" lon="4.58062">
        <ele>468</ele>
        <time>2010-06-17T10:26:17Z</time>
      </trkpt>
      <trkpt lat="45.55076" lon="4.58067">
        <ele>468</ele>
        <time>2010-06-17T10:26:19Z</time>
      </trkpt>
      <trkpt lat="45.55069" lon="4.58071">
        <ele>469</ele>
        <time>2010-06-17T10:26:21Z</time>
      </trkpt>
      <trkpt lat="45.55062" lon="4.58076">
        <ele>469</ele>
        <time>2010-06-17T10:26:23Z</time>
      </trkpt>
      <trkpt lat="45.55054" lon="4.5808">
        <ele>469</ele>
        <time>2010-06-17T10:26:25Z</time>
      </trkpt>
      <trkpt lat="45.55047" lon="4.58084">
        <ele>462</ele>
        <time>2010-06-17T10:26:27Z</time>
      </trkpt>
      <trkpt lat="45.55039" lon="4.58089">
        <ele>462</ele>
        <time>2010-06-17T10:26:29Z</time>
      </trkpt>
      <trkpt lat="45.55032" lon="4.58094">
        <ele>462</ele>
        <time>2010-06-17T10:26:31Z</time>
      </trkpt>
      <trkpt lat="45.55024" lon="4.58099">
        <ele>463</ele>
        <time>2010-06-17T10:26:33Z</time>
      </trkpt>
      <trkpt lat="45.55017" lon="4.58102">
        <ele>463</ele>
        <time>2010-06-17T10:26:35Z</time>
      </trkpt>
      <trkpt lat="45.55009" lon="4.58107">
        <ele>463</ele>
        <time>2010-06-17T10:26:38Z</time>
      </trkpt>
      <trkpt lat="45.55002" lon="4.58112">
        <ele>462</ele>
        <time>2010-06-17T10:26:42Z</time>
      </trkpt>
      <trkpt lat="45.54995" lon="4.58118">
        <ele>464</ele>
        <time>2010-06-17T10:26:45Z</time>
      </trkpt>
      <trkpt lat="45.54987" lon="4.58122">
        <ele>463</ele>
        <time>2010-06-17T10:26:48Z</time>
      </trkpt>
      <trkpt lat="45.54981" lon="4.58125">
        <ele>463</ele>
        <time>2010-06-17T10:26:50Z</time>
      </trkpt>
      <trkpt lat="45.54975" lon="4.58128">
        <ele>463</ele>
        <time>2010-06-17T10:26:52Z</time>
      </trkpt>
      <trkpt lat="45.54969" lon="4.58131">
        <ele>463</ele>
        <time>2010-06-17T10:26:54Z</time>
      </trkpt>
      <trkpt lat="45.54963" lon="4.58134">
        <ele>463</ele>
        <time>2010-06-17T10:26:56Z</time>
      </trkpt>
      <trkpt lat="45.54955" lon="4.58137">
        <ele>463</ele>
        <time>2010-06-17T10:26:59Z</time>
      </trkpt>
      <trkpt lat="45.54948" lon="4.5814">
        <ele>463</ele>
        <time>2010-06-17T10:27:02Z</time>
      </trkpt>
      <trkpt lat="45.54939" lon="4.58143">
        <ele>463</ele>
        <time>2010-06-17T10:27:05Z</time>
      </trkpt>
      <trkpt lat="45.54931" lon="4.58144">
        <ele>463</ele>
        <time>2010-06-17T10:27:08Z</time>
      </trkpt>
      <trkpt lat="45.54923" lon="4.58146">
        <ele>463</ele>
        <time>2010-06-17T10:27:11Z</time>
      </trkpt>
      <trkpt lat="45.54915" lon="4.58147">
        <ele>464</ele>
        <time>2010-06-17T10:27:14Z</time>
      </trkpt>
      <trkpt lat="45.54912" lon="4.58148">
        <ele>464</ele>
        <time>2010-06-17T10:27:15Z</time>
      </trkpt>
      <trkpt lat="45.54903" lon="4.58148">
        <ele>465</ele>
        <time>2010-06-17T10:27:18Z</time>
      </trkpt>
      <trkpt lat="45.54896" lon="4.58148">
        <ele>465</ele>
        <time>2010-06-17T10:27:20Z</time>
      </trkpt>
      <trkpt lat="45.5489" lon="4.58147">
        <ele>465</ele>
        <time>2010-06-17T10:27:22Z</time>
      </trkpt>
      <trkpt lat="45.54882" lon="4.58146">
        <ele>466</ele>
        <time>2010-06-17T10:27:24Z</time>
      </trkpt>
      <trkpt lat="45.54876" lon="4.58144">
        <ele>466</ele>
        <time>2010-06-17T10:27:26Z</time>
      </trkpt>
      <trkpt lat="45.5487" lon="4.58143">
        <ele>466</ele>
        <time>2010-06-17T10:27:28Z</time>
      </trkpt>
      <trkpt lat="45.54864" lon="4.58141">
        <ele>466</ele>
        <time>2010-06-17T10:27:30Z</time>
      </trkpt>
      <trkpt lat="45.54855" lon="4.58138">
        <ele>466</ele>
        <time>2010-06-17T10:27:33Z</time>
      </trkpt>
      <trkpt lat="45.54847" lon="4.58136">
        <ele>466</ele>
        <time>2010-06-17T10:27:36Z</time>
      </trkpt>
      <trkpt lat="45.5484" lon="4.58132">
        <ele>466</ele>
        <time>2010-06-17T10:27:39Z</time>
      </trkpt>
      <trkpt lat="45.54832" lon="4.58131">
        <ele>467</ele>
        <time>2010-06-17T10:27:42Z</time>
      </trkpt>
      <trkpt lat="45.54824" lon="4.58129">
        <ele>467</ele>
        <time>2010-06-17T10:27:45Z</time>
      </trkpt>
      <trkpt lat="45.54815" lon="4.58127">
        <ele>467</ele>
        <time>2010-06-17T10:27:48Z</time>
      </trkpt>
      <trkpt lat="45.54809" lon="4.58125">
        <ele>467</ele>
        <time>2010-06-17T10:27:50Z</time>
      </trkpt>
      <trkpt lat="45.54802" lon="4.58123">
        <ele>467</ele>
        <time>2010-06-17T10:27:52Z</time>
      </trkpt>
      <trkpt lat="45.54795" lon="4.58122">
        <ele>467</ele>
        <time>2010-06-17T10:27:54Z</time>
      </trkpt>
      <trkpt lat="45.54788" lon="4.5812">
        <ele>467</ele>
        <time>2010-06-17T10:27:56Z</time>
      </trkpt>
      <trkpt lat="45.54782" lon="4.58118">
        <ele>467</ele>
        <time>2010-06-17T10:27:58Z</time>
      </trkpt>
      <trkpt lat="45.54775" lon="4.58116">
        <ele>468</ele>
        <time>2010-06-17T10:28:00Z</time>
      </trkpt>
      <trkpt lat="45.54769" lon="4.58114">
        <ele>468</ele>
        <time>2010-06-17T10:28:02Z</time>
      </trkpt>
      <trkpt lat="45.54762" lon="4.58112">
        <ele>468</ele>
        <time>2010-06-17T10:28:04Z</time>
      </trkpt>
      <trkpt lat="45.54756" lon="4.5811">
        <ele>468</ele>
        <time>2010-06-17T10:28:06Z</time>
      </trkpt>
      <trkpt lat="45.54749" lon="4.58108">
        <ele>467</ele>
        <time>2010-06-17T10:28:08Z</time>
      </trkpt>
      <trkpt lat="45.54743" lon="4.58106">
        <ele>467</ele>
        <time>2010-06-17T10:28:10Z</time>
      </trkpt>
      <trkpt lat="45.54736" lon="4.58103">
        <ele>467</ele>
        <time>2010-06-17T10:28:12Z</time>
      </trkpt>
      <trkpt lat="45.5473" lon="4.581">
        <ele>467</ele>
        <time>2010-06-17T10:28:14Z</time>
      </trkpt>
      <trkpt lat="45.54723" lon="4.58096">
        <ele>467</ele>
        <time>2010-06-17T10:28:16Z</time>
      </trkpt>
      <trkpt lat="45.5472" lon="4.58093">
        <ele>467</ele>
        <time>2010-06-17T10:28:17Z</time>
      </trkpt>
      <trkpt lat="45.54712" lon="4.58086">
        <ele>467</ele>
        <time>2010-06-17T10:28:20Z</time>
      </trkpt>
      <trkpt lat="45.54706" lon="4.5808">
        <ele>471</ele>
        <time>2010-06-17T10:28:22Z</time>
      </trkpt>
      <trkpt lat="45.54701" lon="4.58073">
        <ele>471</ele>
        <time>2010-06-17T10:28:24Z</time>
      </trkpt>
      <trkpt lat="45.54696" lon="4.58066">
        <ele>471</ele>
        <time>2010-06-17T10:28:26Z</time>
      </trkpt>
      <trkpt lat="45.54691" lon="4.58058">
        <ele>471</ele>
        <time>2010-06-17T10:28:28Z</time>
      </trkpt>
      <trkpt lat="45.54687" lon="4.5805">
        <ele>471</ele>
        <time>2010-06-17T10:28:30Z</time>
      </trkpt>
      <trkpt lat="45.54684" lon="4.58042">
        <ele>472</ele>
        <time>2010-06-17T10:28:32Z</time>
      </trkpt>
      <trkpt lat="45.54681" lon="4.58034">
        <ele>472</ele>
        <time>2010-06-17T10:28:34Z</time>
      </trkpt>
      <trkpt lat="45.54679" lon="4.58025">
        <ele>472</ele>
        <time>2010-06-17T10:28:36Z</time>
      </trkpt>
      <trkpt lat="45.54677" lon="4.58016">
        <ele>472</ele>
        <time>2010-06-17T10:28:38Z</time>
      </trkpt>
      <trkpt lat="45.54674" lon="4.58004">
        <ele>472</ele>
        <time>2010-06-17T10:28:41Z</time>
      </trkpt>
      <trkpt lat="45.54673" lon="4.57994">
        <ele>473</ele>
        <time>2010-06-17T10:28:44Z</time>
      </trkpt>
      <trkpt lat="45.54672" lon="4.57984">
        <ele>473</ele>
        <time>2010-06-17T10:28:47Z</time>
      </trkpt>
      <trkpt lat="45.54672" lon="4.57973">
        <ele>474</ele>
        <time>2010-06-17T10:28:50Z</time>
      </trkpt>
      <trkpt lat="45.54675" lon="4.57961">
        <ele>474</ele>
        <time>2010-06-17T10:28:54Z</time>
      </trkpt>
      <trkpt lat="45.54677" lon="4.57949">
        <ele>474</ele>
        <time>2010-06-17T10:28:58Z</time>
      </trkpt>
      <trkpt lat="45.54671" lon="4.57942">
        <ele>474</ele>
        <time>2010-06-17T10:29:01Z</time>
      </trkpt>
      <trkpt lat="45.54664" lon="4.57947">
        <ele>468</ele>
        <time>2010-06-17T10:29:03Z</time>
      </trkpt>
      <trkpt lat="45.54659" lon="4.57951">
        <ele>468</ele>
        <time>2010-06-17T10:29:04Z</time>
      </trkpt>
      <trkpt lat="45.54655" lon="4.57955">
        <ele>468</ele>
        <time>2010-06-17T10:29:05Z</time>
      </trkpt>
      <trkpt lat="45.5465" lon="4.57959">
        <ele>467</ele>
        <time>2010-06-17T10:29:06Z</time>
      </trkpt>
      <trkpt lat="45.54644" lon="4.57963">
        <ele>467</ele>
        <time>2010-06-17T10:29:07Z</time>
      </trkpt>
      <trkpt lat="45.54638" lon="4.57968">
        <ele>467</ele>
        <time>2010-06-17T10:29:08Z</time>
      </trkpt>
      <trkpt lat="45.54632" lon="4.57972">
        <ele>467</ele>
        <time>2010-06-17T10:29:09Z</time>
      </trkpt>
      <trkpt lat="45.54628" lon="4.57976">
        <ele>466</ele>
        <time>2010-06-17T10:29:10Z</time>
      </trkpt>
      <trkpt lat="45.54621" lon="4.5798">
        <ele>466</ele>
        <time>2010-06-17T10:29:12Z</time>
      </trkpt>
      <trkpt lat="45.54614" lon="4.57975">
        <ele>465</ele>
        <time>2010-06-17T10:29:19Z</time>
      </trkpt>
      <trkpt lat="45.54613" lon="4.57973">
        <ele>465</ele>
        <time>2010-06-17T10:29:20Z</time>
      </trkpt>
      <trkpt lat="45.54607" lon="4.57955">
        <ele>465</ele>
        <time>2010-06-17T10:29:26Z</time>
      </trkpt>
      <trkpt lat="45.54605" lon="4.57945">
        <ele>465</ele>
        <time>2010-06-17T10:29:28Z</time>
      </trkpt>
      <trkpt lat="45.54604" lon="4.57933">
        <ele>464</ele>
        <time>2010-06-17T10:29:30Z</time>
      </trkpt>
      <trkpt lat="45.54604" lon="4.57927">
        <ele>464</ele>
        <time>2010-06-17T10:29:31Z</time>
      </trkpt>
      <trkpt lat="45.54604" lon="4.5792">
        <ele>464</ele>
        <time>2010-06-17T10:29:32Z</time>
      </trkpt>
      <trkpt lat="45.54605" lon="4.57912">
        <ele>461</ele>
        <time>2010-06-17T10:29:33Z</time>
      </trkpt>
      <trkpt lat="45.54606" lon="4.57904">
        <ele>461</ele>
        <time>2010-06-17T10:29:34Z</time>
      </trkpt>
      <trkpt lat="45.54608" lon="4.57896">
        <ele>461</ele>
        <time>2010-06-17T10:29:35Z</time>
      </trkpt>
      <trkpt lat="45.5461" lon="4.57887">
        <ele>461</ele>
        <time>2010-06-17T10:29:36Z</time>
      </trkpt>
      <trkpt lat="45.54612" lon="4.57878">
        <ele>461</ele>
        <time>2010-06-17T10:29:37Z</time>
      </trkpt>
      <trkpt lat="45.54614" lon="4.57868">
        <ele>461</ele>
        <time>2010-06-17T10:29:38Z</time>
      </trkpt>
      <trkpt lat="45.54616" lon="4.57858">
        <ele>460</ele>
        <time>2010-06-17T10:29:39Z</time>
      </trkpt>
      <trkpt lat="45.54619" lon="4.57848">
        <ele>460</ele>
        <time>2010-06-17T10:29:40Z</time>
      </trkpt>
      <trkpt lat="45.54622" lon="4.57839">
        <ele>460</ele>
        <time>2010-06-17T10:29:41Z</time>
      </trkpt>
      <trkpt lat="45.54626" lon="4.57829">
        <ele>455</ele>
        <time>2010-06-17T10:29:42Z</time>
      </trkpt>
      <trkpt lat="45.54631" lon="4.5782">
        <ele>455</ele>
        <time>2010-06-17T10:29:43Z</time>
      </trkpt>
      <trkpt lat="45.54636" lon="4.57811">
        <ele>455</ele>
        <time>2010-06-17T10:29:44Z</time>
      </trkpt>
      <trkpt lat="45.54642" lon="4.57803">
        <ele>455</ele>
        <time>2010-06-17T10:29:45Z</time>
      </trkpt>
      <trkpt lat="45.54648" lon="4.57794">
        <ele>455</ele>
        <time>2010-06-17T10:29:46Z</time>
      </trkpt>
      <trkpt lat="45.54653" lon="4.57787">
        <ele>454</ele>
        <time>2010-06-17T10:29:47Z</time>
      </trkpt>
      <trkpt lat="45.54659" lon="4.57781">
        <ele>454</ele>
        <time>2010-06-17T10:29:48Z</time>
      </trkpt>
      <trkpt lat="45.54664" lon="4.57775">
        <ele>454</ele>
        <time>2010-06-17T10:29:49Z</time>
      </trkpt>
      <trkpt lat="45.54668" lon="4.57771">
        <ele>459</ele>
        <time>2010-06-17T10:29:50Z</time>
      </trkpt>
      <trkpt lat="45.54672" lon="4.57762">
        <ele>458</ele>
        <time>2010-06-17T10:29:52Z</time>
      </trkpt>
      <trkpt lat="45.54665" lon="4.57754">
        <ele>454</ele>
        <time>2010-06-17T10:29:56Z</time>
      </trkpt>
      <trkpt lat="45.54658" lon="4.5776">
        <ele>454</ele>
        <time>2010-06-17T10:29:58Z</time>
      </trkpt>
      <trkpt lat="45.54654" lon="4.57763">
        <ele>453</ele>
        <time>2010-06-17T10:29:59Z</time>
      </trkpt>
      <trkpt lat="45.5465" lon="4.57766">
        <ele>453</ele>
        <time>2010-06-17T10:30:00Z</time>
      </trkpt>
      <trkpt lat="45.54646" lon="4.57769">
        <ele>453</ele>
        <time>2010-06-17T10:30:01Z</time>
      </trkpt>
      <trkpt lat="45.54642" lon="4.57773">
        <ele>453</ele>
        <time>2010-06-17T10:30:02Z</time>
      </trkpt>
      <trkpt lat="45.54638" lon="4.57777">
        <ele>453</ele>
        <time>2010-06-17T10:30:03Z</time>
      </trkpt>
      <trkpt lat="45.54634" lon="4.57781">
        <ele>453</ele>
        <time>2010-06-17T10:30:04Z</time>
      </trkpt>
      <trkpt lat="45.54629" lon="4.57784">
        <ele>453</ele>
        <time>2010-06-17T10:30:05Z</time>
      </trkpt>
      <trkpt lat="45.54625" lon="4.57788">
        <ele>453</ele>
        <time>2010-06-17T10:30:06Z</time>
      </trkpt>
      <trkpt lat="45.5462" lon="4.57792">
        <ele>453</ele>
        <time>2010-06-17T10:30:07Z</time>
      </trkpt>
      <trkpt lat="45.54616" lon="4.57796">
        <ele>453</ele>
        <time>2010-06-17T10:30:08Z</time>
      </trkpt>
      <trkpt lat="45.54611" lon="4.578">
        <ele>453</ele>
        <time>2010-06-17T10:30:09Z</time>
      </trkpt>
      <trkpt lat="45.54607" lon="4.57804">
        <ele>452</ele>
        <time>2010-06-17T10:30:10Z</time>
      </trkpt>
      <trkpt lat="45.54602" lon="4.57808">
        <ele>452</ele>
        <time>2010-06-17T10:30:11Z</time>
      </trkpt>
      <trkpt lat="45.54597" lon="4.57813">
        <ele>452</ele>
        <time>2010-06-17T10:30:12Z</time>
      </trkpt>
      <trkpt lat="45.54592" lon="4.57818">
        <ele>452</ele>
        <time>2010-06-17T10:30:13Z</time>
      </trkpt>
      <trkpt lat="45.54587" lon="4.57822">
        <ele>452</ele>
        <time>2010-06-17T10:30:14Z</time>
      </trkpt>
      <trkpt lat="45.54582" lon="4.57827">
        <ele>450</ele>
        <time>2010-06-17T10:30:15Z</time>
      </trkpt>
      <trkpt lat="45.54577" lon="4.57832">
        <ele>450</ele>
        <time>2010-06-17T10:30:16Z</time>
      </trkpt>
      <trkpt lat="45.54572" lon="4.57836">
        <ele>451</ele>
        <time>2010-06-17T10:30:17Z</time>
      </trkpt>
      <trkpt lat="45.54567" lon="4.5784">
        <ele>451</ele>
        <time>2010-06-17T10:30:18Z</time>
      </trkpt>
      <trkpt lat="45.54562" lon="4.57845">
        <ele>450</ele>
        <time>2010-06-17T10:30:19Z</time>
      </trkpt>
      <trkpt lat="45.54556" lon="4.57849">
        <ele>450</ele>
        <time>2010-06-17T10:30:20Z</time>
      </trkpt>
      <trkpt lat="45.54551" lon="4.57854">
        <ele>450</ele>
        <time>2010-06-17T10:30:21Z</time>
      </trkpt>
      <trkpt lat="45.54546" lon="4.57859">
        <ele>449</ele>
        <time>2010-06-17T10:30:22Z</time>
      </trkpt>
      <trkpt lat="45.54541" lon="4.57865">
        <ele>449</ele>
        <time>2010-06-17T10:30:23Z</time>
      </trkpt>
      <trkpt lat="45.54537" lon="4.5787">
        <ele>449</ele>
        <time>2010-06-17T10:30:24Z</time>
      </trkpt>
      <trkpt lat="45.54532" lon="4.57876">
        <ele>449</ele>
        <time>2010-06-17T10:30:25Z</time>
      </trkpt>
      <trkpt lat="45.54529" lon="4.57882">
        <ele>449</ele>
        <time>2010-06-17T10:30:26Z</time>
      </trkpt>
      <trkpt lat="45.54526" lon="4.57889">
        <ele>449</ele>
        <time>2010-06-17T10:30:27Z</time>
      </trkpt>
      <trkpt lat="45.54523" lon="4.57897">
        <ele>448</ele>
        <time>2010-06-17T10:30:28Z</time>
      </trkpt>
      <trkpt lat="45.54521" lon="4.57904">
        <ele>448</ele>
        <time>2010-06-17T10:30:29Z</time>
      </trkpt>
      <trkpt lat="45.5452" lon="4.57913">
        <ele>448</ele>
        <time>2010-06-17T10:30:30Z</time>
      </trkpt>
      <trkpt lat="45.54519" lon="4.57921">
        <ele>450</ele>
        <time>2010-06-17T10:30:31Z</time>
      </trkpt>
      <trkpt lat="45.54519" lon="4.5793">
        <ele>450</ele>
        <time>2010-06-17T10:30:32Z</time>
      </trkpt>
      <trkpt lat="45.54519" lon="4.57939">
        <ele>451</ele>
        <time>2010-06-17T10:30:33Z</time>
      </trkpt>
      <trkpt lat="45.5452" lon="4.57948">
        <ele>452</ele>
        <time>2010-06-17T10:30:34Z</time>
      </trkpt>
      <trkpt lat="45.5452" lon="4.57957">
        <ele>452</ele>
        <time>2010-06-17T10:30:35Z</time>
      </trkpt>
      <trkpt lat="45.5452" lon="4.57967">
        <ele>452</ele>
        <time>2010-06-17T10:30:36Z</time>
      </trkpt>
      <trkpt lat="45.5452" lon="4.57976">
        <ele>452</ele>
        <time>2010-06-17T10:30:37Z</time>
      </trkpt>
      <trkpt lat="45.54519" lon="4.57986">
        <ele>452</ele>
        <time>2010-06-17T10:30:38Z</time>
      </trkpt>
      <trkpt lat="45.54519" lon="4.57995">
        <ele>452</ele>
        <time>2010-06-17T10:30:39Z</time>
      </trkpt>
      <trkpt lat="45.54518" lon="4.58005">
        <ele>453</ele>
        <time>2010-06-17T10:30:40Z</time>
      </trkpt>
      <trkpt lat="45.54517" lon="4.58014">
        <ele>453</ele>
        <time>2010-06-17T10:30:41Z</time>
      </trkpt>
      <trkpt lat="45.54515" lon="4.58024">
        <ele>453</ele>
        <time>2010-06-17T10:30:42Z</time>
      </trkpt>
      <trkpt lat="45.54513" lon="4.58033">
        <ele>454</ele>
        <time>2010-06-17T10:30:43Z</time>
      </trkpt>
      <trkpt lat="45.5451" lon="4.58042">
        <ele>454</ele>
        <time>2010-06-17T10:30:44Z</time>
      </trkpt>
      <trkpt lat="45.54506" lon="4.58051">
        <ele>454</ele>
        <time>2010-06-17T10:30:45Z</time>
      </trkpt>
      <trkpt lat="45.54502" lon="4.58059">
        <ele>454</ele>
        <time>2010-06-17T10:30:46Z</time>
      </trkpt>
      <trkpt lat="45.54498" lon="4.58067">
        <ele>450</ele>
        <time>2010-06-17T10:30:47Z</time>
      </trkpt>
      <trkpt lat="45.54494" lon="4.58075">
        <ele>451</ele>
        <time>2010-06-17T10:30:48Z</time>
      </trkpt>
      <trkpt lat="45.54489" lon="4.58083">
        <ele>451</ele>
        <time>2010-06-17T10:30:49Z</time>
      </trkpt>
      <trkpt lat="45.54485" lon="4.58091">
        <ele>451</ele>
        <time>2010-06-17T10:30:50Z</time>
      </trkpt>
      <trkpt lat="45.5448" lon="4.58098">
        <ele>451</ele>
        <time>2010-06-17T10:30:51Z</time>
      </trkpt>
      <trkpt lat="45.54476" lon="4.58106">
        <ele>450</ele>
        <time>2010-06-17T10:30:52Z</time>
      </trkpt>
      <trkpt lat="45.54471" lon="4.58114">
        <ele>450</ele>
        <time>2010-06-17T10:30:53Z</time>
      </trkpt>
      <trkpt lat="45.54467" lon="4.58122">
        <ele>450</ele>
        <time>2010-06-17T10:30:54Z</time>
      </trkpt>
      <trkpt lat="45.54463" lon="4.5813">
        <ele>450</ele>
        <time>2010-06-17T10:30:55Z</time>
      </trkpt>
      <trkpt lat="45.5446" lon="4.58139">
        <ele>449</ele>
        <time>2010-06-17T10:30:56Z</time>
      </trkpt>
      <trkpt lat="45.54457" lon="4.58148">
        <ele>449</ele>
        <time>2010-06-17T10:30:57Z</time>
      </trkpt>
      <trkpt lat="45.54455" lon="4.58158">
        <ele>449</ele>
        <time>2010-06-17T10:30:58Z</time>
      </trkpt>
      <trkpt lat="45.54454" lon="4.58168">
        <ele>447</ele>
        <time>2010-06-17T10:30:59Z</time>
      </trkpt>
      <trkpt lat="45.54454" lon="4.58179">
        <ele>447</ele>
        <time>2010-06-17T10:31:00Z</time>
      </trkpt>
      <trkpt lat="45.54455" lon="4.58191">
        <ele>447</ele>
        <time>2010-06-17T10:31:01Z</time>
      </trkpt>
      <trkpt lat="45.54457" lon="4.58202">
        <ele>446</ele>
        <time>2010-06-17T10:31:02Z</time>
      </trkpt>
      <trkpt lat="45.5446" lon="4.58212">
        <ele>446</ele>
        <time>2010-06-17T10:31:03Z</time>
      </trkpt>
      <trkpt lat="45.54464" lon="4.58222">
        <ele>446</ele>
        <time>2010-06-17T10:31:04Z</time>
      </trkpt>
      <trkpt lat="45.5447" lon="4.58232">
        <ele>445</ele>
        <time>2010-06-17T10:31:05Z</time>
      </trkpt>
      <trkpt lat="45.54476" lon="4.58241">
        <ele>445</ele>
        <time>2010-06-17T10:31:06Z</time>
      </trkpt>
      <trkpt lat="45.54483" lon="4.58248">
        <ele>445</ele>
        <time>2010-06-17T10:31:07Z</time>
      </trkpt>
      <trkpt lat="45.54491" lon="4.58254">
        <ele>443</ele>
        <time>2010-06-17T10:31:08Z</time>
      </trkpt>
      <trkpt lat="45.54499" lon="4.58259">
        <ele>443</ele>
        <time>2010-06-17T10:31:09Z</time>
      </trkpt>
      <trkpt lat="45.54508" lon="4.58263">
        <ele>442</ele>
        <time>2010-06-17T10:31:10Z</time>
      </trkpt>
      <trkpt lat="45.54516" lon="4.58268">
        <ele>441</ele>
        <time>2010-06-17T10:31:11Z</time>
      </trkpt>
      <trkpt lat="45.54525" lon="4.58272">
        <ele>441</ele>
        <time>2010-06-17T10:31:12Z</time>
      </trkpt>
      <trkpt lat="45.54533" lon="4.58277">
        <ele>440</ele>
        <time>2010-06-17T10:31:13Z</time>
      </trkpt>
      <trkpt lat="45.54542" lon="4.58281">
        <ele>440</ele>
        <time>2010-06-17T10:31:14Z</time>
      </trkpt>
      <trkpt lat="45.54551" lon="4.58285">
        <ele>440</ele>
        <time>2010-06-17T10:31:15Z</time>
      </trkpt>
      <trkpt lat="45.5456" lon="4.5829">
        <ele>439</ele>
        <time>2010-06-17T10:31:16Z</time>
      </trkpt>
      <trkpt lat="45.54568" lon="4.58295">
        <ele>439</ele>
        <time>2010-06-17T10:31:17Z</time>
      </trkpt>
      <trkpt lat="45.54577" lon="4.583">
        <ele>438</ele>
        <time>2010-06-17T10:31:18Z</time>
      </trkpt>
      <trkpt lat="45.54586" lon="4.58304">
        <ele>439</ele>
        <time>2010-06-17T10:31:19Z</time>
      </trkpt>
      <trkpt lat="45.54594" lon="4.58309">
        <ele>438</ele>
        <time>2010-06-17T10:31:20Z</time>
      </trkpt>
      <trkpt lat="45.54603" lon="4.58313">
        <ele>438</ele>
        <time>2010-06-17T10:31:21Z</time>
      </trkpt>
      <trkpt lat="45.54612" lon="4.58318">
        <ele>438</ele>
        <time>2010-06-17T10:31:22Z</time>
      </trkpt>
      <trkpt lat="45.54621" lon="4.58322">
        <ele>438</ele>
        <time>2010-06-17T10:31:23Z</time>
      </trkpt>
      <trkpt lat="45.5463" lon="4.58325">
        <ele>439</ele>
        <time>2010-06-17T10:31:24Z</time>
      </trkpt>
      <trkpt lat="45.54639" lon="4.58328">
        <ele>438</ele>
        <time>2010-06-17T10:31:25Z</time>
      </trkpt>
      <trkpt lat="45.54648" lon="4.5833">
        <ele>438</ele>
        <time>2010-06-17T10:31:26Z</time>
      </trkpt>
      <trkpt lat="45.54657" lon="4.58332">
        <ele>437</ele>
        <time>2010-06-17T10:31:27Z</time>
      </trkpt>
      <trkpt lat="45.54667" lon="4.58334">
        <ele>436</ele>
        <time>2010-06-17T10:31:28Z</time>
      </trkpt>
      <trkpt lat="45.54676" lon="4.58335">
        <ele>434</ele>
        <time>2010-06-17T10:31:29Z</time>
      </trkpt>
      <trkpt lat="45.54685" lon="4.58337">
        <ele>433</ele>
        <time>2010-06-17T10:31:30Z</time>
      </trkpt>
      <trkpt lat="45.54695" lon="4.58338">
        <ele>432</ele>
        <time>2010-06-17T10:31:31Z</time>
      </trkpt>
      <trkpt lat="45.54704" lon="4.58339">
        <ele>432</ele>
        <time>2010-06-17T10:31:32Z</time>
      </trkpt>
      <trkpt lat="45.54713" lon="4.5834">
        <ele>432</ele>
        <time>2010-06-17T10:31:33Z</time>
      </trkpt>
      <trkpt lat="45.54722" lon="4.58341">
        <ele>432</ele>
        <time>2010-06-17T10:31:34Z</time>
      </trkpt>
      <trkpt lat="45.54732" lon="4.58342">
        <ele>433</ele>
        <time>2010-06-17T10:31:35Z</time>
      </trkpt>
      <trkpt lat="45.54741" lon="4.58344">
        <ele>434</ele>
        <time>2010-06-17T10:31:36Z</time>
      </trkpt>
      <trkpt lat="45.5475" lon="4.58346">
        <ele>435</ele>
        <time>2010-06-17T10:31:37Z</time>
      </trkpt>
      <trkpt lat="45.54759" lon="4.58347">
        <ele>434</ele>
        <time>2010-06-17T10:31:38Z</time>
      </trkpt>
      <trkpt lat="45.54768" lon="4.58348">
        <ele>433</ele>
        <time>2010-06-17T10:31:39Z</time>
      </trkpt>
      <trkpt lat="45.54777" lon="4.58349">
        <ele>433</ele>
        <time>2010-06-17T10:31:40Z</time>
      </trkpt>
      <trkpt lat="45.54786" lon="4.58351">
        <ele>432</ele>
        <time>2010-06-17T10:31:41Z</time>
      </trkpt>
      <trkpt lat="45.54795" lon="4.58353">
        <ele>432</ele>
        <time>2010-06-17T10:31:42Z</time>
      </trkpt>
      <trkpt lat="45.54804" lon="4.58357">
        <ele>432</ele>
        <time>2010-06-17T10:31:43Z</time>
      </trkpt>
      <trkpt lat="45.54812" lon="4.58362">
        <ele>432</ele>
        <time>2010-06-17T10:31:44Z</time>
      </trkpt>
      <trkpt lat="45.54821" lon="4.58368">
        <ele>431</ele>
        <time>2010-06-17T10:31:45Z</time>
      </trkpt>
      <trkpt lat="45.54829" lon="4.58374">
        <ele>430</ele>
        <time>2010-06-17T10:31:46Z</time>
      </trkpt>
      <trkpt lat="45.54836" lon="4.58382">
        <ele>431</ele>
        <time>2010-06-17T10:31:47Z</time>
      </trkpt>
      <trkpt lat="45.54844" lon="4.5839">
        <ele>430</ele>
        <time>2010-06-17T10:31:48Z</time>
      </trkpt>
      <trkpt lat="45.5485" lon="4.58399">
        <ele>429</ele>
        <time>2010-06-17T10:31:49Z</time>
      </trkpt>
      <trkpt lat="45.54856" lon="4.58407">
        <ele>429</ele>
        <time>2010-06-17T10:31:50Z</time>
      </trkpt>
      <trkpt lat="45.54861" lon="4.58414">
        <ele>429</ele>
        <time>2010-06-17T10:31:51Z</time>
      </trkpt>
      <trkpt lat="45.54867" lon="4.58421">
        <ele>426</ele>
        <time>2010-06-17T10:31:52Z</time>
      </trkpt>
      <trkpt lat="45.54872" lon="4.58426">
        <ele>426</ele>
        <time>2010-06-17T10:31:53Z</time>
      </trkpt>
      <trkpt lat="45.54877" lon="4.5843">
        <ele>426</ele>
        <time>2010-06-17T10:31:54Z</time>
      </trkpt>
      <trkpt lat="45.54883" lon="4.58433">
        <ele>426</ele>
        <time>2010-06-17T10:31:55Z</time>
      </trkpt>
      <trkpt lat="45.54888" lon="4.58435">
        <ele>426</ele>
        <time>2010-06-17T10:31:56Z</time>
      </trkpt>
      <trkpt lat="45.54894" lon="4.58435">
        <ele>427</ele>
        <time>2010-06-17T10:31:57Z</time>
      </trkpt>
      <trkpt lat="45.54899" lon="4.58435">
        <ele>427</ele>
        <time>2010-06-17T10:31:58Z</time>
      </trkpt>
      <trkpt lat="45.54904" lon="4.58434">
        <ele>427</ele>
        <time>2010-06-17T10:31:59Z</time>
      </trkpt>
      <trkpt lat="45.54909" lon="4.58433">
        <ele>427</ele>
        <time>2010-06-17T10:32:00Z</time>
      </trkpt>
      <trkpt lat="45.54914" lon="4.58432">
        <ele>428</ele>
        <time>2010-06-17T10:32:01Z</time>
      </trkpt>
      <trkpt lat="45.54919" lon="4.58431">
        <ele>431</ele>
        <time>2010-06-17T10:32:02Z</time>
      </trkpt>
      <trkpt lat="45.54924" lon="4.58429">
        <ele>431</ele>
        <time>2010-06-17T10:32:03Z</time>
      </trkpt>
      <trkpt lat="45.54928" lon="4.58427">
        <ele>431</ele>
        <time>2010-06-17T10:32:04Z</time>
      </trkpt>
      <trkpt lat="45.54933" lon="4.58426">
        <ele>432</ele>
        <time>2010-06-17T10:32:05Z</time>
      </trkpt>
      <trkpt lat="45.54938" lon="4.58426">
        <ele>432</ele>
        <time>2010-06-17T10:32:06Z</time>
      </trkpt>
      <trkpt lat="45.54946" lon="4.58431">
        <ele>433</ele>
        <time>2010-06-17T10:32:08Z</time>
      </trkpt>
      <trkpt lat="45.54949" lon="4.5844">
        <ele>433</ele>
        <time>2010-06-17T10:32:10Z</time>
      </trkpt>
      <trkpt lat="45.54949" lon="4.58451">
        <ele>433</ele>
        <time>2010-06-17T10:32:13Z</time>
      </trkpt>
      <trkpt lat="45.54945" lon="4.58462">
        <ele>433</ele>
        <time>2010-06-17T10:32:17Z</time>
      </trkpt>
      <trkpt lat="45.54944" lon="4.58475">
        <ele>433</ele>
        <time>2010-06-17T10:32:34Z</time>
      </trkpt>
      <trkpt lat="45.54944" lon="4.58475">
        <ele>432</ele>
        <time>2010-06-17T10:32:35Z</time>
      </trkpt>
    </trkseg>
  </trk>
</gpx>